<?xml version="1.0" encoding="UTF-8" standalone="no" ?>
<gpx xmlns="http://www.topografix.com/GPX/1/1" xmlns:xsi="http://www.w3.org/2001/XMLSchema-instance" xsi:schemaLocation="http://www.topografix.com/GPX/1/1 http://www.topografix.com/GPX/1/1/gpx.xsd" version="1.1" creator="VisuGPX - https://www.visugpx.com">
  <metadata>
    <name>forêt d'Avaise</name>
    <desc><![CDATA[Trace AlpineQuest 30/09/2020 07h36:40]]></desc>
  </metadata>
  <trk>
    <name><![CDATA[forêt d'Avaise_1]]></name>
    <trkseg>
      <trkpt lat="46.53778" lon="4.53353">
        <ele>243.60000610352</ele>
        <time>2020-09-30T05:36:40Z</time>
      </trkpt>
      <trkpt lat="46.53773" lon="4.53345">
        <ele>241.60000610352</ele>
        <time>2020-09-30T05:36:53Z</time>
      </trkpt>
      <trkpt lat="46.53772" lon="4.53336">
        <ele>242.60000610352</ele>
        <time>2020-09-30T05:37:13Z</time>
      </trkpt>
      <trkpt lat="46.53765" lon="4.53328">
        <ele>242.60000610352</ele>
        <time>2020-09-30T05:37:18Z</time>
      </trkpt>
      <trkpt lat="46.53757" lon="4.53327">
        <ele>244.60000610352</ele>
        <time>2020-09-30T05:37:27Z</time>
      </trkpt>
      <trkpt lat="46.53749" lon="4.53326">
        <ele>244.60000610352</ele>
        <time>2020-09-30T05:37:32Z</time>
      </trkpt>
      <trkpt lat="46.53741" lon="4.53327">
        <ele>250.60000610352</ele>
        <time>2020-09-30T05:37:38Z</time>
      </trkpt>
      <trkpt lat="46.53734" lon="4.53327">
        <ele>249.60000610352</ele>
        <time>2020-09-30T05:37:43Z</time>
      </trkpt>
      <trkpt lat="46.53725" lon="4.53327">
        <ele>251.60000610352</ele>
        <time>2020-09-30T05:37:48Z</time>
      </trkpt>
      <trkpt lat="46.53718" lon="4.53326">
        <ele>256.60000610352</ele>
        <time>2020-09-30T05:37:53Z</time>
      </trkpt>
      <trkpt lat="46.53707" lon="4.53324">
        <ele>252.60000610352</ele>
        <time>2020-09-30T05:37:58Z</time>
      </trkpt>
      <trkpt lat="46.537" lon="4.53326">
        <ele>250.60000610352</ele>
        <time>2020-09-30T05:38:03Z</time>
      </trkpt>
      <trkpt lat="46.53693" lon="4.53326">
        <ele>248.60000610352</ele>
        <time>2020-09-30T05:38:08Z</time>
      </trkpt>
      <trkpt lat="46.53684" lon="4.53325">
        <ele>242.60000610352</ele>
        <time>2020-09-30T05:38:13Z</time>
      </trkpt>
      <trkpt lat="46.53678" lon="4.53324">
        <ele>242.60000610352</ele>
        <time>2020-09-30T05:38:18Z</time>
      </trkpt>
      <trkpt lat="46.5367" lon="4.53323">
        <ele>240.60000610352</ele>
        <time>2020-09-30T05:38:23Z</time>
      </trkpt>
      <trkpt lat="46.53663" lon="4.53322">
        <ele>240.60000610352</ele>
        <time>2020-09-30T05:38:28Z</time>
      </trkpt>
      <trkpt lat="46.53656" lon="4.53316">
        <ele>238.60000610352</ele>
        <time>2020-09-30T05:38:33Z</time>
      </trkpt>
      <trkpt lat="46.53647" lon="4.5331">
        <ele>237.60000610352</ele>
        <time>2020-09-30T05:38:38Z</time>
      </trkpt>
      <trkpt lat="46.53637" lon="4.53301">
        <ele>236.60000610352</ele>
        <time>2020-09-30T05:38:43Z</time>
      </trkpt>
      <trkpt lat="46.53629" lon="4.53299">
        <ele>238.60000610352</ele>
        <time>2020-09-30T05:38:48Z</time>
      </trkpt>
      <trkpt lat="46.53622" lon="4.53293">
        <ele>234.60000610352</ele>
        <time>2020-09-30T05:38:53Z</time>
      </trkpt>
      <trkpt lat="46.53613" lon="4.53286">
        <ele>232.60000610352</ele>
        <time>2020-09-30T05:38:58Z</time>
      </trkpt>
      <trkpt lat="46.53606" lon="4.53276">
        <ele>231.60000610352</ele>
        <time>2020-09-30T05:39:03Z</time>
      </trkpt>
      <trkpt lat="46.53601" lon="4.5327">
        <ele>232.60000610352</ele>
        <time>2020-09-30T05:39:09Z</time>
      </trkpt>
      <trkpt lat="46.53594" lon="4.53263">
        <ele>231.60000610352</ele>
        <time>2020-09-30T05:39:14Z</time>
      </trkpt>
      <trkpt lat="46.53588" lon="4.53261">
        <ele>229.60000610352</ele>
        <time>2020-09-30T05:39:19Z</time>
      </trkpt>
      <trkpt lat="46.53582" lon="4.53257">
        <ele>229.60000610352</ele>
        <time>2020-09-30T05:39:24Z</time>
      </trkpt>
      <trkpt lat="46.53577" lon="4.53251">
        <ele>230.60000610352</ele>
        <time>2020-09-30T05:39:29Z</time>
      </trkpt>
      <trkpt lat="46.53571" lon="4.53244">
        <ele>231.60000610352</ele>
        <time>2020-09-30T05:39:34Z</time>
      </trkpt>
      <trkpt lat="46.53565" lon="4.53239">
        <ele>233.60000610352</ele>
        <time>2020-09-30T05:39:39Z</time>
      </trkpt>
      <trkpt lat="46.53559" lon="4.53234">
        <ele>238.60000610352</ele>
        <time>2020-09-30T05:39:44Z</time>
      </trkpt>
      <trkpt lat="46.53553" lon="4.53227">
        <ele>241.60000610352</ele>
        <time>2020-09-30T05:39:49Z</time>
      </trkpt>
      <trkpt lat="46.53546" lon="4.53221">
        <ele>241.60000610352</ele>
        <time>2020-09-30T05:39:55Z</time>
      </trkpt>
      <trkpt lat="46.53539" lon="4.53217">
        <ele>241.60000610352</ele>
        <time>2020-09-30T05:40:00Z</time>
      </trkpt>
      <trkpt lat="46.5353" lon="4.53212">
        <ele>239.60000610352</ele>
        <time>2020-09-30T05:40:05Z</time>
      </trkpt>
      <trkpt lat="46.53523" lon="4.53207">
        <ele>239.60000610352</ele>
        <time>2020-09-30T05:40:10Z</time>
      </trkpt>
      <trkpt lat="46.53515" lon="4.53202">
        <ele>240.60000610352</ele>
        <time>2020-09-30T05:40:15Z</time>
      </trkpt>
      <trkpt lat="46.53508" lon="4.532">
        <ele>231.59899902344</ele>
        <time>2020-09-30T05:40:22Z</time>
      </trkpt>
      <trkpt lat="46.535" lon="4.53192">
        <ele>232.59899902344</ele>
        <time>2020-09-30T05:40:27Z</time>
      </trkpt>
      <trkpt lat="46.53494" lon="4.53187">
        <ele>238.59899902344</ele>
        <time>2020-09-30T05:40:35Z</time>
      </trkpt>
      <trkpt lat="46.53488" lon="4.53181">
        <ele>238.59899902344</ele>
        <time>2020-09-30T05:40:40Z</time>
      </trkpt>
      <trkpt lat="46.53481" lon="4.53178">
        <ele>241.59899902344</ele>
        <time>2020-09-30T05:40:46Z</time>
      </trkpt>
      <trkpt lat="46.53472" lon="4.53172">
        <ele>242.59899902344</ele>
        <time>2020-09-30T05:40:52Z</time>
      </trkpt>
      <trkpt lat="46.53465" lon="4.53169">
        <ele>241.59899902344</ele>
        <time>2020-09-30T05:40:57Z</time>
      </trkpt>
      <trkpt lat="46.53457" lon="4.53165">
        <ele>244.59899902344</ele>
        <time>2020-09-30T05:41:03Z</time>
      </trkpt>
      <trkpt lat="46.5345" lon="4.53159">
        <ele>243.59899902344</ele>
        <time>2020-09-30T05:41:08Z</time>
      </trkpt>
      <trkpt lat="46.53443" lon="4.53153">
        <ele>243.59899902344</ele>
        <time>2020-09-30T05:41:13Z</time>
      </trkpt>
      <trkpt lat="46.53436" lon="4.53145">
        <ele>243.59899902344</ele>
        <time>2020-09-30T05:41:18Z</time>
      </trkpt>
      <trkpt lat="46.53429" lon="4.53139">
        <ele>243.59899902344</ele>
        <time>2020-09-30T05:41:23Z</time>
      </trkpt>
      <trkpt lat="46.53424" lon="4.53133">
        <ele>246.59899902344</ele>
        <time>2020-09-30T05:41:28Z</time>
      </trkpt>
      <trkpt lat="46.53417" lon="4.53127">
        <ele>248.59899902344</ele>
        <time>2020-09-30T05:41:33Z</time>
      </trkpt>
      <trkpt lat="46.53412" lon="4.53119">
        <ele>243.59899902344</ele>
        <time>2020-09-30T05:41:40Z</time>
      </trkpt>
      <trkpt lat="46.5341" lon="4.5311">
        <ele>247.59899902344</ele>
        <time>2020-09-30T05:41:45Z</time>
      </trkpt>
      <trkpt lat="46.5341" lon="4.53101">
        <ele>247.59899902344</ele>
        <time>2020-09-30T05:41:50Z</time>
      </trkpt>
      <trkpt lat="46.53409" lon="4.5309">
        <ele>250.59899902344</ele>
        <time>2020-09-30T05:41:55Z</time>
      </trkpt>
      <trkpt lat="46.53407" lon="4.53079">
        <ele>252.59899902344</ele>
        <time>2020-09-30T05:42:00Z</time>
      </trkpt>
      <trkpt lat="46.53405" lon="4.53069">
        <ele>252.59899902344</ele>
        <time>2020-09-30T05:42:05Z</time>
      </trkpt>
      <trkpt lat="46.53404" lon="4.53057">
        <ele>254.59899902344</ele>
        <time>2020-09-30T05:42:10Z</time>
      </trkpt>
      <trkpt lat="46.53402" lon="4.53048">
        <ele>254.59899902344</ele>
        <time>2020-09-30T05:42:15Z</time>
      </trkpt>
      <trkpt lat="46.53399" lon="4.53038">
        <ele>256.59899902344</ele>
        <time>2020-09-30T05:42:20Z</time>
      </trkpt>
      <trkpt lat="46.53398" lon="4.53027">
        <ele>256.59899902344</ele>
        <time>2020-09-30T05:42:25Z</time>
      </trkpt>
      <trkpt lat="46.53394" lon="4.53018">
        <ele>256.59899902344</ele>
        <time>2020-09-30T05:42:30Z</time>
      </trkpt>
      <trkpt lat="46.53393" lon="4.53008">
        <ele>258.59899902344</ele>
        <time>2020-09-30T05:42:35Z</time>
      </trkpt>
      <trkpt lat="46.53393" lon="4.52998">
        <ele>256.59899902344</ele>
        <time>2020-09-30T05:42:43Z</time>
      </trkpt>
      <trkpt lat="46.53389" lon="4.52988">
        <ele>256.59899902344</ele>
        <time>2020-09-30T05:42:48Z</time>
      </trkpt>
      <trkpt lat="46.53386" lon="4.52974">
        <ele>260.59899902344</ele>
        <time>2020-09-30T05:42:53Z</time>
      </trkpt>
      <trkpt lat="46.53384" lon="4.52958">
        <ele>263.59899902344</ele>
        <time>2020-09-30T05:42:58Z</time>
      </trkpt>
      <trkpt lat="46.53381" lon="4.52949">
        <ele>262.59899902344</ele>
        <time>2020-09-30T05:43:07Z</time>
      </trkpt>
      <trkpt lat="46.53376" lon="4.5294">
        <ele>260.59899902344</ele>
        <time>2020-09-30T05:43:12Z</time>
      </trkpt>
      <trkpt lat="46.5337" lon="4.52933">
        <ele>258.59899902344</ele>
        <time>2020-09-30T05:43:20Z</time>
      </trkpt>
      <trkpt lat="46.53364" lon="4.52923">
        <ele>253.59899902344</ele>
        <time>2020-09-30T05:43:25Z</time>
      </trkpt>
      <trkpt lat="46.53362" lon="4.52908">
        <ele>255.59899902344</ele>
        <time>2020-09-30T05:43:30Z</time>
      </trkpt>
      <trkpt lat="46.53358" lon="4.529">
        <ele>260.59899902344</ele>
        <time>2020-09-30T05:43:36Z</time>
      </trkpt>
      <trkpt lat="46.53355" lon="4.5289">
        <ele>260.59899902344</ele>
        <time>2020-09-30T05:43:43Z</time>
      </trkpt>
      <trkpt lat="46.5335" lon="4.52883">
        <ele>257.59899902344</ele>
        <time>2020-09-30T05:43:48Z</time>
      </trkpt>
      <trkpt lat="46.53345" lon="4.52872">
        <ele>255.59899902344</ele>
        <time>2020-09-30T05:43:53Z</time>
      </trkpt>
      <trkpt lat="46.5334" lon="4.52861">
        <ele>253.59899902344</ele>
        <time>2020-09-30T05:43:58Z</time>
      </trkpt>
      <trkpt lat="46.53335" lon="4.52846">
        <ele>252.59899902344</ele>
        <time>2020-09-30T05:44:03Z</time>
      </trkpt>
      <trkpt lat="46.53328" lon="4.52834">
        <ele>252.59899902344</ele>
        <time>2020-09-30T05:44:08Z</time>
      </trkpt>
      <trkpt lat="46.53321" lon="4.52827">
        <ele>253.59899902344</ele>
        <time>2020-09-30T05:44:13Z</time>
      </trkpt>
      <trkpt lat="46.53316" lon="4.5282">
        <ele>256.59899902344</ele>
        <time>2020-09-30T05:44:18Z</time>
      </trkpt>
      <trkpt lat="46.5331" lon="4.52815">
        <ele>258.59899902344</ele>
        <time>2020-09-30T05:44:26Z</time>
      </trkpt>
      <trkpt lat="46.53304" lon="4.5281">
        <ele>259.59899902344</ele>
        <time>2020-09-30T05:44:32Z</time>
      </trkpt>
      <trkpt lat="46.53297" lon="4.52805">
        <ele>260.59899902344</ele>
        <time>2020-09-30T05:44:37Z</time>
      </trkpt>
      <trkpt lat="46.5329" lon="4.52798">
        <ele>260.59899902344</ele>
        <time>2020-09-30T05:44:42Z</time>
      </trkpt>
      <trkpt lat="46.53283" lon="4.52794">
        <ele>259.59899902344</ele>
        <time>2020-09-30T05:44:47Z</time>
      </trkpt>
      <trkpt lat="46.53275" lon="4.5279">
        <ele>256.59899902344</ele>
        <time>2020-09-30T05:44:53Z</time>
      </trkpt>
      <trkpt lat="46.53267" lon="4.52786">
        <ele>257.59899902344</ele>
        <time>2020-09-30T05:44:58Z</time>
      </trkpt>
      <trkpt lat="46.5326" lon="4.52783">
        <ele>257.59899902344</ele>
        <time>2020-09-30T05:45:04Z</time>
      </trkpt>
      <trkpt lat="46.53253" lon="4.52776">
        <ele>257.59799194336</ele>
        <time>2020-09-30T05:45:09Z</time>
      </trkpt>
      <trkpt lat="46.53247" lon="4.52769">
        <ele>256.59799194336</ele>
        <time>2020-09-30T05:45:15Z</time>
      </trkpt>
      <trkpt lat="46.5324" lon="4.52769">
        <ele>256.59799194336</ele>
        <time>2020-09-30T05:45:20Z</time>
      </trkpt>
      <trkpt lat="46.53235" lon="4.52756">
        <ele>258.59799194336</ele>
        <time>2020-09-30T05:45:25Z</time>
      </trkpt>
      <trkpt lat="46.53228" lon="4.52753">
        <ele>255.59800720215</ele>
        <time>2020-09-30T05:45:30Z</time>
      </trkpt>
      <trkpt lat="46.53226" lon="4.52742">
        <ele>253.59800720215</ele>
        <time>2020-09-30T05:45:35Z</time>
      </trkpt>
      <trkpt lat="46.53226" lon="4.52729">
        <ele>256.59799194336</ele>
        <time>2020-09-30T05:45:42Z</time>
      </trkpt>
      <trkpt lat="46.5323" lon="4.52714">
        <ele>258.59799194336</ele>
        <time>2020-09-30T05:45:47Z</time>
      </trkpt>
      <trkpt lat="46.53232" lon="4.52704">
        <ele>257.59799194336</ele>
        <time>2020-09-30T05:45:52Z</time>
      </trkpt>
      <trkpt lat="46.5323" lon="4.52694">
        <ele>254.59800720215</ele>
        <time>2020-09-30T05:45:59Z</time>
      </trkpt>
      <trkpt lat="46.53226" lon="4.52683">
        <ele>251.59800720215</ele>
        <time>2020-09-30T05:46:04Z</time>
      </trkpt>
      <trkpt lat="46.53227" lon="4.52673">
        <ele>250.59800720215</ele>
        <time>2020-09-30T05:46:16Z</time>
      </trkpt>
      <trkpt lat="46.53225" lon="4.52663">
        <ele>246.59800720215</ele>
        <time>2020-09-30T05:46:21Z</time>
      </trkpt>
      <trkpt lat="46.53227" lon="4.52652">
        <ele>244.59800720215</ele>
        <time>2020-09-30T05:46:26Z</time>
      </trkpt>
      <trkpt lat="46.53226" lon="4.5264">
        <ele>245.59800720215</ele>
        <time>2020-09-30T05:46:31Z</time>
      </trkpt>
      <trkpt lat="46.53226" lon="4.52626">
        <ele>246.59800720215</ele>
        <time>2020-09-30T05:46:36Z</time>
      </trkpt>
      <trkpt lat="46.53226" lon="4.52611">
        <ele>240.59800720215</ele>
        <time>2020-09-30T05:46:41Z</time>
      </trkpt>
      <trkpt lat="46.53224" lon="4.526">
        <ele>244.59800720215</ele>
        <time>2020-09-30T05:46:46Z</time>
      </trkpt>
      <trkpt lat="46.53225" lon="4.5259">
        <ele>248.59800720215</ele>
        <time>2020-09-30T05:46:55Z</time>
      </trkpt>
      <trkpt lat="46.53223" lon="4.52576">
        <ele>247.59800720215</ele>
        <time>2020-09-30T05:47:00Z</time>
      </trkpt>
      <trkpt lat="46.53224" lon="4.52563">
        <ele>248.59800720215</ele>
        <time>2020-09-30T05:47:05Z</time>
      </trkpt>
      <trkpt lat="46.53225" lon="4.52553">
        <ele>250.59800720215</ele>
        <time>2020-09-30T05:47:10Z</time>
      </trkpt>
      <trkpt lat="46.53226" lon="4.52543">
        <ele>250.59800720215</ele>
        <time>2020-09-30T05:47:15Z</time>
      </trkpt>
      <trkpt lat="46.53226" lon="4.52532">
        <ele>257.59799194336</ele>
        <time>2020-09-30T05:47:20Z</time>
      </trkpt>
      <trkpt lat="46.53228" lon="4.52522">
        <ele>258.59799194336</ele>
        <time>2020-09-30T05:47:26Z</time>
      </trkpt>
      <trkpt lat="46.53235" lon="4.52515">
        <ele>255.59800720215</ele>
        <time>2020-09-30T05:47:34Z</time>
      </trkpt>
      <trkpt lat="46.53242" lon="4.52508">
        <ele>252.59800720215</ele>
        <time>2020-09-30T05:47:40Z</time>
      </trkpt>
      <trkpt lat="46.5325" lon="4.52505">
        <ele>255.59800720215</ele>
        <time>2020-09-30T05:47:46Z</time>
      </trkpt>
      <trkpt lat="46.53256" lon="4.52497">
        <ele>254.59800720215</ele>
        <time>2020-09-30T05:47:51Z</time>
      </trkpt>
      <trkpt lat="46.53264" lon="4.52494">
        <ele>259.59799194336</ele>
        <time>2020-09-30T05:47:57Z</time>
      </trkpt>
      <trkpt lat="46.53272" lon="4.5249">
        <ele>261.59799194336</ele>
        <time>2020-09-30T05:48:02Z</time>
      </trkpt>
      <trkpt lat="46.53278" lon="4.52484">
        <ele>259.59799194336</ele>
        <time>2020-09-30T05:48:08Z</time>
      </trkpt>
      <trkpt lat="46.53282" lon="4.52475">
        <ele>259.59799194336</ele>
        <time>2020-09-30T05:48:14Z</time>
      </trkpt>
      <trkpt lat="46.53286" lon="4.52467">
        <ele>259.59799194336</ele>
        <time>2020-09-30T05:48:19Z</time>
      </trkpt>
      <trkpt lat="46.53287" lon="4.52456">
        <ele>259.59799194336</ele>
        <time>2020-09-30T05:48:25Z</time>
      </trkpt>
      <trkpt lat="46.5329" lon="4.52445">
        <ele>259.59799194336</ele>
        <time>2020-09-30T05:48:30Z</time>
      </trkpt>
      <trkpt lat="46.53293" lon="4.52434">
        <ele>259.59799194336</ele>
        <time>2020-09-30T05:48:36Z</time>
      </trkpt>
      <trkpt lat="46.53294" lon="4.52422">
        <ele>257.59799194336</ele>
        <time>2020-09-30T05:48:42Z</time>
      </trkpt>
      <trkpt lat="46.53294" lon="4.52409">
        <ele>258.59799194336</ele>
        <time>2020-09-30T05:48:47Z</time>
      </trkpt>
      <trkpt lat="46.53298" lon="4.524">
        <ele>259.59799194336</ele>
        <time>2020-09-30T05:48:52Z</time>
      </trkpt>
      <trkpt lat="46.53298" lon="4.5239">
        <ele>258.59799194336</ele>
        <time>2020-09-30T05:48:57Z</time>
      </trkpt>
      <trkpt lat="46.53299" lon="4.52379">
        <ele>259.59799194336</ele>
        <time>2020-09-30T05:49:03Z</time>
      </trkpt>
      <trkpt lat="46.53302" lon="4.52369">
        <ele>256.59799194336</ele>
        <time>2020-09-30T05:49:08Z</time>
      </trkpt>
      <trkpt lat="46.53306" lon="4.52359">
        <ele>258.59799194336</ele>
        <time>2020-09-30T05:49:14Z</time>
      </trkpt>
      <trkpt lat="46.53309" lon="4.52349">
        <ele>259.59799194336</ele>
        <time>2020-09-30T05:49:22Z</time>
      </trkpt>
      <trkpt lat="46.53305" lon="4.52339">
        <ele>256.59799194336</ele>
        <time>2020-09-30T05:49:27Z</time>
      </trkpt>
      <trkpt lat="46.53304" lon="4.52327">
        <ele>256.59799194336</ele>
        <time>2020-09-30T05:49:32Z</time>
      </trkpt>
      <trkpt lat="46.53298" lon="4.52322">
        <ele>256.59799194336</ele>
        <time>2020-09-30T05:49:39Z</time>
      </trkpt>
      <trkpt lat="46.5329" lon="4.52317">
        <ele>257.59799194336</ele>
        <time>2020-09-30T05:49:46Z</time>
      </trkpt>
      <trkpt lat="46.53285" lon="4.52311">
        <ele>258.59799194336</ele>
        <time>2020-09-30T05:49:53Z</time>
      </trkpt>
      <trkpt lat="46.53278" lon="4.52309">
        <ele>255.59800720215</ele>
        <time>2020-09-30T05:49:59Z</time>
      </trkpt>
      <trkpt lat="46.53271" lon="4.52305">
        <ele>250.59800720215</ele>
        <time>2020-09-30T05:50:06Z</time>
      </trkpt>
      <trkpt lat="46.53266" lon="4.52298">
        <ele>253.59800720215</ele>
        <time>2020-09-30T05:50:12Z</time>
      </trkpt>
      <trkpt lat="46.5326" lon="4.52291">
        <ele>252.59800720215</ele>
        <time>2020-09-30T05:50:19Z</time>
      </trkpt>
      <trkpt lat="46.53253" lon="4.52279">
        <ele>254.59800720215</ele>
        <time>2020-09-30T05:50:24Z</time>
      </trkpt>
      <trkpt lat="46.53246" lon="4.52275">
        <ele>253.59800720215</ele>
        <time>2020-09-30T05:50:29Z</time>
      </trkpt>
      <trkpt lat="46.53239" lon="4.52271">
        <ele>253.59800720215</ele>
        <time>2020-09-30T05:50:34Z</time>
      </trkpt>
      <trkpt lat="46.53233" lon="4.52267">
        <ele>249.59800720215</ele>
        <time>2020-09-30T05:50:42Z</time>
      </trkpt>
      <trkpt lat="46.53227" lon="4.52261">
        <ele>250.59800720215</ele>
        <time>2020-09-30T05:50:47Z</time>
      </trkpt>
      <trkpt lat="46.5322" lon="4.52256">
        <ele>248.59800720215</ele>
        <time>2020-09-30T05:50:52Z</time>
      </trkpt>
      <trkpt lat="46.53213" lon="4.52249">
        <ele>247.59800720215</ele>
        <time>2020-09-30T05:50:57Z</time>
      </trkpt>
      <trkpt lat="46.53205" lon="4.52248">
        <ele>247.59800720215</ele>
        <time>2020-09-30T05:51:05Z</time>
      </trkpt>
      <trkpt lat="46.53198" lon="4.52245">
        <ele>249.59800720215</ele>
        <time>2020-09-30T05:51:10Z</time>
      </trkpt>
      <trkpt lat="46.53192" lon="4.52237">
        <ele>251.59800720215</ele>
        <time>2020-09-30T05:51:15Z</time>
      </trkpt>
      <trkpt lat="46.53185" lon="4.52232">
        <ele>250.59800720215</ele>
        <time>2020-09-30T05:51:20Z</time>
      </trkpt>
      <trkpt lat="46.53179" lon="4.52226">
        <ele>254.59800720215</ele>
        <time>2020-09-30T05:51:25Z</time>
      </trkpt>
      <trkpt lat="46.53172" lon="4.52217">
        <ele>253.59800720215</ele>
        <time>2020-09-30T05:51:30Z</time>
      </trkpt>
      <trkpt lat="46.53166" lon="4.52208">
        <ele>257.59799194336</ele>
        <time>2020-09-30T05:51:35Z</time>
      </trkpt>
      <trkpt lat="46.5316" lon="4.522">
        <ele>262.59799194336</ele>
        <time>2020-09-30T05:51:40Z</time>
      </trkpt>
      <trkpt lat="46.53156" lon="4.52191">
        <ele>264.59799194336</ele>
        <time>2020-09-30T05:51:45Z</time>
      </trkpt>
      <trkpt lat="46.53152" lon="4.52182">
        <ele>265.59799194336</ele>
        <time>2020-09-30T05:51:50Z</time>
      </trkpt>
      <trkpt lat="46.53148" lon="4.52173">
        <ele>266.59799194336</ele>
        <time>2020-09-30T05:51:55Z</time>
      </trkpt>
      <trkpt lat="46.53144" lon="4.52163">
        <ele>268.59799194336</ele>
        <time>2020-09-30T05:52:00Z</time>
      </trkpt>
      <trkpt lat="46.5314" lon="4.5215">
        <ele>267.59799194336</ele>
        <time>2020-09-30T05:52:05Z</time>
      </trkpt>
      <trkpt lat="46.5314" lon="4.5214">
        <ele>265.59799194336</ele>
        <time>2020-09-30T05:52:12Z</time>
      </trkpt>
      <trkpt lat="46.5314" lon="4.52129">
        <ele>264.59799194336</ele>
        <time>2020-09-30T05:52:18Z</time>
      </trkpt>
      <trkpt lat="46.53141" lon="4.52119">
        <ele>263.59799194336</ele>
        <time>2020-09-30T05:52:24Z</time>
      </trkpt>
      <trkpt lat="46.53138" lon="4.52111">
        <ele>258.59799194336</ele>
        <time>2020-09-30T05:52:31Z</time>
      </trkpt>
      <trkpt lat="46.53136" lon="4.52101">
        <ele>249.59800720215</ele>
        <time>2020-09-30T05:52:49Z</time>
      </trkpt>
      <trkpt lat="46.53133" lon="4.52089">
        <ele>249.59800720215</ele>
        <time>2020-09-30T05:52:54Z</time>
      </trkpt>
      <trkpt lat="46.53132" lon="4.52072">
        <ele>255.59800720215</ele>
        <time>2020-09-30T05:52:59Z</time>
      </trkpt>
      <trkpt lat="46.53135" lon="4.52062">
        <ele>256.59799194336</ele>
        <time>2020-09-30T05:53:08Z</time>
      </trkpt>
      <trkpt lat="46.53136" lon="4.52051">
        <ele>257.59799194336</ele>
        <time>2020-09-30T05:53:14Z</time>
      </trkpt>
      <trkpt lat="46.53136" lon="4.52032">
        <ele>261.59799194336</ele>
        <time>2020-09-30T05:53:19Z</time>
      </trkpt>
      <trkpt lat="46.53137" lon="4.52021">
        <ele>262.59799194336</ele>
        <time>2020-09-30T05:53:27Z</time>
      </trkpt>
      <trkpt lat="46.53137" lon="4.52007">
        <ele>263.59799194336</ele>
        <time>2020-09-30T05:53:32Z</time>
      </trkpt>
      <trkpt lat="46.53136" lon="4.51993">
        <ele>266.59799194336</ele>
        <time>2020-09-30T05:53:37Z</time>
      </trkpt>
      <trkpt lat="46.53136" lon="4.51981">
        <ele>266.59799194336</ele>
        <time>2020-09-30T05:53:45Z</time>
      </trkpt>
      <trkpt lat="46.53137" lon="4.51965">
        <ele>267.59799194336</ele>
        <time>2020-09-30T05:53:50Z</time>
      </trkpt>
      <trkpt lat="46.53134" lon="4.51956">
        <ele>268.59799194336</ele>
        <time>2020-09-30T05:53:55Z</time>
      </trkpt>
      <trkpt lat="46.53134" lon="4.51943">
        <ele>266.59799194336</ele>
        <time>2020-09-30T05:54:00Z</time>
      </trkpt>
      <trkpt lat="46.53133" lon="4.51932">
        <ele>270.59799194336</ele>
        <time>2020-09-30T05:54:05Z</time>
      </trkpt>
      <trkpt lat="46.53134" lon="4.5192">
        <ele>270.59799194336</ele>
        <time>2020-09-30T05:54:11Z</time>
      </trkpt>
      <trkpt lat="46.53132" lon="4.51909">
        <ele>269.59799194336</ele>
        <time>2020-09-30T05:54:16Z</time>
      </trkpt>
      <trkpt lat="46.53131" lon="4.51899">
        <ele>270.59799194336</ele>
        <time>2020-09-30T05:54:21Z</time>
      </trkpt>
      <trkpt lat="46.53128" lon="4.5189">
        <ele>269.59698486328</ele>
        <time>2020-09-30T05:54:26Z</time>
      </trkpt>
      <trkpt lat="46.53123" lon="4.5188">
        <ele>269.59698486328</ele>
        <time>2020-09-30T05:54:31Z</time>
      </trkpt>
      <trkpt lat="46.5312" lon="4.51871">
        <ele>267.59698486328</ele>
        <time>2020-09-30T05:54:36Z</time>
      </trkpt>
      <trkpt lat="46.53119" lon="4.51861">
        <ele>267.59698486328</ele>
        <time>2020-09-30T05:54:42Z</time>
      </trkpt>
      <trkpt lat="46.53116" lon="4.51849">
        <ele>266.59698486328</ele>
        <time>2020-09-30T05:54:47Z</time>
      </trkpt>
      <trkpt lat="46.53117" lon="4.51837">
        <ele>267.59698486328</ele>
        <time>2020-09-30T05:54:54Z</time>
      </trkpt>
      <trkpt lat="46.53118" lon="4.51825">
        <ele>268.59698486328</ele>
        <time>2020-09-30T05:54:59Z</time>
      </trkpt>
      <trkpt lat="46.5312" lon="4.51814">
        <ele>268.59698486328</ele>
        <time>2020-09-30T05:55:04Z</time>
      </trkpt>
      <trkpt lat="46.53118" lon="4.51804">
        <ele>269.59698486328</ele>
        <time>2020-09-30T05:55:09Z</time>
      </trkpt>
      <trkpt lat="46.53112" lon="4.51795">
        <ele>271.59698486328</ele>
        <time>2020-09-30T05:55:14Z</time>
      </trkpt>
      <trkpt lat="46.53108" lon="4.51786">
        <ele>270.59698486328</ele>
        <time>2020-09-30T05:55:20Z</time>
      </trkpt>
      <trkpt lat="46.53103" lon="4.51774">
        <ele>272.59698486328</ele>
        <time>2020-09-30T05:55:25Z</time>
      </trkpt>
      <trkpt lat="46.53098" lon="4.51763">
        <ele>272.59698486328</ele>
        <time>2020-09-30T05:55:30Z</time>
      </trkpt>
      <trkpt lat="46.53095" lon="4.51754">
        <ele>274.59698486328</ele>
        <time>2020-09-30T05:55:36Z</time>
      </trkpt>
      <trkpt lat="46.53091" lon="4.51746">
        <ele>277.59698486328</ele>
        <time>2020-09-30T05:55:41Z</time>
      </trkpt>
      <trkpt lat="46.53087" lon="4.51738">
        <ele>276.59698486328</ele>
        <time>2020-09-30T05:55:46Z</time>
      </trkpt>
      <trkpt lat="46.53084" lon="4.51729">
        <ele>276.59698486328</ele>
        <time>2020-09-30T05:55:51Z</time>
      </trkpt>
      <trkpt lat="46.53083" lon="4.51718">
        <ele>275.59698486328</ele>
        <time>2020-09-30T05:55:57Z</time>
      </trkpt>
      <trkpt lat="46.53079" lon="4.51708">
        <ele>275.59698486328</ele>
        <time>2020-09-30T05:56:02Z</time>
      </trkpt>
      <trkpt lat="46.53075" lon="4.51697">
        <ele>276.59698486328</ele>
        <time>2020-09-30T05:56:07Z</time>
      </trkpt>
      <trkpt lat="46.53072" lon="4.51688">
        <ele>275.59698486328</ele>
        <time>2020-09-30T05:56:14Z</time>
      </trkpt>
      <trkpt lat="46.53069" lon="4.51679">
        <ele>275.59698486328</ele>
        <time>2020-09-30T05:56:19Z</time>
      </trkpt>
      <trkpt lat="46.53065" lon="4.51669">
        <ele>275.59698486328</ele>
        <time>2020-09-30T05:56:24Z</time>
      </trkpt>
      <trkpt lat="46.53061" lon="4.51659">
        <ele>277.59698486328</ele>
        <time>2020-09-30T05:56:30Z</time>
      </trkpt>
      <trkpt lat="46.53058" lon="4.51649">
        <ele>276.59698486328</ele>
        <time>2020-09-30T05:56:36Z</time>
      </trkpt>
      <trkpt lat="46.53057" lon="4.51639">
        <ele>278.59698486328</ele>
        <time>2020-09-30T05:56:42Z</time>
      </trkpt>
      <trkpt lat="46.53057" lon="4.51628">
        <ele>279.59698486328</ele>
        <time>2020-09-30T05:56:47Z</time>
      </trkpt>
      <trkpt lat="46.53058" lon="4.51617">
        <ele>280.59698486328</ele>
        <time>2020-09-30T05:56:53Z</time>
      </trkpt>
      <trkpt lat="46.53055" lon="4.51608">
        <ele>277.59698486328</ele>
        <time>2020-09-30T05:56:58Z</time>
      </trkpt>
      <trkpt lat="46.53052" lon="4.51599">
        <ele>270.59698486328</ele>
        <time>2020-09-30T05:57:04Z</time>
      </trkpt>
      <trkpt lat="46.53047" lon="4.51593">
        <ele>268.59698486328</ele>
        <time>2020-09-30T05:57:10Z</time>
      </trkpt>
      <trkpt lat="46.5304" lon="4.51585">
        <ele>267.59698486328</ele>
        <time>2020-09-30T05:57:15Z</time>
      </trkpt>
      <trkpt lat="46.53039" lon="4.51575">
        <ele>267.59698486328</ele>
        <time>2020-09-30T05:57:20Z</time>
      </trkpt>
      <trkpt lat="46.53034" lon="4.51569">
        <ele>261.59698486328</ele>
        <time>2020-09-30T05:57:26Z</time>
      </trkpt>
      <trkpt lat="46.53033" lon="4.51558">
        <ele>262.59698486328</ele>
        <time>2020-09-30T05:57:32Z</time>
      </trkpt>
      <trkpt lat="46.53031" lon="4.51547">
        <ele>264.59698486328</ele>
        <time>2020-09-30T05:57:37Z</time>
      </trkpt>
      <trkpt lat="46.5303" lon="4.51537">
        <ele>265.59698486328</ele>
        <time>2020-09-30T05:57:44Z</time>
      </trkpt>
      <trkpt lat="46.53032" lon="4.51523">
        <ele>269.59698486328</ele>
        <time>2020-09-30T05:57:49Z</time>
      </trkpt>
      <trkpt lat="46.53032" lon="4.51508">
        <ele>271.59698486328</ele>
        <time>2020-09-30T05:57:54Z</time>
      </trkpt>
      <trkpt lat="46.53032" lon="4.51494">
        <ele>275.59698486328</ele>
        <time>2020-09-30T05:57:59Z</time>
      </trkpt>
      <trkpt lat="46.53033" lon="4.51483">
        <ele>275.59698486328</ele>
        <time>2020-09-30T05:58:04Z</time>
      </trkpt>
      <trkpt lat="46.5303" lon="4.51468">
        <ele>280.59698486328</ele>
        <time>2020-09-30T05:58:09Z</time>
      </trkpt>
      <trkpt lat="46.53025" lon="4.51458">
        <ele>281.59698486328</ele>
        <time>2020-09-30T05:58:15Z</time>
      </trkpt>
      <trkpt lat="46.53024" lon="4.51446">
        <ele>280.59698486328</ele>
        <time>2020-09-30T05:58:20Z</time>
      </trkpt>
      <trkpt lat="46.53024" lon="4.51435">
        <ele>280.59698486328</ele>
        <time>2020-09-30T05:58:25Z</time>
      </trkpt>
      <trkpt lat="46.53023" lon="4.51425">
        <ele>280.59698486328</ele>
        <time>2020-09-30T05:58:31Z</time>
      </trkpt>
      <trkpt lat="46.53024" lon="4.51416">
        <ele>281.59698486328</ele>
        <time>2020-09-30T05:58:36Z</time>
      </trkpt>
      <trkpt lat="46.53024" lon="4.51406">
        <ele>280.59698486328</ele>
        <time>2020-09-30T05:58:42Z</time>
      </trkpt>
      <trkpt lat="46.53024" lon="4.51395">
        <ele>278.59698486328</ele>
        <time>2020-09-30T05:58:49Z</time>
      </trkpt>
      <trkpt lat="46.53022" lon="4.51383">
        <ele>280.59698486328</ele>
        <time>2020-09-30T05:58:54Z</time>
      </trkpt>
      <trkpt lat="46.5302" lon="4.51373">
        <ele>280.59698486328</ele>
        <time>2020-09-30T05:58:59Z</time>
      </trkpt>
      <trkpt lat="46.5302" lon="4.51363">
        <ele>281.59698486328</ele>
        <time>2020-09-30T05:59:04Z</time>
      </trkpt>
      <trkpt lat="46.53019" lon="4.51353">
        <ele>283.59698486328</ele>
        <time>2020-09-30T05:59:10Z</time>
      </trkpt>
      <trkpt lat="46.53022" lon="4.51341">
        <ele>283.59698486328</ele>
        <time>2020-09-30T05:59:15Z</time>
      </trkpt>
      <trkpt lat="46.53021" lon="4.51329">
        <ele>284.59698486328</ele>
        <time>2020-09-30T05:59:31Z</time>
      </trkpt>
      <trkpt lat="46.53015" lon="4.51308">
        <ele>281.59698486328</ele>
        <time>2020-09-30T05:59:36Z</time>
      </trkpt>
      <trkpt lat="46.53013" lon="4.51294">
        <ele>281.59698486328</ele>
        <time>2020-09-30T05:59:41Z</time>
      </trkpt>
      <trkpt lat="46.53012" lon="4.51283">
        <ele>281.59698486328</ele>
        <time>2020-09-30T05:59:46Z</time>
      </trkpt>
      <trkpt lat="46.53009" lon="4.51274">
        <ele>283.59698486328</ele>
        <time>2020-09-30T05:59:51Z</time>
      </trkpt>
      <trkpt lat="46.5301" lon="4.51264">
        <ele>283.59698486328</ele>
        <time>2020-09-30T05:59:56Z</time>
      </trkpt>
      <trkpt lat="46.5301" lon="4.51254">
        <ele>285.59698486328</ele>
        <time>2020-09-30T06:00:03Z</time>
      </trkpt>
      <trkpt lat="46.53011" lon="4.51244">
        <ele>284.59698486328</ele>
        <time>2020-09-30T06:00:08Z</time>
      </trkpt>
      <trkpt lat="46.53009" lon="4.51233">
        <ele>284.59698486328</ele>
        <time>2020-09-30T06:00:13Z</time>
      </trkpt>
      <trkpt lat="46.5301" lon="4.51217">
        <ele>285.59698486328</ele>
        <time>2020-09-30T06:00:18Z</time>
      </trkpt>
      <trkpt lat="46.53009" lon="4.51207">
        <ele>286.59698486328</ele>
        <time>2020-09-30T06:00:24Z</time>
      </trkpt>
      <trkpt lat="46.53009" lon="4.51195">
        <ele>284.59698486328</ele>
        <time>2020-09-30T06:00:32Z</time>
      </trkpt>
      <trkpt lat="46.53009" lon="4.51184">
        <ele>284.59698486328</ele>
        <time>2020-09-30T06:00:40Z</time>
      </trkpt>
      <trkpt lat="46.53008" lon="4.51175">
        <ele>281.59698486328</ele>
        <time>2020-09-30T06:00:45Z</time>
      </trkpt>
      <trkpt lat="46.53005" lon="4.51165">
        <ele>282.59698486328</ele>
        <time>2020-09-30T06:00:51Z</time>
      </trkpt>
      <trkpt lat="46.53004" lon="4.51156">
        <ele>278.59698486328</ele>
        <time>2020-09-30T06:00:56Z</time>
      </trkpt>
      <trkpt lat="46.53004" lon="4.51146">
        <ele>279.59698486328</ele>
        <time>2020-09-30T06:01:01Z</time>
      </trkpt>
      <trkpt lat="46.53004" lon="4.51133">
        <ele>281.59698486328</ele>
        <time>2020-09-30T06:01:06Z</time>
      </trkpt>
      <trkpt lat="46.53002" lon="4.51121">
        <ele>282.59698486328</ele>
        <time>2020-09-30T06:01:13Z</time>
      </trkpt>
      <trkpt lat="46.53002" lon="4.51111">
        <ele>281.59698486328</ele>
        <time>2020-09-30T06:01:18Z</time>
      </trkpt>
      <trkpt lat="46.53002" lon="4.511">
        <ele>281.59698486328</ele>
        <time>2020-09-30T06:01:23Z</time>
      </trkpt>
      <trkpt lat="46.52999" lon="4.51089">
        <ele>283.59698486328</ele>
        <time>2020-09-30T06:01:28Z</time>
      </trkpt>
      <trkpt lat="46.52996" lon="4.51076">
        <ele>284.59698486328</ele>
        <time>2020-09-30T06:01:34Z</time>
      </trkpt>
      <trkpt lat="46.52997" lon="4.51065">
        <ele>284.59698486328</ele>
        <time>2020-09-30T06:01:45Z</time>
      </trkpt>
      <trkpt lat="46.52998" lon="4.51054">
        <ele>285.59698486328</ele>
        <time>2020-09-30T06:01:50Z</time>
      </trkpt>
      <trkpt lat="46.53004" lon="4.51048">
        <ele>288.59698486328</ele>
        <time>2020-09-30T06:02:04Z</time>
      </trkpt>
      <trkpt lat="46.52998" lon="4.51044">
        <ele>285.59698486328</ele>
        <time>2020-09-30T06:03:12Z</time>
      </trkpt>
      <trkpt lat="46.52996" lon="4.51033">
        <ele>285.59600830078</ele>
        <time>2020-09-30T06:03:18Z</time>
      </trkpt>
      <trkpt lat="46.52988" lon="4.51029">
        <ele>285.59600830078</ele>
        <time>2020-09-30T06:03:23Z</time>
      </trkpt>
      <trkpt lat="46.52982" lon="4.51034">
        <ele>284.59600830078</ele>
        <time>2020-09-30T06:03:28Z</time>
      </trkpt>
      <trkpt lat="46.52975" lon="4.51039">
        <ele>283.59600830078</ele>
        <time>2020-09-30T06:03:33Z</time>
      </trkpt>
      <trkpt lat="46.52969" lon="4.51046">
        <ele>281.59600830078</ele>
        <time>2020-09-30T06:03:38Z</time>
      </trkpt>
      <trkpt lat="46.52963" lon="4.5105">
        <ele>282.59600830078</ele>
        <time>2020-09-30T06:03:44Z</time>
      </trkpt>
      <trkpt lat="46.52955" lon="4.5105">
        <ele>280.59600830078</ele>
        <time>2020-09-30T06:03:49Z</time>
      </trkpt>
      <trkpt lat="46.5295" lon="4.51058">
        <ele>276.59600830078</ele>
        <time>2020-09-30T06:03:54Z</time>
      </trkpt>
      <trkpt lat="46.52943" lon="4.51057">
        <ele>277.59600830078</ele>
        <time>2020-09-30T06:04:01Z</time>
      </trkpt>
      <trkpt lat="46.52937" lon="4.51066">
        <ele>277.59600830078</ele>
        <time>2020-09-30T06:04:06Z</time>
      </trkpt>
      <trkpt lat="46.52932" lon="4.51076">
        <ele>276.59600830078</ele>
        <time>2020-09-30T06:04:11Z</time>
      </trkpt>
      <trkpt lat="46.52926" lon="4.5108">
        <ele>277.59600830078</ele>
        <time>2020-09-30T06:04:17Z</time>
      </trkpt>
      <trkpt lat="46.5292" lon="4.51085">
        <ele>275.59600830078</ele>
        <time>2020-09-30T06:04:22Z</time>
      </trkpt>
      <trkpt lat="46.52912" lon="4.51087">
        <ele>274.59600830078</ele>
        <time>2020-09-30T06:04:28Z</time>
      </trkpt>
      <trkpt lat="46.52905" lon="4.51091">
        <ele>273.59600830078</ele>
        <time>2020-09-30T06:04:35Z</time>
      </trkpt>
      <trkpt lat="46.52896" lon="4.51094">
        <ele>272.59600830078</ele>
        <time>2020-09-30T06:04:40Z</time>
      </trkpt>
      <trkpt lat="46.52888" lon="4.51098">
        <ele>271.59600830078</ele>
        <time>2020-09-30T06:04:45Z</time>
      </trkpt>
      <trkpt lat="46.52882" lon="4.51104">
        <ele>267.59600830078</ele>
        <time>2020-09-30T06:04:51Z</time>
      </trkpt>
      <trkpt lat="46.52875" lon="4.51109">
        <ele>268.59600830078</ele>
        <time>2020-09-30T06:04:56Z</time>
      </trkpt>
      <trkpt lat="46.52866" lon="4.51111">
        <ele>267.59600830078</ele>
        <time>2020-09-30T06:05:01Z</time>
      </trkpt>
      <trkpt lat="46.52859" lon="4.51114">
        <ele>270.59600830078</ele>
        <time>2020-09-30T06:05:07Z</time>
      </trkpt>
      <trkpt lat="46.52853" lon="4.51119">
        <ele>270.59600830078</ele>
        <time>2020-09-30T06:05:12Z</time>
      </trkpt>
      <trkpt lat="46.52847" lon="4.51121">
        <ele>268.59600830078</ele>
        <time>2020-09-30T06:05:17Z</time>
      </trkpt>
      <trkpt lat="46.52841" lon="4.51126">
        <ele>266.59600830078</ele>
        <time>2020-09-30T06:05:22Z</time>
      </trkpt>
      <trkpt lat="46.52833" lon="4.5113">
        <ele>265.59600830078</ele>
        <time>2020-09-30T06:05:27Z</time>
      </trkpt>
      <trkpt lat="46.52825" lon="4.51131">
        <ele>272.59600830078</ele>
        <time>2020-09-30T06:05:32Z</time>
      </trkpt>
      <trkpt lat="46.52816" lon="4.51133">
        <ele>271.59600830078</ele>
        <time>2020-09-30T06:05:37Z</time>
      </trkpt>
      <trkpt lat="46.52809" lon="4.51135">
        <ele>272.59600830078</ele>
        <time>2020-09-30T06:05:42Z</time>
      </trkpt>
      <trkpt lat="46.52803" lon="4.51139">
        <ele>270.59600830078</ele>
        <time>2020-09-30T06:05:48Z</time>
      </trkpt>
      <trkpt lat="46.52797" lon="4.51143">
        <ele>266.59600830078</ele>
        <time>2020-09-30T06:05:53Z</time>
      </trkpt>
      <trkpt lat="46.5279" lon="4.51145">
        <ele>264.59600830078</ele>
        <time>2020-09-30T06:05:58Z</time>
      </trkpt>
      <trkpt lat="46.52785" lon="4.51152">
        <ele>262.59600830078</ele>
        <time>2020-09-30T06:06:03Z</time>
      </trkpt>
      <trkpt lat="46.52774" lon="4.51149">
        <ele>263.59600830078</ele>
        <time>2020-09-30T06:06:08Z</time>
      </trkpt>
      <trkpt lat="46.52767" lon="4.51152">
        <ele>262.59600830078</ele>
        <time>2020-09-30T06:06:13Z</time>
      </trkpt>
      <trkpt lat="46.52759" lon="4.51155">
        <ele>257.59600830078</ele>
        <time>2020-09-30T06:06:20Z</time>
      </trkpt>
      <trkpt lat="46.52752" lon="4.51159">
        <ele>260.59600830078</ele>
        <time>2020-09-30T06:06:26Z</time>
      </trkpt>
      <trkpt lat="46.52745" lon="4.51165">
        <ele>263.59600830078</ele>
        <time>2020-09-30T06:06:33Z</time>
      </trkpt>
      <trkpt lat="46.52739" lon="4.51171">
        <ele>263.59600830078</ele>
        <time>2020-09-30T06:06:39Z</time>
      </trkpt>
      <trkpt lat="46.52732" lon="4.51174">
        <ele>262.59600830078</ele>
        <time>2020-09-30T06:06:44Z</time>
      </trkpt>
      <trkpt lat="46.52723" lon="4.51175">
        <ele>264.59600830078</ele>
        <time>2020-09-30T06:06:49Z</time>
      </trkpt>
      <trkpt lat="46.52716" lon="4.51179">
        <ele>264.59600830078</ele>
        <time>2020-09-30T06:06:55Z</time>
      </trkpt>
      <trkpt lat="46.52709" lon="4.5118">
        <ele>265.59600830078</ele>
        <time>2020-09-30T06:07:00Z</time>
      </trkpt>
      <trkpt lat="46.52702" lon="4.5118">
        <ele>266.59600830078</ele>
        <time>2020-09-30T06:07:06Z</time>
      </trkpt>
      <trkpt lat="46.52695" lon="4.51181">
        <ele>265.59600830078</ele>
        <time>2020-09-30T06:07:12Z</time>
      </trkpt>
      <trkpt lat="46.52689" lon="4.51183">
        <ele>264.59600830078</ele>
        <time>2020-09-30T06:07:18Z</time>
      </trkpt>
      <trkpt lat="46.52683" lon="4.5119">
        <ele>263.59600830078</ele>
        <time>2020-09-30T06:07:23Z</time>
      </trkpt>
      <trkpt lat="46.52676" lon="4.5119">
        <ele>262.59600830078</ele>
        <time>2020-09-30T06:07:30Z</time>
      </trkpt>
      <trkpt lat="46.5267" lon="4.51193">
        <ele>261.59600830078</ele>
        <time>2020-09-30T06:07:35Z</time>
      </trkpt>
      <trkpt lat="46.52662" lon="4.51193">
        <ele>261.59600830078</ele>
        <time>2020-09-30T06:07:40Z</time>
      </trkpt>
      <trkpt lat="46.52653" lon="4.51193">
        <ele>262.59600830078</ele>
        <time>2020-09-30T06:07:48Z</time>
      </trkpt>
      <trkpt lat="46.52646" lon="4.51198">
        <ele>264.59600830078</ele>
        <time>2020-09-30T06:07:56Z</time>
      </trkpt>
      <trkpt lat="46.52636" lon="4.512">
        <ele>264.59600830078</ele>
        <time>2020-09-30T06:08:01Z</time>
      </trkpt>
      <trkpt lat="46.52628" lon="4.51203">
        <ele>263.59600830078</ele>
        <time>2020-09-30T06:08:06Z</time>
      </trkpt>
      <trkpt lat="46.52621" lon="4.51204">
        <ele>266.59600830078</ele>
        <time>2020-09-30T06:08:12Z</time>
      </trkpt>
      <trkpt lat="46.52614" lon="4.51206">
        <ele>268.59600830078</ele>
        <time>2020-09-30T06:08:17Z</time>
      </trkpt>
      <trkpt lat="46.52607" lon="4.51204">
        <ele>270.59600830078</ele>
        <time>2020-09-30T06:08:22Z</time>
      </trkpt>
      <trkpt lat="46.52603" lon="4.51213">
        <ele>267.59600830078</ele>
        <time>2020-09-30T06:08:29Z</time>
      </trkpt>
      <trkpt lat="46.52598" lon="4.5122">
        <ele>269.59600830078</ele>
        <time>2020-09-30T06:08:34Z</time>
      </trkpt>
      <trkpt lat="46.52595" lon="4.51228">
        <ele>274.59600830078</ele>
        <time>2020-09-30T06:08:43Z</time>
      </trkpt>
      <trkpt lat="46.52592" lon="4.51243">
        <ele>274.59600830078</ele>
        <time>2020-09-30T06:08:48Z</time>
      </trkpt>
      <trkpt lat="46.52587" lon="4.5125">
        <ele>273.59600830078</ele>
        <time>2020-09-30T06:08:55Z</time>
      </trkpt>
      <trkpt lat="46.52583" lon="4.51258">
        <ele>273.59600830078</ele>
        <time>2020-09-30T06:09:00Z</time>
      </trkpt>
      <trkpt lat="46.52574" lon="4.51262">
        <ele>272.59600830078</ele>
        <time>2020-09-30T06:09:05Z</time>
      </trkpt>
      <trkpt lat="46.52567" lon="4.51264">
        <ele>273.5950012207</ele>
        <time>2020-09-30T06:09:10Z</time>
      </trkpt>
      <trkpt lat="46.52561" lon="4.51269">
        <ele>273.5950012207</ele>
        <time>2020-09-30T06:09:16Z</time>
      </trkpt>
      <trkpt lat="46.52553" lon="4.51272">
        <ele>272.5950012207</ele>
        <time>2020-09-30T06:09:21Z</time>
      </trkpt>
      <trkpt lat="46.52546" lon="4.51272">
        <ele>268.5950012207</ele>
        <time>2020-09-30T06:09:28Z</time>
      </trkpt>
      <trkpt lat="46.5254" lon="4.51274">
        <ele>269.5950012207</ele>
        <time>2020-09-30T06:09:33Z</time>
      </trkpt>
      <trkpt lat="46.52532" lon="4.51275">
        <ele>268.5950012207</ele>
        <time>2020-09-30T06:09:38Z</time>
      </trkpt>
      <trkpt lat="46.52525" lon="4.51279">
        <ele>271.5950012207</ele>
        <time>2020-09-30T06:09:43Z</time>
      </trkpt>
      <trkpt lat="46.52518" lon="4.5128">
        <ele>271.5950012207</ele>
        <time>2020-09-30T06:09:48Z</time>
      </trkpt>
      <trkpt lat="46.5251" lon="4.51283">
        <ele>268.5950012207</ele>
        <time>2020-09-30T06:09:53Z</time>
      </trkpt>
      <trkpt lat="46.52505" lon="4.51289">
        <ele>266.5950012207</ele>
        <time>2020-09-30T06:09:59Z</time>
      </trkpt>
      <trkpt lat="46.52496" lon="4.51287">
        <ele>264.5950012207</ele>
        <time>2020-09-30T06:10:04Z</time>
      </trkpt>
      <trkpt lat="46.52488" lon="4.51289">
        <ele>266.5950012207</ele>
        <time>2020-09-30T06:10:10Z</time>
      </trkpt>
      <trkpt lat="46.52481" lon="4.51288">
        <ele>268.5950012207</ele>
        <time>2020-09-30T06:10:16Z</time>
      </trkpt>
      <trkpt lat="46.52474" lon="4.5129">
        <ele>272.5950012207</ele>
        <time>2020-09-30T06:10:21Z</time>
      </trkpt>
      <trkpt lat="46.52466" lon="4.51288">
        <ele>275.5950012207</ele>
        <time>2020-09-30T06:10:26Z</time>
      </trkpt>
      <trkpt lat="46.52459" lon="4.51289">
        <ele>276.5950012207</ele>
        <time>2020-09-30T06:10:33Z</time>
      </trkpt>
      <trkpt lat="46.52452" lon="4.5129">
        <ele>280.5950012207</ele>
        <time>2020-09-30T06:10:38Z</time>
      </trkpt>
      <trkpt lat="46.52445" lon="4.51289">
        <ele>281.5950012207</ele>
        <time>2020-09-30T06:10:44Z</time>
      </trkpt>
      <trkpt lat="46.52437" lon="4.51288">
        <ele>279.5950012207</ele>
        <time>2020-09-30T06:10:49Z</time>
      </trkpt>
      <trkpt lat="46.5243" lon="4.51285">
        <ele>279.5950012207</ele>
        <time>2020-09-30T06:10:54Z</time>
      </trkpt>
      <trkpt lat="46.52423" lon="4.51287">
        <ele>278.5950012207</ele>
        <time>2020-09-30T06:11:00Z</time>
      </trkpt>
      <trkpt lat="46.52417" lon="4.51286">
        <ele>277.5950012207</ele>
        <time>2020-09-30T06:11:05Z</time>
      </trkpt>
      <trkpt lat="46.52406" lon="4.51286">
        <ele>278.5950012207</ele>
        <time>2020-09-30T06:11:10Z</time>
      </trkpt>
      <trkpt lat="46.52399" lon="4.51286">
        <ele>276.5950012207</ele>
        <time>2020-09-30T06:11:17Z</time>
      </trkpt>
      <trkpt lat="46.52391" lon="4.51284">
        <ele>277.5950012207</ele>
        <time>2020-09-30T06:11:23Z</time>
      </trkpt>
      <trkpt lat="46.52384" lon="4.51288">
        <ele>281.5950012207</ele>
        <time>2020-09-30T06:11:28Z</time>
      </trkpt>
      <trkpt lat="46.52377" lon="4.51291">
        <ele>283.5950012207</ele>
        <time>2020-09-30T06:11:34Z</time>
      </trkpt>
      <trkpt lat="46.52374" lon="4.51302">
        <ele>282.5950012207</ele>
        <time>2020-09-30T06:11:39Z</time>
      </trkpt>
      <trkpt lat="46.52364" lon="4.51309">
        <ele>283.5950012207</ele>
        <time>2020-09-30T06:11:44Z</time>
      </trkpt>
      <trkpt lat="46.52356" lon="4.51311">
        <ele>285.5950012207</ele>
        <time>2020-09-30T06:11:49Z</time>
      </trkpt>
      <trkpt lat="46.5235" lon="4.51317">
        <ele>284.5950012207</ele>
        <time>2020-09-30T06:11:55Z</time>
      </trkpt>
      <trkpt lat="46.52344" lon="4.51322">
        <ele>286.5950012207</ele>
        <time>2020-09-30T06:12:01Z</time>
      </trkpt>
      <trkpt lat="46.52339" lon="4.51331">
        <ele>287.5950012207</ele>
        <time>2020-09-30T06:12:06Z</time>
      </trkpt>
      <trkpt lat="46.52334" lon="4.51338">
        <ele>286.5950012207</ele>
        <time>2020-09-30T06:12:11Z</time>
      </trkpt>
      <trkpt lat="46.5233" lon="4.51346">
        <ele>285.5950012207</ele>
        <time>2020-09-30T06:12:16Z</time>
      </trkpt>
      <trkpt lat="46.52325" lon="4.51352">
        <ele>285.5950012207</ele>
        <time>2020-09-30T06:12:24Z</time>
      </trkpt>
      <trkpt lat="46.52318" lon="4.51364">
        <ele>281.5950012207</ele>
        <time>2020-09-30T06:12:29Z</time>
      </trkpt>
      <trkpt lat="46.52311" lon="4.51372">
        <ele>277.5950012207</ele>
        <time>2020-09-30T06:12:34Z</time>
      </trkpt>
      <trkpt lat="46.52304" lon="4.51379">
        <ele>279.5950012207</ele>
        <time>2020-09-30T06:12:39Z</time>
      </trkpt>
      <trkpt lat="46.523" lon="4.51387">
        <ele>276.5950012207</ele>
        <time>2020-09-30T06:12:44Z</time>
      </trkpt>
      <trkpt lat="46.52294" lon="4.51398">
        <ele>276.5950012207</ele>
        <time>2020-09-30T06:12:49Z</time>
      </trkpt>
      <trkpt lat="46.52288" lon="4.5141">
        <ele>279.5950012207</ele>
        <time>2020-09-30T06:12:54Z</time>
      </trkpt>
      <trkpt lat="46.52283" lon="4.51417">
        <ele>278.5950012207</ele>
        <time>2020-09-30T06:13:02Z</time>
      </trkpt>
      <trkpt lat="46.52278" lon="4.51424">
        <ele>278.5950012207</ele>
        <time>2020-09-30T06:13:07Z</time>
      </trkpt>
      <trkpt lat="46.52272" lon="4.51431">
        <ele>276.5950012207</ele>
        <time>2020-09-30T06:13:12Z</time>
      </trkpt>
      <trkpt lat="46.52267" lon="4.51439">
        <ele>274.5950012207</ele>
        <time>2020-09-30T06:13:18Z</time>
      </trkpt>
      <trkpt lat="46.52262" lon="4.51446">
        <ele>276.5950012207</ele>
        <time>2020-09-30T06:13:23Z</time>
      </trkpt>
      <trkpt lat="46.52255" lon="4.51454">
        <ele>277.5950012207</ele>
        <time>2020-09-30T06:13:28Z</time>
      </trkpt>
      <trkpt lat="46.52251" lon="4.51463">
        <ele>275.5950012207</ele>
        <time>2020-09-30T06:13:33Z</time>
      </trkpt>
      <trkpt lat="46.52246" lon="4.5147">
        <ele>276.5950012207</ele>
        <time>2020-09-30T06:13:38Z</time>
      </trkpt>
      <trkpt lat="46.52241" lon="4.5148">
        <ele>278.5950012207</ele>
        <time>2020-09-30T06:13:45Z</time>
      </trkpt>
      <trkpt lat="46.52235" lon="4.51486">
        <ele>276.5950012207</ele>
        <time>2020-09-30T06:13:50Z</time>
      </trkpt>
      <trkpt lat="46.52228" lon="4.51489">
        <ele>275.5950012207</ele>
        <time>2020-09-30T06:13:55Z</time>
      </trkpt>
      <trkpt lat="46.5222" lon="4.51487">
        <ele>275.5950012207</ele>
        <time>2020-09-30T06:14:00Z</time>
      </trkpt>
      <trkpt lat="46.52214" lon="4.51481">
        <ele>278.5950012207</ele>
        <time>2020-09-30T06:14:05Z</time>
      </trkpt>
      <trkpt lat="46.5221" lon="4.5147">
        <ele>277.5950012207</ele>
        <time>2020-09-30T06:14:10Z</time>
      </trkpt>
      <trkpt lat="46.52204" lon="4.51458">
        <ele>275.5950012207</ele>
        <time>2020-09-30T06:14:15Z</time>
      </trkpt>
      <trkpt lat="46.52199" lon="4.51452">
        <ele>273.5950012207</ele>
        <time>2020-09-30T06:14:20Z</time>
      </trkpt>
      <trkpt lat="46.52196" lon="4.51443">
        <ele>269.5950012207</ele>
        <time>2020-09-30T06:14:30Z</time>
      </trkpt>
      <trkpt lat="46.52192" lon="4.51434">
        <ele>268.5950012207</ele>
        <time>2020-09-30T06:14:35Z</time>
      </trkpt>
      <trkpt lat="46.52187" lon="4.51427">
        <ele>267.5950012207</ele>
        <time>2020-09-30T06:14:41Z</time>
      </trkpt>
      <trkpt lat="46.5218" lon="4.51421">
        <ele>269.5950012207</ele>
        <time>2020-09-30T06:14:46Z</time>
      </trkpt>
      <trkpt lat="46.52176" lon="4.51413">
        <ele>266.5950012207</ele>
        <time>2020-09-30T06:14:52Z</time>
      </trkpt>
      <trkpt lat="46.5217" lon="4.51403">
        <ele>264.5950012207</ele>
        <time>2020-09-30T06:15:00Z</time>
      </trkpt>
      <trkpt lat="46.52162" lon="4.51394">
        <ele>262.59399414062</ele>
        <time>2020-09-30T06:15:05Z</time>
      </trkpt>
      <trkpt lat="46.52157" lon="4.51387">
        <ele>258.59399414062</ele>
        <time>2020-09-30T06:15:11Z</time>
      </trkpt>
      <trkpt lat="46.52153" lon="4.51378">
        <ele>260.59399414062</ele>
        <time>2020-09-30T06:15:18Z</time>
      </trkpt>
      <trkpt lat="46.52147" lon="4.51372">
        <ele>264.59399414062</ele>
        <time>2020-09-30T06:15:24Z</time>
      </trkpt>
      <trkpt lat="46.52143" lon="4.5136">
        <ele>266.59399414062</ele>
        <time>2020-09-30T06:15:29Z</time>
      </trkpt>
      <trkpt lat="46.52137" lon="4.51349">
        <ele>266.59399414062</ele>
        <time>2020-09-30T06:15:34Z</time>
      </trkpt>
      <trkpt lat="46.52128" lon="4.51333">
        <ele>264.59399414062</ele>
        <time>2020-09-30T06:15:39Z</time>
      </trkpt>
      <trkpt lat="46.52122" lon="4.51324">
        <ele>263.59399414062</ele>
        <time>2020-09-30T06:15:44Z</time>
      </trkpt>
      <trkpt lat="46.52117" lon="4.51314">
        <ele>260.59399414062</ele>
        <time>2020-09-30T06:15:49Z</time>
      </trkpt>
      <trkpt lat="46.52113" lon="4.51306">
        <ele>263.59399414062</ele>
        <time>2020-09-30T06:15:55Z</time>
      </trkpt>
      <trkpt lat="46.52108" lon="4.513">
        <ele>262.59399414062</ele>
        <time>2020-09-30T06:16:00Z</time>
      </trkpt>
      <trkpt lat="46.52102" lon="4.5129">
        <ele>267.59399414062</ele>
        <time>2020-09-30T06:16:05Z</time>
      </trkpt>
      <trkpt lat="46.52099" lon="4.51281">
        <ele>267.59399414062</ele>
        <time>2020-09-30T06:16:11Z</time>
      </trkpt>
      <trkpt lat="46.52096" lon="4.51273">
        <ele>267.59399414062</ele>
        <time>2020-09-30T06:16:18Z</time>
      </trkpt>
      <trkpt lat="46.52092" lon="4.51264">
        <ele>263.59399414062</ele>
        <time>2020-09-30T06:16:23Z</time>
      </trkpt>
      <trkpt lat="46.52088" lon="4.51249">
        <ele>265.59399414062</ele>
        <time>2020-09-30T06:16:28Z</time>
      </trkpt>
      <trkpt lat="46.52085" lon="4.5124">
        <ele>263.59399414062</ele>
        <time>2020-09-30T06:16:34Z</time>
      </trkpt>
      <trkpt lat="46.52082" lon="4.51232">
        <ele>263.59399414062</ele>
        <time>2020-09-30T06:16:39Z</time>
      </trkpt>
      <trkpt lat="46.52075" lon="4.51224">
        <ele>260.59399414062</ele>
        <time>2020-09-30T06:16:46Z</time>
      </trkpt>
      <trkpt lat="46.52071" lon="4.51215">
        <ele>258.59399414062</ele>
        <time>2020-09-30T06:16:51Z</time>
      </trkpt>
      <trkpt lat="46.52067" lon="4.51206">
        <ele>260.59399414062</ele>
        <time>2020-09-30T06:16:56Z</time>
      </trkpt>
      <trkpt lat="46.52059" lon="4.51193">
        <ele>262.59399414062</ele>
        <time>2020-09-30T06:17:01Z</time>
      </trkpt>
      <trkpt lat="46.52054" lon="4.51186">
        <ele>261.59399414062</ele>
        <time>2020-09-30T06:17:08Z</time>
      </trkpt>
      <trkpt lat="46.5205" lon="4.51178">
        <ele>262.59399414062</ele>
        <time>2020-09-30T06:17:13Z</time>
      </trkpt>
      <trkpt lat="46.52045" lon="4.51169">
        <ele>260.59399414062</ele>
        <time>2020-09-30T06:17:18Z</time>
      </trkpt>
      <trkpt lat="46.52039" lon="4.51161">
        <ele>259.59399414062</ele>
        <time>2020-09-30T06:17:24Z</time>
      </trkpt>
      <trkpt lat="46.52031" lon="4.51151">
        <ele>257.59399414062</ele>
        <time>2020-09-30T06:17:29Z</time>
      </trkpt>
      <trkpt lat="46.52025" lon="4.51146">
        <ele>257.59399414062</ele>
        <time>2020-09-30T06:17:34Z</time>
      </trkpt>
      <trkpt lat="46.52019" lon="4.51138">
        <ele>257.59399414062</ele>
        <time>2020-09-30T06:17:41Z</time>
      </trkpt>
      <trkpt lat="46.52014" lon="4.5113">
        <ele>256.59399414062</ele>
        <time>2020-09-30T06:17:46Z</time>
      </trkpt>
      <trkpt lat="46.52007" lon="4.51126">
        <ele>257.59399414062</ele>
        <time>2020-09-30T06:17:51Z</time>
      </trkpt>
      <trkpt lat="46.51999" lon="4.51117">
        <ele>256.59399414062</ele>
        <time>2020-09-30T06:17:56Z</time>
      </trkpt>
      <trkpt lat="46.51992" lon="4.51115">
        <ele>256.59399414062</ele>
        <time>2020-09-30T06:18:02Z</time>
      </trkpt>
      <trkpt lat="46.51988" lon="4.51105">
        <ele>254.59399414062</ele>
        <time>2020-09-30T06:18:07Z</time>
      </trkpt>
      <trkpt lat="46.51982" lon="4.51101">
        <ele>255.59399414062</ele>
        <time>2020-09-30T06:18:12Z</time>
      </trkpt>
      <trkpt lat="46.51974" lon="4.51095">
        <ele>259.59399414062</ele>
        <time>2020-09-30T06:18:17Z</time>
      </trkpt>
      <trkpt lat="46.51968" lon="4.51093">
        <ele>259.59399414062</ele>
        <time>2020-09-30T06:18:22Z</time>
      </trkpt>
      <trkpt lat="46.51962" lon="4.51086">
        <ele>261.59399414062</ele>
        <time>2020-09-30T06:18:28Z</time>
      </trkpt>
      <trkpt lat="46.51957" lon="4.5108">
        <ele>261.59399414062</ele>
        <time>2020-09-30T06:18:33Z</time>
      </trkpt>
      <trkpt lat="46.51951" lon="4.51078">
        <ele>258.59399414062</ele>
        <time>2020-09-30T06:18:41Z</time>
      </trkpt>
      <trkpt lat="46.51942" lon="4.51068">
        <ele>255.59399414062</ele>
        <time>2020-09-30T06:18:46Z</time>
      </trkpt>
      <trkpt lat="46.51937" lon="4.51061">
        <ele>256.59399414062</ele>
        <time>2020-09-30T06:18:51Z</time>
      </trkpt>
      <trkpt lat="46.51931" lon="4.51054">
        <ele>257.59399414062</ele>
        <time>2020-09-30T06:18:57Z</time>
      </trkpt>
      <trkpt lat="46.51926" lon="4.51048">
        <ele>253.59399414062</ele>
        <time>2020-09-30T06:19:02Z</time>
      </trkpt>
      <trkpt lat="46.51919" lon="4.51036">
        <ele>253.59399414062</ele>
        <time>2020-09-30T06:19:07Z</time>
      </trkpt>
      <trkpt lat="46.51915" lon="4.51025">
        <ele>257.59399414062</ele>
        <time>2020-09-30T06:19:12Z</time>
      </trkpt>
      <trkpt lat="46.51912" lon="4.51016">
        <ele>257.59399414062</ele>
        <time>2020-09-30T06:19:17Z</time>
      </trkpt>
      <trkpt lat="46.51906" lon="4.51007">
        <ele>257.59298706055</ele>
        <time>2020-09-30T06:19:26Z</time>
      </trkpt>
      <trkpt lat="46.51899" lon="4.50998">
        <ele>255.59300231934</ele>
        <time>2020-09-30T06:19:31Z</time>
      </trkpt>
      <trkpt lat="46.51893" lon="4.5099">
        <ele>255.59300231934</ele>
        <time>2020-09-30T06:19:36Z</time>
      </trkpt>
      <trkpt lat="46.51886" lon="4.50986">
        <ele>256.59298706055</ele>
        <time>2020-09-30T06:19:41Z</time>
      </trkpt>
      <trkpt lat="46.51879" lon="4.5098">
        <ele>256.59298706055</ele>
        <time>2020-09-30T06:19:46Z</time>
      </trkpt>
      <trkpt lat="46.51873" lon="4.50976">
        <ele>258.59298706055</ele>
        <time>2020-09-30T06:19:51Z</time>
      </trkpt>
      <trkpt lat="46.51866" lon="4.50972">
        <ele>258.59298706055</ele>
        <time>2020-09-30T06:19:56Z</time>
      </trkpt>
      <trkpt lat="46.5186" lon="4.50969">
        <ele>258.59298706055</ele>
        <time>2020-09-30T06:20:01Z</time>
      </trkpt>
      <trkpt lat="46.51853" lon="4.50963">
        <ele>260.59298706055</ele>
        <time>2020-09-30T06:20:07Z</time>
      </trkpt>
      <trkpt lat="46.51845" lon="4.5096">
        <ele>261.59298706055</ele>
        <time>2020-09-30T06:20:12Z</time>
      </trkpt>
      <trkpt lat="46.51839" lon="4.50956">
        <ele>261.59298706055</ele>
        <time>2020-09-30T06:20:18Z</time>
      </trkpt>
      <trkpt lat="46.51831" lon="4.50952">
        <ele>262.59298706055</ele>
        <time>2020-09-30T06:20:25Z</time>
      </trkpt>
      <trkpt lat="46.51823" lon="4.50949">
        <ele>263.59298706055</ele>
        <time>2020-09-30T06:20:30Z</time>
      </trkpt>
      <trkpt lat="46.51817" lon="4.50946">
        <ele>260.59298706055</ele>
        <time>2020-09-30T06:20:35Z</time>
      </trkpt>
      <trkpt lat="46.5181" lon="4.50942">
        <ele>263.59298706055</ele>
        <time>2020-09-30T06:20:40Z</time>
      </trkpt>
      <trkpt lat="46.51804" lon="4.50936">
        <ele>262.59298706055</ele>
        <time>2020-09-30T06:20:45Z</time>
      </trkpt>
      <trkpt lat="46.51796" lon="4.50933">
        <ele>263.59298706055</ele>
        <time>2020-09-30T06:20:50Z</time>
      </trkpt>
      <trkpt lat="46.5179" lon="4.50929">
        <ele>261.59298706055</ele>
        <time>2020-09-30T06:20:55Z</time>
      </trkpt>
      <trkpt lat="46.51781" lon="4.50922">
        <ele>263.59298706055</ele>
        <time>2020-09-30T06:21:00Z</time>
      </trkpt>
      <trkpt lat="46.51773" lon="4.50918">
        <ele>264.59298706055</ele>
        <time>2020-09-30T06:21:07Z</time>
      </trkpt>
      <trkpt lat="46.51767" lon="4.50915">
        <ele>265.59298706055</ele>
        <time>2020-09-30T06:21:14Z</time>
      </trkpt>
      <trkpt lat="46.5176" lon="4.50912">
        <ele>264.59298706055</ele>
        <time>2020-09-30T06:21:19Z</time>
      </trkpt>
      <trkpt lat="46.51749" lon="4.50902">
        <ele>264.59298706055</ele>
        <time>2020-09-30T06:21:28Z</time>
      </trkpt>
      <trkpt lat="46.51738" lon="4.50888">
        <ele>264.59298706055</ele>
        <time>2020-09-30T06:21:33Z</time>
      </trkpt>
      <trkpt lat="46.51731" lon="4.50891">
        <ele>264.59298706055</ele>
        <time>2020-09-30T06:21:42Z</time>
      </trkpt>
      <trkpt lat="46.51722" lon="4.5089">
        <ele>264.59298706055</ele>
        <time>2020-09-30T06:21:50Z</time>
      </trkpt>
      <trkpt lat="46.51713" lon="4.50881">
        <ele>268.59298706055</ele>
        <time>2020-09-30T06:21:55Z</time>
      </trkpt>
      <trkpt lat="46.51706" lon="4.50878">
        <ele>267.59298706055</ele>
        <time>2020-09-30T06:22:03Z</time>
      </trkpt>
      <trkpt lat="46.517" lon="4.50873">
        <ele>268.59298706055</ele>
        <time>2020-09-30T06:22:08Z</time>
      </trkpt>
      <trkpt lat="46.51693" lon="4.50871">
        <ele>270.59298706055</ele>
        <time>2020-09-30T06:22:17Z</time>
      </trkpt>
      <trkpt lat="46.51686" lon="4.50869">
        <ele>270.59298706055</ele>
        <time>2020-09-30T06:22:23Z</time>
      </trkpt>
      <trkpt lat="46.5168" lon="4.50865">
        <ele>270.59298706055</ele>
        <time>2020-09-30T06:22:29Z</time>
      </trkpt>
      <trkpt lat="46.51672" lon="4.50859">
        <ele>271.59298706055</ele>
        <time>2020-09-30T06:22:34Z</time>
      </trkpt>
      <trkpt lat="46.51664" lon="4.50857">
        <ele>270.59298706055</ele>
        <time>2020-09-30T06:22:39Z</time>
      </trkpt>
      <trkpt lat="46.51658" lon="4.50852">
        <ele>271.59298706055</ele>
        <time>2020-09-30T06:22:45Z</time>
      </trkpt>
      <trkpt lat="46.51651" lon="4.50846">
        <ele>272.59298706055</ele>
        <time>2020-09-30T06:22:50Z</time>
      </trkpt>
      <trkpt lat="46.51644" lon="4.50843">
        <ele>270.59298706055</ele>
        <time>2020-09-30T06:22:55Z</time>
      </trkpt>
      <trkpt lat="46.51637" lon="4.50838">
        <ele>269.59298706055</ele>
        <time>2020-09-30T06:23:00Z</time>
      </trkpt>
      <trkpt lat="46.51631" lon="4.50833">
        <ele>269.59298706055</ele>
        <time>2020-09-30T06:23:05Z</time>
      </trkpt>
      <trkpt lat="46.51624" lon="4.5083">
        <ele>267.59298706055</ele>
        <time>2020-09-30T06:23:10Z</time>
      </trkpt>
      <trkpt lat="46.51618" lon="4.50827">
        <ele>262.59298706055</ele>
        <time>2020-09-30T06:23:16Z</time>
      </trkpt>
      <trkpt lat="46.5161" lon="4.50816">
        <ele>264.59298706055</ele>
        <time>2020-09-30T06:23:21Z</time>
      </trkpt>
      <trkpt lat="46.51612" lon="4.50806">
        <ele>266.59298706055</ele>
        <time>2020-09-30T06:23:27Z</time>
      </trkpt>
      <trkpt lat="46.51617" lon="4.50798">
        <ele>266.59298706055</ele>
        <time>2020-09-30T06:23:33Z</time>
      </trkpt>
      <trkpt lat="46.51618" lon="4.50788">
        <ele>267.59298706055</ele>
        <time>2020-09-30T06:23:38Z</time>
      </trkpt>
      <trkpt lat="46.51622" lon="4.50779">
        <ele>268.59298706055</ele>
        <time>2020-09-30T06:23:44Z</time>
      </trkpt>
      <trkpt lat="46.51624" lon="4.50768">
        <ele>268.59298706055</ele>
        <time>2020-09-30T06:23:50Z</time>
      </trkpt>
      <trkpt lat="46.51628" lon="4.50755">
        <ele>267.59298706055</ele>
        <time>2020-09-30T06:23:55Z</time>
      </trkpt>
      <trkpt lat="46.5163" lon="4.50741">
        <ele>268.59298706055</ele>
        <time>2020-09-30T06:24:00Z</time>
      </trkpt>
      <trkpt lat="46.51633" lon="4.50732">
        <ele>264.59298706055</ele>
        <time>2020-09-30T06:24:05Z</time>
      </trkpt>
      <trkpt lat="46.51641" lon="4.50727">
        <ele>263.59298706055</ele>
        <time>2020-09-30T06:24:10Z</time>
      </trkpt>
      <trkpt lat="46.51646" lon="4.5072">
        <ele>265.59298706055</ele>
        <time>2020-09-30T06:24:15Z</time>
      </trkpt>
      <trkpt lat="46.51652" lon="4.50712">
        <ele>264.59298706055</ele>
        <time>2020-09-30T06:24:20Z</time>
      </trkpt>
      <trkpt lat="46.51658" lon="4.50706">
        <ele>265.59298706055</ele>
        <time>2020-09-30T06:24:25Z</time>
      </trkpt>
      <trkpt lat="46.51666" lon="4.50704">
        <ele>266.59298706055</ele>
        <time>2020-09-30T06:24:30Z</time>
      </trkpt>
      <trkpt lat="46.51672" lon="4.50697">
        <ele>266.59298706055</ele>
        <time>2020-09-30T06:24:36Z</time>
      </trkpt>
      <trkpt lat="46.51678" lon="4.50692">
        <ele>263.59298706055</ele>
        <time>2020-09-30T06:24:42Z</time>
      </trkpt>
      <trkpt lat="46.51686" lon="4.50686">
        <ele>268.59298706055</ele>
        <time>2020-09-30T06:24:47Z</time>
      </trkpt>
      <trkpt lat="46.5169" lon="4.50677">
        <ele>270.59298706055</ele>
        <time>2020-09-30T06:24:54Z</time>
      </trkpt>
      <trkpt lat="46.51694" lon="4.50669">
        <ele>272.59298706055</ele>
        <time>2020-09-30T06:24:59Z</time>
      </trkpt>
      <trkpt lat="46.51699" lon="4.50661">
        <ele>271.59298706055</ele>
        <time>2020-09-30T06:25:04Z</time>
      </trkpt>
      <trkpt lat="46.51704" lon="4.50653">
        <ele>271.59298706055</ele>
        <time>2020-09-30T06:25:09Z</time>
      </trkpt>
      <trkpt lat="46.51708" lon="4.50644">
        <ele>276.59298706055</ele>
        <time>2020-09-30T06:25:16Z</time>
      </trkpt>
      <trkpt lat="46.51713" lon="4.50634">
        <ele>277.59298706055</ele>
        <time>2020-09-30T06:25:21Z</time>
      </trkpt>
      <trkpt lat="46.51719" lon="4.50627">
        <ele>273.59298706055</ele>
        <time>2020-09-30T06:25:29Z</time>
      </trkpt>
      <trkpt lat="46.51724" lon="4.50619">
        <ele>272.59298706055</ele>
        <time>2020-09-30T06:25:36Z</time>
      </trkpt>
      <trkpt lat="46.51728" lon="4.5061">
        <ele>271.59298706055</ele>
        <time>2020-09-30T06:25:41Z</time>
      </trkpt>
      <trkpt lat="46.51732" lon="4.50601">
        <ele>271.59298706055</ele>
        <time>2020-09-30T06:25:47Z</time>
      </trkpt>
      <trkpt lat="46.51735" lon="4.5059">
        <ele>269.59298706055</ele>
        <time>2020-09-30T06:25:52Z</time>
      </trkpt>
      <trkpt lat="46.51737" lon="4.5058">
        <ele>269.59298706055</ele>
        <time>2020-09-30T06:26:00Z</time>
      </trkpt>
      <trkpt lat="46.51739" lon="4.5057">
        <ele>270.59298706055</ele>
        <time>2020-09-30T06:26:06Z</time>
      </trkpt>
      <trkpt lat="46.5174" lon="4.50558">
        <ele>271.59298706055</ele>
        <time>2020-09-30T06:26:11Z</time>
      </trkpt>
      <trkpt lat="46.51742" lon="4.50542">
        <ele>273.59298706055</ele>
        <time>2020-09-30T06:26:16Z</time>
      </trkpt>
      <trkpt lat="46.51743" lon="4.50532">
        <ele>273.59298706055</ele>
        <time>2020-09-30T06:26:21Z</time>
      </trkpt>
      <trkpt lat="46.51743" lon="4.50521">
        <ele>270.59298706055</ele>
        <time>2020-09-30T06:26:27Z</time>
      </trkpt>
      <trkpt lat="46.5174" lon="4.50511">
        <ele>270.59298706055</ele>
        <time>2020-09-30T06:26:32Z</time>
      </trkpt>
      <trkpt lat="46.51737" lon="4.50502">
        <ele>272.59298706055</ele>
        <time>2020-09-30T06:26:38Z</time>
      </trkpt>
      <trkpt lat="46.51733" lon="4.50493">
        <ele>271.59298706055</ele>
        <time>2020-09-30T06:26:43Z</time>
      </trkpt>
      <trkpt lat="46.51727" lon="4.50486">
        <ele>272.59298706055</ele>
        <time>2020-09-30T06:26:48Z</time>
      </trkpt>
      <trkpt lat="46.51723" lon="4.50477">
        <ele>273.59298706055</ele>
        <time>2020-09-30T06:26:53Z</time>
      </trkpt>
      <trkpt lat="46.5172" lon="4.50468">
        <ele>271.59298706055</ele>
        <time>2020-09-30T06:26:59Z</time>
      </trkpt>
      <trkpt lat="46.51715" lon="4.50462">
        <ele>272.59298706055</ele>
        <time>2020-09-30T06:27:04Z</time>
      </trkpt>
      <trkpt lat="46.51711" lon="4.50453">
        <ele>272.59298706055</ele>
        <time>2020-09-30T06:27:09Z</time>
      </trkpt>
      <trkpt lat="46.51708" lon="4.50445">
        <ele>273.59298706055</ele>
        <time>2020-09-30T06:27:14Z</time>
      </trkpt>
      <trkpt lat="46.51705" lon="4.50435">
        <ele>273.59298706055</ele>
        <time>2020-09-30T06:27:20Z</time>
      </trkpt>
      <trkpt lat="46.51704" lon="4.50424">
        <ele>275.59298706055</ele>
        <time>2020-09-30T06:27:27Z</time>
      </trkpt>
      <trkpt lat="46.51703" lon="4.5041">
        <ele>277.59201049805</ele>
        <time>2020-09-30T06:27:32Z</time>
      </trkpt>
      <trkpt lat="46.51702" lon="4.504">
        <ele>275.59201049805</ele>
        <time>2020-09-30T06:27:39Z</time>
      </trkpt>
      <trkpt lat="46.517" lon="4.50389">
        <ele>275.59201049805</ele>
        <time>2020-09-30T06:27:44Z</time>
      </trkpt>
      <trkpt lat="46.51699" lon="4.50373">
        <ele>279.59201049805</ele>
        <time>2020-09-30T06:27:49Z</time>
      </trkpt>
      <trkpt lat="46.51702" lon="4.50363">
        <ele>282.59201049805</ele>
        <time>2020-09-30T06:27:55Z</time>
      </trkpt>
      <trkpt lat="46.51704" lon="4.50353">
        <ele>282.59201049805</ele>
        <time>2020-09-30T06:28:00Z</time>
      </trkpt>
      <trkpt lat="46.51699" lon="4.50345">
        <ele>283.59201049805</ele>
        <time>2020-09-30T06:28:06Z</time>
      </trkpt>
      <trkpt lat="46.51698" lon="4.50333">
        <ele>283.59201049805</ele>
        <time>2020-09-30T06:28:11Z</time>
      </trkpt>
      <trkpt lat="46.51699" lon="4.50323">
        <ele>282.59201049805</ele>
        <time>2020-09-30T06:28:17Z</time>
      </trkpt>
      <trkpt lat="46.51701" lon="4.50313">
        <ele>282.59201049805</ele>
        <time>2020-09-30T06:28:22Z</time>
      </trkpt>
      <trkpt lat="46.51703" lon="4.50302">
        <ele>280.59201049805</ele>
        <time>2020-09-30T06:28:30Z</time>
      </trkpt>
      <trkpt lat="46.51702" lon="4.50289">
        <ele>283.59201049805</ele>
        <time>2020-09-30T06:28:35Z</time>
      </trkpt>
      <trkpt lat="46.51703" lon="4.50278">
        <ele>283.59201049805</ele>
        <time>2020-09-30T06:28:41Z</time>
      </trkpt>
      <trkpt lat="46.51706" lon="4.50268">
        <ele>285.59201049805</ele>
        <time>2020-09-30T06:28:46Z</time>
      </trkpt>
      <trkpt lat="46.51705" lon="4.50256">
        <ele>285.59201049805</ele>
        <time>2020-09-30T06:28:51Z</time>
      </trkpt>
      <trkpt lat="46.51703" lon="4.50246">
        <ele>285.59201049805</ele>
        <time>2020-09-30T06:28:56Z</time>
      </trkpt>
      <trkpt lat="46.517" lon="4.50237">
        <ele>284.59201049805</ele>
        <time>2020-09-30T06:29:01Z</time>
      </trkpt>
      <trkpt lat="46.51699" lon="4.50227">
        <ele>285.59201049805</ele>
        <time>2020-09-30T06:29:07Z</time>
      </trkpt>
      <trkpt lat="46.51697" lon="4.50216">
        <ele>281.59201049805</ele>
        <time>2020-09-30T06:29:12Z</time>
      </trkpt>
      <trkpt lat="46.51694" lon="4.50206">
        <ele>281.59201049805</ele>
        <time>2020-09-30T06:29:17Z</time>
      </trkpt>
      <trkpt lat="46.51691" lon="4.50196">
        <ele>282.59201049805</ele>
        <time>2020-09-30T06:29:22Z</time>
      </trkpt>
      <trkpt lat="46.51689" lon="4.50186">
        <ele>281.59201049805</ele>
        <time>2020-09-30T06:29:28Z</time>
      </trkpt>
      <trkpt lat="46.51685" lon="4.50176">
        <ele>279.59201049805</ele>
        <time>2020-09-30T06:29:33Z</time>
      </trkpt>
      <trkpt lat="46.51683" lon="4.50166">
        <ele>278.59201049805</ele>
        <time>2020-09-30T06:29:38Z</time>
      </trkpt>
      <trkpt lat="46.51681" lon="4.50155">
        <ele>281.59201049805</ele>
        <time>2020-09-30T06:29:43Z</time>
      </trkpt>
      <trkpt lat="46.5168" lon="4.50146">
        <ele>281.59201049805</ele>
        <time>2020-09-30T06:29:48Z</time>
      </trkpt>
      <trkpt lat="46.51677" lon="4.50135">
        <ele>279.59201049805</ele>
        <time>2020-09-30T06:29:54Z</time>
      </trkpt>
      <trkpt lat="46.51673" lon="4.50124">
        <ele>277.59201049805</ele>
        <time>2020-09-30T06:29:59Z</time>
      </trkpt>
      <trkpt lat="46.51669" lon="4.50116">
        <ele>277.59201049805</ele>
        <time>2020-09-30T06:30:04Z</time>
      </trkpt>
      <trkpt lat="46.51666" lon="4.50106">
        <ele>280.59201049805</ele>
        <time>2020-09-30T06:30:11Z</time>
      </trkpt>
      <trkpt lat="46.51665" lon="4.50091">
        <ele>281.59201049805</ele>
        <time>2020-09-30T06:30:16Z</time>
      </trkpt>
      <trkpt lat="46.51666" lon="4.50081">
        <ele>279.59201049805</ele>
        <time>2020-09-30T06:30:21Z</time>
      </trkpt>
      <trkpt lat="46.51665" lon="4.50069">
        <ele>276.59201049805</ele>
        <time>2020-09-30T06:30:26Z</time>
      </trkpt>
      <trkpt lat="46.51663" lon="4.50058">
        <ele>275.59201049805</ele>
        <time>2020-09-30T06:30:32Z</time>
      </trkpt>
      <trkpt lat="46.51662" lon="4.50046">
        <ele>271.59201049805</ele>
        <time>2020-09-30T06:30:37Z</time>
      </trkpt>
      <trkpt lat="46.51667" lon="4.50037">
        <ele>271.59201049805</ele>
        <time>2020-09-30T06:30:42Z</time>
      </trkpt>
      <trkpt lat="46.51671" lon="4.50029">
        <ele>272.59201049805</ele>
        <time>2020-09-30T06:30:48Z</time>
      </trkpt>
      <trkpt lat="46.51676" lon="4.50019">
        <ele>272.59201049805</ele>
        <time>2020-09-30T06:30:53Z</time>
      </trkpt>
      <trkpt lat="46.51679" lon="4.50011">
        <ele>273.59201049805</ele>
        <time>2020-09-30T06:31:00Z</time>
      </trkpt>
      <trkpt lat="46.51681" lon="4.5">
        <ele>271.59201049805</ele>
        <time>2020-09-30T06:31:05Z</time>
      </trkpt>
      <trkpt lat="46.5168" lon="4.49987">
        <ele>273.59201049805</ele>
        <time>2020-09-30T06:31:10Z</time>
      </trkpt>
      <trkpt lat="46.51681" lon="4.49978">
        <ele>272.59201049805</ele>
        <time>2020-09-30T06:31:16Z</time>
      </trkpt>
      <trkpt lat="46.51677" lon="4.49969">
        <ele>266.59201049805</ele>
        <time>2020-09-30T06:31:21Z</time>
      </trkpt>
      <trkpt lat="46.51675" lon="4.49955">
        <ele>268.59201049805</ele>
        <time>2020-09-30T06:31:26Z</time>
      </trkpt>
      <trkpt lat="46.51674" lon="4.49944">
        <ele>268.59201049805</ele>
        <time>2020-09-30T06:31:31Z</time>
      </trkpt>
      <trkpt lat="46.51671" lon="4.49935">
        <ele>267.59201049805</ele>
        <time>2020-09-30T06:31:36Z</time>
      </trkpt>
      <trkpt lat="46.51667" lon="4.49925">
        <ele>267.59201049805</ele>
        <time>2020-09-30T06:31:42Z</time>
      </trkpt>
      <trkpt lat="46.51666" lon="4.49914">
        <ele>268.59201049805</ele>
        <time>2020-09-30T06:31:48Z</time>
      </trkpt>
      <trkpt lat="46.51664" lon="4.49904">
        <ele>268.59201049805</ele>
        <time>2020-09-30T06:31:53Z</time>
      </trkpt>
      <trkpt lat="46.5166" lon="4.49895">
        <ele>269.59201049805</ele>
        <time>2020-09-30T06:31:58Z</time>
      </trkpt>
      <trkpt lat="46.51655" lon="4.49884">
        <ele>268.59201049805</ele>
        <time>2020-09-30T06:32:03Z</time>
      </trkpt>
      <trkpt lat="46.51654" lon="4.49873">
        <ele>269.59201049805</ele>
        <time>2020-09-30T06:32:08Z</time>
      </trkpt>
      <trkpt lat="46.5165" lon="4.49862">
        <ele>266.59201049805</ele>
        <time>2020-09-30T06:32:13Z</time>
      </trkpt>
      <trkpt lat="46.51649" lon="4.4985">
        <ele>266.59201049805</ele>
        <time>2020-09-30T06:32:19Z</time>
      </trkpt>
      <trkpt lat="46.51649" lon="4.49841">
        <ele>268.59201049805</ele>
        <time>2020-09-30T06:32:25Z</time>
      </trkpt>
      <trkpt lat="46.5165" lon="4.49831">
        <ele>269.59201049805</ele>
        <time>2020-09-30T06:32:30Z</time>
      </trkpt>
      <trkpt lat="46.51654" lon="4.49822">
        <ele>269.59201049805</ele>
        <time>2020-09-30T06:32:35Z</time>
      </trkpt>
      <trkpt lat="46.5165" lon="4.49813">
        <ele>267.59201049805</ele>
        <time>2020-09-30T06:32:42Z</time>
      </trkpt>
      <trkpt lat="46.51654" lon="4.49802">
        <ele>265.59201049805</ele>
        <time>2020-09-30T06:32:47Z</time>
      </trkpt>
      <trkpt lat="46.51654" lon="4.49789">
        <ele>265.59201049805</ele>
        <time>2020-09-30T06:32:52Z</time>
      </trkpt>
      <trkpt lat="46.51653" lon="4.49778">
        <ele>267.59201049805</ele>
        <time>2020-09-30T06:32:57Z</time>
      </trkpt>
      <trkpt lat="46.51654" lon="4.49768">
        <ele>267.59201049805</ele>
        <time>2020-09-30T06:33:03Z</time>
      </trkpt>
      <trkpt lat="46.51655" lon="4.49755">
        <ele>267.59201049805</ele>
        <time>2020-09-30T06:33:08Z</time>
      </trkpt>
      <trkpt lat="46.51655" lon="4.49746">
        <ele>267.59201049805</ele>
        <time>2020-09-30T06:33:13Z</time>
      </trkpt>
      <trkpt lat="46.51654" lon="4.49735">
        <ele>266.59201049805</ele>
        <time>2020-09-30T06:33:20Z</time>
      </trkpt>
      <trkpt lat="46.51655" lon="4.49722">
        <ele>268.59201049805</ele>
        <time>2020-09-30T06:33:25Z</time>
      </trkpt>
      <trkpt lat="46.51656" lon="4.49711">
        <ele>269.59201049805</ele>
        <time>2020-09-30T06:33:30Z</time>
      </trkpt>
      <trkpt lat="46.51658" lon="4.49702">
        <ele>269.59201049805</ele>
        <time>2020-09-30T06:33:35Z</time>
      </trkpt>
      <trkpt lat="46.51663" lon="4.49692">
        <ele>271.59201049805</ele>
        <time>2020-09-30T06:33:40Z</time>
      </trkpt>
      <trkpt lat="46.51661" lon="4.49683">
        <ele>268.59201049805</ele>
        <time>2020-09-30T06:33:45Z</time>
      </trkpt>
      <trkpt lat="46.51665" lon="4.49675">
        <ele>266.59201049805</ele>
        <time>2020-09-30T06:33:51Z</time>
      </trkpt>
      <trkpt lat="46.51674" lon="4.49666">
        <ele>269.59201049805</ele>
        <time>2020-09-30T06:33:56Z</time>
      </trkpt>
      <trkpt lat="46.51671" lon="4.49658">
        <ele>263.59201049805</ele>
        <time>2020-09-30T06:34:01Z</time>
      </trkpt>
      <trkpt lat="46.51676" lon="4.4965">
        <ele>263.59201049805</ele>
        <time>2020-09-30T06:34:07Z</time>
      </trkpt>
      <trkpt lat="46.5168" lon="4.49642">
        <ele>264.59201049805</ele>
        <time>2020-09-30T06:34:12Z</time>
      </trkpt>
      <trkpt lat="46.51685" lon="4.49633">
        <ele>264.59201049805</ele>
        <time>2020-09-30T06:34:19Z</time>
      </trkpt>
      <trkpt lat="46.51689" lon="4.49625">
        <ele>268.59201049805</ele>
        <time>2020-09-30T06:34:24Z</time>
      </trkpt>
      <trkpt lat="46.51692" lon="4.49616">
        <ele>266.59201049805</ele>
        <time>2020-09-30T06:34:35Z</time>
      </trkpt>
      <trkpt lat="46.51697" lon="4.49603">
        <ele>268.59201049805</ele>
        <time>2020-09-30T06:34:40Z</time>
      </trkpt>
      <trkpt lat="46.517" lon="4.49593">
        <ele>269.59201049805</ele>
        <time>2020-09-30T06:34:50Z</time>
      </trkpt>
      <trkpt lat="46.51704" lon="4.49585">
        <ele>267.59201049805</ele>
        <time>2020-09-30T06:34:55Z</time>
      </trkpt>
      <trkpt lat="46.51706" lon="4.49572">
        <ele>265.59201049805</ele>
        <time>2020-09-30T06:35:00Z</time>
      </trkpt>
      <trkpt lat="46.51712" lon="4.49557">
        <ele>266.59201049805</ele>
        <time>2020-09-30T06:35:05Z</time>
      </trkpt>
      <trkpt lat="46.51713" lon="4.49544">
        <ele>268.59201049805</ele>
        <time>2020-09-30T06:35:10Z</time>
      </trkpt>
      <trkpt lat="46.51713" lon="4.49532">
        <ele>272.59201049805</ele>
        <time>2020-09-30T06:35:15Z</time>
      </trkpt>
      <trkpt lat="46.51712" lon="4.4952">
        <ele>272.59201049805</ele>
        <time>2020-09-30T06:35:20Z</time>
      </trkpt>
      <trkpt lat="46.5171" lon="4.49511">
        <ele>270.59201049805</ele>
        <time>2020-09-30T06:35:27Z</time>
      </trkpt>
      <trkpt lat="46.51706" lon="4.49502">
        <ele>269.59201049805</ele>
        <time>2020-09-30T06:35:32Z</time>
      </trkpt>
      <trkpt lat="46.51704" lon="4.49494">
        <ele>270.59201049805</ele>
        <time>2020-09-30T06:35:37Z</time>
      </trkpt>
      <trkpt lat="46.51701" lon="4.49484">
        <ele>270.59201049805</ele>
        <time>2020-09-30T06:35:44Z</time>
      </trkpt>
      <trkpt lat="46.517" lon="4.49475">
        <ele>269.59201049805</ele>
        <time>2020-09-30T06:35:50Z</time>
      </trkpt>
      <trkpt lat="46.51696" lon="4.49465">
        <ele>268.59201049805</ele>
        <time>2020-09-30T06:35:55Z</time>
      </trkpt>
      <trkpt lat="46.51695" lon="4.49454">
        <ele>266.59201049805</ele>
        <time>2020-09-30T06:36:01Z</time>
      </trkpt>
      <trkpt lat="46.51692" lon="4.49443">
        <ele>265.59201049805</ele>
        <time>2020-09-30T06:36:09Z</time>
      </trkpt>
      <trkpt lat="46.51692" lon="4.49431">
        <ele>266.59201049805</ele>
        <time>2020-09-30T06:36:14Z</time>
      </trkpt>
      <trkpt lat="46.51689" lon="4.49422">
        <ele>262.59201049805</ele>
        <time>2020-09-30T06:36:20Z</time>
      </trkpt>
      <trkpt lat="46.51687" lon="4.49408">
        <ele>267.59201049805</ele>
        <time>2020-09-30T06:36:25Z</time>
      </trkpt>
      <trkpt lat="46.51684" lon="4.49398">
        <ele>269.59201049805</ele>
        <time>2020-09-30T06:36:32Z</time>
      </trkpt>
      <trkpt lat="46.51683" lon="4.49386">
        <ele>271.59201049805</ele>
        <time>2020-09-30T06:36:37Z</time>
      </trkpt>
      <trkpt lat="46.51681" lon="4.49375">
        <ele>271.59201049805</ele>
        <time>2020-09-30T06:36:44Z</time>
      </trkpt>
      <trkpt lat="46.51677" lon="4.49364">
        <ele>268.59201049805</ele>
        <time>2020-09-30T06:36:53Z</time>
      </trkpt>
      <trkpt lat="46.51671" lon="4.49357">
        <ele>266.59201049805</ele>
        <time>2020-09-30T06:36:58Z</time>
      </trkpt>
      <trkpt lat="46.51668" lon="4.49347">
        <ele>268.59201049805</ele>
        <time>2020-09-30T06:37:03Z</time>
      </trkpt>
      <trkpt lat="46.51663" lon="4.49337">
        <ele>269.59201049805</ele>
        <time>2020-09-30T06:37:09Z</time>
      </trkpt>
      <trkpt lat="46.5166" lon="4.49327">
        <ele>270.59201049805</ele>
        <time>2020-09-30T06:37:14Z</time>
      </trkpt>
      <trkpt lat="46.51657" lon="4.49318">
        <ele>272.59201049805</ele>
        <time>2020-09-30T06:37:19Z</time>
      </trkpt>
      <trkpt lat="46.51653" lon="4.4931">
        <ele>273.59201049805</ele>
        <time>2020-09-30T06:37:24Z</time>
      </trkpt>
      <trkpt lat="46.51649" lon="4.493">
        <ele>272.59201049805</ele>
        <time>2020-09-30T06:37:30Z</time>
      </trkpt>
      <trkpt lat="46.51646" lon="4.49288">
        <ele>271.59201049805</ele>
        <time>2020-09-30T06:37:35Z</time>
      </trkpt>
      <trkpt lat="46.51648" lon="4.49278">
        <ele>273.59100341797</ele>
        <time>2020-09-30T06:37:43Z</time>
      </trkpt>
      <trkpt lat="46.5165" lon="4.49265">
        <ele>274.59100341797</ele>
        <time>2020-09-30T06:37:48Z</time>
      </trkpt>
      <trkpt lat="46.51652" lon="4.49253">
        <ele>275.59100341797</ele>
        <time>2020-09-30T06:37:54Z</time>
      </trkpt>
      <trkpt lat="46.51652" lon="4.49242">
        <ele>279.59100341797</ele>
        <time>2020-09-30T06:38:00Z</time>
      </trkpt>
      <trkpt lat="46.51655" lon="4.49232">
        <ele>280.59100341797</ele>
        <time>2020-09-30T06:38:05Z</time>
      </trkpt>
      <trkpt lat="46.51657" lon="4.49222">
        <ele>281.59100341797</ele>
        <time>2020-09-30T06:38:13Z</time>
      </trkpt>
      <trkpt lat="46.5166" lon="4.49211">
        <ele>281.59100341797</ele>
        <time>2020-09-30T06:38:18Z</time>
      </trkpt>
      <trkpt lat="46.51663" lon="4.49201">
        <ele>280.59100341797</ele>
        <time>2020-09-30T06:38:23Z</time>
      </trkpt>
      <trkpt lat="46.51666" lon="4.49192">
        <ele>279.59100341797</ele>
        <time>2020-09-30T06:38:28Z</time>
      </trkpt>
      <trkpt lat="46.51668" lon="4.49182">
        <ele>279.59100341797</ele>
        <time>2020-09-30T06:38:35Z</time>
      </trkpt>
      <trkpt lat="46.51671" lon="4.49172">
        <ele>280.59100341797</ele>
        <time>2020-09-30T06:38:40Z</time>
      </trkpt>
      <trkpt lat="46.51676" lon="4.49161">
        <ele>280.59100341797</ele>
        <time>2020-09-30T06:38:45Z</time>
      </trkpt>
      <trkpt lat="46.5168" lon="4.49153">
        <ele>279.59100341797</ele>
        <time>2020-09-30T06:38:51Z</time>
      </trkpt>
      <trkpt lat="46.51682" lon="4.49143">
        <ele>279.59100341797</ele>
        <time>2020-09-30T06:38:57Z</time>
      </trkpt>
      <trkpt lat="46.51683" lon="4.49132">
        <ele>280.59100341797</ele>
        <time>2020-09-30T06:39:04Z</time>
      </trkpt>
      <trkpt lat="46.51683" lon="4.49121">
        <ele>279.59100341797</ele>
        <time>2020-09-30T06:39:10Z</time>
      </trkpt>
      <trkpt lat="46.51682" lon="4.4911">
        <ele>282.59100341797</ele>
        <time>2020-09-30T06:39:15Z</time>
      </trkpt>
      <trkpt lat="46.51682" lon="4.491">
        <ele>281.59100341797</ele>
        <time>2020-09-30T06:39:20Z</time>
      </trkpt>
      <trkpt lat="46.51681" lon="4.4909">
        <ele>282.59100341797</ele>
        <time>2020-09-30T06:39:25Z</time>
      </trkpt>
      <trkpt lat="46.51682" lon="4.49079">
        <ele>282.59100341797</ele>
        <time>2020-09-30T06:39:31Z</time>
      </trkpt>
      <trkpt lat="46.51684" lon="4.49069">
        <ele>282.59100341797</ele>
        <time>2020-09-30T06:39:36Z</time>
      </trkpt>
      <trkpt lat="46.51688" lon="4.49059">
        <ele>284.59100341797</ele>
        <time>2020-09-30T06:39:41Z</time>
      </trkpt>
      <trkpt lat="46.51688" lon="4.49049">
        <ele>285.59100341797</ele>
        <time>2020-09-30T06:39:46Z</time>
      </trkpt>
      <trkpt lat="46.51689" lon="4.49039">
        <ele>284.59100341797</ele>
        <time>2020-09-30T06:39:51Z</time>
      </trkpt>
      <trkpt lat="46.51689" lon="4.4903">
        <ele>284.59100341797</ele>
        <time>2020-09-30T06:39:56Z</time>
      </trkpt>
      <trkpt lat="46.51689" lon="4.49019">
        <ele>284.59100341797</ele>
        <time>2020-09-30T06:40:02Z</time>
      </trkpt>
      <trkpt lat="46.51692" lon="4.4901">
        <ele>283.59100341797</ele>
        <time>2020-09-30T06:40:07Z</time>
      </trkpt>
      <trkpt lat="46.51692" lon="4.49001">
        <ele>282.59100341797</ele>
        <time>2020-09-30T06:40:12Z</time>
      </trkpt>
      <trkpt lat="46.51691" lon="4.4899">
        <ele>281.59100341797</ele>
        <time>2020-09-30T06:40:17Z</time>
      </trkpt>
      <trkpt lat="46.51694" lon="4.48979">
        <ele>283.59100341797</ele>
        <time>2020-09-30T06:40:22Z</time>
      </trkpt>
      <trkpt lat="46.51695" lon="4.48969">
        <ele>282.59100341797</ele>
        <time>2020-09-30T06:40:27Z</time>
      </trkpt>
      <trkpt lat="46.51699" lon="4.48961">
        <ele>286.59100341797</ele>
        <time>2020-09-30T06:40:32Z</time>
      </trkpt>
      <trkpt lat="46.51698" lon="4.4895">
        <ele>287.59100341797</ele>
        <time>2020-09-30T06:40:38Z</time>
      </trkpt>
      <trkpt lat="46.51696" lon="4.48939">
        <ele>287.59100341797</ele>
        <time>2020-09-30T06:40:44Z</time>
      </trkpt>
      <trkpt lat="46.51693" lon="4.48928">
        <ele>286.59100341797</ele>
        <time>2020-09-30T06:40:49Z</time>
      </trkpt>
      <trkpt lat="46.51691" lon="4.48918">
        <ele>286.59100341797</ele>
        <time>2020-09-30T06:40:55Z</time>
      </trkpt>
      <trkpt lat="46.51688" lon="4.48909">
        <ele>285.59100341797</ele>
        <time>2020-09-30T06:41:00Z</time>
      </trkpt>
      <trkpt lat="46.51684" lon="4.48898">
        <ele>285.59100341797</ele>
        <time>2020-09-30T06:41:07Z</time>
      </trkpt>
      <trkpt lat="46.51676" lon="4.48887">
        <ele>286.59100341797</ele>
        <time>2020-09-30T06:41:12Z</time>
      </trkpt>
      <trkpt lat="46.51674" lon="4.48877">
        <ele>287.59100341797</ele>
        <time>2020-09-30T06:41:20Z</time>
      </trkpt>
      <trkpt lat="46.51667" lon="4.4887">
        <ele>288.59100341797</ele>
        <time>2020-09-30T06:41:25Z</time>
      </trkpt>
      <trkpt lat="46.51663" lon="4.48859">
        <ele>287.59100341797</ele>
        <time>2020-09-30T06:41:30Z</time>
      </trkpt>
      <trkpt lat="46.51661" lon="4.48848">
        <ele>288.59100341797</ele>
        <time>2020-09-30T06:41:37Z</time>
      </trkpt>
      <trkpt lat="46.51657" lon="4.48838">
        <ele>289.59100341797</ele>
        <time>2020-09-30T06:41:44Z</time>
      </trkpt>
      <trkpt lat="46.5165" lon="4.48823">
        <ele>287.59100341797</ele>
        <time>2020-09-30T06:41:49Z</time>
      </trkpt>
      <trkpt lat="46.51645" lon="4.48817">
        <ele>289.59100341797</ele>
        <time>2020-09-30T06:41:56Z</time>
      </trkpt>
      <trkpt lat="46.51639" lon="4.4881">
        <ele>287.59100341797</ele>
        <time>2020-09-30T06:42:02Z</time>
      </trkpt>
      <trkpt lat="46.51635" lon="4.48801">
        <ele>287.59100341797</ele>
        <time>2020-09-30T06:42:07Z</time>
      </trkpt>
      <trkpt lat="46.51631" lon="4.48791">
        <ele>288.59100341797</ele>
        <time>2020-09-30T06:42:12Z</time>
      </trkpt>
      <trkpt lat="46.51626" lon="4.48784">
        <ele>286.59100341797</ele>
        <time>2020-09-30T06:42:19Z</time>
      </trkpt>
      <trkpt lat="46.51623" lon="4.48775">
        <ele>288.59100341797</ele>
        <time>2020-09-30T06:42:25Z</time>
      </trkpt>
      <trkpt lat="46.51621" lon="4.48766">
        <ele>290.59100341797</ele>
        <time>2020-09-30T06:42:31Z</time>
      </trkpt>
      <trkpt lat="46.51619" lon="4.48756">
        <ele>293.59100341797</ele>
        <time>2020-09-30T06:42:36Z</time>
      </trkpt>
      <trkpt lat="46.51618" lon="4.48744">
        <ele>296.59100341797</ele>
        <time>2020-09-30T06:42:41Z</time>
      </trkpt>
      <trkpt lat="46.51618" lon="4.48735">
        <ele>296.59100341797</ele>
        <time>2020-09-30T06:42:48Z</time>
      </trkpt>
      <trkpt lat="46.51615" lon="4.48725">
        <ele>293.59100341797</ele>
        <time>2020-09-30T06:42:54Z</time>
      </trkpt>
      <trkpt lat="46.51614" lon="4.48715">
        <ele>293.59100341797</ele>
        <time>2020-09-30T06:43:02Z</time>
      </trkpt>
      <trkpt lat="46.51613" lon="4.48704">
        <ele>292.59100341797</ele>
        <time>2020-09-30T06:43:07Z</time>
      </trkpt>
      <trkpt lat="46.51613" lon="4.48694">
        <ele>292.59100341797</ele>
        <time>2020-09-30T06:43:12Z</time>
      </trkpt>
      <trkpt lat="46.51616" lon="4.48684">
        <ele>291.59100341797</ele>
        <time>2020-09-30T06:43:17Z</time>
      </trkpt>
      <trkpt lat="46.51615" lon="4.48674">
        <ele>293.59100341797</ele>
        <time>2020-09-30T06:43:23Z</time>
      </trkpt>
      <trkpt lat="46.51615" lon="4.48663">
        <ele>292.59100341797</ele>
        <time>2020-09-30T06:43:29Z</time>
      </trkpt>
      <trkpt lat="46.51617" lon="4.48652">
        <ele>292.59100341797</ele>
        <time>2020-09-30T06:43:34Z</time>
      </trkpt>
      <trkpt lat="46.51619" lon="4.48642">
        <ele>292.59100341797</ele>
        <time>2020-09-30T06:43:39Z</time>
      </trkpt>
      <trkpt lat="46.51616" lon="4.48632">
        <ele>292.59100341797</ele>
        <time>2020-09-30T06:43:44Z</time>
      </trkpt>
      <trkpt lat="46.51615" lon="4.48622">
        <ele>292.59100341797</ele>
        <time>2020-09-30T06:43:50Z</time>
      </trkpt>
      <trkpt lat="46.51614" lon="4.48613">
        <ele>295.59100341797</ele>
        <time>2020-09-30T06:43:55Z</time>
      </trkpt>
      <trkpt lat="46.51613" lon="4.48603">
        <ele>293.59100341797</ele>
        <time>2020-09-30T06:44:01Z</time>
      </trkpt>
      <trkpt lat="46.5161" lon="4.48594">
        <ele>292.59100341797</ele>
        <time>2020-09-30T06:44:07Z</time>
      </trkpt>
      <trkpt lat="46.51606" lon="4.48585">
        <ele>294.59100341797</ele>
        <time>2020-09-30T06:44:13Z</time>
      </trkpt>
      <trkpt lat="46.51604" lon="4.48575">
        <ele>294.59100341797</ele>
        <time>2020-09-30T06:44:19Z</time>
      </trkpt>
      <trkpt lat="46.51602" lon="4.48565">
        <ele>298.59100341797</ele>
        <time>2020-09-30T06:44:24Z</time>
      </trkpt>
      <trkpt lat="46.51598" lon="4.48556">
        <ele>299.59100341797</ele>
        <time>2020-09-30T06:44:30Z</time>
      </trkpt>
      <trkpt lat="46.51595" lon="4.48546">
        <ele>301.59100341797</ele>
        <time>2020-09-30T06:44:35Z</time>
      </trkpt>
      <trkpt lat="46.51589" lon="4.48535">
        <ele>301.59100341797</ele>
        <time>2020-09-30T06:44:40Z</time>
      </trkpt>
      <trkpt lat="46.51585" lon="4.48527">
        <ele>301.59100341797</ele>
        <time>2020-09-30T06:44:46Z</time>
      </trkpt>
      <trkpt lat="46.5158" lon="4.4852">
        <ele>303.59100341797</ele>
        <time>2020-09-30T06:44:51Z</time>
      </trkpt>
      <trkpt lat="46.51574" lon="4.48513">
        <ele>306.59100341797</ele>
        <time>2020-09-30T06:44:57Z</time>
      </trkpt>
      <trkpt lat="46.51568" lon="4.48507">
        <ele>310.59100341797</ele>
        <time>2020-09-30T06:45:05Z</time>
      </trkpt>
      <trkpt lat="46.51563" lon="4.48499">
        <ele>312.59100341797</ele>
        <time>2020-09-30T06:45:11Z</time>
      </trkpt>
      <trkpt lat="46.51558" lon="4.48491">
        <ele>312.59100341797</ele>
        <time>2020-09-30T06:45:16Z</time>
      </trkpt>
      <trkpt lat="46.51554" lon="4.48484">
        <ele>307.59100341797</ele>
        <time>2020-09-30T06:45:22Z</time>
      </trkpt>
      <trkpt lat="46.51548" lon="4.48478">
        <ele>305.59100341797</ele>
        <time>2020-09-30T06:45:30Z</time>
      </trkpt>
      <trkpt lat="46.51542" lon="4.48471">
        <ele>305.59100341797</ele>
        <time>2020-09-30T06:45:36Z</time>
      </trkpt>
      <trkpt lat="46.51538" lon="4.48463">
        <ele>306.59100341797</ele>
        <time>2020-09-30T06:45:41Z</time>
      </trkpt>
      <trkpt lat="46.51537" lon="4.48454">
        <ele>306.59100341797</ele>
        <time>2020-09-30T06:45:52Z</time>
      </trkpt>
      <trkpt lat="46.51531" lon="4.48449">
        <ele>304.59100341797</ele>
        <time>2020-09-30T06:45:58Z</time>
      </trkpt>
      <trkpt lat="46.51523" lon="4.48443">
        <ele>302.59100341797</ele>
        <time>2020-09-30T06:46:03Z</time>
      </trkpt>
      <trkpt lat="46.51516" lon="4.48434">
        <ele>303.59100341797</ele>
        <time>2020-09-30T06:46:08Z</time>
      </trkpt>
      <trkpt lat="46.5151" lon="4.4843">
        <ele>299.58999633789</ele>
        <time>2020-09-30T06:46:15Z</time>
      </trkpt>
      <trkpt lat="46.51503" lon="4.48424">
        <ele>300.58999633789</ele>
        <time>2020-09-30T06:46:20Z</time>
      </trkpt>
      <trkpt lat="46.51495" lon="4.48422">
        <ele>301.58999633789</ele>
        <time>2020-09-30T06:46:26Z</time>
      </trkpt>
      <trkpt lat="46.51489" lon="4.48428">
        <ele>302.58999633789</ele>
        <time>2020-09-30T06:46:31Z</time>
      </trkpt>
      <trkpt lat="46.51482" lon="4.48431">
        <ele>305.58999633789</ele>
        <time>2020-09-30T06:46:38Z</time>
      </trkpt>
      <trkpt lat="46.51476" lon="4.48437">
        <ele>306.58999633789</ele>
        <time>2020-09-30T06:46:46Z</time>
      </trkpt>
      <trkpt lat="46.5147" lon="4.48447">
        <ele>306.58999633789</ele>
        <time>2020-09-30T06:46:51Z</time>
      </trkpt>
      <trkpt lat="46.51464" lon="4.48452">
        <ele>311.58999633789</ele>
        <time>2020-09-30T06:46:56Z</time>
      </trkpt>
      <trkpt lat="46.51458" lon="4.48458">
        <ele>312.58999633789</ele>
        <time>2020-09-30T06:47:03Z</time>
      </trkpt>
      <trkpt lat="46.51452" lon="4.48461">
        <ele>312.58999633789</ele>
        <time>2020-09-30T06:47:10Z</time>
      </trkpt>
      <trkpt lat="46.51445" lon="4.48458">
        <ele>313.58999633789</ele>
        <time>2020-09-30T06:47:17Z</time>
      </trkpt>
      <trkpt lat="46.51438" lon="4.48459">
        <ele>307.58999633789</ele>
        <time>2020-09-30T06:47:26Z</time>
      </trkpt>
      <trkpt lat="46.51432" lon="4.48455">
        <ele>305.58999633789</ele>
        <time>2020-09-30T06:47:35Z</time>
      </trkpt>
      <trkpt lat="46.51425" lon="4.48453">
        <ele>306.58999633789</ele>
        <time>2020-09-30T06:47:43Z</time>
      </trkpt>
      <trkpt lat="46.51418" lon="4.48451">
        <ele>306.58999633789</ele>
        <time>2020-09-30T06:47:49Z</time>
      </trkpt>
      <trkpt lat="46.51411" lon="4.48449">
        <ele>305.58999633789</ele>
        <time>2020-09-30T06:47:54Z</time>
      </trkpt>
      <trkpt lat="46.51404" lon="4.48444">
        <ele>310.58999633789</ele>
        <time>2020-09-30T06:48:01Z</time>
      </trkpt>
      <trkpt lat="46.51396" lon="4.48445">
        <ele>312.58999633789</ele>
        <time>2020-09-30T06:48:09Z</time>
      </trkpt>
      <trkpt lat="46.5139" lon="4.48449">
        <ele>313.58999633789</ele>
        <time>2020-09-30T06:48:14Z</time>
      </trkpt>
      <trkpt lat="46.51384" lon="4.48449">
        <ele>311.58999633789</ele>
        <time>2020-09-30T06:48:21Z</time>
      </trkpt>
      <trkpt lat="46.51376" lon="4.48446">
        <ele>314.58999633789</ele>
        <time>2020-09-30T06:48:28Z</time>
      </trkpt>
      <trkpt lat="46.5137" lon="4.48444">
        <ele>316.58999633789</ele>
        <time>2020-09-30T06:48:34Z</time>
      </trkpt>
      <trkpt lat="46.51363" lon="4.48444">
        <ele>318.58999633789</ele>
        <time>2020-09-30T06:48:40Z</time>
      </trkpt>
      <trkpt lat="46.51355" lon="4.48445">
        <ele>316.58999633789</ele>
        <time>2020-09-30T06:48:47Z</time>
      </trkpt>
      <trkpt lat="46.51348" lon="4.48442">
        <ele>319.58999633789</ele>
        <time>2020-09-30T06:48:52Z</time>
      </trkpt>
      <trkpt lat="46.51341" lon="4.48446">
        <ele>317.58999633789</ele>
        <time>2020-09-30T06:48:59Z</time>
      </trkpt>
      <trkpt lat="46.51334" lon="4.48445">
        <ele>321.58999633789</ele>
        <time>2020-09-30T06:49:05Z</time>
      </trkpt>
      <trkpt lat="46.51327" lon="4.48443">
        <ele>321.58999633789</ele>
        <time>2020-09-30T06:49:11Z</time>
      </trkpt>
      <trkpt lat="46.51321" lon="4.48435">
        <ele>327.58999633789</ele>
        <time>2020-09-30T06:49:16Z</time>
      </trkpt>
      <trkpt lat="46.51315" lon="4.48431">
        <ele>328.58999633789</ele>
        <time>2020-09-30T06:49:21Z</time>
      </trkpt>
      <trkpt lat="46.51308" lon="4.48428">
        <ele>328.58999633789</ele>
        <time>2020-09-30T06:49:27Z</time>
      </trkpt>
      <trkpt lat="46.51301" lon="4.48428">
        <ele>325.58999633789</ele>
        <time>2020-09-30T06:49:34Z</time>
      </trkpt>
      <trkpt lat="46.51294" lon="4.48426">
        <ele>326.58999633789</ele>
        <time>2020-09-30T06:49:40Z</time>
      </trkpt>
      <trkpt lat="46.51288" lon="4.48422">
        <ele>328.58999633789</ele>
        <time>2020-09-30T06:49:46Z</time>
      </trkpt>
      <trkpt lat="46.5128" lon="4.4842">
        <ele>328.58999633789</ele>
        <time>2020-09-30T06:49:53Z</time>
      </trkpt>
      <trkpt lat="46.51273" lon="4.48425">
        <ele>322.58999633789</ele>
        <time>2020-09-30T06:50:00Z</time>
      </trkpt>
      <trkpt lat="46.51266" lon="4.48424">
        <ele>323.58999633789</ele>
        <time>2020-09-30T06:50:10Z</time>
      </trkpt>
      <trkpt lat="46.5126" lon="4.48418">
        <ele>326.58999633789</ele>
        <time>2020-09-30T06:50:15Z</time>
      </trkpt>
      <trkpt lat="46.51255" lon="4.4841">
        <ele>329.58999633789</ele>
        <time>2020-09-30T06:50:22Z</time>
      </trkpt>
      <trkpt lat="46.51249" lon="4.48405">
        <ele>324.58999633789</ele>
        <time>2020-09-30T06:50:29Z</time>
      </trkpt>
      <trkpt lat="46.51244" lon="4.48397">
        <ele>323.58999633789</ele>
        <time>2020-09-30T06:50:34Z</time>
      </trkpt>
      <trkpt lat="46.51239" lon="4.4839">
        <ele>324.58999633789</ele>
        <time>2020-09-30T06:50:39Z</time>
      </trkpt>
      <trkpt lat="46.51233" lon="4.48384">
        <ele>325.58999633789</ele>
        <time>2020-09-30T06:50:45Z</time>
      </trkpt>
      <trkpt lat="46.51226" lon="4.48381">
        <ele>323.58999633789</ele>
        <time>2020-09-30T06:50:54Z</time>
      </trkpt>
      <trkpt lat="46.51219" lon="4.48376">
        <ele>322.58999633789</ele>
        <time>2020-09-30T06:51:04Z</time>
      </trkpt>
      <trkpt lat="46.5121" lon="4.48372">
        <ele>323.58999633789</ele>
        <time>2020-09-30T06:51:09Z</time>
      </trkpt>
      <trkpt lat="46.51204" lon="4.48367">
        <ele>323.58999633789</ele>
        <time>2020-09-30T06:51:16Z</time>
      </trkpt>
      <trkpt lat="46.51197" lon="4.48363">
        <ele>327.58999633789</ele>
        <time>2020-09-30T06:51:22Z</time>
      </trkpt>
      <trkpt lat="46.51191" lon="4.48358">
        <ele>329.58999633789</ele>
        <time>2020-09-30T06:51:27Z</time>
      </trkpt>
      <trkpt lat="46.51184" lon="4.48355">
        <ele>329.58999633789</ele>
        <time>2020-09-30T06:51:33Z</time>
      </trkpt>
      <trkpt lat="46.51179" lon="4.4835">
        <ele>328.58999633789</ele>
        <time>2020-09-30T06:51:40Z</time>
      </trkpt>
      <trkpt lat="46.51172" lon="4.48345">
        <ele>330.58898925781</ele>
        <time>2020-09-30T06:51:46Z</time>
      </trkpt>
      <trkpt lat="46.51166" lon="4.48337">
        <ele>331.58898925781</ele>
        <time>2020-09-30T06:51:53Z</time>
      </trkpt>
      <trkpt lat="46.51159" lon="4.48332">
        <ele>332.58898925781</ele>
        <time>2020-09-30T06:52:02Z</time>
      </trkpt>
      <trkpt lat="46.51154" lon="4.48324">
        <ele>330.58898925781</ele>
        <time>2020-09-30T06:52:09Z</time>
      </trkpt>
      <trkpt lat="46.51149" lon="4.48315">
        <ele>332.58898925781</ele>
        <time>2020-09-30T06:52:15Z</time>
      </trkpt>
      <trkpt lat="46.51145" lon="4.48307">
        <ele>334.58898925781</ele>
        <time>2020-09-30T06:52:22Z</time>
      </trkpt>
      <trkpt lat="46.51138" lon="4.48302">
        <ele>339.58898925781</ele>
        <time>2020-09-30T06:52:32Z</time>
      </trkpt>
      <trkpt lat="46.51134" lon="4.48294">
        <ele>342.58898925781</ele>
        <time>2020-09-30T06:52:38Z</time>
      </trkpt>
      <trkpt lat="46.51129" lon="4.48287">
        <ele>343.58898925781</ele>
        <time>2020-09-30T06:52:44Z</time>
      </trkpt>
      <trkpt lat="46.51124" lon="4.48281">
        <ele>343.58898925781</ele>
        <time>2020-09-30T06:52:50Z</time>
      </trkpt>
      <trkpt lat="46.5112" lon="4.48272">
        <ele>345.58898925781</ele>
        <time>2020-09-30T06:52:55Z</time>
      </trkpt>
      <trkpt lat="46.51116" lon="4.48262">
        <ele>345.58898925781</ele>
        <time>2020-09-30T06:53:02Z</time>
      </trkpt>
      <trkpt lat="46.51116" lon="4.48251">
        <ele>344.58898925781</ele>
        <time>2020-09-30T06:53:12Z</time>
      </trkpt>
      <trkpt lat="46.51112" lon="4.48242">
        <ele>344.58898925781</ele>
        <time>2020-09-30T06:53:21Z</time>
      </trkpt>
      <trkpt lat="46.51108" lon="4.48234">
        <ele>346.58898925781</ele>
        <time>2020-09-30T06:53:29Z</time>
      </trkpt>
      <trkpt lat="46.51107" lon="4.48224">
        <ele>347.58898925781</ele>
        <time>2020-09-30T06:53:36Z</time>
      </trkpt>
      <trkpt lat="46.51105" lon="4.48214">
        <ele>349.58898925781</ele>
        <time>2020-09-30T06:53:45Z</time>
      </trkpt>
      <trkpt lat="46.51103" lon="4.48204">
        <ele>349.58898925781</ele>
        <time>2020-09-30T06:53:52Z</time>
      </trkpt>
      <trkpt lat="46.51103" lon="4.48194">
        <ele>351.58898925781</ele>
        <time>2020-09-30T06:53:59Z</time>
      </trkpt>
      <trkpt lat="46.51102" lon="4.48184">
        <ele>352.58898925781</ele>
        <time>2020-09-30T06:54:06Z</time>
      </trkpt>
      <trkpt lat="46.51102" lon="4.48173">
        <ele>350.58898925781</ele>
        <time>2020-09-30T06:54:16Z</time>
      </trkpt>
      <trkpt lat="46.51103" lon="4.48164">
        <ele>354.58898925781</ele>
        <time>2020-09-30T06:54:23Z</time>
      </trkpt>
      <trkpt lat="46.51105" lon="4.48154">
        <ele>353.58898925781</ele>
        <time>2020-09-30T06:54:29Z</time>
      </trkpt>
      <trkpt lat="46.51105" lon="4.48143">
        <ele>355.58898925781</ele>
        <time>2020-09-30T06:54:36Z</time>
      </trkpt>
      <trkpt lat="46.51105" lon="4.48133">
        <ele>356.58898925781</ele>
        <time>2020-09-30T06:54:41Z</time>
      </trkpt>
      <trkpt lat="46.51104" lon="4.48124">
        <ele>355.58898925781</ele>
        <time>2020-09-30T06:54:49Z</time>
      </trkpt>
      <trkpt lat="46.51099" lon="4.48116">
        <ele>353.58898925781</ele>
        <time>2020-09-30T06:54:56Z</time>
      </trkpt>
      <trkpt lat="46.51098" lon="4.48107">
        <ele>355.58898925781</ele>
        <time>2020-09-30T06:55:01Z</time>
      </trkpt>
      <trkpt lat="46.51093" lon="4.48098">
        <ele>356.58898925781</ele>
        <time>2020-09-30T06:55:07Z</time>
      </trkpt>
      <trkpt lat="46.51088" lon="4.48086">
        <ele>359.58898925781</ele>
        <time>2020-09-30T06:55:12Z</time>
      </trkpt>
      <trkpt lat="46.51083" lon="4.4808">
        <ele>361.58898925781</ele>
        <time>2020-09-30T06:55:18Z</time>
      </trkpt>
      <trkpt lat="46.51077" lon="4.4807">
        <ele>361.58898925781</ele>
        <time>2020-09-30T06:55:25Z</time>
      </trkpt>
      <trkpt lat="46.51072" lon="4.48062">
        <ele>363.58898925781</ele>
        <time>2020-09-30T06:55:30Z</time>
      </trkpt>
      <trkpt lat="46.51064" lon="4.48055">
        <ele>355.58898925781</ele>
        <time>2020-09-30T06:55:41Z</time>
      </trkpt>
      <trkpt lat="46.51058" lon="4.4805">
        <ele>355.58898925781</ele>
        <time>2020-09-30T06:55:46Z</time>
      </trkpt>
      <trkpt lat="46.51052" lon="4.48044">
        <ele>355.58898925781</ele>
        <time>2020-09-30T06:55:52Z</time>
      </trkpt>
      <trkpt lat="46.51045" lon="4.48041">
        <ele>350.58898925781</ele>
        <time>2020-09-30T06:55:59Z</time>
      </trkpt>
      <trkpt lat="46.5104" lon="4.48031">
        <ele>352.58898925781</ele>
        <time>2020-09-30T06:56:04Z</time>
      </trkpt>
      <trkpt lat="46.51034" lon="4.48025">
        <ele>354.58898925781</ele>
        <time>2020-09-30T06:56:10Z</time>
      </trkpt>
      <trkpt lat="46.51029" lon="4.48017">
        <ele>359.58898925781</ele>
        <time>2020-09-30T06:56:15Z</time>
      </trkpt>
      <trkpt lat="46.51023" lon="4.48008">
        <ele>361.58898925781</ele>
        <time>2020-09-30T06:56:20Z</time>
      </trkpt>
      <trkpt lat="46.51017" lon="4.48002">
        <ele>361.58898925781</ele>
        <time>2020-09-30T06:56:25Z</time>
      </trkpt>
      <trkpt lat="46.51011" lon="4.48002">
        <ele>358.58898925781</ele>
        <time>2020-09-30T06:56:33Z</time>
      </trkpt>
      <trkpt lat="46.51005" lon="4.47994">
        <ele>360.58898925781</ele>
        <time>2020-09-30T06:56:40Z</time>
      </trkpt>
      <trkpt lat="46.50999" lon="4.47986">
        <ele>361.58898925781</ele>
        <time>2020-09-30T06:56:46Z</time>
      </trkpt>
      <trkpt lat="46.50992" lon="4.47978">
        <ele>362.58898925781</ele>
        <time>2020-09-30T06:56:51Z</time>
      </trkpt>
      <trkpt lat="46.50987" lon="4.47972">
        <ele>363.58898925781</ele>
        <time>2020-09-30T06:56:56Z</time>
      </trkpt>
      <trkpt lat="46.50981" lon="4.47965">
        <ele>365.58898925781</ele>
        <time>2020-09-30T06:57:01Z</time>
      </trkpt>
      <trkpt lat="46.50976" lon="4.47958">
        <ele>366.58898925781</ele>
        <time>2020-09-30T06:57:06Z</time>
      </trkpt>
      <trkpt lat="46.5097" lon="4.47952">
        <ele>367.58898925781</ele>
        <time>2020-09-30T06:57:13Z</time>
      </trkpt>
      <trkpt lat="46.50964" lon="4.47944">
        <ele>368.58898925781</ele>
        <time>2020-09-30T06:57:18Z</time>
      </trkpt>
      <trkpt lat="46.50958" lon="4.47936">
        <ele>369.58898925781</ele>
        <time>2020-09-30T06:57:24Z</time>
      </trkpt>
      <trkpt lat="46.50951" lon="4.47933">
        <ele>369.58898925781</ele>
        <time>2020-09-30T06:57:29Z</time>
      </trkpt>
      <trkpt lat="46.50944" lon="4.47929">
        <ele>368.58898925781</ele>
        <time>2020-09-30T06:57:36Z</time>
      </trkpt>
      <trkpt lat="46.50938" lon="4.47923">
        <ele>365.58898925781</ele>
        <time>2020-09-30T06:57:43Z</time>
      </trkpt>
      <trkpt lat="46.50932" lon="4.47916">
        <ele>363.58898925781</ele>
        <time>2020-09-30T06:57:52Z</time>
      </trkpt>
      <trkpt lat="46.50925" lon="4.47906">
        <ele>363.58801269531</ele>
        <time>2020-09-30T06:57:57Z</time>
      </trkpt>
      <trkpt lat="46.50919" lon="4.47895">
        <ele>365.58801269531</ele>
        <time>2020-09-30T06:58:02Z</time>
      </trkpt>
      <trkpt lat="46.50914" lon="4.47888">
        <ele>361.58801269531</ele>
        <time>2020-09-30T06:58:09Z</time>
      </trkpt>
      <trkpt lat="46.50908" lon="4.47884">
        <ele>361.58801269531</ele>
        <time>2020-09-30T06:58:15Z</time>
      </trkpt>
      <trkpt lat="46.50901" lon="4.47883">
        <ele>360.58801269531</ele>
        <time>2020-09-30T06:58:22Z</time>
      </trkpt>
      <trkpt lat="46.50894" lon="4.4788">
        <ele>359.58801269531</ele>
        <time>2020-09-30T06:58:28Z</time>
      </trkpt>
      <trkpt lat="46.50891" lon="4.47871">
        <ele>364.58801269531</ele>
        <time>2020-09-30T06:58:33Z</time>
      </trkpt>
      <trkpt lat="46.50886" lon="4.47859">
        <ele>369.58801269531</ele>
        <time>2020-09-30T06:58:38Z</time>
      </trkpt>
      <trkpt lat="46.5088" lon="4.47853">
        <ele>373.58801269531</ele>
        <time>2020-09-30T06:58:44Z</time>
      </trkpt>
      <trkpt lat="46.50875" lon="4.47841">
        <ele>376.58801269531</ele>
        <time>2020-09-30T07:00:27Z</time>
      </trkpt>
      <trkpt lat="46.50868" lon="4.47829">
        <ele>374.58801269531</ele>
        <time>2020-09-30T07:00:32Z</time>
      </trkpt>
      <trkpt lat="46.50861" lon="4.47818">
        <ele>375.58801269531</ele>
        <time>2020-09-30T07:00:37Z</time>
      </trkpt>
      <trkpt lat="46.50853" lon="4.47814">
        <ele>375.58801269531</ele>
        <time>2020-09-30T07:00:42Z</time>
      </trkpt>
      <trkpt lat="46.50845" lon="4.47811">
        <ele>377.58801269531</ele>
        <time>2020-09-30T07:00:48Z</time>
      </trkpt>
      <trkpt lat="46.50839" lon="4.47799">
        <ele>375.58801269531</ele>
        <time>2020-09-30T07:00:53Z</time>
      </trkpt>
      <trkpt lat="46.50832" lon="4.47795">
        <ele>376.58801269531</ele>
        <time>2020-09-30T07:01:01Z</time>
      </trkpt>
      <trkpt lat="46.50825" lon="4.47791">
        <ele>378.58801269531</ele>
        <time>2020-09-30T07:01:06Z</time>
      </trkpt>
      <trkpt lat="46.50817" lon="4.47784">
        <ele>380.58801269531</ele>
        <time>2020-09-30T07:01:11Z</time>
      </trkpt>
      <trkpt lat="46.50809" lon="4.47781">
        <ele>382.58801269531</ele>
        <time>2020-09-30T07:01:16Z</time>
      </trkpt>
      <trkpt lat="46.50804" lon="4.47775">
        <ele>379.58801269531</ele>
        <time>2020-09-30T07:01:21Z</time>
      </trkpt>
      <trkpt lat="46.50798" lon="4.47772">
        <ele>380.58801269531</ele>
        <time>2020-09-30T07:01:26Z</time>
      </trkpt>
      <trkpt lat="46.50792" lon="4.47768">
        <ele>379.58801269531</ele>
        <time>2020-09-30T07:01:31Z</time>
      </trkpt>
      <trkpt lat="46.50784" lon="4.4777">
        <ele>378.58801269531</ele>
        <time>2020-09-30T07:01:38Z</time>
      </trkpt>
      <trkpt lat="46.50776" lon="4.47769">
        <ele>379.58801269531</ele>
        <time>2020-09-30T07:01:43Z</time>
      </trkpt>
      <trkpt lat="46.50769" lon="4.47766">
        <ele>379.58801269531</ele>
        <time>2020-09-30T07:01:49Z</time>
      </trkpt>
      <trkpt lat="46.50763" lon="4.47768">
        <ele>379.58801269531</ele>
        <time>2020-09-30T07:01:54Z</time>
      </trkpt>
      <trkpt lat="46.50756" lon="4.47766">
        <ele>380.58801269531</ele>
        <time>2020-09-30T07:01:59Z</time>
      </trkpt>
      <trkpt lat="46.50747" lon="4.47765">
        <ele>381.58801269531</ele>
        <time>2020-09-30T07:02:04Z</time>
      </trkpt>
      <trkpt lat="46.5074" lon="4.47767">
        <ele>380.58801269531</ele>
        <time>2020-09-30T07:02:09Z</time>
      </trkpt>
      <trkpt lat="46.50733" lon="4.47761">
        <ele>380.58801269531</ele>
        <time>2020-09-30T07:02:14Z</time>
      </trkpt>
      <trkpt lat="46.50726" lon="4.47759">
        <ele>380.58801269531</ele>
        <time>2020-09-30T07:02:19Z</time>
      </trkpt>
      <trkpt lat="46.5072" lon="4.47754">
        <ele>377.58801269531</ele>
        <time>2020-09-30T07:02:26Z</time>
      </trkpt>
      <trkpt lat="46.50715" lon="4.47746">
        <ele>373.58801269531</ele>
        <time>2020-09-30T07:02:37Z</time>
      </trkpt>
      <trkpt lat="46.50709" lon="4.4774">
        <ele>373.58801269531</ele>
        <time>2020-09-30T07:02:42Z</time>
      </trkpt>
      <trkpt lat="46.50703" lon="4.47736">
        <ele>375.58801269531</ele>
        <time>2020-09-30T07:02:48Z</time>
      </trkpt>
      <trkpt lat="46.50696" lon="4.47728">
        <ele>375.58801269531</ele>
        <time>2020-09-30T07:02:54Z</time>
      </trkpt>
      <trkpt lat="46.50692" lon="4.4772">
        <ele>375.58801269531</ele>
        <time>2020-09-30T07:02:59Z</time>
      </trkpt>
      <trkpt lat="46.50688" lon="4.47712">
        <ele>375.58801269531</ele>
        <time>2020-09-30T07:03:04Z</time>
      </trkpt>
      <trkpt lat="46.50682" lon="4.47704">
        <ele>372.58801269531</ele>
        <time>2020-09-30T07:03:10Z</time>
      </trkpt>
      <trkpt lat="46.50674" lon="4.47699">
        <ele>374.58801269531</ele>
        <time>2020-09-30T07:03:15Z</time>
      </trkpt>
      <trkpt lat="46.50668" lon="4.47693">
        <ele>371.58801269531</ele>
        <time>2020-09-30T07:03:20Z</time>
      </trkpt>
      <trkpt lat="46.50662" lon="4.47688">
        <ele>371.58801269531</ele>
        <time>2020-09-30T07:03:25Z</time>
      </trkpt>
      <trkpt lat="46.50657" lon="4.4768">
        <ele>370.58801269531</ele>
        <time>2020-09-30T07:03:32Z</time>
      </trkpt>
      <trkpt lat="46.50653" lon="4.47671">
        <ele>370.58801269531</ele>
        <time>2020-09-30T07:03:37Z</time>
      </trkpt>
      <trkpt lat="46.50652" lon="4.47659">
        <ele>373.58801269531</ele>
        <time>2020-09-30T07:03:42Z</time>
      </trkpt>
      <trkpt lat="46.50651" lon="4.47647">
        <ele>374.58801269531</ele>
        <time>2020-09-30T07:03:47Z</time>
      </trkpt>
      <trkpt lat="46.50653" lon="4.47635">
        <ele>377.58801269531</ele>
        <time>2020-09-30T07:03:52Z</time>
      </trkpt>
      <trkpt lat="46.50654" lon="4.47625">
        <ele>375.58801269531</ele>
        <time>2020-09-30T07:03:57Z</time>
      </trkpt>
      <trkpt lat="46.50659" lon="4.47619">
        <ele>377.58801269531</ele>
        <time>2020-09-30T07:04:02Z</time>
      </trkpt>
      <trkpt lat="46.50664" lon="4.47611">
        <ele>375.58801269531</ele>
        <time>2020-09-30T07:04:11Z</time>
      </trkpt>
      <trkpt lat="46.5067" lon="4.47607">
        <ele>372.58801269531</ele>
        <time>2020-09-30T07:04:19Z</time>
      </trkpt>
      <trkpt lat="46.50677" lon="4.47601">
        <ele>369.58801269531</ele>
        <time>2020-09-30T07:04:26Z</time>
      </trkpt>
      <trkpt lat="46.50684" lon="4.47597">
        <ele>365.58801269531</ele>
        <time>2020-09-30T07:04:36Z</time>
      </trkpt>
      <trkpt lat="46.50691" lon="4.4759">
        <ele>366.58801269531</ele>
        <time>2020-09-30T07:04:41Z</time>
      </trkpt>
      <trkpt lat="46.50699" lon="4.47586">
        <ele>368.58801269531</ele>
        <time>2020-09-30T07:04:46Z</time>
      </trkpt>
      <trkpt lat="46.50706" lon="4.47581">
        <ele>370.58801269531</ele>
        <time>2020-09-30T07:04:51Z</time>
      </trkpt>
      <trkpt lat="46.50712" lon="4.47576">
        <ele>370.58801269531</ele>
        <time>2020-09-30T07:04:56Z</time>
      </trkpt>
      <trkpt lat="46.50719" lon="4.4757">
        <ele>371.58801269531</ele>
        <time>2020-09-30T07:05:01Z</time>
      </trkpt>
      <trkpt lat="46.50722" lon="4.47561">
        <ele>368.58801269531</ele>
        <time>2020-09-30T07:05:07Z</time>
      </trkpt>
      <trkpt lat="46.50728" lon="4.47553">
        <ele>369.58801269531</ele>
        <time>2020-09-30T07:05:12Z</time>
      </trkpt>
      <trkpt lat="46.50735" lon="4.47548">
        <ele>369.58801269531</ele>
        <time>2020-09-30T07:05:18Z</time>
      </trkpt>
      <trkpt lat="46.50741" lon="4.47542">
        <ele>369.58801269531</ele>
        <time>2020-09-30T07:05:24Z</time>
      </trkpt>
      <trkpt lat="46.50746" lon="4.47534">
        <ele>370.58801269531</ele>
        <time>2020-09-30T07:05:31Z</time>
      </trkpt>
      <trkpt lat="46.50752" lon="4.47529">
        <ele>373.58801269531</ele>
        <time>2020-09-30T07:05:39Z</time>
      </trkpt>
      <trkpt lat="46.50755" lon="4.4752">
        <ele>368.58801269531</ele>
        <time>2020-09-30T07:05:45Z</time>
      </trkpt>
      <trkpt lat="46.50758" lon="4.47511">
        <ele>372.58801269531</ele>
        <time>2020-09-30T07:05:53Z</time>
      </trkpt>
      <trkpt lat="46.50756" lon="4.47501">
        <ele>372.58801269531</ele>
        <time>2020-09-30T07:06:00Z</time>
      </trkpt>
      <trkpt lat="46.50753" lon="4.47492">
        <ele>376.58801269531</ele>
        <time>2020-09-30T07:06:08Z</time>
      </trkpt>
      <trkpt lat="46.5075" lon="4.47483">
        <ele>378.58801269531</ele>
        <time>2020-09-30T07:06:13Z</time>
      </trkpt>
      <trkpt lat="46.50748" lon="4.47473">
        <ele>378.58801269531</ele>
        <time>2020-09-30T07:06:19Z</time>
      </trkpt>
      <trkpt lat="46.50747" lon="4.47461">
        <ele>379.58801269531</ele>
        <time>2020-09-30T07:06:27Z</time>
      </trkpt>
      <trkpt lat="46.50744" lon="4.47451">
        <ele>378.58801269531</ele>
        <time>2020-09-30T07:06:33Z</time>
      </trkpt>
      <trkpt lat="46.50739" lon="4.47445">
        <ele>376.58801269531</ele>
        <time>2020-09-30T07:06:39Z</time>
      </trkpt>
      <trkpt lat="46.50734" lon="4.47437">
        <ele>379.58801269531</ele>
        <time>2020-09-30T07:06:46Z</time>
      </trkpt>
      <trkpt lat="46.50732" lon="4.47428">
        <ele>383.58801269531</ele>
        <time>2020-09-30T07:06:53Z</time>
      </trkpt>
      <trkpt lat="46.50727" lon="4.47421">
        <ele>381.58801269531</ele>
        <time>2020-09-30T07:07:00Z</time>
      </trkpt>
      <trkpt lat="46.5072" lon="4.47413">
        <ele>380.58801269531</ele>
        <time>2020-09-30T07:07:07Z</time>
      </trkpt>
      <trkpt lat="46.50716" lon="4.47405">
        <ele>383.58801269531</ele>
        <time>2020-09-30T07:07:12Z</time>
      </trkpt>
      <trkpt lat="46.50712" lon="4.47396">
        <ele>385.58801269531</ele>
        <time>2020-09-30T07:07:20Z</time>
      </trkpt>
      <trkpt lat="46.50706" lon="4.47387">
        <ele>388.58700561523</ele>
        <time>2020-09-30T07:07:25Z</time>
      </trkpt>
      <trkpt lat="46.50703" lon="4.47379">
        <ele>383.58700561523</ele>
        <time>2020-09-30T07:07:35Z</time>
      </trkpt>
      <trkpt lat="46.50698" lon="4.47371">
        <ele>389.58700561523</ele>
        <time>2020-09-30T07:07:40Z</time>
      </trkpt>
      <trkpt lat="46.50696" lon="4.47361">
        <ele>391.58700561523</ele>
        <time>2020-09-30T07:07:47Z</time>
      </trkpt>
      <trkpt lat="46.50692" lon="4.47353">
        <ele>392.58700561523</ele>
        <time>2020-09-30T07:07:52Z</time>
      </trkpt>
      <trkpt lat="46.50689" lon="4.47343">
        <ele>393.58700561523</ele>
        <time>2020-09-30T07:08:00Z</time>
      </trkpt>
      <trkpt lat="46.50687" lon="4.47331">
        <ele>392.58700561523</ele>
        <time>2020-09-30T07:08:07Z</time>
      </trkpt>
      <trkpt lat="46.50685" lon="4.47322">
        <ele>394.58700561523</ele>
        <time>2020-09-30T07:08:12Z</time>
      </trkpt>
      <trkpt lat="46.50685" lon="4.47311">
        <ele>397.58700561523</ele>
        <time>2020-09-30T07:08:17Z</time>
      </trkpt>
      <trkpt lat="46.50685" lon="4.473">
        <ele>396.58700561523</ele>
        <time>2020-09-30T07:08:23Z</time>
      </trkpt>
      <trkpt lat="46.50686" lon="4.47291">
        <ele>396.58700561523</ele>
        <time>2020-09-30T07:08:30Z</time>
      </trkpt>
      <trkpt lat="46.5069" lon="4.47281">
        <ele>397.58700561523</ele>
        <time>2020-09-30T07:08:37Z</time>
      </trkpt>
      <trkpt lat="46.50694" lon="4.47272">
        <ele>396.58700561523</ele>
        <time>2020-09-30T07:08:43Z</time>
      </trkpt>
      <trkpt lat="46.50699" lon="4.47263">
        <ele>397.58700561523</ele>
        <time>2020-09-30T07:08:48Z</time>
      </trkpt>
      <trkpt lat="46.50707" lon="4.47257">
        <ele>396.58700561523</ele>
        <time>2020-09-30T07:08:53Z</time>
      </trkpt>
      <trkpt lat="46.5071" lon="4.47246">
        <ele>394.58700561523</ele>
        <time>2020-09-30T07:09:01Z</time>
      </trkpt>
      <trkpt lat="46.50716" lon="4.47238">
        <ele>396.58700561523</ele>
        <time>2020-09-30T07:09:06Z</time>
      </trkpt>
      <trkpt lat="46.50721" lon="4.4723">
        <ele>394.58700561523</ele>
        <time>2020-09-30T07:09:11Z</time>
      </trkpt>
      <trkpt lat="46.50729" lon="4.47224">
        <ele>395.58700561523</ele>
        <time>2020-09-30T07:09:16Z</time>
      </trkpt>
      <trkpt lat="46.50734" lon="4.47215">
        <ele>395.58700561523</ele>
        <time>2020-09-30T07:09:23Z</time>
      </trkpt>
      <trkpt lat="46.5074" lon="4.47209">
        <ele>398.58700561523</ele>
        <time>2020-09-30T07:09:45Z</time>
      </trkpt>
      <trkpt lat="46.50745" lon="4.47202">
        <ele>398.58700561523</ele>
        <time>2020-09-30T07:09:51Z</time>
      </trkpt>
      <trkpt lat="46.50746" lon="4.47191">
        <ele>401.58700561523</ele>
        <time>2020-09-30T07:09:57Z</time>
      </trkpt>
      <trkpt lat="46.50743" lon="4.47181">
        <ele>400.58700561523</ele>
        <time>2020-09-30T07:10:02Z</time>
      </trkpt>
      <trkpt lat="46.50741" lon="4.47171">
        <ele>403.58700561523</ele>
        <time>2020-09-30T07:10:09Z</time>
      </trkpt>
      <trkpt lat="46.50738" lon="4.47162">
        <ele>405.58700561523</ele>
        <time>2020-09-30T07:10:17Z</time>
      </trkpt>
      <trkpt lat="46.50732" lon="4.47156">
        <ele>403.58700561523</ele>
        <time>2020-09-30T07:10:22Z</time>
      </trkpt>
      <trkpt lat="46.50732" lon="4.47144">
        <ele>401.58700561523</ele>
        <time>2020-09-30T07:10:27Z</time>
      </trkpt>
      <trkpt lat="46.50727" lon="4.47135">
        <ele>401.58700561523</ele>
        <time>2020-09-30T07:10:32Z</time>
      </trkpt>
      <trkpt lat="46.5072" lon="4.47134">
        <ele>400.58700561523</ele>
        <time>2020-09-30T07:10:39Z</time>
      </trkpt>
      <trkpt lat="46.50713" lon="4.47127">
        <ele>399.58700561523</ele>
        <time>2020-09-30T07:10:44Z</time>
      </trkpt>
      <trkpt lat="46.50707" lon="4.47117">
        <ele>400.58700561523</ele>
        <time>2020-09-30T07:10:49Z</time>
      </trkpt>
      <trkpt lat="46.50701" lon="4.47111">
        <ele>396.58700561523</ele>
        <time>2020-09-30T07:10:57Z</time>
      </trkpt>
      <trkpt lat="46.50695" lon="4.47103">
        <ele>395.58700561523</ele>
        <time>2020-09-30T07:11:02Z</time>
      </trkpt>
      <trkpt lat="46.50691" lon="4.47096">
        <ele>399.58700561523</ele>
        <time>2020-09-30T07:11:07Z</time>
      </trkpt>
      <trkpt lat="46.50686" lon="4.47088">
        <ele>400.58700561523</ele>
        <time>2020-09-30T07:11:12Z</time>
      </trkpt>
      <trkpt lat="46.50683" lon="4.47078">
        <ele>398.58700561523</ele>
        <time>2020-09-30T07:11:18Z</time>
      </trkpt>
      <trkpt lat="46.50677" lon="4.47066">
        <ele>401.58700561523</ele>
        <time>2020-09-30T07:11:23Z</time>
      </trkpt>
      <trkpt lat="46.50674" lon="4.47056">
        <ele>401.58700561523</ele>
        <time>2020-09-30T07:11:28Z</time>
      </trkpt>
      <trkpt lat="46.5067" lon="4.47048">
        <ele>400.58700561523</ele>
        <time>2020-09-30T07:11:33Z</time>
      </trkpt>
      <trkpt lat="46.50665" lon="4.47038">
        <ele>398.58700561523</ele>
        <time>2020-09-30T07:11:38Z</time>
      </trkpt>
      <trkpt lat="46.50659" lon="4.47031">
        <ele>397.58700561523</ele>
        <time>2020-09-30T07:11:45Z</time>
      </trkpt>
      <trkpt lat="46.50653" lon="4.47024">
        <ele>397.58700561523</ele>
        <time>2020-09-30T07:11:51Z</time>
      </trkpt>
      <trkpt lat="46.50649" lon="4.47017">
        <ele>390.58700561523</ele>
        <time>2020-09-30T07:11:58Z</time>
      </trkpt>
      <trkpt lat="46.50644" lon="4.47009">
        <ele>389.58700561523</ele>
        <time>2020-09-30T07:12:04Z</time>
      </trkpt>
      <trkpt lat="46.5064" lon="4.47001">
        <ele>387.58700561523</ele>
        <time>2020-09-30T07:12:09Z</time>
      </trkpt>
      <trkpt lat="46.50633" lon="4.47">
        <ele>386.58700561523</ele>
        <time>2020-09-30T07:12:14Z</time>
      </trkpt>
      <trkpt lat="46.50628" lon="4.46994">
        <ele>383.58700561523</ele>
        <time>2020-09-30T07:12:19Z</time>
      </trkpt>
      <trkpt lat="46.50622" lon="4.46986">
        <ele>383.58700561523</ele>
        <time>2020-09-30T07:12:25Z</time>
      </trkpt>
      <trkpt lat="46.50618" lon="4.46977">
        <ele>383.58700561523</ele>
        <time>2020-09-30T07:12:30Z</time>
      </trkpt>
      <trkpt lat="46.50618" lon="4.46966">
        <ele>383.58700561523</ele>
        <time>2020-09-30T07:12:41Z</time>
      </trkpt>
      <trkpt lat="46.50613" lon="4.46954">
        <ele>383.58700561523</ele>
        <time>2020-09-30T07:12:46Z</time>
      </trkpt>
      <trkpt lat="46.5061" lon="4.46943">
        <ele>385.58700561523</ele>
        <time>2020-09-30T07:12:50Z</time>
      </trkpt>
      <trkpt lat="46.50605" lon="4.46931">
        <ele>383.58700561523</ele>
        <time>2020-09-30T07:12:56Z</time>
      </trkpt>
      <trkpt lat="46.50605" lon="4.46919">
        <ele>383.58700561523</ele>
        <time>2020-09-30T07:13:01Z</time>
      </trkpt>
      <trkpt lat="46.50606" lon="4.46909">
        <ele>384.58700561523</ele>
        <time>2020-09-30T07:13:06Z</time>
      </trkpt>
      <trkpt lat="46.50606" lon="4.46898">
        <ele>385.58700561523</ele>
        <time>2020-09-30T07:13:13Z</time>
      </trkpt>
      <trkpt lat="46.50605" lon="4.46888">
        <ele>387.58700561523</ele>
        <time>2020-09-30T07:13:19Z</time>
      </trkpt>
      <trkpt lat="46.5061" lon="4.46882">
        <ele>387.58700561523</ele>
        <time>2020-09-30T07:13:24Z</time>
      </trkpt>
      <trkpt lat="46.50607" lon="4.4687">
        <ele>387.58700561523</ele>
        <time>2020-09-30T07:13:29Z</time>
      </trkpt>
      <trkpt lat="46.50605" lon="4.46859">
        <ele>381.58700561523</ele>
        <time>2020-09-30T07:13:35Z</time>
      </trkpt>
      <trkpt lat="46.50605" lon="4.46845">
        <ele>384.58700561523</ele>
        <time>2020-09-30T07:13:40Z</time>
      </trkpt>
      <trkpt lat="46.50599" lon="4.46833">
        <ele>385.58700561523</ele>
        <time>2020-09-30T07:13:45Z</time>
      </trkpt>
      <trkpt lat="46.50599" lon="4.4682">
        <ele>386.58700561523</ele>
        <time>2020-09-30T07:13:50Z</time>
      </trkpt>
      <trkpt lat="46.50596" lon="4.46808">
        <ele>385.58700561523</ele>
        <time>2020-09-30T07:13:55Z</time>
      </trkpt>
      <trkpt lat="46.50593" lon="4.468">
        <ele>387.58700561523</ele>
        <time>2020-09-30T07:14:01Z</time>
      </trkpt>
      <trkpt lat="46.50593" lon="4.46788">
        <ele>386.58700561523</ele>
        <time>2020-09-30T07:14:06Z</time>
      </trkpt>
      <trkpt lat="46.5059" lon="4.46778">
        <ele>386.58700561523</ele>
        <time>2020-09-30T07:14:11Z</time>
      </trkpt>
      <trkpt lat="46.50583" lon="4.46772">
        <ele>384.58700561523</ele>
        <time>2020-09-30T07:14:16Z</time>
      </trkpt>
      <trkpt lat="46.50576" lon="4.46768">
        <ele>382.58700561523</ele>
        <time>2020-09-30T07:14:21Z</time>
      </trkpt>
      <trkpt lat="46.50572" lon="4.4676">
        <ele>383.58700561523</ele>
        <time>2020-09-30T07:14:28Z</time>
      </trkpt>
      <trkpt lat="46.50566" lon="4.46753">
        <ele>383.58700561523</ele>
        <time>2020-09-30T07:14:34Z</time>
      </trkpt>
      <trkpt lat="46.5056" lon="4.46748">
        <ele>382.58700561523</ele>
        <time>2020-09-30T07:14:40Z</time>
      </trkpt>
      <trkpt lat="46.50555" lon="4.46741">
        <ele>381.58700561523</ele>
        <time>2020-09-30T07:14:47Z</time>
      </trkpt>
      <trkpt lat="46.50549" lon="4.46737">
        <ele>381.58700561523</ele>
        <time>2020-09-30T07:14:52Z</time>
      </trkpt>
      <trkpt lat="46.50544" lon="4.46728">
        <ele>384.58700561523</ele>
        <time>2020-09-30T07:14:57Z</time>
      </trkpt>
      <trkpt lat="46.50538" lon="4.4672">
        <ele>388.58700561523</ele>
        <time>2020-09-30T07:15:04Z</time>
      </trkpt>
      <trkpt lat="46.50532" lon="4.46715">
        <ele>392.58700561523</ele>
        <time>2020-09-30T07:15:11Z</time>
      </trkpt>
      <trkpt lat="46.50524" lon="4.46713">
        <ele>392.58599853516</ele>
        <time>2020-09-30T07:15:16Z</time>
      </trkpt>
      <trkpt lat="46.50518" lon="4.46706">
        <ele>393.58599853516</ele>
        <time>2020-09-30T07:15:21Z</time>
      </trkpt>
      <trkpt lat="46.50511" lon="4.46702">
        <ele>392.58599853516</ele>
        <time>2020-09-30T07:15:28Z</time>
      </trkpt>
      <trkpt lat="46.50506" lon="4.46696">
        <ele>392.58599853516</ele>
        <time>2020-09-30T07:15:34Z</time>
      </trkpt>
      <trkpt lat="46.50499" lon="4.4669">
        <ele>394.58599853516</ele>
        <time>2020-09-30T07:15:40Z</time>
      </trkpt>
      <trkpt lat="46.50493" lon="4.46685">
        <ele>395.58599853516</ele>
        <time>2020-09-30T07:15:46Z</time>
      </trkpt>
      <trkpt lat="46.50487" lon="4.46679">
        <ele>391.58599853516</ele>
        <time>2020-09-30T07:15:54Z</time>
      </trkpt>
      <trkpt lat="46.50481" lon="4.46673">
        <ele>389.58599853516</ele>
        <time>2020-09-30T07:16:01Z</time>
      </trkpt>
      <trkpt lat="46.50474" lon="4.4667">
        <ele>386.58599853516</ele>
        <time>2020-09-30T07:16:08Z</time>
      </trkpt>
      <trkpt lat="46.5047" lon="4.46661">
        <ele>386.58599853516</ele>
        <time>2020-09-30T07:16:14Z</time>
      </trkpt>
      <trkpt lat="46.50464" lon="4.46657">
        <ele>386.58599853516</ele>
        <time>2020-09-30T07:16:19Z</time>
      </trkpt>
      <trkpt lat="46.5046" lon="4.46648">
        <ele>388.58599853516</ele>
        <time>2020-09-30T07:16:27Z</time>
      </trkpt>
      <trkpt lat="46.50454" lon="4.46642">
        <ele>389.58599853516</ele>
        <time>2020-09-30T07:16:32Z</time>
      </trkpt>
      <trkpt lat="46.5045" lon="4.46632">
        <ele>387.58599853516</ele>
        <time>2020-09-30T07:16:40Z</time>
      </trkpt>
      <trkpt lat="46.50444" lon="4.46625">
        <ele>389.58599853516</ele>
        <time>2020-09-30T07:16:45Z</time>
      </trkpt>
      <trkpt lat="46.50442" lon="4.46616">
        <ele>389.58599853516</ele>
        <time>2020-09-30T07:16:50Z</time>
      </trkpt>
      <trkpt lat="46.50436" lon="4.46613">
        <ele>390.58599853516</ele>
        <time>2020-09-30T07:16:55Z</time>
      </trkpt>
      <trkpt lat="46.5043" lon="4.46602">
        <ele>392.58599853516</ele>
        <time>2020-09-30T07:17:00Z</time>
      </trkpt>
      <trkpt lat="46.50425" lon="4.46592">
        <ele>394.58599853516</ele>
        <time>2020-09-30T07:17:05Z</time>
      </trkpt>
      <trkpt lat="46.5042" lon="4.46585">
        <ele>395.58599853516</ele>
        <time>2020-09-30T07:17:10Z</time>
      </trkpt>
      <trkpt lat="46.50412" lon="4.46586">
        <ele>394.58599853516</ele>
        <time>2020-09-30T07:17:16Z</time>
      </trkpt>
      <trkpt lat="46.50407" lon="4.46592">
        <ele>396.58599853516</ele>
        <time>2020-09-30T07:17:21Z</time>
      </trkpt>
      <trkpt lat="46.50403" lon="4.46599">
        <ele>397.58599853516</ele>
        <time>2020-09-30T07:17:26Z</time>
      </trkpt>
      <trkpt lat="46.50397" lon="4.46604">
        <ele>396.58599853516</ele>
        <time>2020-09-30T07:17:31Z</time>
      </trkpt>
      <trkpt lat="46.50391" lon="4.46611">
        <ele>394.58599853516</ele>
        <time>2020-09-30T07:17:37Z</time>
      </trkpt>
      <trkpt lat="46.50386" lon="4.46617">
        <ele>393.58599853516</ele>
        <time>2020-09-30T07:17:43Z</time>
      </trkpt>
      <trkpt lat="46.5038" lon="4.46622">
        <ele>393.58599853516</ele>
        <time>2020-09-30T07:17:48Z</time>
      </trkpt>
      <trkpt lat="46.50375" lon="4.46629">
        <ele>392.58599853516</ele>
        <time>2020-09-30T07:17:53Z</time>
      </trkpt>
      <trkpt lat="46.50368" lon="4.46632">
        <ele>393.58599853516</ele>
        <time>2020-09-30T07:17:58Z</time>
      </trkpt>
      <trkpt lat="46.50363" lon="4.46637">
        <ele>392.58599853516</ele>
        <time>2020-09-30T07:18:04Z</time>
      </trkpt>
      <trkpt lat="46.50355" lon="4.46643">
        <ele>393.58599853516</ele>
        <time>2020-09-30T07:18:10Z</time>
      </trkpt>
      <trkpt lat="46.50349" lon="4.46649">
        <ele>394.58599853516</ele>
        <time>2020-09-30T07:18:15Z</time>
      </trkpt>
      <trkpt lat="46.50344" lon="4.46656">
        <ele>395.58599853516</ele>
        <time>2020-09-30T07:18:21Z</time>
      </trkpt>
      <trkpt lat="46.50338" lon="4.46661">
        <ele>395.58599853516</ele>
        <time>2020-09-30T07:18:26Z</time>
      </trkpt>
      <trkpt lat="46.50333" lon="4.46669">
        <ele>394.58599853516</ele>
        <time>2020-09-30T07:18:32Z</time>
      </trkpt>
      <trkpt lat="46.50328" lon="4.46676">
        <ele>394.58599853516</ele>
        <time>2020-09-30T07:18:37Z</time>
      </trkpt>
      <trkpt lat="46.50321" lon="4.4668">
        <ele>397.58599853516</ele>
        <time>2020-09-30T07:18:42Z</time>
      </trkpt>
      <trkpt lat="46.50315" lon="4.46687">
        <ele>396.58599853516</ele>
        <time>2020-09-30T07:18:48Z</time>
      </trkpt>
      <trkpt lat="46.50309" lon="4.46694">
        <ele>397.58599853516</ele>
        <time>2020-09-30T07:18:54Z</time>
      </trkpt>
      <trkpt lat="46.50302" lon="4.46698">
        <ele>398.58599853516</ele>
        <time>2020-09-30T07:19:00Z</time>
      </trkpt>
      <trkpt lat="46.50297" lon="4.46692">
        <ele>397.58599853516</ele>
        <time>2020-09-30T07:19:05Z</time>
      </trkpt>
      <trkpt lat="46.50291" lon="4.46687">
        <ele>397.58599853516</ele>
        <time>2020-09-30T07:19:10Z</time>
      </trkpt>
      <trkpt lat="46.50285" lon="4.46679">
        <ele>399.58599853516</ele>
        <time>2020-09-30T07:19:15Z</time>
      </trkpt>
      <trkpt lat="46.50279" lon="4.46674">
        <ele>401.58599853516</ele>
        <time>2020-09-30T07:19:20Z</time>
      </trkpt>
      <trkpt lat="46.50274" lon="4.46668">
        <ele>399.58599853516</ele>
        <time>2020-09-30T07:19:27Z</time>
      </trkpt>
      <trkpt lat="46.50267" lon="4.46665">
        <ele>403.58599853516</ele>
        <time>2020-09-30T07:19:32Z</time>
      </trkpt>
      <trkpt lat="46.50262" lon="4.46656">
        <ele>404.58599853516</ele>
        <time>2020-09-30T07:19:37Z</time>
      </trkpt>
      <trkpt lat="46.50256" lon="4.4665">
        <ele>405.58599853516</ele>
        <time>2020-09-30T07:19:42Z</time>
      </trkpt>
      <trkpt lat="46.5025" lon="4.46643">
        <ele>404.58599853516</ele>
        <time>2020-09-30T07:19:47Z</time>
      </trkpt>
      <trkpt lat="46.50243" lon="4.46639">
        <ele>407.58599853516</ele>
        <time>2020-09-30T07:19:54Z</time>
      </trkpt>
      <trkpt lat="46.50237" lon="4.46633">
        <ele>408.58599853516</ele>
        <time>2020-09-30T07:20:00Z</time>
      </trkpt>
      <trkpt lat="46.50231" lon="4.46627">
        <ele>410.58599853516</ele>
        <time>2020-09-30T07:20:06Z</time>
      </trkpt>
      <trkpt lat="46.50225" lon="4.46619">
        <ele>413.58599853516</ele>
        <time>2020-09-30T07:20:11Z</time>
      </trkpt>
      <trkpt lat="46.50219" lon="4.46613">
        <ele>411.58599853516</ele>
        <time>2020-09-30T07:20:17Z</time>
      </trkpt>
      <trkpt lat="46.50214" lon="4.46606">
        <ele>413.58599853516</ele>
        <time>2020-09-30T07:20:23Z</time>
      </trkpt>
      <trkpt lat="46.50209" lon="4.466">
        <ele>414.58599853516</ele>
        <time>2020-09-30T07:20:28Z</time>
      </trkpt>
      <trkpt lat="46.50204" lon="4.46593">
        <ele>415.58599853516</ele>
        <time>2020-09-30T07:20:33Z</time>
      </trkpt>
      <trkpt lat="46.50198" lon="4.46589">
        <ele>415.58499145508</ele>
        <time>2020-09-30T07:20:38Z</time>
      </trkpt>
      <trkpt lat="46.50192" lon="4.46581">
        <ele>418.58499145508</ele>
        <time>2020-09-30T07:20:44Z</time>
      </trkpt>
      <trkpt lat="46.50186" lon="4.46577">
        <ele>414.58499145508</ele>
        <time>2020-09-30T07:20:50Z</time>
      </trkpt>
      <trkpt lat="46.5018" lon="4.46572">
        <ele>413.58499145508</ele>
        <time>2020-09-30T07:20:55Z</time>
      </trkpt>
      <trkpt lat="46.50173" lon="4.46568">
        <ele>410.58499145508</ele>
        <time>2020-09-30T07:21:02Z</time>
      </trkpt>
      <trkpt lat="46.50166" lon="4.4657">
        <ele>408.58499145508</ele>
        <time>2020-09-30T07:21:08Z</time>
      </trkpt>
      <trkpt lat="46.50159" lon="4.46571">
        <ele>409.58499145508</ele>
        <time>2020-09-30T07:21:13Z</time>
      </trkpt>
      <trkpt lat="46.50153" lon="4.46574">
        <ele>406.58499145508</ele>
        <time>2020-09-30T07:21:18Z</time>
      </trkpt>
      <trkpt lat="46.50147" lon="4.46578">
        <ele>402.58499145508</ele>
        <time>2020-09-30T07:21:24Z</time>
      </trkpt>
      <trkpt lat="46.5014" lon="4.4658">
        <ele>403.58499145508</ele>
        <time>2020-09-30T07:21:29Z</time>
      </trkpt>
      <trkpt lat="46.50133" lon="4.46583">
        <ele>404.58499145508</ele>
        <time>2020-09-30T07:21:34Z</time>
      </trkpt>
      <trkpt lat="46.50126" lon="4.46584">
        <ele>405.58499145508</ele>
        <time>2020-09-30T07:21:39Z</time>
      </trkpt>
      <trkpt lat="46.50119" lon="4.46585">
        <ele>406.58499145508</ele>
        <time>2020-09-30T07:21:44Z</time>
      </trkpt>
      <trkpt lat="46.50112" lon="4.46587">
        <ele>405.58499145508</ele>
        <time>2020-09-30T07:21:50Z</time>
      </trkpt>
      <trkpt lat="46.50105" lon="4.46588">
        <ele>406.58499145508</ele>
        <time>2020-09-30T07:21:55Z</time>
      </trkpt>
      <trkpt lat="46.50097" lon="4.46587">
        <ele>406.58499145508</ele>
        <time>2020-09-30T07:22:01Z</time>
      </trkpt>
      <trkpt lat="46.50091" lon="4.46587">
        <ele>405.58499145508</ele>
        <time>2020-09-30T07:22:06Z</time>
      </trkpt>
      <trkpt lat="46.50084" lon="4.46585">
        <ele>406.58499145508</ele>
        <time>2020-09-30T07:22:11Z</time>
      </trkpt>
      <trkpt lat="46.50077" lon="4.46584">
        <ele>406.58499145508</ele>
        <time>2020-09-30T07:22:17Z</time>
      </trkpt>
      <trkpt lat="46.50071" lon="4.46582">
        <ele>405.58499145508</ele>
        <time>2020-09-30T07:22:22Z</time>
      </trkpt>
      <trkpt lat="46.50065" lon="4.46577">
        <ele>406.58499145508</ele>
        <time>2020-09-30T07:22:27Z</time>
      </trkpt>
      <trkpt lat="46.50057" lon="4.46574">
        <ele>405.58499145508</ele>
        <time>2020-09-30T07:22:33Z</time>
      </trkpt>
      <trkpt lat="46.50049" lon="4.4657">
        <ele>405.58499145508</ele>
        <time>2020-09-30T07:22:39Z</time>
      </trkpt>
      <trkpt lat="46.50041" lon="4.46568">
        <ele>406.58499145508</ele>
        <time>2020-09-30T07:22:45Z</time>
      </trkpt>
      <trkpt lat="46.50034" lon="4.46566">
        <ele>403.58499145508</ele>
        <time>2020-09-30T07:22:52Z</time>
      </trkpt>
      <trkpt lat="46.50026" lon="4.46563">
        <ele>401.58499145508</ele>
        <time>2020-09-30T07:22:57Z</time>
      </trkpt>
      <trkpt lat="46.50019" lon="4.46558">
        <ele>401.58499145508</ele>
        <time>2020-09-30T07:23:03Z</time>
      </trkpt>
      <trkpt lat="46.50013" lon="4.46551">
        <ele>399.58499145508</ele>
        <time>2020-09-30T07:23:11Z</time>
      </trkpt>
      <trkpt lat="46.50008" lon="4.46543">
        <ele>394.58499145508</ele>
        <time>2020-09-30T07:23:18Z</time>
      </trkpt>
      <trkpt lat="46.50002" lon="4.46535">
        <ele>397.58499145508</ele>
        <time>2020-09-30T07:23:23Z</time>
      </trkpt>
      <trkpt lat="46.49996" lon="4.46527">
        <ele>397.58499145508</ele>
        <time>2020-09-30T07:23:28Z</time>
      </trkpt>
      <trkpt lat="46.49991" lon="4.46517">
        <ele>395.58499145508</ele>
        <time>2020-09-30T07:23:33Z</time>
      </trkpt>
      <trkpt lat="46.49983" lon="4.4651">
        <ele>399.58499145508</ele>
        <time>2020-09-30T07:23:38Z</time>
      </trkpt>
      <trkpt lat="46.49979" lon="4.46503">
        <ele>397.58499145508</ele>
        <time>2020-09-30T07:23:43Z</time>
      </trkpt>
      <trkpt lat="46.4997" lon="4.46493">
        <ele>394.58499145508</ele>
        <time>2020-09-30T07:23:48Z</time>
      </trkpt>
      <trkpt lat="46.49962" lon="4.46492">
        <ele>387.58499145508</ele>
        <time>2020-09-30T07:23:58Z</time>
      </trkpt>
      <trkpt lat="46.49955" lon="4.46489">
        <ele>387.58499145508</ele>
        <time>2020-09-30T07:24:04Z</time>
      </trkpt>
      <trkpt lat="46.49946" lon="4.46483">
        <ele>387.58499145508</ele>
        <time>2020-09-30T07:24:09Z</time>
      </trkpt>
      <trkpt lat="46.4994" lon="4.46478">
        <ele>388.58499145508</ele>
        <time>2020-09-30T07:24:14Z</time>
      </trkpt>
      <trkpt lat="46.49932" lon="4.46477">
        <ele>387.58499145508</ele>
        <time>2020-09-30T07:24:19Z</time>
      </trkpt>
      <trkpt lat="46.49926" lon="4.46473">
        <ele>388.58499145508</ele>
        <time>2020-09-30T07:24:24Z</time>
      </trkpt>
      <trkpt lat="46.49918" lon="4.4647">
        <ele>385.58499145508</ele>
        <time>2020-09-30T07:24:32Z</time>
      </trkpt>
      <trkpt lat="46.49911" lon="4.46468">
        <ele>387.58499145508</ele>
        <time>2020-09-30T07:24:37Z</time>
      </trkpt>
      <trkpt lat="46.49904" lon="4.46462">
        <ele>386.58499145508</ele>
        <time>2020-09-30T07:24:42Z</time>
      </trkpt>
      <trkpt lat="46.49897" lon="4.46459">
        <ele>385.58499145508</ele>
        <time>2020-09-30T07:24:48Z</time>
      </trkpt>
      <trkpt lat="46.49889" lon="4.46454">
        <ele>386.58499145508</ele>
        <time>2020-09-30T07:24:53Z</time>
      </trkpt>
      <trkpt lat="46.49881" lon="4.4645">
        <ele>385.58499145508</ele>
        <time>2020-09-30T07:24:58Z</time>
      </trkpt>
      <trkpt lat="46.49874" lon="4.46448">
        <ele>381.58401489258</ele>
        <time>2020-09-30T07:25:06Z</time>
      </trkpt>
      <trkpt lat="46.49866" lon="4.46444">
        <ele>381.58401489258</ele>
        <time>2020-09-30T07:25:11Z</time>
      </trkpt>
      <trkpt lat="46.49858" lon="4.4644">
        <ele>384.58401489258</ele>
        <time>2020-09-30T07:25:16Z</time>
      </trkpt>
      <trkpt lat="46.49851" lon="4.46439">
        <ele>380.58401489258</ele>
        <time>2020-09-30T07:25:23Z</time>
      </trkpt>
      <trkpt lat="46.49845" lon="4.46432">
        <ele>381.58401489258</ele>
        <time>2020-09-30T07:25:28Z</time>
      </trkpt>
      <trkpt lat="46.49837" lon="4.46429">
        <ele>381.58401489258</ele>
        <time>2020-09-30T07:25:33Z</time>
      </trkpt>
      <trkpt lat="46.49828" lon="4.46426">
        <ele>382.58401489258</ele>
        <time>2020-09-30T07:25:38Z</time>
      </trkpt>
      <trkpt lat="46.49821" lon="4.4642">
        <ele>387.58401489258</ele>
        <time>2020-09-30T07:25:43Z</time>
      </trkpt>
      <trkpt lat="46.49814" lon="4.46418">
        <ele>385.58401489258</ele>
        <time>2020-09-30T07:25:49Z</time>
      </trkpt>
      <trkpt lat="46.49807" lon="4.46416">
        <ele>383.58401489258</ele>
        <time>2020-09-30T07:25:54Z</time>
      </trkpt>
      <trkpt lat="46.498" lon="4.46414">
        <ele>382.58401489258</ele>
        <time>2020-09-30T07:25:59Z</time>
      </trkpt>
      <trkpt lat="46.49793" lon="4.4641">
        <ele>382.58401489258</ele>
        <time>2020-09-30T07:26:04Z</time>
      </trkpt>
      <trkpt lat="46.49785" lon="4.46407">
        <ele>383.58401489258</ele>
        <time>2020-09-30T07:26:11Z</time>
      </trkpt>
      <trkpt lat="46.49777" lon="4.46401">
        <ele>386.58401489258</ele>
        <time>2020-09-30T07:26:16Z</time>
      </trkpt>
      <trkpt lat="46.4977" lon="4.46399">
        <ele>381.58401489258</ele>
        <time>2020-09-30T07:26:22Z</time>
      </trkpt>
      <trkpt lat="46.49763" lon="4.46395">
        <ele>383.58401489258</ele>
        <time>2020-09-30T07:26:27Z</time>
      </trkpt>
      <trkpt lat="46.49755" lon="4.46391">
        <ele>383.58401489258</ele>
        <time>2020-09-30T07:26:32Z</time>
      </trkpt>
      <trkpt lat="46.4975" lon="4.46385">
        <ele>385.58401489258</ele>
        <time>2020-09-30T07:26:37Z</time>
      </trkpt>
      <trkpt lat="46.49745" lon="4.46378">
        <ele>385.58401489258</ele>
        <time>2020-09-30T07:26:42Z</time>
      </trkpt>
      <trkpt lat="46.49742" lon="4.46369">
        <ele>383.58401489258</ele>
        <time>2020-09-30T07:26:47Z</time>
      </trkpt>
      <trkpt lat="46.49738" lon="4.46361">
        <ele>382.58401489258</ele>
        <time>2020-09-30T07:26:52Z</time>
      </trkpt>
      <trkpt lat="46.49738" lon="4.46349">
        <ele>383.58401489258</ele>
        <time>2020-09-30T07:26:57Z</time>
      </trkpt>
      <trkpt lat="46.49736" lon="4.46339">
        <ele>382.58401489258</ele>
        <time>2020-09-30T07:27:03Z</time>
      </trkpt>
      <trkpt lat="46.49735" lon="4.46329">
        <ele>378.58401489258</ele>
        <time>2020-09-30T07:27:08Z</time>
      </trkpt>
      <trkpt lat="46.49732" lon="4.46318">
        <ele>381.58401489258</ele>
        <time>2020-09-30T07:27:13Z</time>
      </trkpt>
      <trkpt lat="46.49725" lon="4.46311">
        <ele>384.58401489258</ele>
        <time>2020-09-30T07:27:18Z</time>
      </trkpt>
      <trkpt lat="46.49725" lon="4.463">
        <ele>385.58401489258</ele>
        <time>2020-09-30T07:27:24Z</time>
      </trkpt>
      <trkpt lat="46.49722" lon="4.46289">
        <ele>383.58401489258</ele>
        <time>2020-09-30T07:27:29Z</time>
      </trkpt>
      <trkpt lat="46.4972" lon="4.46279">
        <ele>381.58401489258</ele>
        <time>2020-09-30T07:27:34Z</time>
      </trkpt>
      <trkpt lat="46.49717" lon="4.4627">
        <ele>379.58401489258</ele>
        <time>2020-09-30T07:27:39Z</time>
      </trkpt>
      <trkpt lat="46.49713" lon="4.46259">
        <ele>379.58401489258</ele>
        <time>2020-09-30T07:27:44Z</time>
      </trkpt>
      <trkpt lat="46.49713" lon="4.46249">
        <ele>372.58401489258</ele>
        <time>2020-09-30T07:27:50Z</time>
      </trkpt>
      <trkpt lat="46.49711" lon="4.46239">
        <ele>373.58401489258</ele>
        <time>2020-09-30T07:27:56Z</time>
      </trkpt>
      <trkpt lat="46.49708" lon="4.46229">
        <ele>373.58401489258</ele>
        <time>2020-09-30T07:28:01Z</time>
      </trkpt>
      <trkpt lat="46.49704" lon="4.4622">
        <ele>372.58401489258</ele>
        <time>2020-09-30T07:28:06Z</time>
      </trkpt>
      <trkpt lat="46.49696" lon="4.46217">
        <ele>372.58401489258</ele>
        <time>2020-09-30T07:28:11Z</time>
      </trkpt>
      <trkpt lat="46.4969" lon="4.4621">
        <ele>372.58401489258</ele>
        <time>2020-09-30T07:28:17Z</time>
      </trkpt>
      <trkpt lat="46.49684" lon="4.46205">
        <ele>374.58401489258</ele>
        <time>2020-09-30T07:28:22Z</time>
      </trkpt>
      <trkpt lat="46.49677" lon="4.46197">
        <ele>373.58401489258</ele>
        <time>2020-09-30T07:28:27Z</time>
      </trkpt>
      <trkpt lat="46.4967" lon="4.46194">
        <ele>372.58401489258</ele>
        <time>2020-09-30T07:28:32Z</time>
      </trkpt>
      <trkpt lat="46.49663" lon="4.46189">
        <ele>370.58401489258</ele>
        <time>2020-09-30T07:28:38Z</time>
      </trkpt>
      <trkpt lat="46.49656" lon="4.46191">
        <ele>369.58401489258</ele>
        <time>2020-09-30T07:28:43Z</time>
      </trkpt>
      <trkpt lat="46.49647" lon="4.46183">
        <ele>370.58401489258</ele>
        <time>2020-09-30T07:28:48Z</time>
      </trkpt>
      <trkpt lat="46.49639" lon="4.46181">
        <ele>370.58401489258</ele>
        <time>2020-09-30T07:28:53Z</time>
      </trkpt>
      <trkpt lat="46.49633" lon="4.46184">
        <ele>370.58401489258</ele>
        <time>2020-09-30T07:28:59Z</time>
      </trkpt>
      <trkpt lat="46.49625" lon="4.46188">
        <ele>372.58401489258</ele>
        <time>2020-09-30T07:29:04Z</time>
      </trkpt>
      <trkpt lat="46.49619" lon="4.46194">
        <ele>371.58401489258</ele>
        <time>2020-09-30T07:29:11Z</time>
      </trkpt>
      <trkpt lat="46.49611" lon="4.46196">
        <ele>374.58401489258</ele>
        <time>2020-09-30T07:29:17Z</time>
      </trkpt>
      <trkpt lat="46.49605" lon="4.46203">
        <ele>375.58401489258</ele>
        <time>2020-09-30T07:29:22Z</time>
      </trkpt>
      <trkpt lat="46.496" lon="4.46209">
        <ele>374.58401489258</ele>
        <time>2020-09-30T07:29:27Z</time>
      </trkpt>
      <trkpt lat="46.49594" lon="4.46213">
        <ele>373.58401489258</ele>
        <time>2020-09-30T07:29:33Z</time>
      </trkpt>
      <trkpt lat="46.49587" lon="4.46219">
        <ele>372.58401489258</ele>
        <time>2020-09-30T07:29:39Z</time>
      </trkpt>
      <trkpt lat="46.4958" lon="4.46225">
        <ele>374.58401489258</ele>
        <time>2020-09-30T07:29:44Z</time>
      </trkpt>
      <trkpt lat="46.49575" lon="4.46231">
        <ele>373.5830078125</ele>
        <time>2020-09-30T07:29:51Z</time>
      </trkpt>
      <trkpt lat="46.4957" lon="4.46238">
        <ele>369.5830078125</ele>
        <time>2020-09-30T07:29:57Z</time>
      </trkpt>
      <trkpt lat="46.49563" lon="4.46243">
        <ele>368.5830078125</ele>
        <time>2020-09-30T07:30:02Z</time>
      </trkpt>
      <trkpt lat="46.49556" lon="4.46246">
        <ele>367.5830078125</ele>
        <time>2020-09-30T07:30:07Z</time>
      </trkpt>
      <trkpt lat="46.49548" lon="4.46248">
        <ele>370.5830078125</ele>
        <time>2020-09-30T07:30:12Z</time>
      </trkpt>
      <trkpt lat="46.49541" lon="4.46252">
        <ele>370.5830078125</ele>
        <time>2020-09-30T07:30:17Z</time>
      </trkpt>
      <trkpt lat="46.49537" lon="4.4626">
        <ele>365.5830078125</ele>
        <time>2020-09-30T07:30:23Z</time>
      </trkpt>
      <trkpt lat="46.49531" lon="4.4626">
        <ele>367.5830078125</ele>
        <time>2020-09-30T07:30:28Z</time>
      </trkpt>
      <trkpt lat="46.49525" lon="4.46267">
        <ele>367.5830078125</ele>
        <time>2020-09-30T07:30:33Z</time>
      </trkpt>
      <trkpt lat="46.49519" lon="4.46273">
        <ele>366.5830078125</ele>
        <time>2020-09-30T07:30:39Z</time>
      </trkpt>
      <trkpt lat="46.49513" lon="4.46279">
        <ele>368.5830078125</ele>
        <time>2020-09-30T07:30:44Z</time>
      </trkpt>
      <trkpt lat="46.49507" lon="4.46282">
        <ele>369.5830078125</ele>
        <time>2020-09-30T07:30:49Z</time>
      </trkpt>
      <trkpt lat="46.49501" lon="4.46286">
        <ele>368.5830078125</ele>
        <time>2020-09-30T07:30:54Z</time>
      </trkpt>
      <trkpt lat="46.49495" lon="4.46292">
        <ele>368.5830078125</ele>
        <time>2020-09-30T07:31:01Z</time>
      </trkpt>
      <trkpt lat="46.4949" lon="4.46297">
        <ele>371.5830078125</ele>
        <time>2020-09-30T07:31:07Z</time>
      </trkpt>
      <trkpt lat="46.49484" lon="4.46303">
        <ele>373.5830078125</ele>
        <time>2020-09-30T07:31:14Z</time>
      </trkpt>
      <trkpt lat="46.49477" lon="4.46308">
        <ele>373.5830078125</ele>
        <time>2020-09-30T07:31:20Z</time>
      </trkpt>
      <trkpt lat="46.49471" lon="4.46312">
        <ele>373.5830078125</ele>
        <time>2020-09-30T07:31:27Z</time>
      </trkpt>
      <trkpt lat="46.49465" lon="4.46318">
        <ele>374.5830078125</ele>
        <time>2020-09-30T07:31:32Z</time>
      </trkpt>
      <trkpt lat="46.49459" lon="4.46322">
        <ele>374.5830078125</ele>
        <time>2020-09-30T07:31:38Z</time>
      </trkpt>
      <trkpt lat="46.49451" lon="4.46324">
        <ele>375.5830078125</ele>
        <time>2020-09-30T07:31:45Z</time>
      </trkpt>
      <trkpt lat="46.49445" lon="4.46328">
        <ele>376.5830078125</ele>
        <time>2020-09-30T07:31:51Z</time>
      </trkpt>
      <trkpt lat="46.49439" lon="4.46335">
        <ele>378.5830078125</ele>
        <time>2020-09-30T07:31:58Z</time>
      </trkpt>
      <trkpt lat="46.49433" lon="4.46341">
        <ele>379.5830078125</ele>
        <time>2020-09-30T07:32:04Z</time>
      </trkpt>
      <trkpt lat="46.49426" lon="4.46345">
        <ele>379.5830078125</ele>
        <time>2020-09-30T07:32:10Z</time>
      </trkpt>
      <trkpt lat="46.4942" lon="4.46351">
        <ele>380.5830078125</ele>
        <time>2020-09-30T07:32:17Z</time>
      </trkpt>
      <trkpt lat="46.49414" lon="4.46357">
        <ele>382.5830078125</ele>
        <time>2020-09-30T07:32:24Z</time>
      </trkpt>
      <trkpt lat="46.49407" lon="4.46362">
        <ele>385.5830078125</ele>
        <time>2020-09-30T07:32:32Z</time>
      </trkpt>
      <trkpt lat="46.494" lon="4.46366">
        <ele>388.5830078125</ele>
        <time>2020-09-30T07:32:39Z</time>
      </trkpt>
      <trkpt lat="46.49394" lon="4.4637">
        <ele>390.5830078125</ele>
        <time>2020-09-30T07:32:45Z</time>
      </trkpt>
      <trkpt lat="46.49388" lon="4.46376">
        <ele>390.5830078125</ele>
        <time>2020-09-30T07:32:51Z</time>
      </trkpt>
      <trkpt lat="46.49382" lon="4.46382">
        <ele>390.5830078125</ele>
        <time>2020-09-30T07:32:56Z</time>
      </trkpt>
      <trkpt lat="46.49376" lon="4.46388">
        <ele>387.5830078125</ele>
        <time>2020-09-30T07:33:03Z</time>
      </trkpt>
      <trkpt lat="46.49369" lon="4.46392">
        <ele>390.5830078125</ele>
        <time>2020-09-30T07:33:08Z</time>
      </trkpt>
      <trkpt lat="46.49362" lon="4.46396">
        <ele>391.5830078125</ele>
        <time>2020-09-30T07:33:13Z</time>
      </trkpt>
      <trkpt lat="46.49355" lon="4.46399">
        <ele>390.5830078125</ele>
        <time>2020-09-30T07:33:19Z</time>
      </trkpt>
      <trkpt lat="46.49349" lon="4.46402">
        <ele>391.5830078125</ele>
        <time>2020-09-30T07:33:24Z</time>
      </trkpt>
      <trkpt lat="46.49341" lon="4.46405">
        <ele>390.5830078125</ele>
        <time>2020-09-30T07:33:29Z</time>
      </trkpt>
      <trkpt lat="46.49333" lon="4.46407">
        <ele>391.5830078125</ele>
        <time>2020-09-30T07:33:35Z</time>
      </trkpt>
      <trkpt lat="46.49326" lon="4.46408">
        <ele>390.5830078125</ele>
        <time>2020-09-30T07:33:41Z</time>
      </trkpt>
      <trkpt lat="46.49319" lon="4.4641">
        <ele>390.5830078125</ele>
        <time>2020-09-30T07:33:47Z</time>
      </trkpt>
      <trkpt lat="46.49312" lon="4.46413">
        <ele>389.5830078125</ele>
        <time>2020-09-30T07:33:53Z</time>
      </trkpt>
      <trkpt lat="46.49305" lon="4.46413">
        <ele>391.5830078125</ele>
        <time>2020-09-30T07:33:58Z</time>
      </trkpt>
      <trkpt lat="46.49298" lon="4.46416">
        <ele>389.5830078125</ele>
        <time>2020-09-30T07:34:03Z</time>
      </trkpt>
      <trkpt lat="46.4929" lon="4.4642">
        <ele>386.5830078125</ele>
        <time>2020-09-30T07:34:11Z</time>
      </trkpt>
      <trkpt lat="46.49282" lon="4.46418">
        <ele>388.5830078125</ele>
        <time>2020-09-30T07:34:16Z</time>
      </trkpt>
      <trkpt lat="46.49276" lon="4.46419">
        <ele>387.5830078125</ele>
        <time>2020-09-30T07:34:21Z</time>
      </trkpt>
      <trkpt lat="46.49268" lon="4.4642">
        <ele>389.5830078125</ele>
        <time>2020-09-30T07:34:27Z</time>
      </trkpt>
      <trkpt lat="46.49261" lon="4.46421">
        <ele>389.5830078125</ele>
        <time>2020-09-30T07:34:32Z</time>
      </trkpt>
      <trkpt lat="46.49254" lon="4.46425">
        <ele>390.5830078125</ele>
        <time>2020-09-30T07:34:37Z</time>
      </trkpt>
      <trkpt lat="46.49249" lon="4.46431">
        <ele>389.5830078125</ele>
        <time>2020-09-30T07:34:42Z</time>
      </trkpt>
      <trkpt lat="46.49242" lon="4.46436">
        <ele>389.5830078125</ele>
        <time>2020-09-30T07:34:48Z</time>
      </trkpt>
      <trkpt lat="46.49237" lon="4.46442">
        <ele>389.5830078125</ele>
        <time>2020-09-30T07:34:53Z</time>
      </trkpt>
      <trkpt lat="46.49231" lon="4.46446">
        <ele>388.5830078125</ele>
        <time>2020-09-30T07:34:58Z</time>
      </trkpt>
      <trkpt lat="46.49224" lon="4.4645">
        <ele>388.5830078125</ele>
        <time>2020-09-30T07:35:03Z</time>
      </trkpt>
      <trkpt lat="46.49218" lon="4.46456">
        <ele>387.5830078125</ele>
        <time>2020-09-30T07:35:09Z</time>
      </trkpt>
      <trkpt lat="46.49211" lon="4.46459">
        <ele>385.5830078125</ele>
        <time>2020-09-30T07:35:15Z</time>
      </trkpt>
      <trkpt lat="46.49204" lon="4.46461">
        <ele>384.5830078125</ele>
        <time>2020-09-30T07:35:22Z</time>
      </trkpt>
      <trkpt lat="46.49197" lon="4.46462">
        <ele>381.5830078125</ele>
        <time>2020-09-30T07:35:29Z</time>
      </trkpt>
      <trkpt lat="46.49188" lon="4.46462">
        <ele>382.5830078125</ele>
        <time>2020-09-30T07:35:34Z</time>
      </trkpt>
      <trkpt lat="46.49178" lon="4.4646">
        <ele>388.5830078125</ele>
        <time>2020-09-30T07:35:39Z</time>
      </trkpt>
      <trkpt lat="46.4917" lon="4.46459">
        <ele>387.5830078125</ele>
        <time>2020-09-30T07:35:44Z</time>
      </trkpt>
      <trkpt lat="46.49163" lon="4.46459">
        <ele>386.5830078125</ele>
        <time>2020-09-30T07:35:51Z</time>
      </trkpt>
      <trkpt lat="46.49156" lon="4.46458">
        <ele>384.5830078125</ele>
        <time>2020-09-30T07:35:57Z</time>
      </trkpt>
      <trkpt lat="46.49148" lon="4.4646">
        <ele>380.58200073242</ele>
        <time>2020-09-30T07:36:04Z</time>
      </trkpt>
      <trkpt lat="46.4914" lon="4.4646">
        <ele>377.58200073242</ele>
        <time>2020-09-30T07:36:09Z</time>
      </trkpt>
      <trkpt lat="46.49133" lon="4.46464">
        <ele>378.58200073242</ele>
        <time>2020-09-30T07:36:14Z</time>
      </trkpt>
      <trkpt lat="46.49127" lon="4.46469">
        <ele>377.58200073242</ele>
        <time>2020-09-30T07:36:20Z</time>
      </trkpt>
      <trkpt lat="46.49121" lon="4.46474">
        <ele>377.58200073242</ele>
        <time>2020-09-30T07:36:26Z</time>
      </trkpt>
      <trkpt lat="46.49116" lon="4.4648">
        <ele>378.58200073242</ele>
        <time>2020-09-30T07:36:31Z</time>
      </trkpt>
      <trkpt lat="46.49112" lon="4.46488">
        <ele>379.58200073242</ele>
        <time>2020-09-30T07:36:37Z</time>
      </trkpt>
      <trkpt lat="46.49107" lon="4.46497">
        <ele>377.58200073242</ele>
        <time>2020-09-30T07:36:44Z</time>
      </trkpt>
      <trkpt lat="46.49104" lon="4.46506">
        <ele>378.58200073242</ele>
        <time>2020-09-30T07:36:49Z</time>
      </trkpt>
      <trkpt lat="46.49101" lon="4.46516">
        <ele>379.58200073242</ele>
        <time>2020-09-30T07:36:54Z</time>
      </trkpt>
      <trkpt lat="46.49097" lon="4.46526">
        <ele>378.58200073242</ele>
        <time>2020-09-30T07:36:59Z</time>
      </trkpt>
      <trkpt lat="46.49095" lon="4.46538">
        <ele>380.58200073242</ele>
        <time>2020-09-30T07:37:06Z</time>
      </trkpt>
      <trkpt lat="46.49093" lon="4.46549">
        <ele>379.58200073242</ele>
        <time>2020-09-30T07:37:11Z</time>
      </trkpt>
      <trkpt lat="46.49091" lon="4.4656">
        <ele>376.58200073242</ele>
        <time>2020-09-30T07:37:18Z</time>
      </trkpt>
      <trkpt lat="46.49089" lon="4.46568">
        <ele>379.58200073242</ele>
        <time>2020-09-30T07:37:23Z</time>
      </trkpt>
      <trkpt lat="46.49086" lon="4.46577">
        <ele>379.58200073242</ele>
        <time>2020-09-30T07:37:28Z</time>
      </trkpt>
      <trkpt lat="46.49084" lon="4.46588">
        <ele>377.58200073242</ele>
        <time>2020-09-30T07:37:35Z</time>
      </trkpt>
      <trkpt lat="46.49083" lon="4.46598">
        <ele>375.58200073242</ele>
        <time>2020-09-30T07:37:40Z</time>
      </trkpt>
      <trkpt lat="46.49081" lon="4.46609">
        <ele>376.58200073242</ele>
        <time>2020-09-30T07:37:48Z</time>
      </trkpt>
      <trkpt lat="46.49076" lon="4.46619">
        <ele>378.58200073242</ele>
        <time>2020-09-30T07:37:53Z</time>
      </trkpt>
      <trkpt lat="46.49072" lon="4.4663">
        <ele>378.58200073242</ele>
        <time>2020-09-30T07:37:58Z</time>
      </trkpt>
      <trkpt lat="46.49071" lon="4.46639">
        <ele>378.58200073242</ele>
        <time>2020-09-30T07:38:04Z</time>
      </trkpt>
      <trkpt lat="46.49062" lon="4.46652">
        <ele>380.58200073242</ele>
        <time>2020-09-30T07:38:09Z</time>
      </trkpt>
      <trkpt lat="46.49058" lon="4.46661">
        <ele>378.58200073242</ele>
        <time>2020-09-30T07:38:14Z</time>
      </trkpt>
      <trkpt lat="46.49054" lon="4.4667">
        <ele>381.58200073242</ele>
        <time>2020-09-30T07:38:19Z</time>
      </trkpt>
      <trkpt lat="46.4905" lon="4.4668">
        <ele>383.58200073242</ele>
        <time>2020-09-30T07:38:24Z</time>
      </trkpt>
      <trkpt lat="46.49046" lon="4.46689">
        <ele>385.58200073242</ele>
        <time>2020-09-30T07:38:29Z</time>
      </trkpt>
      <trkpt lat="46.49048" lon="4.467">
        <ele>379.58200073242</ele>
        <time>2020-09-30T07:38:36Z</time>
      </trkpt>
      <trkpt lat="46.49046" lon="4.46709">
        <ele>379.58200073242</ele>
        <time>2020-09-30T07:38:41Z</time>
      </trkpt>
      <trkpt lat="46.49041" lon="4.46718">
        <ele>380.58200073242</ele>
        <time>2020-09-30T07:38:46Z</time>
      </trkpt>
      <trkpt lat="46.49039" lon="4.46727">
        <ele>380.58200073242</ele>
        <time>2020-09-30T07:38:51Z</time>
      </trkpt>
      <trkpt lat="46.49034" lon="4.46736">
        <ele>382.58200073242</ele>
        <time>2020-09-30T07:38:56Z</time>
      </trkpt>
      <trkpt lat="46.49035" lon="4.46748">
        <ele>383.58200073242</ele>
        <time>2020-09-30T07:39:01Z</time>
      </trkpt>
      <trkpt lat="46.49034" lon="4.46759">
        <ele>386.58200073242</ele>
        <time>2020-09-30T07:39:06Z</time>
      </trkpt>
      <trkpt lat="46.49038" lon="4.46768">
        <ele>380.58200073242</ele>
        <time>2020-09-30T07:39:13Z</time>
      </trkpt>
      <trkpt lat="46.49037" lon="4.46778">
        <ele>381.58200073242</ele>
        <time>2020-09-30T07:39:20Z</time>
      </trkpt>
      <trkpt lat="46.49036" lon="4.46788">
        <ele>386.58200073242</ele>
        <time>2020-09-30T07:39:25Z</time>
      </trkpt>
      <trkpt lat="46.49034" lon="4.46801">
        <ele>386.58200073242</ele>
        <time>2020-09-30T07:39:32Z</time>
      </trkpt>
      <trkpt lat="46.49028" lon="4.46814">
        <ele>387.58200073242</ele>
        <time>2020-09-30T07:39:37Z</time>
      </trkpt>
      <trkpt lat="46.49023" lon="4.46821">
        <ele>385.58200073242</ele>
        <time>2020-09-30T07:39:43Z</time>
      </trkpt>
      <trkpt lat="46.49019" lon="4.46829">
        <ele>384.58200073242</ele>
        <time>2020-09-30T07:39:49Z</time>
      </trkpt>
      <trkpt lat="46.49014" lon="4.46836">
        <ele>382.58200073242</ele>
        <time>2020-09-30T07:39:56Z</time>
      </trkpt>
      <trkpt lat="46.49008" lon="4.46843">
        <ele>382.58200073242</ele>
        <time>2020-09-30T07:40:02Z</time>
      </trkpt>
      <trkpt lat="46.49002" lon="4.46849">
        <ele>382.58200073242</ele>
        <time>2020-09-30T07:40:07Z</time>
      </trkpt>
      <trkpt lat="46.48997" lon="4.46857">
        <ele>383.58200073242</ele>
        <time>2020-09-30T07:40:13Z</time>
      </trkpt>
      <trkpt lat="46.48991" lon="4.46862">
        <ele>384.58200073242</ele>
        <time>2020-09-30T07:40:18Z</time>
      </trkpt>
      <trkpt lat="46.48985" lon="4.46869">
        <ele>383.58200073242</ele>
        <time>2020-09-30T07:40:24Z</time>
      </trkpt>
      <trkpt lat="46.48979" lon="4.46872">
        <ele>383.58200073242</ele>
        <time>2020-09-30T07:40:29Z</time>
      </trkpt>
      <trkpt lat="46.48972" lon="4.46879">
        <ele>383.58200073242</ele>
        <time>2020-09-30T07:40:34Z</time>
      </trkpt>
      <trkpt lat="46.48969" lon="4.46889">
        <ele>383.58200073242</ele>
        <time>2020-09-30T07:40:39Z</time>
      </trkpt>
      <trkpt lat="46.48963" lon="4.46894">
        <ele>386.58200073242</ele>
        <time>2020-09-30T07:40:44Z</time>
      </trkpt>
      <trkpt lat="46.48959" lon="4.46903">
        <ele>383.58200073242</ele>
        <time>2020-09-30T07:40:50Z</time>
      </trkpt>
      <trkpt lat="46.48952" lon="4.46908">
        <ele>384.58200073242</ele>
        <time>2020-09-30T07:40:55Z</time>
      </trkpt>
      <trkpt lat="46.48946" lon="4.46913">
        <ele>385.58200073242</ele>
        <time>2020-09-30T07:41:00Z</time>
      </trkpt>
      <trkpt lat="46.48939" lon="4.46918">
        <ele>384.58200073242</ele>
        <time>2020-09-30T07:41:05Z</time>
      </trkpt>
      <trkpt lat="46.48934" lon="4.46924">
        <ele>384.58200073242</ele>
        <time>2020-09-30T07:41:10Z</time>
      </trkpt>
      <trkpt lat="46.48927" lon="4.4693">
        <ele>385.58200073242</ele>
        <time>2020-09-30T07:41:15Z</time>
      </trkpt>
      <trkpt lat="46.48921" lon="4.46935">
        <ele>384.58200073242</ele>
        <time>2020-09-30T07:41:20Z</time>
      </trkpt>
      <trkpt lat="46.48915" lon="4.46936">
        <ele>381.58200073242</ele>
        <time>2020-09-30T07:41:25Z</time>
      </trkpt>
      <trkpt lat="46.48907" lon="4.46937">
        <ele>380.58200073242</ele>
        <time>2020-09-30T07:41:31Z</time>
      </trkpt>
      <trkpt lat="46.48901" lon="4.46939">
        <ele>378.58200073242</ele>
        <time>2020-09-30T07:41:38Z</time>
      </trkpt>
      <trkpt lat="46.48895" lon="4.46945">
        <ele>378.58200073242</ele>
        <time>2020-09-30T07:41:43Z</time>
      </trkpt>
      <trkpt lat="46.48888" lon="4.46948">
        <ele>381.58200073242</ele>
        <time>2020-09-30T07:41:49Z</time>
      </trkpt>
      <trkpt lat="46.48883" lon="4.46955">
        <ele>380.58200073242</ele>
        <time>2020-09-30T07:41:54Z</time>
      </trkpt>
      <trkpt lat="46.48877" lon="4.46961">
        <ele>383.58200073242</ele>
        <time>2020-09-30T07:41:59Z</time>
      </trkpt>
      <trkpt lat="46.48871" lon="4.46966">
        <ele>383.58200073242</ele>
        <time>2020-09-30T07:42:04Z</time>
      </trkpt>
      <trkpt lat="46.48866" lon="4.46972">
        <ele>387.58200073242</ele>
        <time>2020-09-30T07:42:10Z</time>
      </trkpt>
      <trkpt lat="46.48861" lon="4.46979">
        <ele>388.58200073242</ele>
        <time>2020-09-30T07:42:16Z</time>
      </trkpt>
      <trkpt lat="46.48855" lon="4.46986">
        <ele>388.58200073242</ele>
        <time>2020-09-30T07:42:21Z</time>
      </trkpt>
      <trkpt lat="46.48849" lon="4.46991">
        <ele>393.58200073242</ele>
        <time>2020-09-30T07:42:26Z</time>
      </trkpt>
      <trkpt lat="46.48845" lon="4.46998">
        <ele>389.58200073242</ele>
        <time>2020-09-30T07:42:33Z</time>
      </trkpt>
      <trkpt lat="46.4884" lon="4.47005">
        <ele>387.58200073242</ele>
        <time>2020-09-30T07:42:40Z</time>
      </trkpt>
      <trkpt lat="46.48834" lon="4.47008">
        <ele>389.58200073242</ele>
        <time>2020-09-30T07:42:45Z</time>
      </trkpt>
      <trkpt lat="46.48825" lon="4.47013">
        <ele>387.58200073242</ele>
        <time>2020-09-30T07:42:51Z</time>
      </trkpt>
      <trkpt lat="46.48819" lon="4.47017">
        <ele>391.58200073242</ele>
        <time>2020-09-30T07:42:58Z</time>
      </trkpt>
      <trkpt lat="46.48814" lon="4.47023">
        <ele>390.58200073242</ele>
        <time>2020-09-30T07:43:05Z</time>
      </trkpt>
      <trkpt lat="46.48807" lon="4.47023">
        <ele>391.58200073242</ele>
        <time>2020-09-30T07:43:10Z</time>
      </trkpt>
      <trkpt lat="46.48799" lon="4.47025">
        <ele>390.58200073242</ele>
        <time>2020-09-30T07:43:19Z</time>
      </trkpt>
      <trkpt lat="46.48793" lon="4.47028">
        <ele>392.58200073242</ele>
        <time>2020-09-30T07:43:24Z</time>
      </trkpt>
      <trkpt lat="46.48787" lon="4.47034">
        <ele>390.58200073242</ele>
        <time>2020-09-30T07:43:34Z</time>
      </trkpt>
      <trkpt lat="46.48781" lon="4.47038">
        <ele>390.58200073242</ele>
        <time>2020-09-30T07:43:41Z</time>
      </trkpt>
      <trkpt lat="46.48774" lon="4.47037">
        <ele>389.58200073242</ele>
        <time>2020-09-30T07:43:48Z</time>
      </trkpt>
      <trkpt lat="46.48767" lon="4.4704">
        <ele>391.58200073242</ele>
        <time>2020-09-30T07:43:55Z</time>
      </trkpt>
      <trkpt lat="46.4876" lon="4.47044">
        <ele>393.58200073242</ele>
        <time>2020-09-30T07:44:02Z</time>
      </trkpt>
      <trkpt lat="46.48755" lon="4.47049">
        <ele>395.58200073242</ele>
        <time>2020-09-30T07:44:09Z</time>
      </trkpt>
      <trkpt lat="46.48749" lon="4.47053">
        <ele>396.58200073242</ele>
        <time>2020-09-30T07:44:15Z</time>
      </trkpt>
      <trkpt lat="46.48742" lon="4.47058">
        <ele>397.58200073242</ele>
        <time>2020-09-30T07:44:22Z</time>
      </trkpt>
      <trkpt lat="46.48738" lon="4.47067">
        <ele>399.58200073242</ele>
        <time>2020-09-30T07:44:30Z</time>
      </trkpt>
      <trkpt lat="46.48732" lon="4.47075">
        <ele>400.58200073242</ele>
        <time>2020-09-30T07:44:37Z</time>
      </trkpt>
      <trkpt lat="46.48727" lon="4.4708">
        <ele>401.58200073242</ele>
        <time>2020-09-30T07:44:43Z</time>
      </trkpt>
      <trkpt lat="46.48725" lon="4.4709">
        <ele>402.58200073242</ele>
        <time>2020-09-30T07:44:55Z</time>
      </trkpt>
      <trkpt lat="46.48721" lon="4.47097">
        <ele>404.58200073242</ele>
        <time>2020-09-30T07:45:01Z</time>
      </trkpt>
      <trkpt lat="46.48714" lon="4.47104">
        <ele>407.58200073242</ele>
        <time>2020-09-30T07:45:06Z</time>
      </trkpt>
      <trkpt lat="46.48706" lon="4.4711">
        <ele>405.58200073242</ele>
        <time>2020-09-30T07:45:11Z</time>
      </trkpt>
      <trkpt lat="46.48702" lon="4.47117">
        <ele>405.58200073242</ele>
        <time>2020-09-30T07:45:18Z</time>
      </trkpt>
      <trkpt lat="46.48697" lon="4.47125">
        <ele>405.58200073242</ele>
        <time>2020-09-30T07:45:25Z</time>
      </trkpt>
      <trkpt lat="46.48691" lon="4.47131">
        <ele>406.58200073242</ele>
        <time>2020-09-30T07:45:33Z</time>
      </trkpt>
      <trkpt lat="46.48685" lon="4.47136">
        <ele>408.58200073242</ele>
        <time>2020-09-30T07:45:38Z</time>
      </trkpt>
      <trkpt lat="46.4868" lon="4.47142">
        <ele>409.58200073242</ele>
        <time>2020-09-30T07:45:45Z</time>
      </trkpt>
      <trkpt lat="46.48673" lon="4.47145">
        <ele>412.58200073242</ele>
        <time>2020-09-30T07:45:51Z</time>
      </trkpt>
      <trkpt lat="46.48665" lon="4.47148">
        <ele>414.58200073242</ele>
        <time>2020-09-30T07:45:59Z</time>
      </trkpt>
      <trkpt lat="46.48658" lon="4.4715">
        <ele>414.58200073242</ele>
        <time>2020-09-30T07:46:06Z</time>
      </trkpt>
      <trkpt lat="46.4865" lon="4.47149">
        <ele>417.58200073242</ele>
        <time>2020-09-30T07:46:11Z</time>
      </trkpt>
      <trkpt lat="46.48643" lon="4.47148">
        <ele>417.58200073242</ele>
        <time>2020-09-30T07:46:22Z</time>
      </trkpt>
      <trkpt lat="46.48637" lon="4.47144">
        <ele>415.58200073242</ele>
        <time>2020-09-30T07:46:28Z</time>
      </trkpt>
      <trkpt lat="46.48629" lon="4.47138">
        <ele>414.58200073242</ele>
        <time>2020-09-30T07:46:33Z</time>
      </trkpt>
      <trkpt lat="46.48622" lon="4.47133">
        <ele>416.58200073242</ele>
        <time>2020-09-30T07:46:38Z</time>
      </trkpt>
      <trkpt lat="46.48616" lon="4.47128">
        <ele>418.58200073242</ele>
        <time>2020-09-30T07:46:43Z</time>
      </trkpt>
      <trkpt lat="46.4861" lon="4.47124">
        <ele>418.58200073242</ele>
        <time>2020-09-30T07:46:49Z</time>
      </trkpt>
      <trkpt lat="46.48604" lon="4.47119">
        <ele>416.58099365234</ele>
        <time>2020-09-30T07:46:57Z</time>
      </trkpt>
      <trkpt lat="46.48597" lon="4.47115">
        <ele>415.58099365234</ele>
        <time>2020-09-30T07:47:02Z</time>
      </trkpt>
      <trkpt lat="46.4859" lon="4.47109">
        <ele>416.58099365234</ele>
        <time>2020-09-30T07:47:09Z</time>
      </trkpt>
      <trkpt lat="46.48584" lon="4.47104">
        <ele>417.58099365234</ele>
        <time>2020-09-30T07:47:15Z</time>
      </trkpt>
      <trkpt lat="46.48578" lon="4.47098">
        <ele>415.58099365234</ele>
        <time>2020-09-30T07:47:22Z</time>
      </trkpt>
      <trkpt lat="46.48572" lon="4.47093">
        <ele>416.58099365234</ele>
        <time>2020-09-30T07:47:27Z</time>
      </trkpt>
      <trkpt lat="46.48565" lon="4.47087">
        <ele>417.58099365234</ele>
        <time>2020-09-30T07:47:33Z</time>
      </trkpt>
      <trkpt lat="46.48559" lon="4.47081">
        <ele>416.58099365234</ele>
        <time>2020-09-30T07:47:39Z</time>
      </trkpt>
      <trkpt lat="46.48552" lon="4.47077">
        <ele>418.58099365234</ele>
        <time>2020-09-30T07:47:44Z</time>
      </trkpt>
      <trkpt lat="46.48546" lon="4.47068">
        <ele>416.58099365234</ele>
        <time>2020-09-30T07:47:49Z</time>
      </trkpt>
      <trkpt lat="46.48539" lon="4.47066">
        <ele>417.58099365234</ele>
        <time>2020-09-30T07:47:54Z</time>
      </trkpt>
      <trkpt lat="46.48533" lon="4.47062">
        <ele>419.58099365234</ele>
        <time>2020-09-30T07:48:00Z</time>
      </trkpt>
      <trkpt lat="46.48525" lon="4.47056">
        <ele>419.58099365234</ele>
        <time>2020-09-30T07:48:05Z</time>
      </trkpt>
      <trkpt lat="46.48518" lon="4.47052">
        <ele>419.58099365234</ele>
        <time>2020-09-30T07:48:12Z</time>
      </trkpt>
      <trkpt lat="46.48512" lon="4.4705">
        <ele>421.58099365234</ele>
        <time>2020-09-30T07:48:17Z</time>
      </trkpt>
      <trkpt lat="46.48503" lon="4.47043">
        <ele>422.58099365234</ele>
        <time>2020-09-30T07:48:22Z</time>
      </trkpt>
      <trkpt lat="46.48494" lon="4.47041">
        <ele>424.58099365234</ele>
        <time>2020-09-30T07:48:27Z</time>
      </trkpt>
      <trkpt lat="46.48489" lon="4.47036">
        <ele>423.58099365234</ele>
        <time>2020-09-30T07:48:33Z</time>
      </trkpt>
      <trkpt lat="46.48482" lon="4.47032">
        <ele>424.58099365234</ele>
        <time>2020-09-30T07:48:38Z</time>
      </trkpt>
      <trkpt lat="46.48476" lon="4.47027">
        <ele>421.58099365234</ele>
        <time>2020-09-30T07:48:43Z</time>
      </trkpt>
      <trkpt lat="46.48468" lon="4.47025">
        <ele>420.58099365234</ele>
        <time>2020-09-30T07:48:48Z</time>
      </trkpt>
      <trkpt lat="46.48462" lon="4.47018">
        <ele>417.58099365234</ele>
        <time>2020-09-30T07:48:53Z</time>
      </trkpt>
      <trkpt lat="46.48457" lon="4.47011">
        <ele>417.58099365234</ele>
        <time>2020-09-30T07:48:59Z</time>
      </trkpt>
      <trkpt lat="46.4845" lon="4.47005">
        <ele>417.58099365234</ele>
        <time>2020-09-30T07:49:05Z</time>
      </trkpt>
      <trkpt lat="46.48444" lon="4.47001">
        <ele>417.58099365234</ele>
        <time>2020-09-30T07:49:10Z</time>
      </trkpt>
      <trkpt lat="46.48437" lon="4.4699">
        <ele>415.58099365234</ele>
        <time>2020-09-30T07:49:15Z</time>
      </trkpt>
      <trkpt lat="46.48431" lon="4.46986">
        <ele>413.58099365234</ele>
        <time>2020-09-30T07:49:20Z</time>
      </trkpt>
      <trkpt lat="46.48424" lon="4.46983">
        <ele>415.58099365234</ele>
        <time>2020-09-30T07:49:25Z</time>
      </trkpt>
      <trkpt lat="46.48418" lon="4.46976">
        <ele>417.58099365234</ele>
        <time>2020-09-30T07:49:30Z</time>
      </trkpt>
      <trkpt lat="46.48413" lon="4.4697">
        <ele>418.58099365234</ele>
        <time>2020-09-30T07:49:35Z</time>
      </trkpt>
      <trkpt lat="46.48408" lon="4.46964">
        <ele>420.58099365234</ele>
        <time>2020-09-30T07:49:40Z</time>
      </trkpt>
      <trkpt lat="46.48403" lon="4.46957">
        <ele>419.58099365234</ele>
        <time>2020-09-30T07:49:45Z</time>
      </trkpt>
      <trkpt lat="46.48398" lon="4.4695">
        <ele>419.58099365234</ele>
        <time>2020-09-30T07:49:50Z</time>
      </trkpt>
      <trkpt lat="46.48392" lon="4.46943">
        <ele>420.58099365234</ele>
        <time>2020-09-30T07:49:55Z</time>
      </trkpt>
      <trkpt lat="46.48387" lon="4.46937">
        <ele>421.58099365234</ele>
        <time>2020-09-30T07:50:00Z</time>
      </trkpt>
      <trkpt lat="46.48382" lon="4.4693">
        <ele>421.58099365234</ele>
        <time>2020-09-30T07:50:05Z</time>
      </trkpt>
      <trkpt lat="46.48375" lon="4.46925">
        <ele>421.58099365234</ele>
        <time>2020-09-30T07:50:11Z</time>
      </trkpt>
      <trkpt lat="46.48371" lon="4.46915">
        <ele>421.58099365234</ele>
        <time>2020-09-30T07:50:18Z</time>
      </trkpt>
      <trkpt lat="46.48365" lon="4.46906">
        <ele>423.58099365234</ele>
        <time>2020-09-30T07:50:23Z</time>
      </trkpt>
      <trkpt lat="46.48358" lon="4.46897">
        <ele>422.58099365234</ele>
        <time>2020-09-30T07:50:28Z</time>
      </trkpt>
      <trkpt lat="46.48352" lon="4.46888">
        <ele>424.58099365234</ele>
        <time>2020-09-30T07:50:33Z</time>
      </trkpt>
      <trkpt lat="46.48347" lon="4.4688">
        <ele>423.58099365234</ele>
        <time>2020-09-30T07:50:38Z</time>
      </trkpt>
      <trkpt lat="46.48343" lon="4.46873">
        <ele>422.58099365234</ele>
        <time>2020-09-30T07:50:45Z</time>
      </trkpt>
      <trkpt lat="46.48336" lon="4.46874">
        <ele>423.58099365234</ele>
        <time>2020-09-30T07:50:52Z</time>
      </trkpt>
      <trkpt lat="46.48331" lon="4.46865">
        <ele>422.58099365234</ele>
        <time>2020-09-30T07:50:57Z</time>
      </trkpt>
      <trkpt lat="46.48326" lon="4.46855">
        <ele>423.58099365234</ele>
        <time>2020-09-30T07:51:02Z</time>
      </trkpt>
      <trkpt lat="46.4832" lon="4.4685">
        <ele>421.57998657227</ele>
        <time>2020-09-30T07:51:08Z</time>
      </trkpt>
      <trkpt lat="46.48316" lon="4.4684">
        <ele>419.57998657227</ele>
        <time>2020-09-30T07:51:15Z</time>
      </trkpt>
      <trkpt lat="46.4831" lon="4.46832">
        <ele>421.57998657227</ele>
        <time>2020-09-30T07:51:20Z</time>
      </trkpt>
      <trkpt lat="46.48305" lon="4.46826">
        <ele>420.57998657227</ele>
        <time>2020-09-30T07:51:28Z</time>
      </trkpt>
      <trkpt lat="46.48298" lon="4.46818">
        <ele>417.57998657227</ele>
        <time>2020-09-30T07:51:33Z</time>
      </trkpt>
      <trkpt lat="46.48293" lon="4.46807">
        <ele>419.57998657227</ele>
        <time>2020-09-30T07:51:38Z</time>
      </trkpt>
      <trkpt lat="46.48286" lon="4.46805">
        <ele>421.57998657227</ele>
        <time>2020-09-30T07:51:44Z</time>
      </trkpt>
      <trkpt lat="46.4828" lon="4.4679">
        <ele>425.57998657227</ele>
        <time>2020-09-30T07:51:49Z</time>
      </trkpt>
      <trkpt lat="46.48275" lon="4.46785">
        <ele>428.57998657227</ele>
        <time>2020-09-30T07:51:54Z</time>
      </trkpt>
      <trkpt lat="46.4827" lon="4.46777">
        <ele>429.57998657227</ele>
        <time>2020-09-30T07:52:00Z</time>
      </trkpt>
      <trkpt lat="46.48265" lon="4.46769">
        <ele>431.57998657227</ele>
        <time>2020-09-30T07:52:06Z</time>
      </trkpt>
      <trkpt lat="46.4826" lon="4.46762">
        <ele>432.57998657227</ele>
        <time>2020-09-30T07:52:12Z</time>
      </trkpt>
      <trkpt lat="46.48251" lon="4.46766">
        <ele>433.57998657227</ele>
        <time>2020-09-30T07:52:17Z</time>
      </trkpt>
      <trkpt lat="46.48246" lon="4.46757">
        <ele>434.57998657227</ele>
        <time>2020-09-30T07:52:22Z</time>
      </trkpt>
      <trkpt lat="46.48243" lon="4.46748">
        <ele>434.57998657227</ele>
        <time>2020-09-30T07:52:27Z</time>
      </trkpt>
      <trkpt lat="46.48239" lon="4.4674">
        <ele>434.57998657227</ele>
        <time>2020-09-30T07:52:32Z</time>
      </trkpt>
      <trkpt lat="46.48237" lon="4.46729">
        <ele>433.57998657227</ele>
        <time>2020-09-30T07:52:37Z</time>
      </trkpt>
      <trkpt lat="46.48231" lon="4.4672">
        <ele>434.57998657227</ele>
        <time>2020-09-30T07:52:43Z</time>
      </trkpt>
      <trkpt lat="46.48229" lon="4.46711">
        <ele>433.57998657227</ele>
        <time>2020-09-30T07:52:48Z</time>
      </trkpt>
      <trkpt lat="46.48228" lon="4.46702">
        <ele>436.57998657227</ele>
        <time>2020-09-30T07:52:53Z</time>
      </trkpt>
      <trkpt lat="46.48226" lon="4.46693">
        <ele>436.57998657227</ele>
        <time>2020-09-30T07:52:58Z</time>
      </trkpt>
      <trkpt lat="46.48223" lon="4.46682">
        <ele>437.57998657227</ele>
        <time>2020-09-30T07:53:04Z</time>
      </trkpt>
      <trkpt lat="46.4822" lon="4.46673">
        <ele>435.57998657227</ele>
        <time>2020-09-30T07:53:10Z</time>
      </trkpt>
      <trkpt lat="46.48213" lon="4.46665">
        <ele>435.57998657227</ele>
        <time>2020-09-30T07:53:15Z</time>
      </trkpt>
      <trkpt lat="46.48211" lon="4.46656">
        <ele>435.57998657227</ele>
        <time>2020-09-30T07:53:20Z</time>
      </trkpt>
      <trkpt lat="46.48205" lon="4.46649">
        <ele>435.57998657227</ele>
        <time>2020-09-30T07:53:25Z</time>
      </trkpt>
      <trkpt lat="46.48198" lon="4.46645">
        <ele>436.57998657227</ele>
        <time>2020-09-30T07:53:31Z</time>
      </trkpt>
      <trkpt lat="46.48193" lon="4.46638">
        <ele>436.57998657227</ele>
        <time>2020-09-30T07:53:37Z</time>
      </trkpt>
      <trkpt lat="46.48186" lon="4.46634">
        <ele>439.57998657227</ele>
        <time>2020-09-30T07:53:45Z</time>
      </trkpt>
      <trkpt lat="46.48179" lon="4.46634">
        <ele>443.57998657227</ele>
        <time>2020-09-30T07:53:52Z</time>
      </trkpt>
      <trkpt lat="46.48174" lon="4.46628">
        <ele>441.57998657227</ele>
        <time>2020-09-30T07:53:57Z</time>
      </trkpt>
      <trkpt lat="46.48169" lon="4.46619">
        <ele>441.57998657227</ele>
        <time>2020-09-30T07:54:02Z</time>
      </trkpt>
      <trkpt lat="46.48163" lon="4.46613">
        <ele>438.57998657227</ele>
        <time>2020-09-30T07:54:07Z</time>
      </trkpt>
      <trkpt lat="46.48158" lon="4.46606">
        <ele>437.57998657227</ele>
        <time>2020-09-30T07:54:12Z</time>
      </trkpt>
      <trkpt lat="46.48153" lon="4.46598">
        <ele>436.57998657227</ele>
        <time>2020-09-30T07:54:18Z</time>
      </trkpt>
      <trkpt lat="46.48148" lon="4.46588">
        <ele>441.57998657227</ele>
        <time>2020-09-30T07:54:23Z</time>
      </trkpt>
      <trkpt lat="46.48143" lon="4.4658">
        <ele>439.57998657227</ele>
        <time>2020-09-30T07:54:30Z</time>
      </trkpt>
      <trkpt lat="46.48139" lon="4.46572">
        <ele>438.57998657227</ele>
        <time>2020-09-30T07:54:35Z</time>
      </trkpt>
      <trkpt lat="46.48136" lon="4.46562">
        <ele>441.57998657227</ele>
        <time>2020-09-30T07:54:41Z</time>
      </trkpt>
      <trkpt lat="46.48131" lon="4.46555">
        <ele>441.57998657227</ele>
        <time>2020-09-30T07:55:55Z</time>
      </trkpt>
      <trkpt lat="46.48129" lon="4.46546">
        <ele>439.57998657227</ele>
        <time>2020-09-30T07:56:00Z</time>
      </trkpt>
      <trkpt lat="46.48124" lon="4.46538">
        <ele>440.57998657227</ele>
        <time>2020-09-30T07:56:05Z</time>
      </trkpt>
      <trkpt lat="46.48119" lon="4.4653">
        <ele>439.57998657227</ele>
        <time>2020-09-30T07:56:13Z</time>
      </trkpt>
      <trkpt lat="46.48115" lon="4.4652">
        <ele>438.57998657227</ele>
        <time>2020-09-30T07:56:23Z</time>
      </trkpt>
      <trkpt lat="46.48109" lon="4.46514">
        <ele>440.57998657227</ele>
        <time>2020-09-30T07:56:30Z</time>
      </trkpt>
      <trkpt lat="46.48105" lon="4.46505">
        <ele>441.57998657227</ele>
        <time>2020-09-30T07:56:35Z</time>
      </trkpt>
      <trkpt lat="46.48101" lon="4.46496">
        <ele>441.57998657227</ele>
        <time>2020-09-30T07:56:40Z</time>
      </trkpt>
      <trkpt lat="46.48098" lon="4.46484">
        <ele>441.57998657227</ele>
        <time>2020-09-30T07:56:45Z</time>
      </trkpt>
      <trkpt lat="46.48094" lon="4.46476">
        <ele>441.57998657227</ele>
        <time>2020-09-30T07:56:51Z</time>
      </trkpt>
      <trkpt lat="46.48092" lon="4.46465">
        <ele>443.57998657227</ele>
        <time>2020-09-30T07:56:57Z</time>
      </trkpt>
      <trkpt lat="46.48086" lon="4.46456">
        <ele>444.57998657227</ele>
        <time>2020-09-30T07:57:02Z</time>
      </trkpt>
      <trkpt lat="46.48083" lon="4.46446">
        <ele>440.57998657227</ele>
        <time>2020-09-30T07:57:08Z</time>
      </trkpt>
      <trkpt lat="46.48079" lon="4.46438">
        <ele>442.57998657227</ele>
        <time>2020-09-30T07:57:13Z</time>
      </trkpt>
      <trkpt lat="46.48076" lon="4.46428">
        <ele>440.57901000977</ele>
        <time>2020-09-30T07:57:18Z</time>
      </trkpt>
      <trkpt lat="46.48073" lon="4.46419">
        <ele>441.57901000977</ele>
        <time>2020-09-30T07:57:24Z</time>
      </trkpt>
      <trkpt lat="46.48071" lon="4.4641">
        <ele>441.57901000977</ele>
        <time>2020-09-30T07:57:38Z</time>
      </trkpt>
      <trkpt lat="46.48067" lon="4.46399">
        <ele>440.57901000977</ele>
        <time>2020-09-30T07:57:43Z</time>
      </trkpt>
      <trkpt lat="46.48063" lon="4.4639">
        <ele>435.57901000977</ele>
        <time>2020-09-30T07:57:49Z</time>
      </trkpt>
      <trkpt lat="46.4806" lon="4.46379">
        <ele>433.57901000977</ele>
        <time>2020-09-30T07:57:54Z</time>
      </trkpt>
      <trkpt lat="46.48057" lon="4.46369">
        <ele>430.57901000977</ele>
        <time>2020-09-30T07:57:59Z</time>
      </trkpt>
      <trkpt lat="46.48052" lon="4.46358">
        <ele>433.57901000977</ele>
        <time>2020-09-30T07:58:04Z</time>
      </trkpt>
      <trkpt lat="46.48048" lon="4.46347">
        <ele>433.57901000977</ele>
        <time>2020-09-30T07:58:09Z</time>
      </trkpt>
      <trkpt lat="46.48044" lon="4.46337">
        <ele>433.57901000977</ele>
        <time>2020-09-30T07:58:15Z</time>
      </trkpt>
      <trkpt lat="46.4804" lon="4.46329">
        <ele>431.57901000977</ele>
        <time>2020-09-30T07:58:21Z</time>
      </trkpt>
      <trkpt lat="46.48036" lon="4.4632">
        <ele>431.57901000977</ele>
        <time>2020-09-30T07:58:27Z</time>
      </trkpt>
      <trkpt lat="46.48031" lon="4.46312">
        <ele>431.57901000977</ele>
        <time>2020-09-30T07:58:32Z</time>
      </trkpt>
      <trkpt lat="46.48027" lon="4.46304">
        <ele>430.57901000977</ele>
        <time>2020-09-30T07:58:37Z</time>
      </trkpt>
      <trkpt lat="46.48024" lon="4.46296">
        <ele>429.57901000977</ele>
        <time>2020-09-30T07:58:42Z</time>
      </trkpt>
      <trkpt lat="46.48019" lon="4.46289">
        <ele>430.57901000977</ele>
        <time>2020-09-30T07:58:47Z</time>
      </trkpt>
      <trkpt lat="46.48014" lon="4.46282">
        <ele>431.57901000977</ele>
        <time>2020-09-30T07:58:52Z</time>
      </trkpt>
      <trkpt lat="46.48009" lon="4.46274">
        <ele>432.57901000977</ele>
        <time>2020-09-30T07:58:57Z</time>
      </trkpt>
      <trkpt lat="46.48003" lon="4.46265">
        <ele>430.57901000977</ele>
        <time>2020-09-30T07:59:03Z</time>
      </trkpt>
      <trkpt lat="46.47996" lon="4.46258">
        <ele>427.57901000977</ele>
        <time>2020-09-30T07:59:09Z</time>
      </trkpt>
      <trkpt lat="46.4799" lon="4.46251">
        <ele>426.57901000977</ele>
        <time>2020-09-30T07:59:15Z</time>
      </trkpt>
      <trkpt lat="46.47985" lon="4.46242">
        <ele>426.57901000977</ele>
        <time>2020-09-30T07:59:20Z</time>
      </trkpt>
      <trkpt lat="46.47981" lon="4.46233">
        <ele>427.57901000977</ele>
        <time>2020-09-30T07:59:25Z</time>
      </trkpt>
      <trkpt lat="46.47976" lon="4.46226">
        <ele>425.57901000977</ele>
        <time>2020-09-30T07:59:30Z</time>
      </trkpt>
      <trkpt lat="46.47972" lon="4.46218">
        <ele>427.57901000977</ele>
        <time>2020-09-30T07:59:35Z</time>
      </trkpt>
      <trkpt lat="46.47968" lon="4.4621">
        <ele>428.57901000977</ele>
        <time>2020-09-30T07:59:40Z</time>
      </trkpt>
      <trkpt lat="46.47963" lon="4.46203">
        <ele>425.57901000977</ele>
        <time>2020-09-30T07:59:45Z</time>
      </trkpt>
      <trkpt lat="46.47957" lon="4.46196">
        <ele>426.57901000977</ele>
        <time>2020-09-30T07:59:50Z</time>
      </trkpt>
      <trkpt lat="46.47951" lon="4.46187">
        <ele>426.57901000977</ele>
        <time>2020-09-30T07:59:55Z</time>
      </trkpt>
      <trkpt lat="46.47945" lon="4.46178">
        <ele>427.57901000977</ele>
        <time>2020-09-30T08:00:00Z</time>
      </trkpt>
      <trkpt lat="46.4794" lon="4.46172">
        <ele>426.57901000977</ele>
        <time>2020-09-30T08:00:05Z</time>
      </trkpt>
      <trkpt lat="46.47935" lon="4.46162">
        <ele>427.57901000977</ele>
        <time>2020-09-30T08:00:10Z</time>
      </trkpt>
      <trkpt lat="46.47928" lon="4.46154">
        <ele>428.57901000977</ele>
        <time>2020-09-30T08:00:15Z</time>
      </trkpt>
      <trkpt lat="46.47925" lon="4.46147">
        <ele>427.57901000977</ele>
        <time>2020-09-30T08:00:20Z</time>
      </trkpt>
      <trkpt lat="46.47919" lon="4.46142">
        <ele>427.57901000977</ele>
        <time>2020-09-30T08:00:25Z</time>
      </trkpt>
      <trkpt lat="46.47913" lon="4.46131">
        <ele>428.57901000977</ele>
        <time>2020-09-30T08:00:30Z</time>
      </trkpt>
      <trkpt lat="46.47908" lon="4.46123">
        <ele>425.57901000977</ele>
        <time>2020-09-30T08:00:35Z</time>
      </trkpt>
      <trkpt lat="46.47904" lon="4.46113">
        <ele>426.57901000977</ele>
        <time>2020-09-30T08:00:43Z</time>
      </trkpt>
      <trkpt lat="46.47899" lon="4.46105">
        <ele>428.57901000977</ele>
        <time>2020-09-30T08:00:48Z</time>
      </trkpt>
      <trkpt lat="46.47895" lon="4.46097">
        <ele>429.57901000977</ele>
        <time>2020-09-30T08:00:53Z</time>
      </trkpt>
      <trkpt lat="46.47889" lon="4.46091">
        <ele>430.57901000977</ele>
        <time>2020-09-30T08:00:58Z</time>
      </trkpt>
      <trkpt lat="46.47882" lon="4.46081">
        <ele>430.57901000977</ele>
        <time>2020-09-30T08:01:03Z</time>
      </trkpt>
      <trkpt lat="46.47877" lon="4.46071">
        <ele>429.57901000977</ele>
        <time>2020-09-30T08:01:08Z</time>
      </trkpt>
      <trkpt lat="46.47871" lon="4.46061">
        <ele>429.57901000977</ele>
        <time>2020-09-30T08:01:13Z</time>
      </trkpt>
      <trkpt lat="46.47866" lon="4.46054">
        <ele>427.57901000977</ele>
        <time>2020-09-30T08:01:19Z</time>
      </trkpt>
      <trkpt lat="46.47862" lon="4.46044">
        <ele>427.57901000977</ele>
        <time>2020-09-30T08:01:24Z</time>
      </trkpt>
      <trkpt lat="46.4786" lon="4.46035">
        <ele>427.57901000977</ele>
        <time>2020-09-30T08:02:10Z</time>
      </trkpt>
      <trkpt lat="46.47856" lon="4.46026">
        <ele>427.57901000977</ele>
        <time>2020-09-30T08:03:16Z</time>
      </trkpt>
      <trkpt lat="46.47863" lon="4.46021">
        <ele>424.57901000977</ele>
        <time>2020-09-30T08:03:24Z</time>
      </trkpt>
      <trkpt lat="46.47859" lon="4.46013">
        <ele>427.57901000977</ele>
        <time>2020-09-30T08:03:31Z</time>
      </trkpt>
      <trkpt lat="46.47858" lon="4.46003">
        <ele>424.57901000977</ele>
        <time>2020-09-30T08:03:40Z</time>
      </trkpt>
      <trkpt lat="46.47857" lon="4.45993">
        <ele>425.57901000977</ele>
        <time>2020-09-30T08:03:47Z</time>
      </trkpt>
      <trkpt lat="46.47854" lon="4.45982">
        <ele>429.57901000977</ele>
        <time>2020-09-30T08:03:53Z</time>
      </trkpt>
      <trkpt lat="46.47853" lon="4.4597">
        <ele>429.57901000977</ele>
        <time>2020-09-30T08:03:59Z</time>
      </trkpt>
      <trkpt lat="46.47853" lon="4.45961">
        <ele>429.57901000977</ele>
        <time>2020-09-30T08:04:04Z</time>
      </trkpt>
      <trkpt lat="46.47851" lon="4.45951">
        <ele>429.57901000977</ele>
        <time>2020-09-30T08:04:09Z</time>
      </trkpt>
      <trkpt lat="46.47851" lon="4.4594">
        <ele>424.57901000977</ele>
        <time>2020-09-30T08:04:16Z</time>
      </trkpt>
      <trkpt lat="46.47848" lon="4.45932">
        <ele>424.57800292969</ele>
        <time>2020-09-30T08:04:22Z</time>
      </trkpt>
      <trkpt lat="46.47844" lon="4.45921">
        <ele>426.57800292969</ele>
        <time>2020-09-30T08:04:27Z</time>
      </trkpt>
      <trkpt lat="46.47844" lon="4.45909">
        <ele>427.57800292969</ele>
        <time>2020-09-30T08:04:33Z</time>
      </trkpt>
      <trkpt lat="46.47843" lon="4.459">
        <ele>426.57800292969</ele>
        <time>2020-09-30T08:04:38Z</time>
      </trkpt>
      <trkpt lat="46.47842" lon="4.45888">
        <ele>425.57800292969</ele>
        <time>2020-09-30T08:04:43Z</time>
      </trkpt>
      <trkpt lat="46.47843" lon="4.45875">
        <ele>425.57800292969</ele>
        <time>2020-09-30T08:04:48Z</time>
      </trkpt>
      <trkpt lat="46.47839" lon="4.45865">
        <ele>424.57800292969</ele>
        <time>2020-09-30T08:04:53Z</time>
      </trkpt>
      <trkpt lat="46.47835" lon="4.45855">
        <ele>424.57800292969</ele>
        <time>2020-09-30T08:05:00Z</time>
      </trkpt>
      <trkpt lat="46.47833" lon="4.45843">
        <ele>424.57800292969</ele>
        <time>2020-09-30T08:05:05Z</time>
      </trkpt>
      <trkpt lat="46.47829" lon="4.45833">
        <ele>422.57800292969</ele>
        <time>2020-09-30T08:05:10Z</time>
      </trkpt>
      <trkpt lat="46.47827" lon="4.45823">
        <ele>423.57800292969</ele>
        <time>2020-09-30T08:05:15Z</time>
      </trkpt>
      <trkpt lat="46.47825" lon="4.45812">
        <ele>424.57800292969</ele>
        <time>2020-09-30T08:05:20Z</time>
      </trkpt>
      <trkpt lat="46.47824" lon="4.45801">
        <ele>424.57800292969</ele>
        <time>2020-09-30T08:05:25Z</time>
      </trkpt>
      <trkpt lat="46.47825" lon="4.45789">
        <ele>423.57800292969</ele>
        <time>2020-09-30T08:05:30Z</time>
      </trkpt>
      <trkpt lat="46.47821" lon="4.45779">
        <ele>422.57800292969</ele>
        <time>2020-09-30T08:05:35Z</time>
      </trkpt>
      <trkpt lat="46.47822" lon="4.45768">
        <ele>423.57800292969</ele>
        <time>2020-09-30T08:05:40Z</time>
      </trkpt>
      <trkpt lat="46.4782" lon="4.45757">
        <ele>423.57800292969</ele>
        <time>2020-09-30T08:05:45Z</time>
      </trkpt>
      <trkpt lat="46.47817" lon="4.45748">
        <ele>423.57800292969</ele>
        <time>2020-09-30T08:05:50Z</time>
      </trkpt>
      <trkpt lat="46.47812" lon="4.45739">
        <ele>424.57800292969</ele>
        <time>2020-09-30T08:05:55Z</time>
      </trkpt>
      <trkpt lat="46.47809" lon="4.4573">
        <ele>425.57800292969</ele>
        <time>2020-09-30T08:06:00Z</time>
      </trkpt>
      <trkpt lat="46.47805" lon="4.4572">
        <ele>422.57800292969</ele>
        <time>2020-09-30T08:06:05Z</time>
      </trkpt>
      <trkpt lat="46.47804" lon="4.45709">
        <ele>422.57800292969</ele>
        <time>2020-09-30T08:06:10Z</time>
      </trkpt>
      <trkpt lat="46.47804" lon="4.45699">
        <ele>424.57800292969</ele>
        <time>2020-09-30T08:06:16Z</time>
      </trkpt>
      <trkpt lat="46.47805" lon="4.45686">
        <ele>425.57800292969</ele>
        <time>2020-09-30T08:06:21Z</time>
      </trkpt>
      <trkpt lat="46.47803" lon="4.45676">
        <ele>423.57800292969</ele>
        <time>2020-09-30T08:06:26Z</time>
      </trkpt>
      <trkpt lat="46.478" lon="4.45667">
        <ele>424.57800292969</ele>
        <time>2020-09-30T08:06:31Z</time>
      </trkpt>
      <trkpt lat="46.47798" lon="4.45654">
        <ele>422.57800292969</ele>
        <time>2020-09-30T08:06:36Z</time>
      </trkpt>
      <trkpt lat="46.47795" lon="4.45645">
        <ele>425.57800292969</ele>
        <time>2020-09-30T08:06:44Z</time>
      </trkpt>
      <trkpt lat="46.47789" lon="4.45637">
        <ele>422.57800292969</ele>
        <time>2020-09-30T08:06:49Z</time>
      </trkpt>
      <trkpt lat="46.47782" lon="4.45631">
        <ele>419.57800292969</ele>
        <time>2020-09-30T08:06:54Z</time>
      </trkpt>
      <trkpt lat="46.47779" lon="4.45621">
        <ele>417.57800292969</ele>
        <time>2020-09-30T08:06:59Z</time>
      </trkpt>
      <trkpt lat="46.47776" lon="4.45612">
        <ele>416.57800292969</ele>
        <time>2020-09-30T08:07:04Z</time>
      </trkpt>
      <trkpt lat="46.47773" lon="4.456">
        <ele>415.57800292969</ele>
        <time>2020-09-30T08:07:09Z</time>
      </trkpt>
      <trkpt lat="46.47767" lon="4.45592">
        <ele>416.57800292969</ele>
        <time>2020-09-30T08:07:14Z</time>
      </trkpt>
      <trkpt lat="46.47764" lon="4.45583">
        <ele>416.57800292969</ele>
        <time>2020-09-30T08:07:20Z</time>
      </trkpt>
      <trkpt lat="46.47763" lon="4.45574">
        <ele>415.57800292969</ele>
        <time>2020-09-30T08:07:25Z</time>
      </trkpt>
      <trkpt lat="46.47761" lon="4.45563">
        <ele>412.57800292969</ele>
        <time>2020-09-30T08:07:30Z</time>
      </trkpt>
      <trkpt lat="46.47758" lon="4.45555">
        <ele>407.57800292969</ele>
        <time>2020-09-30T08:07:35Z</time>
      </trkpt>
      <trkpt lat="46.47755" lon="4.45542">
        <ele>408.57800292969</ele>
        <time>2020-09-30T08:07:40Z</time>
      </trkpt>
      <trkpt lat="46.47754" lon="4.45527">
        <ele>412.57800292969</ele>
        <time>2020-09-30T08:07:45Z</time>
      </trkpt>
      <trkpt lat="46.4775" lon="4.45518">
        <ele>416.57800292969</ele>
        <time>2020-09-30T08:07:50Z</time>
      </trkpt>
      <trkpt lat="46.47749" lon="4.45508">
        <ele>415.57800292969</ele>
        <time>2020-09-30T08:07:55Z</time>
      </trkpt>
      <trkpt lat="46.47746" lon="4.45494">
        <ele>413.57800292969</ele>
        <time>2020-09-30T08:08:00Z</time>
      </trkpt>
      <trkpt lat="46.47747" lon="4.45483">
        <ele>411.57800292969</ele>
        <time>2020-09-30T08:08:06Z</time>
      </trkpt>
      <trkpt lat="46.47745" lon="4.45471">
        <ele>409.57800292969</ele>
        <time>2020-09-30T08:08:11Z</time>
      </trkpt>
      <trkpt lat="46.47742" lon="4.45461">
        <ele>410.57800292969</ele>
        <time>2020-09-30T08:08:16Z</time>
      </trkpt>
      <trkpt lat="46.47743" lon="4.4545">
        <ele>408.57800292969</ele>
        <time>2020-09-30T08:08:21Z</time>
      </trkpt>
      <trkpt lat="46.47741" lon="4.45435">
        <ele>410.57800292969</ele>
        <time>2020-09-30T08:08:26Z</time>
      </trkpt>
      <trkpt lat="46.47738" lon="4.45425">
        <ele>409.57800292969</ele>
        <time>2020-09-30T08:08:31Z</time>
      </trkpt>
      <trkpt lat="46.47737" lon="4.45413">
        <ele>410.57800292969</ele>
        <time>2020-09-30T08:08:36Z</time>
      </trkpt>
      <trkpt lat="46.47735" lon="4.45402">
        <ele>410.57800292969</ele>
        <time>2020-09-30T08:08:41Z</time>
      </trkpt>
      <trkpt lat="46.47735" lon="4.45392">
        <ele>411.57800292969</ele>
        <time>2020-09-30T08:08:47Z</time>
      </trkpt>
      <trkpt lat="46.47734" lon="4.4538">
        <ele>409.57800292969</ele>
        <time>2020-09-30T08:08:54Z</time>
      </trkpt>
      <trkpt lat="46.47735" lon="4.45367">
        <ele>407.57800292969</ele>
        <time>2020-09-30T08:08:59Z</time>
      </trkpt>
      <trkpt lat="46.47733" lon="4.45354">
        <ele>411.57800292969</ele>
        <time>2020-09-30T08:09:04Z</time>
      </trkpt>
      <trkpt lat="46.4773" lon="4.45342">
        <ele>415.57800292969</ele>
        <time>2020-09-30T08:09:09Z</time>
      </trkpt>
      <trkpt lat="46.4773" lon="4.45333">
        <ele>415.57800292969</ele>
        <time>2020-09-30T08:09:14Z</time>
      </trkpt>
      <trkpt lat="46.47727" lon="4.45322">
        <ele>412.57800292969</ele>
        <time>2020-09-30T08:09:19Z</time>
      </trkpt>
      <trkpt lat="46.47725" lon="4.45312">
        <ele>408.57800292969</ele>
        <time>2020-09-30T08:09:25Z</time>
      </trkpt>
      <trkpt lat="46.47725" lon="4.45301">
        <ele>411.57800292969</ele>
        <time>2020-09-30T08:09:30Z</time>
      </trkpt>
      <trkpt lat="46.47724" lon="4.45291">
        <ele>412.57800292969</ele>
        <time>2020-09-30T08:09:35Z</time>
      </trkpt>
      <trkpt lat="46.47724" lon="4.45279">
        <ele>411.57800292969</ele>
        <time>2020-09-30T08:09:40Z</time>
      </trkpt>
      <trkpt lat="46.47724" lon="4.45267">
        <ele>409.57800292969</ele>
        <time>2020-09-30T08:09:45Z</time>
      </trkpt>
      <trkpt lat="46.4772" lon="4.45255">
        <ele>411.57800292969</ele>
        <time>2020-09-30T08:09:50Z</time>
      </trkpt>
      <trkpt lat="46.47717" lon="4.45242">
        <ele>410.57800292969</ele>
        <time>2020-09-30T08:09:55Z</time>
      </trkpt>
      <trkpt lat="46.47717" lon="4.45231">
        <ele>410.57800292969</ele>
        <time>2020-09-30T08:10:00Z</time>
      </trkpt>
      <trkpt lat="46.47714" lon="4.4522">
        <ele>409.57800292969</ele>
        <time>2020-09-30T08:10:05Z</time>
      </trkpt>
      <trkpt lat="46.47715" lon="4.45209">
        <ele>412.57800292969</ele>
        <time>2020-09-30T08:10:10Z</time>
      </trkpt>
      <trkpt lat="46.47715" lon="4.45199">
        <ele>415.57800292969</ele>
        <time>2020-09-30T08:10:16Z</time>
      </trkpt>
      <trkpt lat="46.47716" lon="4.45188">
        <ele>415.57800292969</ele>
        <time>2020-09-30T08:10:22Z</time>
      </trkpt>
      <trkpt lat="46.47718" lon="4.45176">
        <ele>416.57800292969</ele>
        <time>2020-09-30T08:10:27Z</time>
      </trkpt>
      <trkpt lat="46.47719" lon="4.45166">
        <ele>419.57800292969</ele>
        <time>2020-09-30T08:10:32Z</time>
      </trkpt>
      <trkpt lat="46.47719" lon="4.45156">
        <ele>418.57800292969</ele>
        <time>2020-09-30T08:10:39Z</time>
      </trkpt>
      <trkpt lat="46.47718" lon="4.45146">
        <ele>417.57800292969</ele>
        <time>2020-09-30T08:10:44Z</time>
      </trkpt>
      <trkpt lat="46.47719" lon="4.45135">
        <ele>418.57800292969</ele>
        <time>2020-09-30T08:10:49Z</time>
      </trkpt>
      <trkpt lat="46.47718" lon="4.45124">
        <ele>417.57800292969</ele>
        <time>2020-09-30T08:10:55Z</time>
      </trkpt>
      <trkpt lat="46.4772" lon="4.45114">
        <ele>415.57800292969</ele>
        <time>2020-09-30T08:11:00Z</time>
      </trkpt>
      <trkpt lat="46.4772" lon="4.45103">
        <ele>413.57800292969</ele>
        <time>2020-09-30T08:11:06Z</time>
      </trkpt>
      <trkpt lat="46.47722" lon="4.4509">
        <ele>414.57800292969</ele>
        <time>2020-09-30T08:11:11Z</time>
      </trkpt>
      <trkpt lat="46.47719" lon="4.45081">
        <ele>416.57699584961</ele>
        <time>2020-09-30T08:11:16Z</time>
      </trkpt>
      <trkpt lat="46.47717" lon="4.4507">
        <ele>416.57699584961</ele>
        <time>2020-09-30T08:11:21Z</time>
      </trkpt>
      <trkpt lat="46.47718" lon="4.45059">
        <ele>416.57699584961</ele>
        <time>2020-09-30T08:11:27Z</time>
      </trkpt>
      <trkpt lat="46.47718" lon="4.45049">
        <ele>413.57699584961</ele>
        <time>2020-09-30T08:11:32Z</time>
      </trkpt>
      <trkpt lat="46.47717" lon="4.45039">
        <ele>408.57699584961</ele>
        <time>2020-09-30T08:11:38Z</time>
      </trkpt>
      <trkpt lat="46.47713" lon="4.45029">
        <ele>408.57699584961</ele>
        <time>2020-09-30T08:11:43Z</time>
      </trkpt>
      <trkpt lat="46.47711" lon="4.45019">
        <ele>410.57699584961</ele>
        <time>2020-09-30T08:11:48Z</time>
      </trkpt>
      <trkpt lat="46.4771" lon="4.45006">
        <ele>409.57699584961</ele>
        <time>2020-09-30T08:11:53Z</time>
      </trkpt>
      <trkpt lat="46.47709" lon="4.44995">
        <ele>410.57699584961</ele>
        <time>2020-09-30T08:11:58Z</time>
      </trkpt>
      <trkpt lat="46.47707" lon="4.44984">
        <ele>412.57699584961</ele>
        <time>2020-09-30T08:12:03Z</time>
      </trkpt>
      <trkpt lat="46.47707" lon="4.44974">
        <ele>413.57699584961</ele>
        <time>2020-09-30T08:12:08Z</time>
      </trkpt>
      <trkpt lat="46.47706" lon="4.44963">
        <ele>413.57699584961</ele>
        <time>2020-09-30T08:12:13Z</time>
      </trkpt>
      <trkpt lat="46.47705" lon="4.44953">
        <ele>414.57699584961</ele>
        <time>2020-09-30T08:12:18Z</time>
      </trkpt>
      <trkpt lat="46.47704" lon="4.44939">
        <ele>412.57699584961</ele>
        <time>2020-09-30T08:12:23Z</time>
      </trkpt>
      <trkpt lat="46.47703" lon="4.44929">
        <ele>411.57699584961</ele>
        <time>2020-09-30T08:12:28Z</time>
      </trkpt>
      <trkpt lat="46.47699" lon="4.44919">
        <ele>411.57699584961</ele>
        <time>2020-09-30T08:12:34Z</time>
      </trkpt>
      <trkpt lat="46.477" lon="4.4491">
        <ele>409.57699584961</ele>
        <time>2020-09-30T08:12:39Z</time>
      </trkpt>
      <trkpt lat="46.47701" lon="4.44896">
        <ele>406.57699584961</ele>
        <time>2020-09-30T08:12:44Z</time>
      </trkpt>
      <trkpt lat="46.477" lon="4.44885">
        <ele>406.57699584961</ele>
        <time>2020-09-30T08:12:50Z</time>
      </trkpt>
      <trkpt lat="46.477" lon="4.44873">
        <ele>404.57699584961</ele>
        <time>2020-09-30T08:12:55Z</time>
      </trkpt>
      <trkpt lat="46.47698" lon="4.44859">
        <ele>406.57699584961</ele>
        <time>2020-09-30T08:13:00Z</time>
      </trkpt>
      <trkpt lat="46.47696" lon="4.44848">
        <ele>405.57699584961</ele>
        <time>2020-09-30T08:13:05Z</time>
      </trkpt>
      <trkpt lat="46.47694" lon="4.44838">
        <ele>404.57699584961</ele>
        <time>2020-09-30T08:13:10Z</time>
      </trkpt>
      <trkpt lat="46.47695" lon="4.44827">
        <ele>406.57699584961</ele>
        <time>2020-09-30T08:13:15Z</time>
      </trkpt>
      <trkpt lat="46.47692" lon="4.44817">
        <ele>405.57699584961</ele>
        <time>2020-09-30T08:13:20Z</time>
      </trkpt>
      <trkpt lat="46.47696" lon="4.44806">
        <ele>403.57699584961</ele>
        <time>2020-09-30T08:13:25Z</time>
      </trkpt>
      <trkpt lat="46.47696" lon="4.44795">
        <ele>404.57699584961</ele>
        <time>2020-09-30T08:13:30Z</time>
      </trkpt>
      <trkpt lat="46.47695" lon="4.44785">
        <ele>405.57699584961</ele>
        <time>2020-09-30T08:13:35Z</time>
      </trkpt>
      <trkpt lat="46.47694" lon="4.44773">
        <ele>405.57699584961</ele>
        <time>2020-09-30T08:13:40Z</time>
      </trkpt>
      <trkpt lat="46.47694" lon="4.4476">
        <ele>404.57699584961</ele>
        <time>2020-09-30T08:13:45Z</time>
      </trkpt>
      <trkpt lat="46.47692" lon="4.44749">
        <ele>404.57699584961</ele>
        <time>2020-09-30T08:13:52Z</time>
      </trkpt>
      <trkpt lat="46.47692" lon="4.44736">
        <ele>408.57699584961</ele>
        <time>2020-09-30T08:13:57Z</time>
      </trkpt>
      <trkpt lat="46.47691" lon="4.44727">
        <ele>411.57699584961</ele>
        <time>2020-09-30T08:14:03Z</time>
      </trkpt>
      <trkpt lat="46.47688" lon="4.44716">
        <ele>411.57699584961</ele>
        <time>2020-09-30T08:14:09Z</time>
      </trkpt>
      <trkpt lat="46.47689" lon="4.44706">
        <ele>409.57699584961</ele>
        <time>2020-09-30T08:14:14Z</time>
      </trkpt>
      <trkpt lat="46.47689" lon="4.44695">
        <ele>408.57699584961</ele>
        <time>2020-09-30T08:14:20Z</time>
      </trkpt>
      <trkpt lat="46.4769" lon="4.44683">
        <ele>405.57699584961</ele>
        <time>2020-09-30T08:14:25Z</time>
      </trkpt>
      <trkpt lat="46.47692" lon="4.44672">
        <ele>404.57699584961</ele>
        <time>2020-09-30T08:14:30Z</time>
      </trkpt>
      <trkpt lat="46.47693" lon="4.44661">
        <ele>404.57699584961</ele>
        <time>2020-09-30T08:14:35Z</time>
      </trkpt>
      <trkpt lat="46.47694" lon="4.44649">
        <ele>405.57699584961</ele>
        <time>2020-09-30T08:14:40Z</time>
      </trkpt>
      <trkpt lat="46.47695" lon="4.44638">
        <ele>405.57699584961</ele>
        <time>2020-09-30T08:14:45Z</time>
      </trkpt>
      <trkpt lat="46.47696" lon="4.44627">
        <ele>406.57699584961</ele>
        <time>2020-09-30T08:14:51Z</time>
      </trkpt>
      <trkpt lat="46.47697" lon="4.44616">
        <ele>406.57699584961</ele>
        <time>2020-09-30T08:14:56Z</time>
      </trkpt>
      <trkpt lat="46.47699" lon="4.44605">
        <ele>406.57699584961</ele>
        <time>2020-09-30T08:15:01Z</time>
      </trkpt>
      <trkpt lat="46.47703" lon="4.44594">
        <ele>405.57699584961</ele>
        <time>2020-09-30T08:15:06Z</time>
      </trkpt>
      <trkpt lat="46.47705" lon="4.44584">
        <ele>404.57699584961</ele>
        <time>2020-09-30T08:15:11Z</time>
      </trkpt>
      <trkpt lat="46.47708" lon="4.44573">
        <ele>402.57699584961</ele>
        <time>2020-09-30T08:15:16Z</time>
      </trkpt>
      <trkpt lat="46.4771" lon="4.44562">
        <ele>402.57699584961</ele>
        <time>2020-09-30T08:15:22Z</time>
      </trkpt>
      <trkpt lat="46.4771" lon="4.44551">
        <ele>403.57699584961</ele>
        <time>2020-09-30T08:15:27Z</time>
      </trkpt>
      <trkpt lat="46.47714" lon="4.44543">
        <ele>404.57699584961</ele>
        <time>2020-09-30T08:15:32Z</time>
      </trkpt>
      <trkpt lat="46.47721" lon="4.44533">
        <ele>403.57699584961</ele>
        <time>2020-09-30T08:15:37Z</time>
      </trkpt>
      <trkpt lat="46.47725" lon="4.44524">
        <ele>405.57699584961</ele>
        <time>2020-09-30T08:15:45Z</time>
      </trkpt>
      <trkpt lat="46.47729" lon="4.44513">
        <ele>403.57699584961</ele>
        <time>2020-09-30T08:15:50Z</time>
      </trkpt>
      <trkpt lat="46.47732" lon="4.44501">
        <ele>400.57699584961</ele>
        <time>2020-09-30T08:15:55Z</time>
      </trkpt>
      <trkpt lat="46.47737" lon="4.44492">
        <ele>400.57699584961</ele>
        <time>2020-09-30T08:16:00Z</time>
      </trkpt>
      <trkpt lat="46.47738" lon="4.44482">
        <ele>398.57699584961</ele>
        <time>2020-09-30T08:16:05Z</time>
      </trkpt>
      <trkpt lat="46.47741" lon="4.44473">
        <ele>398.57699584961</ele>
        <time>2020-09-30T08:16:10Z</time>
      </trkpt>
      <trkpt lat="46.47746" lon="4.44463">
        <ele>398.57699584961</ele>
        <time>2020-09-30T08:16:15Z</time>
      </trkpt>
      <trkpt lat="46.47748" lon="4.44453">
        <ele>397.57699584961</ele>
        <time>2020-09-30T08:16:20Z</time>
      </trkpt>
      <trkpt lat="46.47754" lon="4.44443">
        <ele>396.57699584961</ele>
        <time>2020-09-30T08:16:25Z</time>
      </trkpt>
      <trkpt lat="46.47758" lon="4.44435">
        <ele>394.57699584961</ele>
        <time>2020-09-30T08:16:31Z</time>
      </trkpt>
      <trkpt lat="46.47764" lon="4.44425">
        <ele>394.57699584961</ele>
        <time>2020-09-30T08:16:36Z</time>
      </trkpt>
      <trkpt lat="46.47769" lon="4.44418">
        <ele>394.57699584961</ele>
        <time>2020-09-30T08:16:42Z</time>
      </trkpt>
      <trkpt lat="46.47775" lon="4.4441">
        <ele>394.57699584961</ele>
        <time>2020-09-30T08:16:47Z</time>
      </trkpt>
      <trkpt lat="46.47782" lon="4.44403">
        <ele>394.57699584961</ele>
        <time>2020-09-30T08:16:52Z</time>
      </trkpt>
      <trkpt lat="46.47789" lon="4.44397">
        <ele>393.57699584961</ele>
        <time>2020-09-30T08:16:57Z</time>
      </trkpt>
      <trkpt lat="46.47795" lon="4.4439">
        <ele>393.57699584961</ele>
        <time>2020-09-30T08:17:02Z</time>
      </trkpt>
      <trkpt lat="46.47801" lon="4.44383">
        <ele>393.57699584961</ele>
        <time>2020-09-30T08:17:07Z</time>
      </trkpt>
      <trkpt lat="46.47807" lon="4.44374">
        <ele>392.57699584961</ele>
        <time>2020-09-30T08:17:12Z</time>
      </trkpt>
      <trkpt lat="46.47813" lon="4.44366">
        <ele>393.57699584961</ele>
        <time>2020-09-30T08:17:17Z</time>
      </trkpt>
      <trkpt lat="46.4782" lon="4.44358">
        <ele>392.57699584961</ele>
        <time>2020-09-30T08:17:22Z</time>
      </trkpt>
      <trkpt lat="46.47826" lon="4.44351">
        <ele>391.57699584961</ele>
        <time>2020-09-30T08:17:27Z</time>
      </trkpt>
      <trkpt lat="46.47831" lon="4.44343">
        <ele>389.57699584961</ele>
        <time>2020-09-30T08:17:32Z</time>
      </trkpt>
      <trkpt lat="46.47837" lon="4.44337">
        <ele>390.57699584961</ele>
        <time>2020-09-30T08:17:37Z</time>
      </trkpt>
      <trkpt lat="46.47844" lon="4.44329">
        <ele>389.57699584961</ele>
        <time>2020-09-30T08:17:42Z</time>
      </trkpt>
      <trkpt lat="46.4785" lon="4.44323">
        <ele>389.57699584961</ele>
        <time>2020-09-30T08:17:47Z</time>
      </trkpt>
      <trkpt lat="46.47857" lon="4.44316">
        <ele>390.57699584961</ele>
        <time>2020-09-30T08:17:52Z</time>
      </trkpt>
      <trkpt lat="46.47864" lon="4.44309">
        <ele>391.57699584961</ele>
        <time>2020-09-30T08:17:57Z</time>
      </trkpt>
      <trkpt lat="46.4787" lon="4.44302">
        <ele>389.57699584961</ele>
        <time>2020-09-30T08:18:02Z</time>
      </trkpt>
      <trkpt lat="46.47876" lon="4.44295">
        <ele>389.57699584961</ele>
        <time>2020-09-30T08:18:07Z</time>
      </trkpt>
      <trkpt lat="46.47882" lon="4.44288">
        <ele>388.57699584961</ele>
        <time>2020-09-30T08:18:12Z</time>
      </trkpt>
      <trkpt lat="46.47888" lon="4.44281">
        <ele>387.57699584961</ele>
        <time>2020-09-30T08:18:17Z</time>
      </trkpt>
      <trkpt lat="46.47892" lon="4.44273">
        <ele>385.57699584961</ele>
        <time>2020-09-30T08:18:22Z</time>
      </trkpt>
      <trkpt lat="46.47899" lon="4.44267">
        <ele>384.57699584961</ele>
        <time>2020-09-30T08:18:27Z</time>
      </trkpt>
      <trkpt lat="46.47906" lon="4.44261">
        <ele>384.57699584961</ele>
        <time>2020-09-30T08:18:32Z</time>
      </trkpt>
      <trkpt lat="46.47912" lon="4.44253">
        <ele>383.57699584961</ele>
        <time>2020-09-30T08:18:37Z</time>
      </trkpt>
      <trkpt lat="46.47917" lon="4.44247">
        <ele>381.57699584961</ele>
        <time>2020-09-30T08:18:42Z</time>
      </trkpt>
      <trkpt lat="46.47924" lon="4.44239">
        <ele>382.57699584961</ele>
        <time>2020-09-30T08:18:47Z</time>
      </trkpt>
      <trkpt lat="46.4793" lon="4.44233">
        <ele>381.57699584961</ele>
        <time>2020-09-30T08:18:52Z</time>
      </trkpt>
      <trkpt lat="46.47936" lon="4.44225">
        <ele>380.57699584961</ele>
        <time>2020-09-30T08:18:57Z</time>
      </trkpt>
      <trkpt lat="46.47942" lon="4.44218">
        <ele>380.57699584961</ele>
        <time>2020-09-30T08:19:02Z</time>
      </trkpt>
      <trkpt lat="46.47948" lon="4.44211">
        <ele>380.57699584961</ele>
        <time>2020-09-30T08:19:07Z</time>
      </trkpt>
      <trkpt lat="46.47956" lon="4.44207">
        <ele>381.57699584961</ele>
        <time>2020-09-30T08:19:12Z</time>
      </trkpt>
      <trkpt lat="46.47962" lon="4.44201">
        <ele>379.57699584961</ele>
        <time>2020-09-30T08:19:17Z</time>
      </trkpt>
      <trkpt lat="46.47966" lon="4.44194">
        <ele>376.57699584961</ele>
        <time>2020-09-30T08:19:22Z</time>
      </trkpt>
      <trkpt lat="46.4797" lon="4.44186">
        <ele>376.57800292969</ele>
        <time>2020-09-30T08:19:27Z</time>
      </trkpt>
      <trkpt lat="46.47977" lon="4.44179">
        <ele>375.57800292969</ele>
        <time>2020-09-30T08:19:32Z</time>
      </trkpt>
      <trkpt lat="46.47983" lon="4.44171">
        <ele>376.57800292969</ele>
        <time>2020-09-30T08:19:37Z</time>
      </trkpt>
      <trkpt lat="46.47989" lon="4.44162">
        <ele>375.57800292969</ele>
        <time>2020-09-30T08:19:42Z</time>
      </trkpt>
      <trkpt lat="46.47994" lon="4.44151">
        <ele>376.57800292969</ele>
        <time>2020-09-30T08:19:47Z</time>
      </trkpt>
      <trkpt lat="46.47999" lon="4.44142">
        <ele>375.57800292969</ele>
        <time>2020-09-30T08:19:52Z</time>
      </trkpt>
      <trkpt lat="46.48005" lon="4.44134">
        <ele>376.57800292969</ele>
        <time>2020-09-30T08:19:57Z</time>
      </trkpt>
      <trkpt lat="46.48009" lon="4.44127">
        <ele>375.57800292969</ele>
        <time>2020-09-30T08:20:02Z</time>
      </trkpt>
      <trkpt lat="46.48014" lon="4.44119">
        <ele>375.57800292969</ele>
        <time>2020-09-30T08:20:07Z</time>
      </trkpt>
      <trkpt lat="46.48019" lon="4.4411">
        <ele>375.57800292969</ele>
        <time>2020-09-30T08:20:12Z</time>
      </trkpt>
      <trkpt lat="46.48024" lon="4.44102">
        <ele>375.57800292969</ele>
        <time>2020-09-30T08:20:17Z</time>
      </trkpt>
      <trkpt lat="46.48029" lon="4.44093">
        <ele>375.57800292969</ele>
        <time>2020-09-30T08:20:22Z</time>
      </trkpt>
      <trkpt lat="46.48033" lon="4.44083">
        <ele>375.57800292969</ele>
        <time>2020-09-30T08:20:28Z</time>
      </trkpt>
      <trkpt lat="46.48036" lon="4.44074">
        <ele>376.57800292969</ele>
        <time>2020-09-30T08:20:33Z</time>
      </trkpt>
      <trkpt lat="46.48037" lon="4.44063">
        <ele>374.57800292969</ele>
        <time>2020-09-30T08:20:38Z</time>
      </trkpt>
      <trkpt lat="46.48037" lon="4.44051">
        <ele>375.57800292969</ele>
        <time>2020-09-30T08:20:44Z</time>
      </trkpt>
      <trkpt lat="46.48038" lon="4.44042">
        <ele>377.57800292969</ele>
        <time>2020-09-30T08:20:49Z</time>
      </trkpt>
      <trkpt lat="46.4804" lon="4.44029">
        <ele>378.57800292969</ele>
        <time>2020-09-30T08:20:54Z</time>
      </trkpt>
      <trkpt lat="46.48041" lon="4.4402">
        <ele>379.57800292969</ele>
        <time>2020-09-30T08:20:59Z</time>
      </trkpt>
      <trkpt lat="46.48043" lon="4.4401">
        <ele>380.57800292969</ele>
        <time>2020-09-30T08:21:04Z</time>
      </trkpt>
      <trkpt lat="46.48043" lon="4.43999">
        <ele>378.57800292969</ele>
        <time>2020-09-30T08:21:18Z</time>
      </trkpt>
      <trkpt lat="46.48046" lon="4.43988">
        <ele>377.57800292969</ele>
        <time>2020-09-30T08:21:23Z</time>
      </trkpt>
      <trkpt lat="46.48046" lon="4.43978">
        <ele>375.57800292969</ele>
        <time>2020-09-30T08:21:29Z</time>
      </trkpt>
      <trkpt lat="46.48043" lon="4.43968">
        <ele>377.57800292969</ele>
        <time>2020-09-30T08:21:35Z</time>
      </trkpt>
      <trkpt lat="46.48042" lon="4.43957">
        <ele>377.57800292969</ele>
        <time>2020-09-30T08:21:41Z</time>
      </trkpt>
      <trkpt lat="46.48041" lon="4.43946">
        <ele>378.57800292969</ele>
        <time>2020-09-30T08:21:46Z</time>
      </trkpt>
      <trkpt lat="46.48038" lon="4.43937">
        <ele>378.57800292969</ele>
        <time>2020-09-30T08:21:52Z</time>
      </trkpt>
      <trkpt lat="46.48037" lon="4.43927">
        <ele>379.57699584961</ele>
        <time>2020-09-30T08:21:57Z</time>
      </trkpt>
      <trkpt lat="46.48035" lon="4.43916">
        <ele>380.57699584961</ele>
        <time>2020-09-30T08:22:02Z</time>
      </trkpt>
      <trkpt lat="46.48033" lon="4.43906">
        <ele>379.57699584961</ele>
        <time>2020-09-30T08:22:07Z</time>
      </trkpt>
      <trkpt lat="46.48031" lon="4.43897">
        <ele>379.57699584961</ele>
        <time>2020-09-30T08:22:12Z</time>
      </trkpt>
      <trkpt lat="46.48028" lon="4.43886">
        <ele>380.57699584961</ele>
        <time>2020-09-30T08:22:17Z</time>
      </trkpt>
      <trkpt lat="46.48023" lon="4.43873">
        <ele>381.57699584961</ele>
        <time>2020-09-30T08:22:22Z</time>
      </trkpt>
      <trkpt lat="46.48024" lon="4.43861">
        <ele>380.57699584961</ele>
        <time>2020-09-30T08:22:27Z</time>
      </trkpt>
      <trkpt lat="46.48029" lon="4.43853">
        <ele>378.57699584961</ele>
        <time>2020-09-30T08:22:32Z</time>
      </trkpt>
      <trkpt lat="46.48036" lon="4.43849">
        <ele>380.57699584961</ele>
        <time>2020-09-30T08:22:37Z</time>
      </trkpt>
      <trkpt lat="46.48041" lon="4.4384">
        <ele>379.57699584961</ele>
        <time>2020-09-30T08:22:42Z</time>
      </trkpt>
      <trkpt lat="46.48044" lon="4.4383">
        <ele>379.57699584961</ele>
        <time>2020-09-30T08:22:48Z</time>
      </trkpt>
      <trkpt lat="46.48049" lon="4.43823">
        <ele>377.57699584961</ele>
        <time>2020-09-30T08:22:53Z</time>
      </trkpt>
      <trkpt lat="46.48055" lon="4.43817">
        <ele>378.57699584961</ele>
        <time>2020-09-30T08:22:58Z</time>
      </trkpt>
      <trkpt lat="46.48061" lon="4.43811">
        <ele>377.57699584961</ele>
        <time>2020-09-30T08:23:03Z</time>
      </trkpt>
      <trkpt lat="46.48066" lon="4.43805">
        <ele>377.57699584961</ele>
        <time>2020-09-30T08:23:08Z</time>
      </trkpt>
      <trkpt lat="46.48071" lon="4.43795">
        <ele>377.57699584961</ele>
        <time>2020-09-30T08:23:13Z</time>
      </trkpt>
      <trkpt lat="46.48074" lon="4.43784">
        <ele>378.57699584961</ele>
        <time>2020-09-30T08:23:18Z</time>
      </trkpt>
      <trkpt lat="46.48073" lon="4.43775">
        <ele>379.57699584961</ele>
        <time>2020-09-30T08:23:23Z</time>
      </trkpt>
      <trkpt lat="46.48071" lon="4.43764">
        <ele>378.57699584961</ele>
        <time>2020-09-30T08:23:28Z</time>
      </trkpt>
      <trkpt lat="46.48069" lon="4.43755">
        <ele>376.57699584961</ele>
        <time>2020-09-30T08:23:33Z</time>
      </trkpt>
      <trkpt lat="46.48067" lon="4.43745">
        <ele>375.57699584961</ele>
        <time>2020-09-30T08:23:39Z</time>
      </trkpt>
      <trkpt lat="46.48063" lon="4.43736">
        <ele>376.57699584961</ele>
        <time>2020-09-30T08:23:44Z</time>
      </trkpt>
      <trkpt lat="46.48059" lon="4.43727">
        <ele>374.57699584961</ele>
        <time>2020-09-30T08:23:49Z</time>
      </trkpt>
      <trkpt lat="46.48055" lon="4.43718">
        <ele>372.57699584961</ele>
        <time>2020-09-30T08:23:54Z</time>
      </trkpt>
      <trkpt lat="46.48051" lon="4.43709">
        <ele>373.57699584961</ele>
        <time>2020-09-30T08:23:59Z</time>
      </trkpt>
      <trkpt lat="46.48046" lon="4.43702">
        <ele>373.57699584961</ele>
        <time>2020-09-30T08:24:05Z</time>
      </trkpt>
      <trkpt lat="46.48041" lon="4.43692">
        <ele>372.57699584961</ele>
        <time>2020-09-30T08:24:10Z</time>
      </trkpt>
      <trkpt lat="46.48035" lon="4.43683">
        <ele>373.57699584961</ele>
        <time>2020-09-30T08:24:15Z</time>
      </trkpt>
      <trkpt lat="46.4803" lon="4.43674">
        <ele>373.57699584961</ele>
        <time>2020-09-30T08:24:20Z</time>
      </trkpt>
      <trkpt lat="46.48026" lon="4.43666">
        <ele>373.57699584961</ele>
        <time>2020-09-30T08:24:25Z</time>
      </trkpt>
      <trkpt lat="46.4802" lon="4.4366">
        <ele>372.57699584961</ele>
        <time>2020-09-30T08:24:30Z</time>
      </trkpt>
      <trkpt lat="46.48015" lon="4.43652">
        <ele>372.57699584961</ele>
        <time>2020-09-30T08:24:35Z</time>
      </trkpt>
      <trkpt lat="46.48011" lon="4.43643">
        <ele>372.57699584961</ele>
        <time>2020-09-30T08:24:40Z</time>
      </trkpt>
      <trkpt lat="46.48007" lon="4.43635">
        <ele>372.57699584961</ele>
        <time>2020-09-30T08:24:45Z</time>
      </trkpt>
      <trkpt lat="46.48" lon="4.43629">
        <ele>372.57699584961</ele>
        <time>2020-09-30T08:24:50Z</time>
      </trkpt>
      <trkpt lat="46.47993" lon="4.43624">
        <ele>372.57699584961</ele>
        <time>2020-09-30T08:24:55Z</time>
      </trkpt>
      <trkpt lat="46.47985" lon="4.43621">
        <ele>370.57699584961</ele>
        <time>2020-09-30T08:25:00Z</time>
      </trkpt>
      <trkpt lat="46.47976" lon="4.43619">
        <ele>371.57699584961</ele>
        <time>2020-09-30T08:25:05Z</time>
      </trkpt>
      <trkpt lat="46.47969" lon="4.43619">
        <ele>373.57699584961</ele>
        <time>2020-09-30T08:25:10Z</time>
      </trkpt>
      <trkpt lat="46.47962" lon="4.43614">
        <ele>373.57699584961</ele>
        <time>2020-09-30T08:25:15Z</time>
      </trkpt>
      <trkpt lat="46.47955" lon="4.43616">
        <ele>369.57699584961</ele>
        <time>2020-09-30T08:25:22Z</time>
      </trkpt>
      <trkpt lat="46.47947" lon="4.43613">
        <ele>367.57699584961</ele>
        <time>2020-09-30T08:25:27Z</time>
      </trkpt>
      <trkpt lat="46.4794" lon="4.43613">
        <ele>369.57699584961</ele>
        <time>2020-09-30T08:25:32Z</time>
      </trkpt>
      <trkpt lat="46.47933" lon="4.43611">
        <ele>368.57699584961</ele>
        <time>2020-09-30T08:25:37Z</time>
      </trkpt>
      <trkpt lat="46.47926" lon="4.4361">
        <ele>369.57699584961</ele>
        <time>2020-09-30T08:25:42Z</time>
      </trkpt>
      <trkpt lat="46.47919" lon="4.43604">
        <ele>374.57699584961</ele>
        <time>2020-09-30T08:25:47Z</time>
      </trkpt>
      <trkpt lat="46.47913" lon="4.43599">
        <ele>373.57699584961</ele>
        <time>2020-09-30T08:25:52Z</time>
      </trkpt>
      <trkpt lat="46.47908" lon="4.43593">
        <ele>372.57699584961</ele>
        <time>2020-09-30T08:25:57Z</time>
      </trkpt>
      <trkpt lat="46.479" lon="4.43585">
        <ele>373.57699584961</ele>
        <time>2020-09-30T08:26:02Z</time>
      </trkpt>
      <trkpt lat="46.47895" lon="4.43575">
        <ele>372.57699584961</ele>
        <time>2020-09-30T08:26:07Z</time>
      </trkpt>
      <trkpt lat="46.47889" lon="4.43569">
        <ele>371.57699584961</ele>
        <time>2020-09-30T08:26:12Z</time>
      </trkpt>
      <trkpt lat="46.47884" lon="4.43559">
        <ele>372.57699584961</ele>
        <time>2020-09-30T08:26:17Z</time>
      </trkpt>
      <trkpt lat="46.47881" lon="4.4355">
        <ele>373.57699584961</ele>
        <time>2020-09-30T08:26:23Z</time>
      </trkpt>
      <trkpt lat="46.47879" lon="4.4354">
        <ele>377.57699584961</ele>
        <time>2020-09-30T08:26:29Z</time>
      </trkpt>
      <trkpt lat="46.47876" lon="4.4353">
        <ele>379.57699584961</ele>
        <time>2020-09-30T08:26:34Z</time>
      </trkpt>
      <trkpt lat="46.47875" lon="4.43516">
        <ele>379.57699584961</ele>
        <time>2020-09-30T08:26:39Z</time>
      </trkpt>
      <trkpt lat="46.47871" lon="4.43508">
        <ele>379.57699584961</ele>
        <time>2020-09-30T08:26:44Z</time>
      </trkpt>
      <trkpt lat="46.47867" lon="4.43499">
        <ele>378.57699584961</ele>
        <time>2020-09-30T08:26:50Z</time>
      </trkpt>
      <trkpt lat="46.47866" lon="4.4349">
        <ele>376.57699584961</ele>
        <time>2020-09-30T08:26:56Z</time>
      </trkpt>
      <trkpt lat="46.47863" lon="4.43481">
        <ele>373.57699584961</ele>
        <time>2020-09-30T08:27:01Z</time>
      </trkpt>
      <trkpt lat="46.47858" lon="4.43471">
        <ele>377.57699584961</ele>
        <time>2020-09-30T08:27:06Z</time>
      </trkpt>
      <trkpt lat="46.47856" lon="4.43458">
        <ele>377.57699584961</ele>
        <time>2020-09-30T08:27:11Z</time>
      </trkpt>
      <trkpt lat="46.47852" lon="4.43448">
        <ele>377.57699584961</ele>
        <time>2020-09-30T08:27:16Z</time>
      </trkpt>
      <trkpt lat="46.47849" lon="4.43439">
        <ele>374.57699584961</ele>
        <time>2020-09-30T08:27:22Z</time>
      </trkpt>
      <trkpt lat="46.47846" lon="4.4343">
        <ele>374.57699584961</ele>
        <time>2020-09-30T08:27:28Z</time>
      </trkpt>
      <trkpt lat="46.47843" lon="4.43419">
        <ele>372.57699584961</ele>
        <time>2020-09-30T08:27:33Z</time>
      </trkpt>
      <trkpt lat="46.4784" lon="4.43407">
        <ele>372.57699584961</ele>
        <time>2020-09-30T08:27:38Z</time>
      </trkpt>
      <trkpt lat="46.47837" lon="4.43395">
        <ele>374.57699584961</ele>
        <time>2020-09-30T08:27:43Z</time>
      </trkpt>
      <trkpt lat="46.47835" lon="4.43384">
        <ele>377.57699584961</ele>
        <time>2020-09-30T08:27:49Z</time>
      </trkpt>
      <trkpt lat="46.47832" lon="4.43375">
        <ele>377.57699584961</ele>
        <time>2020-09-30T08:27:55Z</time>
      </trkpt>
      <trkpt lat="46.47831" lon="4.43364">
        <ele>374.57598876953</ele>
        <time>2020-09-30T08:28:01Z</time>
      </trkpt>
      <trkpt lat="46.47829" lon="4.43354">
        <ele>376.57598876953</ele>
        <time>2020-09-30T08:28:06Z</time>
      </trkpt>
      <trkpt lat="46.47827" lon="4.43344">
        <ele>377.57598876953</ele>
        <time>2020-09-30T08:28:11Z</time>
      </trkpt>
      <trkpt lat="46.47825" lon="4.43333">
        <ele>377.57598876953</ele>
        <time>2020-09-30T08:28:16Z</time>
      </trkpt>
      <trkpt lat="46.47823" lon="4.43323">
        <ele>379.57598876953</ele>
        <time>2020-09-30T08:28:22Z</time>
      </trkpt>
      <trkpt lat="46.47823" lon="4.43314">
        <ele>376.57598876953</ele>
        <time>2020-09-30T08:28:27Z</time>
      </trkpt>
      <trkpt lat="46.47822" lon="4.43302">
        <ele>377.57598876953</ele>
        <time>2020-09-30T08:28:35Z</time>
      </trkpt>
      <trkpt lat="46.4782" lon="4.43291">
        <ele>376.57598876953</ele>
        <time>2020-09-30T08:28:40Z</time>
      </trkpt>
      <trkpt lat="46.47818" lon="4.4328">
        <ele>372.57598876953</ele>
        <time>2020-09-30T08:28:45Z</time>
      </trkpt>
      <trkpt lat="46.47815" lon="4.43266">
        <ele>371.57598876953</ele>
        <time>2020-09-30T08:28:50Z</time>
      </trkpt>
      <trkpt lat="46.47813" lon="4.43254">
        <ele>373.57598876953</ele>
        <time>2020-09-30T08:28:55Z</time>
      </trkpt>
      <trkpt lat="46.47811" lon="4.43245">
        <ele>378.57598876953</ele>
        <time>2020-09-30T08:29:00Z</time>
      </trkpt>
      <trkpt lat="46.4781" lon="4.43234">
        <ele>379.57598876953</ele>
        <time>2020-09-30T08:29:05Z</time>
      </trkpt>
      <trkpt lat="46.47805" lon="4.43226">
        <ele>380.57598876953</ele>
        <time>2020-09-30T08:29:10Z</time>
      </trkpt>
      <trkpt lat="46.47802" lon="4.43215">
        <ele>376.57598876953</ele>
        <time>2020-09-30T08:29:17Z</time>
      </trkpt>
      <trkpt lat="46.478" lon="4.43204">
        <ele>376.57598876953</ele>
        <time>2020-09-30T08:29:22Z</time>
      </trkpt>
      <trkpt lat="46.47798" lon="4.43195">
        <ele>376.57598876953</ele>
        <time>2020-09-30T08:29:27Z</time>
      </trkpt>
      <trkpt lat="46.47797" lon="4.43186">
        <ele>377.57598876953</ele>
        <time>2020-09-30T08:29:32Z</time>
      </trkpt>
      <trkpt lat="46.47798" lon="4.43176">
        <ele>376.57598876953</ele>
        <time>2020-09-30T08:29:37Z</time>
      </trkpt>
      <trkpt lat="46.47798" lon="4.43166">
        <ele>375.57598876953</ele>
        <time>2020-09-30T08:29:42Z</time>
      </trkpt>
      <trkpt lat="46.47799" lon="4.43154">
        <ele>372.57598876953</ele>
        <time>2020-09-30T08:29:48Z</time>
      </trkpt>
      <trkpt lat="46.47795" lon="4.43144">
        <ele>372.57598876953</ele>
        <time>2020-09-30T08:29:53Z</time>
      </trkpt>
      <trkpt lat="46.47794" lon="4.43135">
        <ele>376.57598876953</ele>
        <time>2020-09-30T08:30:00Z</time>
      </trkpt>
      <trkpt lat="46.47792" lon="4.43123">
        <ele>377.57598876953</ele>
        <time>2020-09-30T08:30:06Z</time>
      </trkpt>
      <trkpt lat="46.47789" lon="4.43113">
        <ele>378.57598876953</ele>
        <time>2020-09-30T08:30:11Z</time>
      </trkpt>
      <trkpt lat="46.47787" lon="4.43104">
        <ele>378.57598876953</ele>
        <time>2020-09-30T08:30:16Z</time>
      </trkpt>
      <trkpt lat="46.47785" lon="4.43094">
        <ele>380.57598876953</ele>
        <time>2020-09-30T08:30:21Z</time>
      </trkpt>
      <trkpt lat="46.47781" lon="4.43083">
        <ele>381.57598876953</ele>
        <time>2020-09-30T08:30:26Z</time>
      </trkpt>
      <trkpt lat="46.4778" lon="4.43071">
        <ele>384.57598876953</ele>
        <time>2020-09-30T08:30:31Z</time>
      </trkpt>
      <trkpt lat="46.47777" lon="4.43062">
        <ele>381.57598876953</ele>
        <time>2020-09-30T08:30:36Z</time>
      </trkpt>
      <trkpt lat="46.47774" lon="4.43053">
        <ele>383.57598876953</ele>
        <time>2020-09-30T08:30:41Z</time>
      </trkpt>
      <trkpt lat="46.47771" lon="4.43043">
        <ele>379.57598876953</ele>
        <time>2020-09-30T08:30:46Z</time>
      </trkpt>
      <trkpt lat="46.47768" lon="4.43033">
        <ele>377.57598876953</ele>
        <time>2020-09-30T08:30:53Z</time>
      </trkpt>
      <trkpt lat="46.47764" lon="4.43022">
        <ele>376.57598876953</ele>
        <time>2020-09-30T08:30:58Z</time>
      </trkpt>
      <trkpt lat="46.47759" lon="4.43011">
        <ele>374.57598876953</ele>
        <time>2020-09-30T08:31:03Z</time>
      </trkpt>
      <trkpt lat="46.47755" lon="4.43002">
        <ele>373.57598876953</ele>
        <time>2020-09-30T08:31:08Z</time>
      </trkpt>
      <trkpt lat="46.47751" lon="4.4299">
        <ele>373.57598876953</ele>
        <time>2020-09-30T08:31:13Z</time>
      </trkpt>
      <trkpt lat="46.47747" lon="4.42979">
        <ele>376.57598876953</ele>
        <time>2020-09-30T08:31:19Z</time>
      </trkpt>
      <trkpt lat="46.47743" lon="4.42971">
        <ele>377.57598876953</ele>
        <time>2020-09-30T08:31:25Z</time>
      </trkpt>
      <trkpt lat="46.47739" lon="4.4296">
        <ele>377.57598876953</ele>
        <time>2020-09-30T08:31:30Z</time>
      </trkpt>
      <trkpt lat="46.47734" lon="4.42948">
        <ele>378.57598876953</ele>
        <time>2020-09-30T08:31:35Z</time>
      </trkpt>
      <trkpt lat="46.47732" lon="4.42935">
        <ele>380.57598876953</ele>
        <time>2020-09-30T08:31:40Z</time>
      </trkpt>
      <trkpt lat="46.47727" lon="4.42927">
        <ele>377.57598876953</ele>
        <time>2020-09-30T08:31:46Z</time>
      </trkpt>
      <trkpt lat="46.47725" lon="4.42917">
        <ele>376.57598876953</ele>
        <time>2020-09-30T08:31:52Z</time>
      </trkpt>
      <trkpt lat="46.47722" lon="4.42908">
        <ele>373.57598876953</ele>
        <time>2020-09-30T08:31:58Z</time>
      </trkpt>
      <trkpt lat="46.47719" lon="4.429">
        <ele>373.57598876953</ele>
        <time>2020-09-30T08:32:03Z</time>
      </trkpt>
      <trkpt lat="46.47717" lon="4.42889">
        <ele>375.57598876953</ele>
        <time>2020-09-30T08:32:09Z</time>
      </trkpt>
      <trkpt lat="46.47715" lon="4.42875">
        <ele>374.57598876953</ele>
        <time>2020-09-30T08:32:14Z</time>
      </trkpt>
      <trkpt lat="46.47713" lon="4.42864">
        <ele>375.57598876953</ele>
        <time>2020-09-30T08:32:19Z</time>
      </trkpt>
      <trkpt lat="46.47709" lon="4.42851">
        <ele>378.57598876953</ele>
        <time>2020-09-30T08:32:24Z</time>
      </trkpt>
      <trkpt lat="46.47706" lon="4.42839">
        <ele>377.57598876953</ele>
        <time>2020-09-30T08:32:29Z</time>
      </trkpt>
      <trkpt lat="46.477" lon="4.42832">
        <ele>371.57598876953</ele>
        <time>2020-09-30T08:32:36Z</time>
      </trkpt>
      <trkpt lat="46.47698" lon="4.42823">
        <ele>373.57598876953</ele>
        <time>2020-09-30T08:32:41Z</time>
      </trkpt>
      <trkpt lat="46.47693" lon="4.42815">
        <ele>375.57598876953</ele>
        <time>2020-09-30T08:32:46Z</time>
      </trkpt>
      <trkpt lat="46.47689" lon="4.42807">
        <ele>369.57598876953</ele>
        <time>2020-09-30T08:32:51Z</time>
      </trkpt>
      <trkpt lat="46.47684" lon="4.428">
        <ele>367.57598876953</ele>
        <time>2020-09-30T08:32:59Z</time>
      </trkpt>
      <trkpt lat="46.4768" lon="4.42792">
        <ele>367.57598876953</ele>
        <time>2020-09-30T08:33:04Z</time>
      </trkpt>
      <trkpt lat="46.47677" lon="4.42782">
        <ele>367.57598876953</ele>
        <time>2020-09-30T08:33:09Z</time>
      </trkpt>
      <trkpt lat="46.47673" lon="4.42772">
        <ele>367.57598876953</ele>
        <time>2020-09-30T08:33:14Z</time>
      </trkpt>
      <trkpt lat="46.47668" lon="4.42764">
        <ele>368.57598876953</ele>
        <time>2020-09-30T08:33:20Z</time>
      </trkpt>
      <trkpt lat="46.47663" lon="4.42756">
        <ele>370.57598876953</ele>
        <time>2020-09-30T08:33:25Z</time>
      </trkpt>
      <trkpt lat="46.47657" lon="4.42747">
        <ele>369.57598876953</ele>
        <time>2020-09-30T08:33:31Z</time>
      </trkpt>
      <trkpt lat="46.47652" lon="4.42736">
        <ele>370.57598876953</ele>
        <time>2020-09-30T08:33:36Z</time>
      </trkpt>
      <trkpt lat="46.47647" lon="4.42727">
        <ele>369.57501220703</ele>
        <time>2020-09-30T08:33:41Z</time>
      </trkpt>
      <trkpt lat="46.47642" lon="4.42716">
        <ele>368.57501220703</ele>
        <time>2020-09-30T08:33:46Z</time>
      </trkpt>
      <trkpt lat="46.47635" lon="4.42709">
        <ele>369.57501220703</ele>
        <time>2020-09-30T08:33:51Z</time>
      </trkpt>
      <trkpt lat="46.47628" lon="4.42704">
        <ele>368.57501220703</ele>
        <time>2020-09-30T08:33:56Z</time>
      </trkpt>
      <trkpt lat="46.47622" lon="4.42699">
        <ele>367.57501220703</ele>
        <time>2020-09-30T08:34:01Z</time>
      </trkpt>
      <trkpt lat="46.47617" lon="4.42695">
        <ele>365.57501220703</ele>
        <time>2020-09-30T08:34:08Z</time>
      </trkpt>
      <trkpt lat="46.47612" lon="4.42687">
        <ele>365.57501220703</ele>
        <time>2020-09-30T08:34:13Z</time>
      </trkpt>
      <trkpt lat="46.47606" lon="4.42681">
        <ele>366.57501220703</ele>
        <time>2020-09-30T08:34:18Z</time>
      </trkpt>
      <trkpt lat="46.476" lon="4.42675">
        <ele>366.57501220703</ele>
        <time>2020-09-30T08:34:23Z</time>
      </trkpt>
      <trkpt lat="46.47593" lon="4.42674">
        <ele>363.57501220703</ele>
        <time>2020-09-30T08:34:28Z</time>
      </trkpt>
      <trkpt lat="46.47587" lon="4.42666">
        <ele>363.57501220703</ele>
        <time>2020-09-30T08:34:33Z</time>
      </trkpt>
      <trkpt lat="46.47584" lon="4.42656">
        <ele>366.57501220703</ele>
        <time>2020-09-30T08:34:38Z</time>
      </trkpt>
      <trkpt lat="46.47585" lon="4.42646">
        <ele>368.57501220703</ele>
        <time>2020-09-30T08:34:43Z</time>
      </trkpt>
      <trkpt lat="46.47584" lon="4.42636">
        <ele>369.57501220703</ele>
        <time>2020-09-30T08:34:48Z</time>
      </trkpt>
      <trkpt lat="46.47584" lon="4.42624">
        <ele>371.57501220703</ele>
        <time>2020-09-30T08:34:53Z</time>
      </trkpt>
      <trkpt lat="46.47582" lon="4.42614">
        <ele>367.57501220703</ele>
        <time>2020-09-30T08:34:58Z</time>
      </trkpt>
      <trkpt lat="46.47584" lon="4.42602">
        <ele>368.57501220703</ele>
        <time>2020-09-30T08:35:03Z</time>
      </trkpt>
      <trkpt lat="46.47585" lon="4.42591">
        <ele>368.57501220703</ele>
        <time>2020-09-30T08:35:09Z</time>
      </trkpt>
      <trkpt lat="46.47587" lon="4.42581">
        <ele>373.57501220703</ele>
        <time>2020-09-30T08:35:14Z</time>
      </trkpt>
      <trkpt lat="46.47586" lon="4.42571">
        <ele>376.57501220703</ele>
        <time>2020-09-30T08:35:19Z</time>
      </trkpt>
      <trkpt lat="46.47584" lon="4.42561">
        <ele>374.57501220703</ele>
        <time>2020-09-30T08:35:25Z</time>
      </trkpt>
      <trkpt lat="46.47584" lon="4.4255">
        <ele>373.57501220703</ele>
        <time>2020-09-30T08:35:31Z</time>
      </trkpt>
      <trkpt lat="46.47584" lon="4.42541">
        <ele>373.57501220703</ele>
        <time>2020-09-30T08:35:36Z</time>
      </trkpt>
      <trkpt lat="46.47586" lon="4.4253">
        <ele>373.57501220703</ele>
        <time>2020-09-30T08:35:41Z</time>
      </trkpt>
      <trkpt lat="46.47587" lon="4.4252">
        <ele>374.57501220703</ele>
        <time>2020-09-30T08:35:49Z</time>
      </trkpt>
      <trkpt lat="46.47586" lon="4.4251">
        <ele>374.57501220703</ele>
        <time>2020-09-30T08:35:55Z</time>
      </trkpt>
      <trkpt lat="46.47588" lon="4.42499">
        <ele>371.57501220703</ele>
        <time>2020-09-30T08:36:00Z</time>
      </trkpt>
      <trkpt lat="46.47587" lon="4.42487">
        <ele>373.57501220703</ele>
        <time>2020-09-30T08:36:05Z</time>
      </trkpt>
      <trkpt lat="46.4759" lon="4.42474">
        <ele>372.57501220703</ele>
        <time>2020-09-30T08:36:10Z</time>
      </trkpt>
      <trkpt lat="46.47592" lon="4.42463">
        <ele>374.57501220703</ele>
        <time>2020-09-30T08:36:15Z</time>
      </trkpt>
      <trkpt lat="46.47595" lon="4.42451">
        <ele>378.57501220703</ele>
        <time>2020-09-30T08:36:20Z</time>
      </trkpt>
      <trkpt lat="46.47599" lon="4.42441">
        <ele>377.57501220703</ele>
        <time>2020-09-30T08:36:25Z</time>
      </trkpt>
      <trkpt lat="46.47603" lon="4.42432">
        <ele>377.57501220703</ele>
        <time>2020-09-30T08:36:30Z</time>
      </trkpt>
      <trkpt lat="46.47608" lon="4.42424">
        <ele>377.57501220703</ele>
        <time>2020-09-30T08:36:35Z</time>
      </trkpt>
      <trkpt lat="46.47614" lon="4.42417">
        <ele>379.57501220703</ele>
        <time>2020-09-30T08:36:40Z</time>
      </trkpt>
      <trkpt lat="46.47621" lon="4.42411">
        <ele>381.57501220703</ele>
        <time>2020-09-30T08:36:45Z</time>
      </trkpt>
      <trkpt lat="46.47626" lon="4.42404">
        <ele>383.57501220703</ele>
        <time>2020-09-30T08:36:50Z</time>
      </trkpt>
      <trkpt lat="46.47632" lon="4.42397">
        <ele>383.57501220703</ele>
        <time>2020-09-30T08:36:55Z</time>
      </trkpt>
      <trkpt lat="46.47637" lon="4.4239">
        <ele>383.57501220703</ele>
        <time>2020-09-30T08:37:00Z</time>
      </trkpt>
      <trkpt lat="46.47642" lon="4.42383">
        <ele>383.57501220703</ele>
        <time>2020-09-30T08:37:05Z</time>
      </trkpt>
      <trkpt lat="46.47647" lon="4.42375">
        <ele>382.57501220703</ele>
        <time>2020-09-30T08:37:10Z</time>
      </trkpt>
      <trkpt lat="46.47653" lon="4.42369">
        <ele>381.57501220703</ele>
        <time>2020-09-30T08:37:15Z</time>
      </trkpt>
      <trkpt lat="46.4766" lon="4.42362">
        <ele>383.57501220703</ele>
        <time>2020-09-30T08:37:20Z</time>
      </trkpt>
      <trkpt lat="46.47666" lon="4.42355">
        <ele>382.57501220703</ele>
        <time>2020-09-30T08:37:25Z</time>
      </trkpt>
      <trkpt lat="46.47669" lon="4.42347">
        <ele>381.57501220703</ele>
        <time>2020-09-30T08:37:31Z</time>
      </trkpt>
      <trkpt lat="46.47674" lon="4.42339">
        <ele>385.57501220703</ele>
        <time>2020-09-30T08:37:36Z</time>
      </trkpt>
      <trkpt lat="46.47676" lon="4.4233">
        <ele>383.57501220703</ele>
        <time>2020-09-30T08:37:41Z</time>
      </trkpt>
      <trkpt lat="46.47677" lon="4.4232">
        <ele>382.57501220703</ele>
        <time>2020-09-30T08:37:46Z</time>
      </trkpt>
      <trkpt lat="46.47679" lon="4.4231">
        <ele>383.57501220703</ele>
        <time>2020-09-30T08:37:51Z</time>
      </trkpt>
      <trkpt lat="46.47679" lon="4.42299">
        <ele>384.57501220703</ele>
        <time>2020-09-30T08:37:58Z</time>
      </trkpt>
      <trkpt lat="46.4768" lon="4.42289">
        <ele>383.57501220703</ele>
        <time>2020-09-30T08:38:03Z</time>
      </trkpt>
      <trkpt lat="46.47678" lon="4.42279">
        <ele>383.57501220703</ele>
        <time>2020-09-30T08:38:08Z</time>
      </trkpt>
      <trkpt lat="46.47677" lon="4.42266">
        <ele>385.57501220703</ele>
        <time>2020-09-30T08:38:13Z</time>
      </trkpt>
      <trkpt lat="46.47677" lon="4.42255">
        <ele>384.57501220703</ele>
        <time>2020-09-30T08:38:18Z</time>
      </trkpt>
      <trkpt lat="46.47679" lon="4.42244">
        <ele>384.57501220703</ele>
        <time>2020-09-30T08:38:23Z</time>
      </trkpt>
      <trkpt lat="46.47681" lon="4.42232">
        <ele>383.57501220703</ele>
        <time>2020-09-30T08:38:28Z</time>
      </trkpt>
      <trkpt lat="46.47685" lon="4.42223">
        <ele>386.57501220703</ele>
        <time>2020-09-30T08:38:33Z</time>
      </trkpt>
      <trkpt lat="46.47684" lon="4.42213">
        <ele>387.57501220703</ele>
        <time>2020-09-30T08:38:39Z</time>
      </trkpt>
      <trkpt lat="46.47688" lon="4.42205">
        <ele>389.57501220703</ele>
        <time>2020-09-30T08:38:44Z</time>
      </trkpt>
      <trkpt lat="46.47691" lon="4.42191">
        <ele>392.57501220703</ele>
        <time>2020-09-30T08:38:49Z</time>
      </trkpt>
      <trkpt lat="46.47691" lon="4.4218">
        <ele>391.57501220703</ele>
        <time>2020-09-30T08:38:54Z</time>
      </trkpt>
      <trkpt lat="46.47696" lon="4.42171">
        <ele>391.57501220703</ele>
        <time>2020-09-30T08:38:59Z</time>
      </trkpt>
      <trkpt lat="46.47699" lon="4.42162">
        <ele>389.57501220703</ele>
        <time>2020-09-30T08:39:04Z</time>
      </trkpt>
      <trkpt lat="46.47704" lon="4.42152">
        <ele>388.57501220703</ele>
        <time>2020-09-30T08:39:11Z</time>
      </trkpt>
      <trkpt lat="46.47711" lon="4.42144">
        <ele>388.57501220703</ele>
        <time>2020-09-30T08:39:17Z</time>
      </trkpt>
      <trkpt lat="46.47718" lon="4.42136">
        <ele>387.57501220703</ele>
        <time>2020-09-30T08:39:22Z</time>
      </trkpt>
      <trkpt lat="46.47723" lon="4.42129">
        <ele>388.57501220703</ele>
        <time>2020-09-30T08:39:28Z</time>
      </trkpt>
      <trkpt lat="46.47729" lon="4.42122">
        <ele>390.57501220703</ele>
        <time>2020-09-30T08:39:33Z</time>
      </trkpt>
      <trkpt lat="46.47734" lon="4.42114">
        <ele>392.57501220703</ele>
        <time>2020-09-30T08:39:38Z</time>
      </trkpt>
      <trkpt lat="46.47738" lon="4.42106">
        <ele>393.57501220703</ele>
        <time>2020-09-30T08:39:43Z</time>
      </trkpt>
      <trkpt lat="46.47742" lon="4.42095">
        <ele>393.57501220703</ele>
        <time>2020-09-30T08:39:48Z</time>
      </trkpt>
      <trkpt lat="46.47735" lon="4.42085">
        <ele>391.57501220703</ele>
        <time>2020-09-30T08:39:53Z</time>
      </trkpt>
      <trkpt lat="46.4773" lon="4.42078">
        <ele>388.57501220703</ele>
        <time>2020-09-30T08:39:58Z</time>
      </trkpt>
      <trkpt lat="46.47725" lon="4.42072">
        <ele>387.57501220703</ele>
        <time>2020-09-30T08:40:03Z</time>
      </trkpt>
      <trkpt lat="46.47719" lon="4.42063">
        <ele>389.57501220703</ele>
        <time>2020-09-30T08:40:09Z</time>
      </trkpt>
      <trkpt lat="46.47713" lon="4.42057">
        <ele>388.57501220703</ele>
        <time>2020-09-30T08:40:15Z</time>
      </trkpt>
      <trkpt lat="46.47707" lon="4.42051">
        <ele>389.57501220703</ele>
        <time>2020-09-30T08:40:20Z</time>
      </trkpt>
      <trkpt lat="46.47702" lon="4.42043">
        <ele>388.57501220703</ele>
        <time>2020-09-30T08:40:25Z</time>
      </trkpt>
      <trkpt lat="46.47698" lon="4.42035">
        <ele>389.57501220703</ele>
        <time>2020-09-30T08:40:30Z</time>
      </trkpt>
      <trkpt lat="46.47698" lon="4.42022">
        <ele>390.57501220703</ele>
        <time>2020-09-30T08:40:35Z</time>
      </trkpt>
      <trkpt lat="46.47696" lon="4.42012">
        <ele>391.57501220703</ele>
        <time>2020-09-30T08:40:40Z</time>
      </trkpt>
      <trkpt lat="46.47692" lon="4.42004">
        <ele>389.57501220703</ele>
        <time>2020-09-30T08:40:47Z</time>
      </trkpt>
      <trkpt lat="46.47687" lon="4.41997">
        <ele>389.57501220703</ele>
        <time>2020-09-30T08:40:52Z</time>
      </trkpt>
      <trkpt lat="46.47681" lon="4.41991">
        <ele>391.57501220703</ele>
        <time>2020-09-30T08:40:57Z</time>
      </trkpt>
      <trkpt lat="46.47676" lon="4.41986">
        <ele>391.57501220703</ele>
        <time>2020-09-30T08:41:03Z</time>
      </trkpt>
      <trkpt lat="46.47671" lon="4.4198">
        <ele>390.57501220703</ele>
        <time>2020-09-30T08:41:08Z</time>
      </trkpt>
      <trkpt lat="46.47664" lon="4.41975">
        <ele>390.57501220703</ele>
        <time>2020-09-30T08:41:13Z</time>
      </trkpt>
      <trkpt lat="46.47658" lon="4.41968">
        <ele>389.57501220703</ele>
        <time>2020-09-30T08:41:19Z</time>
      </trkpt>
      <trkpt lat="46.47651" lon="4.41966">
        <ele>388.57501220703</ele>
        <time>2020-09-30T08:41:24Z</time>
      </trkpt>
      <trkpt lat="46.47644" lon="4.41967">
        <ele>386.57501220703</ele>
        <time>2020-09-30T08:41:29Z</time>
      </trkpt>
      <trkpt lat="46.47637" lon="4.41964">
        <ele>386.57501220703</ele>
        <time>2020-09-30T08:41:34Z</time>
      </trkpt>
      <trkpt lat="46.47631" lon="4.41961">
        <ele>385.57501220703</ele>
        <time>2020-09-30T08:41:39Z</time>
      </trkpt>
      <trkpt lat="46.47622" lon="4.41961">
        <ele>387.57501220703</ele>
        <time>2020-09-30T08:41:45Z</time>
      </trkpt>
      <trkpt lat="46.47616" lon="4.41957">
        <ele>385.57501220703</ele>
        <time>2020-09-30T08:41:50Z</time>
      </trkpt>
      <trkpt lat="46.47609" lon="4.41954">
        <ele>382.57501220703</ele>
        <time>2020-09-30T08:41:55Z</time>
      </trkpt>
      <trkpt lat="46.47601" lon="4.41954">
        <ele>381.57501220703</ele>
        <time>2020-09-30T08:42:00Z</time>
      </trkpt>
      <trkpt lat="46.47592" lon="4.41955">
        <ele>380.57501220703</ele>
        <time>2020-09-30T08:42:07Z</time>
      </trkpt>
      <trkpt lat="46.47585" lon="4.41954">
        <ele>381.57501220703</ele>
        <time>2020-09-30T08:42:12Z</time>
      </trkpt>
      <trkpt lat="46.47578" lon="4.41954">
        <ele>382.57501220703</ele>
        <time>2020-09-30T08:42:17Z</time>
      </trkpt>
      <trkpt lat="46.4757" lon="4.41951">
        <ele>379.57501220703</ele>
        <time>2020-09-30T08:42:24Z</time>
      </trkpt>
      <trkpt lat="46.47563" lon="4.41947">
        <ele>379.57501220703</ele>
        <time>2020-09-30T08:42:29Z</time>
      </trkpt>
      <trkpt lat="46.47556" lon="4.41937">
        <ele>381.57501220703</ele>
        <time>2020-09-30T08:42:34Z</time>
      </trkpt>
      <trkpt lat="46.47549" lon="4.41931">
        <ele>383.57501220703</ele>
        <time>2020-09-30T08:42:39Z</time>
      </trkpt>
      <trkpt lat="46.47543" lon="4.41921">
        <ele>386.57501220703</ele>
        <time>2020-09-30T08:42:44Z</time>
      </trkpt>
      <trkpt lat="46.47542" lon="4.4191">
        <ele>382.57501220703</ele>
        <time>2020-09-30T08:42:52Z</time>
      </trkpt>
      <trkpt lat="46.4754" lon="4.419">
        <ele>379.57501220703</ele>
        <time>2020-09-30T08:42:57Z</time>
      </trkpt>
      <trkpt lat="46.47536" lon="4.4189">
        <ele>376.57501220703</ele>
        <time>2020-09-30T08:43:03Z</time>
      </trkpt>
      <trkpt lat="46.47532" lon="4.41882">
        <ele>378.57501220703</ele>
        <time>2020-09-30T08:43:08Z</time>
      </trkpt>
      <trkpt lat="46.47528" lon="4.41873">
        <ele>378.57501220703</ele>
        <time>2020-09-30T08:43:13Z</time>
      </trkpt>
      <trkpt lat="46.47522" lon="4.41862">
        <ele>378.57400512695</ele>
        <time>2020-09-30T08:43:18Z</time>
      </trkpt>
      <trkpt lat="46.47515" lon="4.41856">
        <ele>379.57400512695</ele>
        <time>2020-09-30T08:43:23Z</time>
      </trkpt>
      <trkpt lat="46.47507" lon="4.41854">
        <ele>379.57400512695</ele>
        <time>2020-09-30T08:43:28Z</time>
      </trkpt>
      <trkpt lat="46.475" lon="4.41849">
        <ele>378.57400512695</ele>
        <time>2020-09-30T08:43:33Z</time>
      </trkpt>
      <trkpt lat="46.47494" lon="4.41844">
        <ele>376.57400512695</ele>
        <time>2020-09-30T08:43:39Z</time>
      </trkpt>
      <trkpt lat="46.47487" lon="4.41839">
        <ele>378.57400512695</ele>
        <time>2020-09-30T08:43:44Z</time>
      </trkpt>
      <trkpt lat="46.47481" lon="4.41834">
        <ele>377.57400512695</ele>
        <time>2020-09-30T08:43:49Z</time>
      </trkpt>
      <trkpt lat="46.47473" lon="4.41828">
        <ele>379.57400512695</ele>
        <time>2020-09-30T08:43:54Z</time>
      </trkpt>
      <trkpt lat="46.47465" lon="4.41824">
        <ele>377.57400512695</ele>
        <time>2020-09-30T08:43:59Z</time>
      </trkpt>
      <trkpt lat="46.47458" lon="4.4182">
        <ele>377.57400512695</ele>
        <time>2020-09-30T08:44:06Z</time>
      </trkpt>
      <trkpt lat="46.4745" lon="4.41818">
        <ele>377.57400512695</ele>
        <time>2020-09-30T08:44:13Z</time>
      </trkpt>
      <trkpt lat="46.47442" lon="4.41815">
        <ele>375.57400512695</ele>
        <time>2020-09-30T08:44:18Z</time>
      </trkpt>
      <trkpt lat="46.47435" lon="4.4181">
        <ele>375.57400512695</ele>
        <time>2020-09-30T08:44:23Z</time>
      </trkpt>
      <trkpt lat="46.47429" lon="4.41802">
        <ele>377.57400512695</ele>
        <time>2020-09-30T08:44:29Z</time>
      </trkpt>
      <trkpt lat="46.47424" lon="4.41795">
        <ele>370.57400512695</ele>
        <time>2020-09-30T08:44:37Z</time>
      </trkpt>
      <trkpt lat="46.4742" lon="4.41787">
        <ele>371.57400512695</ele>
        <time>2020-09-30T08:44:42Z</time>
      </trkpt>
      <trkpt lat="46.47414" lon="4.41781">
        <ele>374.57400512695</ele>
        <time>2020-09-30T08:44:47Z</time>
      </trkpt>
      <trkpt lat="46.47408" lon="4.41774">
        <ele>382.57400512695</ele>
        <time>2020-09-30T08:44:52Z</time>
      </trkpt>
      <trkpt lat="46.47402" lon="4.41763">
        <ele>384.57400512695</ele>
        <time>2020-09-30T08:44:57Z</time>
      </trkpt>
      <trkpt lat="46.47396" lon="4.41752">
        <ele>382.57400512695</ele>
        <time>2020-09-30T08:45:02Z</time>
      </trkpt>
      <trkpt lat="46.47391" lon="4.41742">
        <ele>382.57400512695</ele>
        <time>2020-09-30T08:45:07Z</time>
      </trkpt>
      <trkpt lat="46.47386" lon="4.41732">
        <ele>379.57400512695</ele>
        <time>2020-09-30T08:45:12Z</time>
      </trkpt>
      <trkpt lat="46.47382" lon="4.41724">
        <ele>378.57400512695</ele>
        <time>2020-09-30T08:45:17Z</time>
      </trkpt>
      <trkpt lat="46.47379" lon="4.41715">
        <ele>378.57400512695</ele>
        <time>2020-09-30T08:45:22Z</time>
      </trkpt>
      <trkpt lat="46.47376" lon="4.41706">
        <ele>377.57400512695</ele>
        <time>2020-09-30T08:45:28Z</time>
      </trkpt>
      <trkpt lat="46.47371" lon="4.41696">
        <ele>377.57400512695</ele>
        <time>2020-09-30T08:45:33Z</time>
      </trkpt>
      <trkpt lat="46.47366" lon="4.41689">
        <ele>379.57400512695</ele>
        <time>2020-09-30T08:45:38Z</time>
      </trkpt>
      <trkpt lat="46.47362" lon="4.41682">
        <ele>377.57400512695</ele>
        <time>2020-09-30T08:45:43Z</time>
      </trkpt>
      <trkpt lat="46.47357" lon="4.41673">
        <ele>378.57400512695</ele>
        <time>2020-09-30T08:45:49Z</time>
      </trkpt>
      <trkpt lat="46.47353" lon="4.41663">
        <ele>376.57400512695</ele>
        <time>2020-09-30T08:45:54Z</time>
      </trkpt>
      <trkpt lat="46.47348" lon="4.41656">
        <ele>373.57400512695</ele>
        <time>2020-09-30T08:46:01Z</time>
      </trkpt>
      <trkpt lat="46.47345" lon="4.41646">
        <ele>375.57400512695</ele>
        <time>2020-09-30T08:46:07Z</time>
      </trkpt>
      <trkpt lat="46.4734" lon="4.41636">
        <ele>375.57400512695</ele>
        <time>2020-09-30T08:46:12Z</time>
      </trkpt>
      <trkpt lat="46.47338" lon="4.41627">
        <ele>376.57400512695</ele>
        <time>2020-09-30T08:46:17Z</time>
      </trkpt>
      <trkpt lat="46.47335" lon="4.41616">
        <ele>373.57400512695</ele>
        <time>2020-09-30T08:46:22Z</time>
      </trkpt>
      <trkpt lat="46.4733" lon="4.41604">
        <ele>372.57400512695</ele>
        <time>2020-09-30T08:46:27Z</time>
      </trkpt>
      <trkpt lat="46.47323" lon="4.41594">
        <ele>372.57400512695</ele>
        <time>2020-09-30T08:46:32Z</time>
      </trkpt>
      <trkpt lat="46.4732" lon="4.41584">
        <ele>371.57400512695</ele>
        <time>2020-09-30T08:46:37Z</time>
      </trkpt>
      <trkpt lat="46.47316" lon="4.41576">
        <ele>374.57400512695</ele>
        <time>2020-09-30T08:46:45Z</time>
      </trkpt>
      <trkpt lat="46.47311" lon="4.4157">
        <ele>372.57400512695</ele>
        <time>2020-09-30T08:46:50Z</time>
      </trkpt>
      <trkpt lat="46.47304" lon="4.41563">
        <ele>374.57400512695</ele>
        <time>2020-09-30T08:46:56Z</time>
      </trkpt>
      <trkpt lat="46.47298" lon="4.41554">
        <ele>372.57400512695</ele>
        <time>2020-09-30T08:47:01Z</time>
      </trkpt>
      <trkpt lat="46.47294" lon="4.41545">
        <ele>373.57400512695</ele>
        <time>2020-09-30T08:47:07Z</time>
      </trkpt>
      <trkpt lat="46.4729" lon="4.41531">
        <ele>375.57400512695</ele>
        <time>2020-09-30T08:47:12Z</time>
      </trkpt>
      <trkpt lat="46.47287" lon="4.4152">
        <ele>376.57400512695</ele>
        <time>2020-09-30T08:47:18Z</time>
      </trkpt>
      <trkpt lat="46.47286" lon="4.41509">
        <ele>373.57400512695</ele>
        <time>2020-09-30T08:47:23Z</time>
      </trkpt>
      <trkpt lat="46.47281" lon="4.41501">
        <ele>373.57400512695</ele>
        <time>2020-09-30T08:47:32Z</time>
      </trkpt>
      <trkpt lat="46.47276" lon="4.41497">
        <ele>374.57400512695</ele>
        <time>2020-09-30T08:47:44Z</time>
      </trkpt>
      <trkpt lat="46.47273" lon="4.41488">
        <ele>374.57400512695</ele>
        <time>2020-09-30T08:47:50Z</time>
      </trkpt>
      <trkpt lat="46.47271" lon="4.41479">
        <ele>373.57299804688</ele>
        <time>2020-09-30T08:47:57Z</time>
      </trkpt>
      <trkpt lat="46.47268" lon="4.41469">
        <ele>373.57299804688</ele>
        <time>2020-09-30T08:48:03Z</time>
      </trkpt>
      <trkpt lat="46.47263" lon="4.41461">
        <ele>375.57299804688</ele>
        <time>2020-09-30T08:48:08Z</time>
      </trkpt>
      <trkpt lat="46.47261" lon="4.41451">
        <ele>376.57299804688</ele>
        <time>2020-09-30T08:48:13Z</time>
      </trkpt>
      <trkpt lat="46.47257" lon="4.41443">
        <ele>376.57299804688</ele>
        <time>2020-09-30T08:48:18Z</time>
      </trkpt>
      <trkpt lat="46.47253" lon="4.41434">
        <ele>377.57299804688</ele>
        <time>2020-09-30T08:48:24Z</time>
      </trkpt>
      <trkpt lat="46.47251" lon="4.41424">
        <ele>377.57299804688</ele>
        <time>2020-09-30T08:48:31Z</time>
      </trkpt>
      <trkpt lat="46.47247" lon="4.41414">
        <ele>375.57299804688</ele>
        <time>2020-09-30T08:48:37Z</time>
      </trkpt>
      <trkpt lat="46.47245" lon="4.41402">
        <ele>378.57299804688</ele>
        <time>2020-09-30T08:48:42Z</time>
      </trkpt>
      <trkpt lat="46.47243" lon="4.41392">
        <ele>380.57299804688</ele>
        <time>2020-09-30T08:48:47Z</time>
      </trkpt>
      <trkpt lat="46.4724" lon="4.41381">
        <ele>379.57299804688</ele>
        <time>2020-09-30T08:48:52Z</time>
      </trkpt>
      <trkpt lat="46.47236" lon="4.41372">
        <ele>379.57299804688</ele>
        <time>2020-09-30T08:48:57Z</time>
      </trkpt>
      <trkpt lat="46.47233" lon="4.41363">
        <ele>378.57299804688</ele>
        <time>2020-09-30T08:49:02Z</time>
      </trkpt>
      <trkpt lat="46.47227" lon="4.41354">
        <ele>377.57299804688</ele>
        <time>2020-09-30T08:49:09Z</time>
      </trkpt>
      <trkpt lat="46.47224" lon="4.41346">
        <ele>377.57299804688</ele>
        <time>2020-09-30T08:49:15Z</time>
      </trkpt>
      <trkpt lat="46.47225" lon="4.41334">
        <ele>375.57299804688</ele>
        <time>2020-09-30T08:49:20Z</time>
      </trkpt>
      <trkpt lat="46.47219" lon="4.41327">
        <ele>376.57299804688</ele>
        <time>2020-09-30T08:49:25Z</time>
      </trkpt>
      <trkpt lat="46.47216" lon="4.41318">
        <ele>379.57299804688</ele>
        <time>2020-09-30T08:49:30Z</time>
      </trkpt>
      <trkpt lat="46.4721" lon="4.41309">
        <ele>379.57299804688</ele>
        <time>2020-09-30T08:49:35Z</time>
      </trkpt>
      <trkpt lat="46.47209" lon="4.41298">
        <ele>379.57299804688</ele>
        <time>2020-09-30T08:49:40Z</time>
      </trkpt>
      <trkpt lat="46.47204" lon="4.4129">
        <ele>376.57299804688</ele>
        <time>2020-09-30T08:49:46Z</time>
      </trkpt>
      <trkpt lat="46.472" lon="4.4128">
        <ele>377.57299804688</ele>
        <time>2020-09-30T08:49:52Z</time>
      </trkpt>
      <trkpt lat="46.47196" lon="4.41271">
        <ele>377.57299804688</ele>
        <time>2020-09-30T08:49:58Z</time>
      </trkpt>
      <trkpt lat="46.47192" lon="4.41263">
        <ele>379.57299804688</ele>
        <time>2020-09-30T08:50:03Z</time>
      </trkpt>
      <trkpt lat="46.47197" lon="4.41258">
        <ele>381.57299804688</ele>
        <time>2020-09-30T08:50:09Z</time>
      </trkpt>
      <trkpt lat="46.47193" lon="4.41252">
        <ele>382.57299804688</ele>
        <time>2020-09-30T08:50:12Z</time>
      </trkpt>
      <trkpt lat="46.47186" lon="4.41247">
        <ele>383.57299804688</ele>
        <time>2020-09-30T08:50:27Z</time>
      </trkpt>
      <trkpt lat="46.47186" lon="4.41238">
        <ele>381.57299804688</ele>
        <time>2020-09-30T08:50:48Z</time>
      </trkpt>
      <trkpt lat="46.47189" lon="4.41227">
        <ele>381.57299804688</ele>
        <time>2020-09-30T08:50:56Z</time>
      </trkpt>
      <trkpt lat="46.47185" lon="4.41218">
        <ele>378.57299804688</ele>
        <time>2020-09-30T08:51:01Z</time>
      </trkpt>
      <trkpt lat="46.47185" lon="4.41206">
        <ele>371.57299804688</ele>
        <time>2020-09-30T08:51:08Z</time>
      </trkpt>
      <trkpt lat="46.47185" lon="4.41194">
        <ele>373.57299804688</ele>
        <time>2020-09-30T08:51:13Z</time>
      </trkpt>
      <trkpt lat="46.47185" lon="4.41181">
        <ele>376.57299804688</ele>
        <time>2020-09-30T08:51:19Z</time>
      </trkpt>
      <trkpt lat="46.47179" lon="4.41176">
        <ele>378.57299804688</ele>
        <time>2020-09-30T08:51:24Z</time>
      </trkpt>
      <trkpt lat="46.47177" lon="4.41163">
        <ele>377.57299804688</ele>
        <time>2020-09-30T08:51:39Z</time>
      </trkpt>
      <trkpt lat="46.47172" lon="4.41141">
        <ele>379.57299804688</ele>
        <time>2020-09-30T08:51:44Z</time>
      </trkpt>
      <trkpt lat="46.47165" lon="4.4113">
        <ele>379.57299804688</ele>
        <time>2020-09-30T08:51:49Z</time>
      </trkpt>
      <trkpt lat="46.47159" lon="4.41119">
        <ele>379.57299804688</ele>
        <time>2020-09-30T08:51:54Z</time>
      </trkpt>
      <trkpt lat="46.4716" lon="4.41108">
        <ele>379.57299804688</ele>
        <time>2020-09-30T08:52:00Z</time>
      </trkpt>
      <trkpt lat="46.47155" lon="4.41091">
        <ele>378.57299804688</ele>
        <time>2020-09-30T08:52:05Z</time>
      </trkpt>
      <trkpt lat="46.47152" lon="4.41083">
        <ele>375.57299804688</ele>
        <time>2020-09-30T08:52:13Z</time>
      </trkpt>
      <trkpt lat="46.47147" lon="4.4107">
        <ele>378.57299804688</ele>
        <time>2020-09-30T08:52:18Z</time>
      </trkpt>
      <trkpt lat="46.47143" lon="4.41061">
        <ele>378.57299804688</ele>
        <time>2020-09-30T08:52:24Z</time>
      </trkpt>
      <trkpt lat="46.47143" lon="4.41049">
        <ele>378.57299804688</ele>
        <time>2020-09-30T08:52:30Z</time>
      </trkpt>
      <trkpt lat="46.47142" lon="4.41037">
        <ele>376.57299804688</ele>
        <time>2020-09-30T08:52:38Z</time>
      </trkpt>
      <trkpt lat="46.47141" lon="4.41025">
        <ele>374.57299804688</ele>
        <time>2020-09-30T08:52:44Z</time>
      </trkpt>
      <trkpt lat="46.47135" lon="4.41009">
        <ele>374.57299804688</ele>
        <time>2020-09-30T08:52:49Z</time>
      </trkpt>
      <trkpt lat="46.47133" lon="4.40995">
        <ele>376.57299804688</ele>
        <time>2020-09-30T08:52:56Z</time>
      </trkpt>
      <trkpt lat="46.47132" lon="4.40985">
        <ele>373.57299804688</ele>
        <time>2020-09-30T08:53:02Z</time>
      </trkpt>
      <trkpt lat="46.47126" lon="4.40975">
        <ele>377.57299804688</ele>
        <time>2020-09-30T08:53:07Z</time>
      </trkpt>
      <trkpt lat="46.47121" lon="4.40964">
        <ele>376.57299804688</ele>
        <time>2020-09-30T08:53:12Z</time>
      </trkpt>
      <trkpt lat="46.47116" lon="4.40958">
        <ele>376.57299804688</ele>
        <time>2020-09-30T08:53:17Z</time>
      </trkpt>
      <trkpt lat="46.47115" lon="4.40946">
        <ele>380.57299804688</ele>
        <time>2020-09-30T08:53:22Z</time>
      </trkpt>
      <trkpt lat="46.47114" lon="4.40935">
        <ele>379.57299804688</ele>
        <time>2020-09-30T08:53:27Z</time>
      </trkpt>
      <trkpt lat="46.47112" lon="4.40924">
        <ele>380.57299804688</ele>
        <time>2020-09-30T08:53:34Z</time>
      </trkpt>
      <trkpt lat="46.4711" lon="4.40913">
        <ele>380.57299804688</ele>
        <time>2020-09-30T08:53:42Z</time>
      </trkpt>
      <trkpt lat="46.47107" lon="4.40903">
        <ele>381.57299804688</ele>
        <time>2020-09-30T08:53:47Z</time>
      </trkpt>
      <trkpt lat="46.47105" lon="4.40891">
        <ele>377.57299804688</ele>
        <time>2020-09-30T08:53:52Z</time>
      </trkpt>
      <trkpt lat="46.47106" lon="4.40879">
        <ele>374.57299804688</ele>
        <time>2020-09-30T08:53:58Z</time>
      </trkpt>
      <trkpt lat="46.47104" lon="4.40868">
        <ele>370.57299804688</ele>
        <time>2020-09-30T08:54:06Z</time>
      </trkpt>
      <trkpt lat="46.47105" lon="4.40858">
        <ele>370.57299804688</ele>
        <time>2020-09-30T08:54:11Z</time>
      </trkpt>
      <trkpt lat="46.47103" lon="4.40847">
        <ele>365.57299804688</ele>
        <time>2020-09-30T08:54:17Z</time>
      </trkpt>
      <trkpt lat="46.47099" lon="4.40835">
        <ele>363.57299804688</ele>
        <time>2020-09-30T08:54:25Z</time>
      </trkpt>
      <trkpt lat="46.47096" lon="4.40824">
        <ele>364.57299804688</ele>
        <time>2020-09-30T08:54:30Z</time>
      </trkpt>
      <trkpt lat="46.47095" lon="4.40814">
        <ele>365.5719909668</ele>
        <time>2020-09-30T08:54:37Z</time>
      </trkpt>
      <trkpt lat="46.47093" lon="4.40815">
        <ele>364.5719909668</ele>
        <time>2020-09-30T08:54:49Z</time>
      </trkpt>
      <trkpt lat="46.47093" lon="4.40825">
        <ele>366.5719909668</ele>
        <time>2020-09-30T08:54:59Z</time>
      </trkpt>
      <trkpt lat="46.47096" lon="4.40834">
        <ele>364.57299804688</ele>
        <time>2020-09-30T08:55:04Z</time>
      </trkpt>
      <trkpt lat="46.47097" lon="4.40844">
        <ele>366.57299804688</ele>
        <time>2020-09-30T08:55:10Z</time>
      </trkpt>
      <trkpt lat="46.47098" lon="4.40854">
        <ele>363.57299804688</ele>
        <time>2020-09-30T08:55:18Z</time>
      </trkpt>
      <trkpt lat="46.47104" lon="4.40848">
        <ele>368.57299804688</ele>
        <time>2020-09-30T08:55:35Z</time>
      </trkpt>
      <trkpt lat="46.47112" lon="4.40843">
        <ele>366.57299804688</ele>
        <time>2020-09-30T08:55:41Z</time>
      </trkpt>
      <trkpt lat="46.47119" lon="4.40835">
        <ele>366.57299804688</ele>
        <time>2020-09-30T08:55:46Z</time>
      </trkpt>
      <trkpt lat="46.47122" lon="4.40819">
        <ele>363.57299804688</ele>
        <time>2020-09-30T08:55:51Z</time>
      </trkpt>
      <trkpt lat="46.47126" lon="4.40811">
        <ele>365.57299804688</ele>
        <time>2020-09-30T08:55:56Z</time>
      </trkpt>
      <trkpt lat="46.47126" lon="4.408">
        <ele>364.57299804688</ele>
        <time>2020-09-30T08:56:13Z</time>
      </trkpt>
      <trkpt lat="46.47125" lon="4.40787">
        <ele>362.57299804688</ele>
        <time>2020-09-30T08:56:18Z</time>
      </trkpt>
      <trkpt lat="46.47127" lon="4.40777">
        <ele>363.57299804688</ele>
        <time>2020-09-30T08:56:24Z</time>
      </trkpt>
      <trkpt lat="46.4712" lon="4.40777">
        <ele>365.57299804688</ele>
        <time>2020-09-30T08:56:29Z</time>
      </trkpt>
      <trkpt lat="46.4713" lon="4.40761">
        <ele>365.57299804688</ele>
        <time>2020-09-30T08:56:34Z</time>
      </trkpt>
      <trkpt lat="46.47128" lon="4.40751">
        <ele>368.57299804688</ele>
        <time>2020-09-30T08:56:39Z</time>
      </trkpt>
      <trkpt lat="46.47125" lon="4.40739">
        <ele>368.57299804688</ele>
        <time>2020-09-30T08:56:44Z</time>
      </trkpt>
      <trkpt lat="46.47123" lon="4.4073">
        <ele>372.57299804688</ele>
        <time>2020-09-30T08:56:50Z</time>
      </trkpt>
      <trkpt lat="46.47122" lon="4.4072">
        <ele>372.5719909668</ele>
        <time>2020-09-30T08:57:03Z</time>
      </trkpt>
      <trkpt lat="46.47121" lon="4.4071">
        <ele>371.5719909668</ele>
        <time>2020-09-30T08:57:10Z</time>
      </trkpt>
      <trkpt lat="46.47123" lon="4.40699">
        <ele>369.5719909668</ele>
        <time>2020-09-30T08:57:16Z</time>
      </trkpt>
      <trkpt lat="46.47121" lon="4.40688">
        <ele>363.5719909668</ele>
        <time>2020-09-30T08:57:24Z</time>
      </trkpt>
      <trkpt lat="46.47125" lon="4.4068">
        <ele>365.5719909668</ele>
        <time>2020-09-30T08:57:32Z</time>
      </trkpt>
      <trkpt lat="46.47121" lon="4.40671">
        <ele>369.5719909668</ele>
        <time>2020-09-30T08:57:40Z</time>
      </trkpt>
      <trkpt lat="46.47116" lon="4.40662">
        <ele>369.5719909668</ele>
        <time>2020-09-30T08:57:45Z</time>
      </trkpt>
      <trkpt lat="46.47113" lon="4.40654">
        <ele>367.5719909668</ele>
        <time>2020-09-30T08:57:50Z</time>
      </trkpt>
      <trkpt lat="46.47108" lon="4.40645">
        <ele>367.5719909668</ele>
        <time>2020-09-30T08:57:58Z</time>
      </trkpt>
      <trkpt lat="46.47102" lon="4.4064">
        <ele>368.5719909668</ele>
        <time>2020-09-30T08:58:03Z</time>
      </trkpt>
      <trkpt lat="46.47099" lon="4.40629">
        <ele>369.5719909668</ele>
        <time>2020-09-30T08:58:09Z</time>
      </trkpt>
      <trkpt lat="46.47092" lon="4.40624">
        <ele>371.5719909668</ele>
        <time>2020-09-30T08:58:16Z</time>
      </trkpt>
      <trkpt lat="46.47078" lon="4.40618">
        <ele>373.5719909668</ele>
        <time>2020-09-30T08:58:21Z</time>
      </trkpt>
      <trkpt lat="46.47067" lon="4.40608">
        <ele>376.5719909668</ele>
        <time>2020-09-30T08:58:26Z</time>
      </trkpt>
      <trkpt lat="46.4706" lon="4.40603">
        <ele>381.5719909668</ele>
        <time>2020-09-30T08:58:31Z</time>
      </trkpt>
      <trkpt lat="46.47056" lon="4.40593">
        <ele>372.5719909668</ele>
        <time>2020-09-30T08:58:38Z</time>
      </trkpt>
      <trkpt lat="46.47049" lon="4.4059">
        <ele>373.5719909668</ele>
        <time>2020-09-30T08:58:44Z</time>
      </trkpt>
      <trkpt lat="46.47045" lon="4.40582">
        <ele>369.5719909668</ele>
        <time>2020-09-30T08:58:51Z</time>
      </trkpt>
      <trkpt lat="46.47039" lon="4.40576">
        <ele>370.5719909668</ele>
        <time>2020-09-30T08:58:57Z</time>
      </trkpt>
      <trkpt lat="46.47032" lon="4.40573">
        <ele>366.5719909668</ele>
        <time>2020-09-30T08:59:02Z</time>
      </trkpt>
      <trkpt lat="46.47027" lon="4.40566">
        <ele>366.5719909668</ele>
        <time>2020-09-30T08:59:07Z</time>
      </trkpt>
      <trkpt lat="46.47023" lon="4.40557">
        <ele>366.5719909668</ele>
        <time>2020-09-30T08:59:12Z</time>
      </trkpt>
      <trkpt lat="46.47017" lon="4.40552">
        <ele>365.5719909668</ele>
        <time>2020-09-30T08:59:19Z</time>
      </trkpt>
      <trkpt lat="46.4701" lon="4.40549">
        <ele>365.5719909668</ele>
        <time>2020-09-30T08:59:24Z</time>
      </trkpt>
      <trkpt lat="46.47005" lon="4.40543">
        <ele>362.5719909668</ele>
        <time>2020-09-30T08:59:29Z</time>
      </trkpt>
      <trkpt lat="46.46999" lon="4.40539">
        <ele>365.5719909668</ele>
        <time>2020-09-30T08:59:34Z</time>
      </trkpt>
      <trkpt lat="46.46992" lon="4.40538">
        <ele>364.5719909668</ele>
        <time>2020-09-30T08:59:39Z</time>
      </trkpt>
      <trkpt lat="46.46985" lon="4.40533">
        <ele>366.5719909668</ele>
        <time>2020-09-30T08:59:44Z</time>
      </trkpt>
      <trkpt lat="46.46981" lon="4.40526">
        <ele>365.5719909668</ele>
        <time>2020-09-30T08:59:58Z</time>
      </trkpt>
      <trkpt lat="46.46971" lon="4.40525">
        <ele>363.5719909668</ele>
        <time>2020-09-30T09:00:03Z</time>
      </trkpt>
      <trkpt lat="46.46962" lon="4.40526">
        <ele>362.5719909668</ele>
        <time>2020-09-30T09:00:08Z</time>
      </trkpt>
      <trkpt lat="46.46956" lon="4.40531">
        <ele>357.5719909668</ele>
        <time>2020-09-30T09:00:14Z</time>
      </trkpt>
      <trkpt lat="46.4695" lon="4.40534">
        <ele>358.5719909668</ele>
        <time>2020-09-30T09:00:19Z</time>
      </trkpt>
      <trkpt lat="46.46942" lon="4.4054">
        <ele>357.5719909668</ele>
        <time>2020-09-30T09:00:24Z</time>
      </trkpt>
      <trkpt lat="46.46935" lon="4.40545">
        <ele>357.5719909668</ele>
        <time>2020-09-30T09:00:34Z</time>
      </trkpt>
      <trkpt lat="46.46928" lon="4.40542">
        <ele>354.5719909668</ele>
        <time>2020-09-30T09:00:40Z</time>
      </trkpt>
      <trkpt lat="46.46919" lon="4.40538">
        <ele>355.5719909668</ele>
        <time>2020-09-30T09:00:45Z</time>
      </trkpt>
      <trkpt lat="46.46912" lon="4.40534">
        <ele>356.5719909668</ele>
        <time>2020-09-30T09:00:50Z</time>
      </trkpt>
      <trkpt lat="46.46908" lon="4.40525">
        <ele>356.5719909668</ele>
        <time>2020-09-30T09:00:55Z</time>
      </trkpt>
      <trkpt lat="46.46903" lon="4.40515">
        <ele>356.5719909668</ele>
        <time>2020-09-30T09:01:01Z</time>
      </trkpt>
      <trkpt lat="46.46896" lon="4.40513">
        <ele>353.5719909668</ele>
        <time>2020-09-30T09:01:09Z</time>
      </trkpt>
      <trkpt lat="46.46894" lon="4.40501">
        <ele>354.5719909668</ele>
        <time>2020-09-30T09:01:14Z</time>
      </trkpt>
      <trkpt lat="46.4689" lon="4.40492">
        <ele>355.5719909668</ele>
        <time>2020-09-30T09:01:19Z</time>
      </trkpt>
      <trkpt lat="46.46888" lon="4.40482">
        <ele>360.5719909668</ele>
        <time>2020-09-30T09:01:25Z</time>
      </trkpt>
      <trkpt lat="46.46887" lon="4.40471">
        <ele>361.5719909668</ele>
        <time>2020-09-30T09:01:30Z</time>
      </trkpt>
      <trkpt lat="46.46882" lon="4.40458">
        <ele>360.5719909668</ele>
        <time>2020-09-30T09:01:35Z</time>
      </trkpt>
      <trkpt lat="46.46878" lon="4.40448">
        <ele>359.5719909668</ele>
        <time>2020-09-30T09:01:40Z</time>
      </trkpt>
      <trkpt lat="46.46874" lon="4.40437">
        <ele>361.5719909668</ele>
        <time>2020-09-30T09:01:45Z</time>
      </trkpt>
      <trkpt lat="46.46871" lon="4.40428">
        <ele>361.5719909668</ele>
        <time>2020-09-30T09:01:51Z</time>
      </trkpt>
      <trkpt lat="46.46869" lon="4.40417">
        <ele>363.5719909668</ele>
        <time>2020-09-30T09:01:56Z</time>
      </trkpt>
      <trkpt lat="46.46864" lon="4.40409">
        <ele>364.5719909668</ele>
        <time>2020-09-30T09:02:01Z</time>
      </trkpt>
      <trkpt lat="46.46861" lon="4.40398">
        <ele>364.5719909668</ele>
        <time>2020-09-30T09:02:06Z</time>
      </trkpt>
      <trkpt lat="46.4686" lon="4.40388">
        <ele>358.5719909668</ele>
        <time>2020-09-30T09:02:13Z</time>
      </trkpt>
      <trkpt lat="46.46856" lon="4.40379">
        <ele>360.5710144043</ele>
        <time>2020-09-30T09:02:19Z</time>
      </trkpt>
      <trkpt lat="46.46852" lon="4.40371">
        <ele>361.5710144043</ele>
        <time>2020-09-30T09:02:26Z</time>
      </trkpt>
      <trkpt lat="46.46849" lon="4.40359">
        <ele>358.5710144043</ele>
        <time>2020-09-30T09:02:31Z</time>
      </trkpt>
      <trkpt lat="46.46844" lon="4.40348">
        <ele>356.5710144043</ele>
        <time>2020-09-30T09:02:36Z</time>
      </trkpt>
      <trkpt lat="46.4684" lon="4.40338">
        <ele>353.5710144043</ele>
        <time>2020-09-30T09:02:41Z</time>
      </trkpt>
      <trkpt lat="46.46836" lon="4.40328">
        <ele>353.5710144043</ele>
        <time>2020-09-30T09:02:46Z</time>
      </trkpt>
      <trkpt lat="46.46837" lon="4.40315">
        <ele>354.5710144043</ele>
        <time>2020-09-30T09:02:51Z</time>
      </trkpt>
      <trkpt lat="46.46834" lon="4.40303">
        <ele>353.5710144043</ele>
        <time>2020-09-30T09:02:58Z</time>
      </trkpt>
      <trkpt lat="46.46827" lon="4.40297">
        <ele>355.5710144043</ele>
        <time>2020-09-30T09:03:03Z</time>
      </trkpt>
      <trkpt lat="46.46824" lon="4.40286">
        <ele>357.5710144043</ele>
        <time>2020-09-30T09:03:09Z</time>
      </trkpt>
      <trkpt lat="46.46821" lon="4.40269">
        <ele>359.5710144043</ele>
        <time>2020-09-30T09:03:14Z</time>
      </trkpt>
      <trkpt lat="46.46818" lon="4.40256">
        <ele>359.5710144043</ele>
        <time>2020-09-30T09:03:23Z</time>
      </trkpt>
      <trkpt lat="46.46814" lon="4.40248">
        <ele>357.5710144043</ele>
        <time>2020-09-30T09:03:29Z</time>
      </trkpt>
      <trkpt lat="46.46811" lon="4.40233">
        <ele>357.5710144043</ele>
        <time>2020-09-30T09:03:34Z</time>
      </trkpt>
      <trkpt lat="46.46805" lon="4.40225">
        <ele>351.5710144043</ele>
        <time>2020-09-30T09:03:39Z</time>
      </trkpt>
      <trkpt lat="46.46803" lon="4.40211">
        <ele>351.5710144043</ele>
        <time>2020-09-30T09:03:44Z</time>
      </trkpt>
      <trkpt lat="46.468" lon="4.40201">
        <ele>350.5710144043</ele>
        <time>2020-09-30T09:03:50Z</time>
      </trkpt>
      <trkpt lat="46.46793" lon="4.40201">
        <ele>355.5710144043</ele>
        <time>2020-09-30T09:03:55Z</time>
      </trkpt>
      <trkpt lat="46.46784" lon="4.40198">
        <ele>354.5710144043</ele>
        <time>2020-09-30T09:04:00Z</time>
      </trkpt>
      <trkpt lat="46.46775" lon="4.40194">
        <ele>353.5710144043</ele>
        <time>2020-09-30T09:04:05Z</time>
      </trkpt>
      <trkpt lat="46.46763" lon="4.40187">
        <ele>355.5710144043</ele>
        <time>2020-09-30T09:04:10Z</time>
      </trkpt>
      <trkpt lat="46.46756" lon="4.40182">
        <ele>359.5710144043</ele>
        <time>2020-09-30T09:04:18Z</time>
      </trkpt>
      <trkpt lat="46.46749" lon="4.40177">
        <ele>358.5710144043</ele>
        <time>2020-09-30T09:04:23Z</time>
      </trkpt>
      <trkpt lat="46.46743" lon="4.40173">
        <ele>356.5710144043</ele>
        <time>2020-09-30T09:04:29Z</time>
      </trkpt>
      <trkpt lat="46.46736" lon="4.40168">
        <ele>356.5710144043</ele>
        <time>2020-09-30T09:04:34Z</time>
      </trkpt>
      <trkpt lat="46.46729" lon="4.40161">
        <ele>357.5710144043</ele>
        <time>2020-09-30T09:04:43Z</time>
      </trkpt>
      <trkpt lat="46.46719" lon="4.40156">
        <ele>358.5710144043</ele>
        <time>2020-09-30T09:04:48Z</time>
      </trkpt>
      <trkpt lat="46.46711" lon="4.40152">
        <ele>361.5710144043</ele>
        <time>2020-09-30T09:04:53Z</time>
      </trkpt>
      <trkpt lat="46.46705" lon="4.40145">
        <ele>360.5710144043</ele>
        <time>2020-09-30T09:04:58Z</time>
      </trkpt>
      <trkpt lat="46.46699" lon="4.40136">
        <ele>358.5710144043</ele>
        <time>2020-09-30T09:05:03Z</time>
      </trkpt>
      <trkpt lat="46.46697" lon="4.40127">
        <ele>353.5710144043</ele>
        <time>2020-09-30T09:05:22Z</time>
      </trkpt>
      <trkpt lat="46.46689" lon="4.40127">
        <ele>352.5710144043</ele>
        <time>2020-09-30T09:05:42Z</time>
      </trkpt>
      <trkpt lat="46.46683" lon="4.4012">
        <ele>353.5710144043</ele>
        <time>2020-09-30T09:05:47Z</time>
      </trkpt>
      <trkpt lat="46.46674" lon="4.40113">
        <ele>353.5710144043</ele>
        <time>2020-09-30T09:05:52Z</time>
      </trkpt>
      <trkpt lat="46.46668" lon="4.40108">
        <ele>354.5710144043</ele>
        <time>2020-09-30T09:05:57Z</time>
      </trkpt>
      <trkpt lat="46.46662" lon="4.40102">
        <ele>357.5710144043</ele>
        <time>2020-09-30T09:06:03Z</time>
      </trkpt>
      <trkpt lat="46.46655" lon="4.40098">
        <ele>355.5710144043</ele>
        <time>2020-09-30T09:06:10Z</time>
      </trkpt>
      <trkpt lat="46.46649" lon="4.40095">
        <ele>354.5710144043</ele>
        <time>2020-09-30T09:06:15Z</time>
      </trkpt>
      <trkpt lat="46.46642" lon="4.40087">
        <ele>355.5710144043</ele>
        <time>2020-09-30T09:06:20Z</time>
      </trkpt>
      <trkpt lat="46.46638" lon="4.40079">
        <ele>352.5710144043</ele>
        <time>2020-09-30T09:07:53Z</time>
      </trkpt>
      <trkpt lat="46.46628" lon="4.40069">
        <ele>354.5710144043</ele>
        <time>2020-09-30T09:07:58Z</time>
      </trkpt>
      <trkpt lat="46.46625" lon="4.40059">
        <ele>350.5710144043</ele>
        <time>2020-09-30T09:08:03Z</time>
      </trkpt>
      <trkpt lat="46.46619" lon="4.40053">
        <ele>346.5710144043</ele>
        <time>2020-09-30T09:08:09Z</time>
      </trkpt>
      <trkpt lat="46.46618" lon="4.40043">
        <ele>346.5710144043</ele>
        <time>2020-09-30T09:08:14Z</time>
      </trkpt>
      <trkpt lat="46.46614" lon="4.40035">
        <ele>347.5710144043</ele>
        <time>2020-09-30T09:08:20Z</time>
      </trkpt>
      <trkpt lat="46.4661" lon="4.40026">
        <ele>347.5710144043</ele>
        <time>2020-09-30T09:08:25Z</time>
      </trkpt>
      <trkpt lat="46.46606" lon="4.40017">
        <ele>344.5710144043</ele>
        <time>2020-09-30T09:08:30Z</time>
      </trkpt>
      <trkpt lat="46.46601" lon="4.4001">
        <ele>347.57000732422</ele>
        <time>2020-09-30T09:08:35Z</time>
      </trkpt>
      <trkpt lat="46.46597" lon="4.40002">
        <ele>345.57000732422</ele>
        <time>2020-09-30T09:08:41Z</time>
      </trkpt>
      <trkpt lat="46.4659" lon="4.39993">
        <ele>348.57000732422</ele>
        <time>2020-09-30T09:08:46Z</time>
      </trkpt>
      <trkpt lat="46.46581" lon="4.39986">
        <ele>350.57000732422</ele>
        <time>2020-09-30T09:08:51Z</time>
      </trkpt>
      <trkpt lat="46.46577" lon="4.39977">
        <ele>353.57000732422</ele>
        <time>2020-09-30T09:08:58Z</time>
      </trkpt>
      <trkpt lat="46.46568" lon="4.39973">
        <ele>356.57000732422</ele>
        <time>2020-09-30T09:09:04Z</time>
      </trkpt>
      <trkpt lat="46.46558" lon="4.39968">
        <ele>358.57000732422</ele>
        <time>2020-09-30T09:09:09Z</time>
      </trkpt>
      <trkpt lat="46.46551" lon="4.39962">
        <ele>359.57000732422</ele>
        <time>2020-09-30T09:09:16Z</time>
      </trkpt>
      <trkpt lat="46.46545" lon="4.39955">
        <ele>359.57000732422</ele>
        <time>2020-09-30T09:09:24Z</time>
      </trkpt>
      <trkpt lat="46.4654" lon="4.39949">
        <ele>360.57000732422</ele>
        <time>2020-09-30T09:09:30Z</time>
      </trkpt>
      <trkpt lat="46.46534" lon="4.39942">
        <ele>360.57000732422</ele>
        <time>2020-09-30T09:09:36Z</time>
      </trkpt>
      <trkpt lat="46.46525" lon="4.39936">
        <ele>357.57000732422</ele>
        <time>2020-09-30T09:09:41Z</time>
      </trkpt>
      <trkpt lat="46.46519" lon="4.39932">
        <ele>356.57000732422</ele>
        <time>2020-09-30T09:09:46Z</time>
      </trkpt>
      <trkpt lat="46.46512" lon="4.39927">
        <ele>354.57000732422</ele>
        <time>2020-09-30T09:09:51Z</time>
      </trkpt>
      <trkpt lat="46.46504" lon="4.39923">
        <ele>353.57000732422</ele>
        <time>2020-09-30T09:09:56Z</time>
      </trkpt>
      <trkpt lat="46.46495" lon="4.39916">
        <ele>351.57000732422</ele>
        <time>2020-09-30T09:10:01Z</time>
      </trkpt>
      <trkpt lat="46.46488" lon="4.39912">
        <ele>351.57000732422</ele>
        <time>2020-09-30T09:10:07Z</time>
      </trkpt>
      <trkpt lat="46.46484" lon="4.39904">
        <ele>351.57000732422</ele>
        <time>2020-09-30T09:10:13Z</time>
      </trkpt>
      <trkpt lat="46.46478" lon="4.39895">
        <ele>348.57000732422</ele>
        <time>2020-09-30T09:10:18Z</time>
      </trkpt>
      <trkpt lat="46.46468" lon="4.39894">
        <ele>348.57000732422</ele>
        <time>2020-09-30T09:10:23Z</time>
      </trkpt>
      <trkpt lat="46.46464" lon="4.39884">
        <ele>349.57000732422</ele>
        <time>2020-09-30T09:10:29Z</time>
      </trkpt>
      <trkpt lat="46.46457" lon="4.3988">
        <ele>347.57000732422</ele>
        <time>2020-09-30T09:10:34Z</time>
      </trkpt>
      <trkpt lat="46.46452" lon="4.39873">
        <ele>347.57000732422</ele>
        <time>2020-09-30T09:10:39Z</time>
      </trkpt>
      <trkpt lat="46.46447" lon="4.39867">
        <ele>345.57000732422</ele>
        <time>2020-09-30T09:10:45Z</time>
      </trkpt>
      <trkpt lat="46.46443" lon="4.39859">
        <ele>344.57000732422</ele>
        <time>2020-09-30T09:10:50Z</time>
      </trkpt>
      <trkpt lat="46.46437" lon="4.39855">
        <ele>341.57000732422</ele>
        <time>2020-09-30T09:10:56Z</time>
      </trkpt>
      <trkpt lat="46.46429" lon="4.3985">
        <ele>356.57000732422</ele>
        <time>2020-09-30T09:11:03Z</time>
      </trkpt>
      <trkpt lat="46.46423" lon="4.39842">
        <ele>343.57000732422</ele>
        <time>2020-09-30T09:11:09Z</time>
      </trkpt>
      <trkpt lat="46.46415" lon="4.3984">
        <ele>340.57000732422</ele>
        <time>2020-09-30T09:11:15Z</time>
      </trkpt>
      <trkpt lat="46.46409" lon="4.39832">
        <ele>340.57000732422</ele>
        <time>2020-09-30T09:11:21Z</time>
      </trkpt>
      <trkpt lat="46.46404" lon="4.39826">
        <ele>339.57000732422</ele>
        <time>2020-09-30T09:11:26Z</time>
      </trkpt>
      <trkpt lat="46.464" lon="4.39816">
        <ele>338.57000732422</ele>
        <time>2020-09-30T09:11:33Z</time>
      </trkpt>
      <trkpt lat="46.46393" lon="4.39808">
        <ele>335.57000732422</ele>
        <time>2020-09-30T09:11:39Z</time>
      </trkpt>
      <trkpt lat="46.46393" lon="4.39798">
        <ele>330.57000732422</ele>
        <time>2020-09-30T09:13:05Z</time>
      </trkpt>
      <trkpt lat="46.46387" lon="4.39794">
        <ele>332.57000732422</ele>
        <time>2020-09-30T09:13:10Z</time>
      </trkpt>
      <trkpt lat="46.46382" lon="4.39788">
        <ele>331.57000732422</ele>
        <time>2020-09-30T09:13:15Z</time>
      </trkpt>
      <trkpt lat="46.46376" lon="4.39779">
        <ele>332.57000732422</ele>
        <time>2020-09-30T09:13:22Z</time>
      </trkpt>
      <trkpt lat="46.4637" lon="4.39772">
        <ele>333.57000732422</ele>
        <time>2020-09-30T09:13:27Z</time>
      </trkpt>
      <trkpt lat="46.46365" lon="4.39764">
        <ele>334.57000732422</ele>
        <time>2020-09-30T09:13:32Z</time>
      </trkpt>
      <trkpt lat="46.4636" lon="4.39758">
        <ele>334.57000732422</ele>
        <time>2020-09-30T09:13:37Z</time>
      </trkpt>
      <trkpt lat="46.46356" lon="4.3975">
        <ele>330.57000732422</ele>
        <time>2020-09-30T09:13:44Z</time>
      </trkpt>
      <trkpt lat="46.46352" lon="4.39741">
        <ele>331.57000732422</ele>
        <time>2020-09-30T09:13:52Z</time>
      </trkpt>
      <trkpt lat="46.46344" lon="4.39735">
        <ele>333.57000732422</ele>
        <time>2020-09-30T09:13:57Z</time>
      </trkpt>
      <trkpt lat="46.46338" lon="4.39727">
        <ele>333.57000732422</ele>
        <time>2020-09-30T09:14:03Z</time>
      </trkpt>
      <trkpt lat="46.46333" lon="4.39717">
        <ele>333.57000732422</ele>
        <time>2020-09-30T09:14:08Z</time>
      </trkpt>
      <trkpt lat="46.46327" lon="4.39712">
        <ele>334.56900024414</ele>
        <time>2020-09-30T09:14:13Z</time>
      </trkpt>
      <trkpt lat="46.46323" lon="4.39705">
        <ele>336.56900024414</ele>
        <time>2020-09-30T09:14:18Z</time>
      </trkpt>
      <trkpt lat="46.46317" lon="4.397">
        <ele>338.56900024414</ele>
        <time>2020-09-30T09:14:24Z</time>
      </trkpt>
      <trkpt lat="46.46313" lon="4.39692">
        <ele>338.56900024414</ele>
        <time>2020-09-30T09:14:29Z</time>
      </trkpt>
      <trkpt lat="46.46308" lon="4.39684">
        <ele>340.56900024414</ele>
        <time>2020-09-30T09:14:34Z</time>
      </trkpt>
      <trkpt lat="46.46301" lon="4.39678">
        <ele>337.56900024414</ele>
        <time>2020-09-30T09:14:39Z</time>
      </trkpt>
      <trkpt lat="46.46295" lon="4.39669">
        <ele>339.56900024414</ele>
        <time>2020-09-30T09:14:44Z</time>
      </trkpt>
      <trkpt lat="46.46289" lon="4.39663">
        <ele>339.56900024414</ele>
        <time>2020-09-30T09:14:49Z</time>
      </trkpt>
      <trkpt lat="46.46284" lon="4.39654">
        <ele>341.56900024414</ele>
        <time>2020-09-30T09:14:54Z</time>
      </trkpt>
      <trkpt lat="46.46279" lon="4.39647">
        <ele>340.56900024414</ele>
        <time>2020-09-30T09:15:00Z</time>
      </trkpt>
      <trkpt lat="46.46274" lon="4.3964">
        <ele>339.56900024414</ele>
        <time>2020-09-30T09:15:05Z</time>
      </trkpt>
      <trkpt lat="46.46267" lon="4.39636">
        <ele>342.56900024414</ele>
        <time>2020-09-30T09:15:10Z</time>
      </trkpt>
      <trkpt lat="46.4626" lon="4.39627">
        <ele>345.56900024414</ele>
        <time>2020-09-30T09:15:15Z</time>
      </trkpt>
      <trkpt lat="46.46255" lon="4.39619">
        <ele>345.56900024414</ele>
        <time>2020-09-30T09:15:20Z</time>
      </trkpt>
      <trkpt lat="46.46249" lon="4.39614">
        <ele>343.56900024414</ele>
        <time>2020-09-30T09:15:26Z</time>
      </trkpt>
      <trkpt lat="46.46243" lon="4.39607">
        <ele>342.56900024414</ele>
        <time>2020-09-30T09:15:33Z</time>
      </trkpt>
      <trkpt lat="46.4624" lon="4.39598">
        <ele>344.56900024414</ele>
        <time>2020-09-30T09:15:40Z</time>
      </trkpt>
      <trkpt lat="46.46234" lon="4.39589">
        <ele>343.56900024414</ele>
        <time>2020-09-30T09:15:45Z</time>
      </trkpt>
      <trkpt lat="46.46228" lon="4.39585">
        <ele>346.56900024414</ele>
        <time>2020-09-30T09:15:51Z</time>
      </trkpt>
      <trkpt lat="46.46222" lon="4.39578">
        <ele>341.56900024414</ele>
        <time>2020-09-30T09:15:58Z</time>
      </trkpt>
      <trkpt lat="46.46217" lon="4.39572">
        <ele>342.56900024414</ele>
        <time>2020-09-30T09:16:03Z</time>
      </trkpt>
      <trkpt lat="46.46211" lon="4.39566">
        <ele>341.56900024414</ele>
        <time>2020-09-30T09:16:09Z</time>
      </trkpt>
      <trkpt lat="46.46204" lon="4.39562">
        <ele>345.56900024414</ele>
        <time>2020-09-30T09:16:14Z</time>
      </trkpt>
      <trkpt lat="46.46199" lon="4.39555">
        <ele>343.56900024414</ele>
        <time>2020-09-30T09:16:19Z</time>
      </trkpt>
      <trkpt lat="46.46191" lon="4.39549">
        <ele>343.56900024414</ele>
        <time>2020-09-30T09:16:24Z</time>
      </trkpt>
      <trkpt lat="46.46186" lon="4.39542">
        <ele>345.56900024414</ele>
        <time>2020-09-30T09:16:30Z</time>
      </trkpt>
      <trkpt lat="46.46181" lon="4.39534">
        <ele>344.56900024414</ele>
        <time>2020-09-30T09:16:36Z</time>
      </trkpt>
      <trkpt lat="46.46177" lon="4.39527">
        <ele>347.56900024414</ele>
        <time>2020-09-30T09:16:47Z</time>
      </trkpt>
      <trkpt lat="46.46172" lon="4.39517">
        <ele>347.56900024414</ele>
        <time>2020-09-30T09:16:54Z</time>
      </trkpt>
      <trkpt lat="46.46164" lon="4.39507">
        <ele>348.56900024414</ele>
        <time>2020-09-30T09:16:59Z</time>
      </trkpt>
      <trkpt lat="46.46156" lon="4.39499">
        <ele>351.56900024414</ele>
        <time>2020-09-30T09:17:04Z</time>
      </trkpt>
      <trkpt lat="46.46149" lon="4.39489">
        <ele>352.56900024414</ele>
        <time>2020-09-30T09:17:09Z</time>
      </trkpt>
      <trkpt lat="46.46146" lon="4.39477">
        <ele>350.56900024414</ele>
        <time>2020-09-30T09:17:14Z</time>
      </trkpt>
      <trkpt lat="46.46145" lon="4.39467">
        <ele>349.56900024414</ele>
        <time>2020-09-30T09:17:19Z</time>
      </trkpt>
      <trkpt lat="46.46143" lon="4.39458">
        <ele>349.56900024414</ele>
        <time>2020-09-30T09:17:24Z</time>
      </trkpt>
      <trkpt lat="46.46142" lon="4.39448">
        <ele>351.56900024414</ele>
        <time>2020-09-30T09:17:29Z</time>
      </trkpt>
      <trkpt lat="46.4614" lon="4.39437">
        <ele>352.56900024414</ele>
        <time>2020-09-30T09:17:34Z</time>
      </trkpt>
      <trkpt lat="46.46142" lon="4.39428">
        <ele>352.56900024414</ele>
        <time>2020-09-30T09:17:39Z</time>
      </trkpt>
      <trkpt lat="46.46139" lon="4.39418">
        <ele>354.56900024414</ele>
        <time>2020-09-30T09:17:45Z</time>
      </trkpt>
      <trkpt lat="46.46136" lon="4.3941">
        <ele>358.56900024414</ele>
        <time>2020-09-30T09:17:51Z</time>
      </trkpt>
      <trkpt lat="46.46135" lon="4.394">
        <ele>356.56900024414</ele>
        <time>2020-09-30T09:17:57Z</time>
      </trkpt>
      <trkpt lat="46.46136" lon="4.39389">
        <ele>353.56900024414</ele>
        <time>2020-09-30T09:18:04Z</time>
      </trkpt>
      <trkpt lat="46.46136" lon="4.3938">
        <ele>351.56900024414</ele>
        <time>2020-09-30T09:18:09Z</time>
      </trkpt>
      <trkpt lat="46.46138" lon="4.3937">
        <ele>352.56900024414</ele>
        <time>2020-09-30T09:18:14Z</time>
      </trkpt>
      <trkpt lat="46.46136" lon="4.3936">
        <ele>352.56900024414</ele>
        <time>2020-09-30T09:18:19Z</time>
      </trkpt>
      <trkpt lat="46.46136" lon="4.39345">
        <ele>352.56900024414</ele>
        <time>2020-09-30T09:18:24Z</time>
      </trkpt>
      <trkpt lat="46.46136" lon="4.3933">
        <ele>354.56900024414</ele>
        <time>2020-09-30T09:18:29Z</time>
      </trkpt>
      <trkpt lat="46.46138" lon="4.39319">
        <ele>353.56900024414</ele>
        <time>2020-09-30T09:18:37Z</time>
      </trkpt>
      <trkpt lat="46.46138" lon="4.39307">
        <ele>357.56900024414</ele>
        <time>2020-09-30T09:18:44Z</time>
      </trkpt>
      <trkpt lat="46.46134" lon="4.39297">
        <ele>360.56900024414</ele>
        <time>2020-09-30T09:18:49Z</time>
      </trkpt>
      <trkpt lat="46.46136" lon="4.39285">
        <ele>364.56900024414</ele>
        <time>2020-09-30T09:18:57Z</time>
      </trkpt>
      <trkpt lat="46.4614" lon="4.39273">
        <ele>364.56900024414</ele>
        <time>2020-09-30T09:19:02Z</time>
      </trkpt>
      <trkpt lat="46.46142" lon="4.39262">
        <ele>367.56900024414</ele>
        <time>2020-09-30T09:19:11Z</time>
      </trkpt>
      <trkpt lat="46.46146" lon="4.39251">
        <ele>367.56900024414</ele>
        <time>2020-09-30T09:19:16Z</time>
      </trkpt>
      <trkpt lat="46.46146" lon="4.39241">
        <ele>367.56900024414</ele>
        <time>2020-09-30T09:19:21Z</time>
      </trkpt>
      <trkpt lat="46.46151" lon="4.39233">
        <ele>365.56900024414</ele>
        <time>2020-09-30T09:19:27Z</time>
      </trkpt>
      <trkpt lat="46.46154" lon="4.39223">
        <ele>366.56900024414</ele>
        <time>2020-09-30T09:19:33Z</time>
      </trkpt>
      <trkpt lat="46.46156" lon="4.39214">
        <ele>366.56900024414</ele>
        <time>2020-09-30T09:19:38Z</time>
      </trkpt>
      <trkpt lat="46.46163" lon="4.39207">
        <ele>364.56900024414</ele>
        <time>2020-09-30T09:19:43Z</time>
      </trkpt>
      <trkpt lat="46.4617" lon="4.39202">
        <ele>366.56900024414</ele>
        <time>2020-09-30T09:19:48Z</time>
      </trkpt>
      <trkpt lat="46.46174" lon="4.39193">
        <ele>367.56900024414</ele>
        <time>2020-09-30T09:19:53Z</time>
      </trkpt>
      <trkpt lat="46.46174" lon="4.39183">
        <ele>365.56900024414</ele>
        <time>2020-09-30T09:20:00Z</time>
      </trkpt>
      <trkpt lat="46.46181" lon="4.39174">
        <ele>366.56900024414</ele>
        <time>2020-09-30T09:20:06Z</time>
      </trkpt>
      <trkpt lat="46.46184" lon="4.39164">
        <ele>365.56900024414</ele>
        <time>2020-09-30T09:20:12Z</time>
      </trkpt>
      <trkpt lat="46.46189" lon="4.39156">
        <ele>369.56900024414</ele>
        <time>2020-09-30T09:20:18Z</time>
      </trkpt>
      <trkpt lat="46.46193" lon="4.39149">
        <ele>371.56900024414</ele>
        <time>2020-09-30T09:20:23Z</time>
      </trkpt>
      <trkpt lat="46.46199" lon="4.39144">
        <ele>371.56900024414</ele>
        <time>2020-09-30T09:20:28Z</time>
      </trkpt>
      <trkpt lat="46.46207" lon="4.39136">
        <ele>371.56900024414</ele>
        <time>2020-09-30T09:20:33Z</time>
      </trkpt>
      <trkpt lat="46.46212" lon="4.39129">
        <ele>371.56900024414</ele>
        <time>2020-09-30T09:20:39Z</time>
      </trkpt>
      <trkpt lat="46.46217" lon="4.3912">
        <ele>372.56900024414</ele>
        <time>2020-09-30T09:20:45Z</time>
      </trkpt>
      <trkpt lat="46.46219" lon="4.3911">
        <ele>373.56900024414</ele>
        <time>2020-09-30T09:20:52Z</time>
      </trkpt>
      <trkpt lat="46.46224" lon="4.39103">
        <ele>375.56900024414</ele>
        <time>2020-09-30T09:20:57Z</time>
      </trkpt>
      <trkpt lat="46.4623" lon="4.39098">
        <ele>375.56900024414</ele>
        <time>2020-09-30T09:21:05Z</time>
      </trkpt>
      <trkpt lat="46.46236" lon="4.39091">
        <ele>370.56900024414</ele>
        <time>2020-09-30T09:21:11Z</time>
      </trkpt>
      <trkpt lat="46.46237" lon="4.39078">
        <ele>372.56900024414</ele>
        <time>2020-09-30T09:21:18Z</time>
      </trkpt>
      <trkpt lat="46.46237" lon="4.39067">
        <ele>375.56900024414</ele>
        <time>2020-09-30T09:21:23Z</time>
      </trkpt>
      <trkpt lat="46.46242" lon="4.3906">
        <ele>376.56900024414</ele>
        <time>2020-09-30T09:21:28Z</time>
      </trkpt>
      <trkpt lat="46.46244" lon="4.3905">
        <ele>374.56900024414</ele>
        <time>2020-09-30T09:21:36Z</time>
      </trkpt>
      <trkpt lat="46.46245" lon="4.39038">
        <ele>372.56900024414</ele>
        <time>2020-09-30T09:21:41Z</time>
      </trkpt>
      <trkpt lat="46.46246" lon="4.39029">
        <ele>372.56900024414</ele>
        <time>2020-09-30T09:21:48Z</time>
      </trkpt>
      <trkpt lat="46.46247" lon="4.39017">
        <ele>373.56900024414</ele>
        <time>2020-09-30T09:21:53Z</time>
      </trkpt>
      <trkpt lat="46.46249" lon="4.39007">
        <ele>370.56900024414</ele>
        <time>2020-09-30T09:21:58Z</time>
      </trkpt>
      <trkpt lat="46.46247" lon="4.38997">
        <ele>367.56900024414</ele>
        <time>2020-09-30T09:22:03Z</time>
      </trkpt>
      <trkpt lat="46.46247" lon="4.38987">
        <ele>367.56900024414</ele>
        <time>2020-09-30T09:22:09Z</time>
      </trkpt>
      <trkpt lat="46.46249" lon="4.38976">
        <ele>366.56900024414</ele>
        <time>2020-09-30T09:22:14Z</time>
      </trkpt>
      <trkpt lat="46.4625" lon="4.38963">
        <ele>369.56900024414</ele>
        <time>2020-09-30T09:22:20Z</time>
      </trkpt>
      <trkpt lat="46.46251" lon="4.38952">
        <ele>370.56900024414</ele>
        <time>2020-09-30T09:22:25Z</time>
      </trkpt>
      <trkpt lat="46.46252" lon="4.38941">
        <ele>369.56900024414</ele>
        <time>2020-09-30T09:22:30Z</time>
      </trkpt>
      <trkpt lat="46.46256" lon="4.38932">
        <ele>369.56900024414</ele>
        <time>2020-09-30T09:22:37Z</time>
      </trkpt>
      <trkpt lat="46.46259" lon="4.38922">
        <ele>372.56900024414</ele>
        <time>2020-09-30T09:22:42Z</time>
      </trkpt>
      <trkpt lat="46.46263" lon="4.38914">
        <ele>372.56900024414</ele>
        <time>2020-09-30T09:22:47Z</time>
      </trkpt>
      <trkpt lat="46.46265" lon="4.38898">
        <ele>372.56900024414</ele>
        <time>2020-09-30T09:22:52Z</time>
      </trkpt>
      <trkpt lat="46.46266" lon="4.38888">
        <ele>374.56900024414</ele>
        <time>2020-09-30T09:23:01Z</time>
      </trkpt>
      <trkpt lat="46.4627" lon="4.3888">
        <ele>378.56900024414</ele>
        <time>2020-09-30T09:23:07Z</time>
      </trkpt>
      <trkpt lat="46.4627" lon="4.38866">
        <ele>375.56900024414</ele>
        <time>2020-09-30T09:23:12Z</time>
      </trkpt>
      <trkpt lat="46.4627" lon="4.38856">
        <ele>385.56900024414</ele>
        <time>2020-09-30T09:23:21Z</time>
      </trkpt>
      <trkpt lat="46.46274" lon="4.38842">
        <ele>379.56900024414</ele>
        <time>2020-09-30T09:23:26Z</time>
      </trkpt>
      <trkpt lat="46.46272" lon="4.38833">
        <ele>379.56900024414</ele>
        <time>2020-09-30T09:23:31Z</time>
      </trkpt>
      <trkpt lat="46.46272" lon="4.38819">
        <ele>380.56900024414</ele>
        <time>2020-09-30T09:23:36Z</time>
      </trkpt>
      <trkpt lat="46.46273" lon="4.38807">
        <ele>378.56900024414</ele>
        <time>2020-09-30T09:23:41Z</time>
      </trkpt>
      <trkpt lat="46.46273" lon="4.38795">
        <ele>382.56900024414</ele>
        <time>2020-09-30T09:23:48Z</time>
      </trkpt>
      <trkpt lat="46.46273" lon="4.3878">
        <ele>385.56900024414</ele>
        <time>2020-09-30T09:23:53Z</time>
      </trkpt>
      <trkpt lat="46.46276" lon="4.38769">
        <ele>383.56900024414</ele>
        <time>2020-09-30T09:23:59Z</time>
      </trkpt>
      <trkpt lat="46.46279" lon="4.3876">
        <ele>380.56900024414</ele>
        <time>2020-09-30T09:24:06Z</time>
      </trkpt>
      <trkpt lat="46.46281" lon="4.38748">
        <ele>379.56900024414</ele>
        <time>2020-09-30T09:24:13Z</time>
      </trkpt>
      <trkpt lat="46.46283" lon="4.38737">
        <ele>380.56900024414</ele>
        <time>2020-09-30T09:24:20Z</time>
      </trkpt>
      <trkpt lat="46.46283" lon="4.38726">
        <ele>379.56900024414</ele>
        <time>2020-09-30T09:24:25Z</time>
      </trkpt>
      <trkpt lat="46.4628" lon="4.38715">
        <ele>381.56900024414</ele>
        <time>2020-09-30T09:24:30Z</time>
      </trkpt>
      <trkpt lat="46.4628" lon="4.38706">
        <ele>380.56900024414</ele>
        <time>2020-09-30T09:24:36Z</time>
      </trkpt>
      <trkpt lat="46.46284" lon="4.38697">
        <ele>380.56900024414</ele>
        <time>2020-09-30T09:24:41Z</time>
      </trkpt>
      <trkpt lat="46.46285" lon="4.38683">
        <ele>380.56900024414</ele>
        <time>2020-09-30T09:24:46Z</time>
      </trkpt>
      <trkpt lat="46.46288" lon="4.38673">
        <ele>378.56900024414</ele>
        <time>2020-09-30T09:24:52Z</time>
      </trkpt>
      <trkpt lat="46.46288" lon="4.38663">
        <ele>378.56900024414</ele>
        <time>2020-09-30T09:24:58Z</time>
      </trkpt>
      <trkpt lat="46.46291" lon="4.38649">
        <ele>376.56900024414</ele>
        <time>2020-09-30T09:25:03Z</time>
      </trkpt>
      <trkpt lat="46.46292" lon="4.38639">
        <ele>376.56900024414</ele>
        <time>2020-09-30T09:25:08Z</time>
      </trkpt>
      <trkpt lat="46.46294" lon="4.38629">
        <ele>377.56900024414</ele>
        <time>2020-09-30T09:25:13Z</time>
      </trkpt>
      <trkpt lat="46.46292" lon="4.38617">
        <ele>379.56900024414</ele>
        <time>2020-09-30T09:25:18Z</time>
      </trkpt>
      <trkpt lat="46.46292" lon="4.38605">
        <ele>378.56900024414</ele>
        <time>2020-09-30T09:25:23Z</time>
      </trkpt>
      <trkpt lat="46.46291" lon="4.38595">
        <ele>376.56900024414</ele>
        <time>2020-09-30T09:25:29Z</time>
      </trkpt>
      <trkpt lat="46.4629" lon="4.38585">
        <ele>377.56900024414</ele>
        <time>2020-09-30T09:25:34Z</time>
      </trkpt>
      <trkpt lat="46.46292" lon="4.38573">
        <ele>377.56900024414</ele>
        <time>2020-09-30T09:25:40Z</time>
      </trkpt>
      <trkpt lat="46.46291" lon="4.38562">
        <ele>379.56900024414</ele>
        <time>2020-09-30T09:25:45Z</time>
      </trkpt>
      <trkpt lat="46.46291" lon="4.38552">
        <ele>375.56900024414</ele>
        <time>2020-09-30T09:25:53Z</time>
      </trkpt>
      <trkpt lat="46.46292" lon="4.3854">
        <ele>378.56799316406</ele>
        <time>2020-09-30T09:25:59Z</time>
      </trkpt>
      <trkpt lat="46.4629" lon="4.38528">
        <ele>379.56799316406</ele>
        <time>2020-09-30T09:26:04Z</time>
      </trkpt>
      <trkpt lat="46.4629" lon="4.38516">
        <ele>379.56799316406</ele>
        <time>2020-09-30T09:26:10Z</time>
      </trkpt>
      <trkpt lat="46.46288" lon="4.38506">
        <ele>379.56799316406</ele>
        <time>2020-09-30T09:26:16Z</time>
      </trkpt>
      <trkpt lat="46.46291" lon="4.38497">
        <ele>380.56799316406</ele>
        <time>2020-09-30T09:26:22Z</time>
      </trkpt>
      <trkpt lat="46.46295" lon="4.38488">
        <ele>382.56799316406</ele>
        <time>2020-09-30T09:26:28Z</time>
      </trkpt>
      <trkpt lat="46.46302" lon="4.38484">
        <ele>382.56799316406</ele>
        <time>2020-09-30T09:26:34Z</time>
      </trkpt>
      <trkpt lat="46.46306" lon="4.38473">
        <ele>383.56799316406</ele>
        <time>2020-09-30T09:26:43Z</time>
      </trkpt>
      <trkpt lat="46.46311" lon="4.38468">
        <ele>385.56799316406</ele>
        <time>2020-09-30T09:26:48Z</time>
      </trkpt>
      <trkpt lat="46.46313" lon="4.38459">
        <ele>386.56799316406</ele>
        <time>2020-09-30T09:26:55Z</time>
      </trkpt>
      <trkpt lat="46.46318" lon="4.38452">
        <ele>388.56900024414</ele>
        <time>2020-09-30T09:27:01Z</time>
      </trkpt>
      <trkpt lat="46.46326" lon="4.38446">
        <ele>389.56900024414</ele>
        <time>2020-09-30T09:27:06Z</time>
      </trkpt>
      <trkpt lat="46.46332" lon="4.38438">
        <ele>390.56900024414</ele>
        <time>2020-09-30T09:27:12Z</time>
      </trkpt>
      <trkpt lat="46.46337" lon="4.38432">
        <ele>390.56900024414</ele>
        <time>2020-09-30T09:27:19Z</time>
      </trkpt>
      <trkpt lat="46.46342" lon="4.38425">
        <ele>392.56900024414</ele>
        <time>2020-09-30T09:27:25Z</time>
      </trkpt>
      <trkpt lat="46.46346" lon="4.38416">
        <ele>390.56900024414</ele>
        <time>2020-09-30T09:27:33Z</time>
      </trkpt>
      <trkpt lat="46.46351" lon="4.38408">
        <ele>391.56900024414</ele>
        <time>2020-09-30T09:27:42Z</time>
      </trkpt>
      <trkpt lat="46.46356" lon="4.38401">
        <ele>388.56900024414</ele>
        <time>2020-09-30T09:27:47Z</time>
      </trkpt>
      <trkpt lat="46.46361" lon="4.38394">
        <ele>385.56900024414</ele>
        <time>2020-09-30T09:27:53Z</time>
      </trkpt>
      <trkpt lat="46.46369" lon="4.38385">
        <ele>385.56900024414</ele>
        <time>2020-09-30T09:27:58Z</time>
      </trkpt>
      <trkpt lat="46.4637" lon="4.38375">
        <ele>387.56900024414</ele>
        <time>2020-09-30T09:28:03Z</time>
      </trkpt>
      <trkpt lat="46.46375" lon="4.38368">
        <ele>386.56900024414</ele>
        <time>2020-09-30T09:28:08Z</time>
      </trkpt>
      <trkpt lat="46.46377" lon="4.38355">
        <ele>385.56900024414</ele>
        <time>2020-09-30T09:28:13Z</time>
      </trkpt>
      <trkpt lat="46.46381" lon="4.38346">
        <ele>387.56900024414</ele>
        <time>2020-09-30T09:28:18Z</time>
      </trkpt>
      <trkpt lat="46.46384" lon="4.38336">
        <ele>387.56900024414</ele>
        <time>2020-09-30T09:28:23Z</time>
      </trkpt>
      <trkpt lat="46.46387" lon="4.38327">
        <ele>388.56900024414</ele>
        <time>2020-09-30T09:28:28Z</time>
      </trkpt>
      <trkpt lat="46.46392" lon="4.3832">
        <ele>384.56900024414</ele>
        <time>2020-09-30T09:28:36Z</time>
      </trkpt>
      <trkpt lat="46.46393" lon="4.3831">
        <ele>384.56900024414</ele>
        <time>2020-09-30T09:28:42Z</time>
      </trkpt>
      <trkpt lat="46.46399" lon="4.38297">
        <ele>379.56900024414</ele>
        <time>2020-09-30T09:28:47Z</time>
      </trkpt>
      <trkpt lat="46.464" lon="4.38287">
        <ele>383.56900024414</ele>
        <time>2020-09-30T09:28:52Z</time>
      </trkpt>
      <trkpt lat="46.46405" lon="4.38281">
        <ele>385.56900024414</ele>
        <time>2020-09-30T09:28:57Z</time>
      </trkpt>
      <trkpt lat="46.4641" lon="4.38273">
        <ele>385.56900024414</ele>
        <time>2020-09-30T09:29:03Z</time>
      </trkpt>
      <trkpt lat="46.46415" lon="4.38257">
        <ele>387.56900024414</ele>
        <time>2020-09-30T09:29:08Z</time>
      </trkpt>
      <trkpt lat="46.46415" lon="4.38244">
        <ele>387.56900024414</ele>
        <time>2020-09-30T09:29:16Z</time>
      </trkpt>
      <trkpt lat="46.46414" lon="4.38234">
        <ele>381.56900024414</ele>
        <time>2020-09-30T09:29:22Z</time>
      </trkpt>
      <trkpt lat="46.46416" lon="4.38225">
        <ele>377.56900024414</ele>
        <time>2020-09-30T09:29:28Z</time>
      </trkpt>
      <trkpt lat="46.46418" lon="4.38215">
        <ele>375.56900024414</ele>
        <time>2020-09-30T09:29:33Z</time>
      </trkpt>
      <trkpt lat="46.46424" lon="4.38209">
        <ele>378.56900024414</ele>
        <time>2020-09-30T09:29:38Z</time>
      </trkpt>
      <trkpt lat="46.4643" lon="4.38196">
        <ele>376.56900024414</ele>
        <time>2020-09-30T09:29:43Z</time>
      </trkpt>
      <trkpt lat="46.46431" lon="4.38187">
        <ele>373.56900024414</ele>
        <time>2020-09-30T09:29:51Z</time>
      </trkpt>
      <trkpt lat="46.46434" lon="4.38178">
        <ele>372.56900024414</ele>
        <time>2020-09-30T09:29:59Z</time>
      </trkpt>
      <trkpt lat="46.4644" lon="4.38173">
        <ele>369.56900024414</ele>
        <time>2020-09-30T09:30:04Z</time>
      </trkpt>
      <trkpt lat="46.46445" lon="4.38164">
        <ele>370.56900024414</ele>
        <time>2020-09-30T09:30:10Z</time>
      </trkpt>
      <trkpt lat="46.46452" lon="4.38156">
        <ele>368.56900024414</ele>
        <time>2020-09-30T09:30:15Z</time>
      </trkpt>
      <trkpt lat="46.46459" lon="4.38152">
        <ele>369.56900024414</ele>
        <time>2020-09-30T09:30:20Z</time>
      </trkpt>
      <trkpt lat="46.46467" lon="4.38149">
        <ele>369.56900024414</ele>
        <time>2020-09-30T09:30:25Z</time>
      </trkpt>
      <trkpt lat="46.46476" lon="4.38147">
        <ele>370.56900024414</ele>
        <time>2020-09-30T09:30:30Z</time>
      </trkpt>
      <trkpt lat="46.46484" lon="4.38145">
        <ele>371.56900024414</ele>
        <time>2020-09-30T09:30:38Z</time>
      </trkpt>
      <trkpt lat="46.46491" lon="4.38147">
        <ele>371.56900024414</ele>
        <time>2020-09-30T09:30:45Z</time>
      </trkpt>
      <trkpt lat="46.46499" lon="4.38148">
        <ele>373.56900024414</ele>
        <time>2020-09-30T09:30:50Z</time>
      </trkpt>
      <trkpt lat="46.46506" lon="4.3815">
        <ele>371.56900024414</ele>
        <time>2020-09-30T09:30:55Z</time>
      </trkpt>
      <trkpt lat="46.46513" lon="4.38153">
        <ele>370.56900024414</ele>
        <time>2020-09-30T09:31:01Z</time>
      </trkpt>
      <trkpt lat="46.46521" lon="4.38155">
        <ele>369.56900024414</ele>
        <time>2020-09-30T09:31:07Z</time>
      </trkpt>
      <trkpt lat="46.46527" lon="4.38161">
        <ele>374.56900024414</ele>
        <time>2020-09-30T09:31:13Z</time>
      </trkpt>
      <trkpt lat="46.46535" lon="4.38163">
        <ele>376.56900024414</ele>
        <time>2020-09-30T09:31:22Z</time>
      </trkpt>
      <trkpt lat="46.46543" lon="4.38163">
        <ele>376.56900024414</ele>
        <time>2020-09-30T09:31:27Z</time>
      </trkpt>
      <trkpt lat="46.46551" lon="4.38166">
        <ele>376.56900024414</ele>
        <time>2020-09-30T09:31:36Z</time>
      </trkpt>
      <trkpt lat="46.46558" lon="4.38168">
        <ele>379.56900024414</ele>
        <time>2020-09-30T09:31:41Z</time>
      </trkpt>
      <trkpt lat="46.46567" lon="4.38174">
        <ele>379.56900024414</ele>
        <time>2020-09-30T09:31:46Z</time>
      </trkpt>
      <trkpt lat="46.46575" lon="4.38182">
        <ele>380.56900024414</ele>
        <time>2020-09-30T09:31:51Z</time>
      </trkpt>
      <trkpt lat="46.46582" lon="4.38183">
        <ele>376.56900024414</ele>
        <time>2020-09-30T09:31:59Z</time>
      </trkpt>
      <trkpt lat="46.46589" lon="4.38186">
        <ele>375.56900024414</ele>
        <time>2020-09-30T09:32:04Z</time>
      </trkpt>
      <trkpt lat="46.46596" lon="4.38188">
        <ele>375.56900024414</ele>
        <time>2020-09-30T09:32:11Z</time>
      </trkpt>
      <trkpt lat="46.46603" lon="4.38193">
        <ele>374.56900024414</ele>
        <time>2020-09-30T09:32:16Z</time>
      </trkpt>
      <trkpt lat="46.4661" lon="4.38197">
        <ele>376.56900024414</ele>
        <time>2020-09-30T09:32:22Z</time>
      </trkpt>
      <trkpt lat="46.46616" lon="4.38201">
        <ele>373.56900024414</ele>
        <time>2020-09-30T09:32:28Z</time>
      </trkpt>
      <trkpt lat="46.46622" lon="4.38203">
        <ele>373.56900024414</ele>
        <time>2020-09-30T09:32:33Z</time>
      </trkpt>
      <trkpt lat="46.4663" lon="4.38204">
        <ele>370.56900024414</ele>
        <time>2020-09-30T09:32:38Z</time>
      </trkpt>
      <trkpt lat="46.46636" lon="4.38206">
        <ele>368.56900024414</ele>
        <time>2020-09-30T09:32:44Z</time>
      </trkpt>
      <trkpt lat="46.46645" lon="4.3821">
        <ele>369.56900024414</ele>
        <time>2020-09-30T09:32:49Z</time>
      </trkpt>
      <trkpt lat="46.46651" lon="4.38218">
        <ele>369.56900024414</ele>
        <time>2020-09-30T09:32:56Z</time>
      </trkpt>
      <trkpt lat="46.46661" lon="4.38223">
        <ele>369.56900024414</ele>
        <time>2020-09-30T09:33:01Z</time>
      </trkpt>
      <trkpt lat="46.46669" lon="4.38227">
        <ele>371.56900024414</ele>
        <time>2020-09-30T09:33:06Z</time>
      </trkpt>
      <trkpt lat="46.46675" lon="4.38229">
        <ele>367.56900024414</ele>
        <time>2020-09-30T09:33:12Z</time>
      </trkpt>
      <trkpt lat="46.46682" lon="4.38231">
        <ele>371.56900024414</ele>
        <time>2020-09-30T09:33:17Z</time>
      </trkpt>
      <trkpt lat="46.46689" lon="4.38237">
        <ele>372.56900024414</ele>
        <time>2020-09-30T09:33:22Z</time>
      </trkpt>
      <trkpt lat="46.46699" lon="4.38238">
        <ele>369.56900024414</ele>
        <time>2020-09-30T09:33:27Z</time>
      </trkpt>
      <trkpt lat="46.46705" lon="4.38243">
        <ele>369.56900024414</ele>
        <time>2020-09-30T09:33:33Z</time>
      </trkpt>
      <trkpt lat="46.46712" lon="4.38246">
        <ele>369.56900024414</ele>
        <time>2020-09-30T09:33:38Z</time>
      </trkpt>
      <trkpt lat="46.46719" lon="4.38251">
        <ele>368.56900024414</ele>
        <time>2020-09-30T09:33:47Z</time>
      </trkpt>
      <trkpt lat="46.46731" lon="4.38257">
        <ele>366.57000732422</ele>
        <time>2020-09-30T09:33:52Z</time>
      </trkpt>
      <trkpt lat="46.46738" lon="4.38258">
        <ele>370.57000732422</ele>
        <time>2020-09-30T09:33:59Z</time>
      </trkpt>
      <trkpt lat="46.46747" lon="4.3826">
        <ele>370.57000732422</ele>
        <time>2020-09-30T09:34:04Z</time>
      </trkpt>
      <trkpt lat="46.46754" lon="4.38264">
        <ele>371.57000732422</ele>
        <time>2020-09-30T09:34:09Z</time>
      </trkpt>
      <trkpt lat="46.46761" lon="4.38268">
        <ele>371.57000732422</ele>
        <time>2020-09-30T09:34:22Z</time>
      </trkpt>
      <trkpt lat="46.4677" lon="4.38272">
        <ele>373.57000732422</ele>
        <time>2020-09-30T09:34:27Z</time>
      </trkpt>
      <trkpt lat="46.46782" lon="4.38279">
        <ele>372.57000732422</ele>
        <time>2020-09-30T09:34:32Z</time>
      </trkpt>
      <trkpt lat="46.46788" lon="4.38279">
        <ele>370.57000732422</ele>
        <time>2020-09-30T09:34:37Z</time>
      </trkpt>
      <trkpt lat="46.46795" lon="4.38284">
        <ele>373.57000732422</ele>
        <time>2020-09-30T09:34:43Z</time>
      </trkpt>
      <trkpt lat="46.46802" lon="4.38289">
        <ele>375.57000732422</ele>
        <time>2020-09-30T09:34:49Z</time>
      </trkpt>
      <trkpt lat="46.46808" lon="4.38288">
        <ele>373.57000732422</ele>
        <time>2020-09-30T09:34:54Z</time>
      </trkpt>
      <trkpt lat="46.46816" lon="4.38289">
        <ele>372.57000732422</ele>
        <time>2020-09-30T09:35:00Z</time>
      </trkpt>
      <trkpt lat="46.46822" lon="4.3829">
        <ele>374.57000732422</ele>
        <time>2020-09-30T09:35:05Z</time>
      </trkpt>
      <trkpt lat="46.4683" lon="4.38297">
        <ele>375.57000732422</ele>
        <time>2020-09-30T09:35:10Z</time>
      </trkpt>
      <trkpt lat="46.46839" lon="4.38299">
        <ele>375.57000732422</ele>
        <time>2020-09-30T09:35:20Z</time>
      </trkpt>
      <trkpt lat="46.46846" lon="4.38306">
        <ele>371.57000732422</ele>
        <time>2020-09-30T09:35:25Z</time>
      </trkpt>
      <trkpt lat="46.46853" lon="4.38309">
        <ele>370.57000732422</ele>
        <time>2020-09-30T09:35:30Z</time>
      </trkpt>
      <trkpt lat="46.46867" lon="4.3831">
        <ele>374.57000732422</ele>
        <time>2020-09-30T09:35:35Z</time>
      </trkpt>
      <trkpt lat="46.46875" lon="4.38309">
        <ele>375.57000732422</ele>
        <time>2020-09-30T09:35:40Z</time>
      </trkpt>
      <trkpt lat="46.46883" lon="4.3831">
        <ele>375.57000732422</ele>
        <time>2020-09-30T09:35:47Z</time>
      </trkpt>
      <trkpt lat="46.4689" lon="4.38312">
        <ele>376.57000732422</ele>
        <time>2020-09-30T09:35:53Z</time>
      </trkpt>
      <trkpt lat="46.46898" lon="4.38314">
        <ele>378.57000732422</ele>
        <time>2020-09-30T09:35:58Z</time>
      </trkpt>
      <trkpt lat="46.46907" lon="4.38312">
        <ele>378.57000732422</ele>
        <time>2020-09-30T09:36:03Z</time>
      </trkpt>
      <trkpt lat="46.46913" lon="4.38318">
        <ele>371.57000732422</ele>
        <time>2020-09-30T09:36:13Z</time>
      </trkpt>
      <trkpt lat="46.46924" lon="4.38321">
        <ele>375.57000732422</ele>
        <time>2020-09-30T09:36:18Z</time>
      </trkpt>
      <trkpt lat="46.46931" lon="4.38321">
        <ele>372.57000732422</ele>
        <time>2020-09-30T09:36:25Z</time>
      </trkpt>
      <trkpt lat="46.46939" lon="4.38322">
        <ele>373.57000732422</ele>
        <time>2020-09-30T09:36:30Z</time>
      </trkpt>
      <trkpt lat="46.46947" lon="4.38325">
        <ele>371.57000732422</ele>
        <time>2020-09-30T09:36:35Z</time>
      </trkpt>
      <trkpt lat="46.46954" lon="4.38325">
        <ele>370.57000732422</ele>
        <time>2020-09-30T09:36:43Z</time>
      </trkpt>
      <trkpt lat="46.46966" lon="4.38329">
        <ele>375.57000732422</ele>
        <time>2020-09-30T09:36:48Z</time>
      </trkpt>
      <trkpt lat="46.46975" lon="4.38328">
        <ele>376.57000732422</ele>
        <time>2020-09-30T09:36:53Z</time>
      </trkpt>
      <trkpt lat="46.46983" lon="4.38328">
        <ele>377.57000732422</ele>
        <time>2020-09-30T09:36:58Z</time>
      </trkpt>
      <trkpt lat="46.46991" lon="4.38327">
        <ele>377.57000732422</ele>
        <time>2020-09-30T09:37:05Z</time>
      </trkpt>
      <trkpt lat="46.46998" lon="4.38325">
        <ele>377.57000732422</ele>
        <time>2020-09-30T09:37:11Z</time>
      </trkpt>
      <trkpt lat="46.47005" lon="4.38322">
        <ele>377.57000732422</ele>
        <time>2020-09-30T09:37:16Z</time>
      </trkpt>
      <trkpt lat="46.47012" lon="4.3832">
        <ele>376.57000732422</ele>
        <time>2020-09-30T09:37:25Z</time>
      </trkpt>
      <trkpt lat="46.4702" lon="4.38315">
        <ele>376.57000732422</ele>
        <time>2020-09-30T09:37:30Z</time>
      </trkpt>
      <trkpt lat="46.47028" lon="4.3831">
        <ele>374.57000732422</ele>
        <time>2020-09-30T09:37:36Z</time>
      </trkpt>
      <trkpt lat="46.47033" lon="4.38304">
        <ele>374.57000732422</ele>
        <time>2020-09-30T09:37:41Z</time>
      </trkpt>
      <trkpt lat="46.47039" lon="4.38297">
        <ele>372.57000732422</ele>
        <time>2020-09-30T09:37:47Z</time>
      </trkpt>
      <trkpt lat="46.47045" lon="4.38291">
        <ele>369.57000732422</ele>
        <time>2020-09-30T09:37:52Z</time>
      </trkpt>
      <trkpt lat="46.47054" lon="4.38286">
        <ele>368.57000732422</ele>
        <time>2020-09-30T09:37:57Z</time>
      </trkpt>
      <trkpt lat="46.47061" lon="4.38278">
        <ele>370.57000732422</ele>
        <time>2020-09-30T09:38:02Z</time>
      </trkpt>
      <trkpt lat="46.47067" lon="4.3827">
        <ele>369.57000732422</ele>
        <time>2020-09-30T09:38:07Z</time>
      </trkpt>
      <trkpt lat="46.47073" lon="4.38263">
        <ele>369.57000732422</ele>
        <time>2020-09-30T09:38:12Z</time>
      </trkpt>
      <trkpt lat="46.47077" lon="4.38255">
        <ele>368.57000732422</ele>
        <time>2020-09-30T09:38:17Z</time>
      </trkpt>
      <trkpt lat="46.47082" lon="4.38248">
        <ele>370.57000732422</ele>
        <time>2020-09-30T09:38:23Z</time>
      </trkpt>
      <trkpt lat="46.47087" lon="4.3824">
        <ele>372.57000732422</ele>
        <time>2020-09-30T09:38:28Z</time>
      </trkpt>
      <trkpt lat="46.47094" lon="4.38233">
        <ele>371.5710144043</ele>
        <time>2020-09-30T09:38:33Z</time>
      </trkpt>
      <trkpt lat="46.471" lon="4.38226">
        <ele>371.5710144043</ele>
        <time>2020-09-30T09:38:38Z</time>
      </trkpt>
      <trkpt lat="46.47105" lon="4.38217">
        <ele>368.5710144043</ele>
        <time>2020-09-30T09:38:43Z</time>
      </trkpt>
      <trkpt lat="46.47113" lon="4.38213">
        <ele>366.5710144043</ele>
        <time>2020-09-30T09:38:48Z</time>
      </trkpt>
      <trkpt lat="46.47117" lon="4.38206">
        <ele>368.5710144043</ele>
        <time>2020-09-30T09:38:56Z</time>
      </trkpt>
      <trkpt lat="46.47126" lon="4.38201">
        <ele>367.5710144043</ele>
        <time>2020-09-30T09:39:01Z</time>
      </trkpt>
      <trkpt lat="46.47133" lon="4.38199">
        <ele>367.5710144043</ele>
        <time>2020-09-30T09:39:06Z</time>
      </trkpt>
      <trkpt lat="46.47141" lon="4.38194">
        <ele>368.5710144043</ele>
        <time>2020-09-30T09:39:11Z</time>
      </trkpt>
      <trkpt lat="46.47145" lon="4.38183">
        <ele>369.5710144043</ele>
        <time>2020-09-30T09:39:16Z</time>
      </trkpt>
      <trkpt lat="46.47153" lon="4.3818">
        <ele>366.5710144043</ele>
        <time>2020-09-30T09:39:24Z</time>
      </trkpt>
      <trkpt lat="46.4716" lon="4.38172">
        <ele>366.5710144043</ele>
        <time>2020-09-30T09:39:30Z</time>
      </trkpt>
      <trkpt lat="46.47168" lon="4.38168">
        <ele>366.5710144043</ele>
        <time>2020-09-30T09:39:36Z</time>
      </trkpt>
      <trkpt lat="46.47174" lon="4.38162">
        <ele>365.5710144043</ele>
        <time>2020-09-30T09:39:41Z</time>
      </trkpt>
      <trkpt lat="46.4718" lon="4.38157">
        <ele>365.5710144043</ele>
        <time>2020-09-30T09:39:47Z</time>
      </trkpt>
      <trkpt lat="46.47191" lon="4.38152">
        <ele>370.5710144043</ele>
        <time>2020-09-30T09:39:52Z</time>
      </trkpt>
      <trkpt lat="46.47198" lon="4.38148">
        <ele>372.5710144043</ele>
        <time>2020-09-30T09:39:58Z</time>
      </trkpt>
      <trkpt lat="46.47208" lon="4.3814">
        <ele>370.5710144043</ele>
        <time>2020-09-30T09:40:03Z</time>
      </trkpt>
      <trkpt lat="46.47215" lon="4.38135">
        <ele>371.5710144043</ele>
        <time>2020-09-30T09:40:11Z</time>
      </trkpt>
      <trkpt lat="46.47222" lon="4.3813">
        <ele>369.5710144043</ele>
        <time>2020-09-30T09:40:16Z</time>
      </trkpt>
      <trkpt lat="46.47228" lon="4.38125">
        <ele>373.5710144043</ele>
        <time>2020-09-30T09:40:23Z</time>
      </trkpt>
      <trkpt lat="46.47235" lon="4.38121">
        <ele>374.5710144043</ele>
        <time>2020-09-30T09:40:28Z</time>
      </trkpt>
      <trkpt lat="46.47241" lon="4.38117">
        <ele>374.5710144043</ele>
        <time>2020-09-30T09:40:35Z</time>
      </trkpt>
      <trkpt lat="46.47253" lon="4.38113">
        <ele>377.5710144043</ele>
        <time>2020-09-30T09:40:40Z</time>
      </trkpt>
      <trkpt lat="46.47259" lon="4.38106">
        <ele>374.5710144043</ele>
        <time>2020-09-30T09:40:46Z</time>
      </trkpt>
      <trkpt lat="46.47267" lon="4.38098">
        <ele>373.5710144043</ele>
        <time>2020-09-30T09:40:51Z</time>
      </trkpt>
      <trkpt lat="46.47274" lon="4.38093">
        <ele>373.5710144043</ele>
        <time>2020-09-30T09:40:56Z</time>
      </trkpt>
      <trkpt lat="46.47282" lon="4.38091">
        <ele>372.5710144043</ele>
        <time>2020-09-30T09:41:01Z</time>
      </trkpt>
      <trkpt lat="46.47289" lon="4.38084">
        <ele>370.5710144043</ele>
        <time>2020-09-30T09:41:07Z</time>
      </trkpt>
      <trkpt lat="46.47295" lon="4.38074">
        <ele>366.5710144043</ele>
        <time>2020-09-30T09:41:17Z</time>
      </trkpt>
      <trkpt lat="46.473" lon="4.38066">
        <ele>364.5710144043</ele>
        <time>2020-09-30T09:41:23Z</time>
      </trkpt>
      <trkpt lat="46.47308" lon="4.38062">
        <ele>362.5710144043</ele>
        <time>2020-09-30T09:41:28Z</time>
      </trkpt>
      <trkpt lat="46.47316" lon="4.38059">
        <ele>361.5710144043</ele>
        <time>2020-09-30T09:41:33Z</time>
      </trkpt>
      <trkpt lat="46.4732" lon="4.38051">
        <ele>358.5710144043</ele>
        <time>2020-09-30T09:41:41Z</time>
      </trkpt>
      <trkpt lat="46.47327" lon="4.38046">
        <ele>361.5710144043</ele>
        <time>2020-09-30T09:41:47Z</time>
      </trkpt>
      <trkpt lat="46.47334" lon="4.38039">
        <ele>361.5710144043</ele>
        <time>2020-09-30T09:41:52Z</time>
      </trkpt>
      <trkpt lat="46.4734" lon="4.38034">
        <ele>362.5710144043</ele>
        <time>2020-09-30T09:41:57Z</time>
      </trkpt>
      <trkpt lat="46.47345" lon="4.38024">
        <ele>362.5710144043</ele>
        <time>2020-09-30T09:42:02Z</time>
      </trkpt>
      <trkpt lat="46.47352" lon="4.38026">
        <ele>362.5710144043</ele>
        <time>2020-09-30T09:42:09Z</time>
      </trkpt>
      <trkpt lat="46.47358" lon="4.3802">
        <ele>363.5710144043</ele>
        <time>2020-09-30T09:42:14Z</time>
      </trkpt>
      <trkpt lat="46.47366" lon="4.38013">
        <ele>360.5710144043</ele>
        <time>2020-09-30T09:42:19Z</time>
      </trkpt>
      <trkpt lat="46.47376" lon="4.3801">
        <ele>360.5710144043</ele>
        <time>2020-09-30T09:42:24Z</time>
      </trkpt>
      <trkpt lat="46.47385" lon="4.38009">
        <ele>362.5710144043</ele>
        <time>2020-09-30T09:42:30Z</time>
      </trkpt>
      <trkpt lat="46.47393" lon="4.38005">
        <ele>364.5710144043</ele>
        <time>2020-09-30T09:42:35Z</time>
      </trkpt>
      <trkpt lat="46.47402" lon="4.37999">
        <ele>365.5710144043</ele>
        <time>2020-09-30T09:42:40Z</time>
      </trkpt>
      <trkpt lat="46.47409" lon="4.38">
        <ele>360.5710144043</ele>
        <time>2020-09-30T09:42:46Z</time>
      </trkpt>
      <trkpt lat="46.47418" lon="4.38001">
        <ele>362.5710144043</ele>
        <time>2020-09-30T09:42:51Z</time>
      </trkpt>
      <trkpt lat="46.47424" lon="4.38009">
        <ele>363.5710144043</ele>
        <time>2020-09-30T09:43:00Z</time>
      </trkpt>
      <trkpt lat="46.47431" lon="4.38012">
        <ele>361.5710144043</ele>
        <time>2020-09-30T09:43:05Z</time>
      </trkpt>
      <trkpt lat="46.4744" lon="4.38015">
        <ele>360.5710144043</ele>
        <time>2020-09-30T09:43:10Z</time>
      </trkpt>
      <trkpt lat="46.47446" lon="4.38024">
        <ele>359.5710144043</ele>
        <time>2020-09-30T09:43:15Z</time>
      </trkpt>
      <trkpt lat="46.47452" lon="4.38032">
        <ele>361.5710144043</ele>
        <time>2020-09-30T09:43:20Z</time>
      </trkpt>
      <trkpt lat="46.47458" lon="4.38037">
        <ele>359.5710144043</ele>
        <time>2020-09-30T09:43:26Z</time>
      </trkpt>
      <trkpt lat="46.47464" lon="4.38043">
        <ele>359.5710144043</ele>
        <time>2020-09-30T09:43:32Z</time>
      </trkpt>
      <trkpt lat="46.4747" lon="4.38049">
        <ele>361.5710144043</ele>
        <time>2020-09-30T09:43:37Z</time>
      </trkpt>
      <trkpt lat="46.47476" lon="4.38056">
        <ele>359.5710144043</ele>
        <time>2020-09-30T09:43:43Z</time>
      </trkpt>
      <trkpt lat="46.4748" lon="4.38064">
        <ele>357.5710144043</ele>
        <time>2020-09-30T09:43:49Z</time>
      </trkpt>
      <trkpt lat="46.47487" lon="4.38068">
        <ele>358.5710144043</ele>
        <time>2020-09-30T09:43:54Z</time>
      </trkpt>
      <trkpt lat="46.47494" lon="4.38075">
        <ele>356.5719909668</ele>
        <time>2020-09-30T09:44:00Z</time>
      </trkpt>
      <trkpt lat="46.47498" lon="4.38083">
        <ele>355.5719909668</ele>
        <time>2020-09-30T09:44:05Z</time>
      </trkpt>
      <trkpt lat="46.47505" lon="4.38089">
        <ele>355.5719909668</ele>
        <time>2020-09-30T09:44:10Z</time>
      </trkpt>
      <trkpt lat="46.47512" lon="4.38094">
        <ele>357.5719909668</ele>
        <time>2020-09-30T09:44:15Z</time>
      </trkpt>
      <trkpt lat="46.47518" lon="4.38101">
        <ele>355.5719909668</ele>
        <time>2020-09-30T09:44:22Z</time>
      </trkpt>
      <trkpt lat="46.47526" lon="4.3811">
        <ele>357.5719909668</ele>
        <time>2020-09-30T09:44:27Z</time>
      </trkpt>
      <trkpt lat="46.47531" lon="4.38117">
        <ele>357.5719909668</ele>
        <time>2020-09-30T09:44:33Z</time>
      </trkpt>
      <trkpt lat="46.47537" lon="4.38121">
        <ele>357.5719909668</ele>
        <time>2020-09-30T09:44:38Z</time>
      </trkpt>
      <trkpt lat="46.47543" lon="4.38125">
        <ele>358.5719909668</ele>
        <time>2020-09-30T09:44:43Z</time>
      </trkpt>
      <trkpt lat="46.4755" lon="4.38131">
        <ele>360.5719909668</ele>
        <time>2020-09-30T09:44:48Z</time>
      </trkpt>
      <trkpt lat="46.47555" lon="4.38138">
        <ele>359.5719909668</ele>
        <time>2020-09-30T09:44:53Z</time>
      </trkpt>
      <trkpt lat="46.4756" lon="4.38144">
        <ele>357.5719909668</ele>
        <time>2020-09-30T09:44:59Z</time>
      </trkpt>
      <trkpt lat="46.47565" lon="4.38151">
        <ele>357.5719909668</ele>
        <time>2020-09-30T09:45:05Z</time>
      </trkpt>
      <trkpt lat="46.47571" lon="4.38157">
        <ele>358.5719909668</ele>
        <time>2020-09-30T09:45:10Z</time>
      </trkpt>
      <trkpt lat="46.47576" lon="4.38164">
        <ele>359.5719909668</ele>
        <time>2020-09-30T09:45:15Z</time>
      </trkpt>
      <trkpt lat="46.47582" lon="4.38169">
        <ele>357.5719909668</ele>
        <time>2020-09-30T09:45:21Z</time>
      </trkpt>
      <trkpt lat="46.47588" lon="4.38174">
        <ele>357.5719909668</ele>
        <time>2020-09-30T09:45:26Z</time>
      </trkpt>
      <trkpt lat="46.47595" lon="4.38178">
        <ele>360.5719909668</ele>
        <time>2020-09-30T09:45:31Z</time>
      </trkpt>
      <trkpt lat="46.47602" lon="4.38184">
        <ele>362.5719909668</ele>
        <time>2020-09-30T09:45:36Z</time>
      </trkpt>
      <trkpt lat="46.47607" lon="4.38191">
        <ele>362.5719909668</ele>
        <time>2020-09-30T09:45:41Z</time>
      </trkpt>
      <trkpt lat="46.47613" lon="4.38198">
        <ele>364.5719909668</ele>
        <time>2020-09-30T09:45:46Z</time>
      </trkpt>
      <trkpt lat="46.4762" lon="4.38202">
        <ele>366.5719909668</ele>
        <time>2020-09-30T09:45:51Z</time>
      </trkpt>
      <trkpt lat="46.47626" lon="4.38207">
        <ele>365.5719909668</ele>
        <time>2020-09-30T09:45:56Z</time>
      </trkpt>
      <trkpt lat="46.4763" lon="4.38215">
        <ele>364.5719909668</ele>
        <time>2020-09-30T09:46:01Z</time>
      </trkpt>
      <trkpt lat="46.47636" lon="4.38219">
        <ele>363.5719909668</ele>
        <time>2020-09-30T09:46:06Z</time>
      </trkpt>
      <trkpt lat="46.47642" lon="4.38224">
        <ele>361.5719909668</ele>
        <time>2020-09-30T09:46:12Z</time>
      </trkpt>
      <trkpt lat="46.47648" lon="4.38228">
        <ele>361.5719909668</ele>
        <time>2020-09-30T09:46:18Z</time>
      </trkpt>
      <trkpt lat="46.47655" lon="4.3823">
        <ele>363.5719909668</ele>
        <time>2020-09-30T09:46:23Z</time>
      </trkpt>
      <trkpt lat="46.47663" lon="4.38236">
        <ele>364.5719909668</ele>
        <time>2020-09-30T09:46:29Z</time>
      </trkpt>
      <trkpt lat="46.47667" lon="4.38244">
        <ele>365.5719909668</ele>
        <time>2020-09-30T09:46:34Z</time>
      </trkpt>
      <trkpt lat="46.47673" lon="4.38251">
        <ele>364.5719909668</ele>
        <time>2020-09-30T09:46:39Z</time>
      </trkpt>
      <trkpt lat="46.47679" lon="4.38258">
        <ele>368.5719909668</ele>
        <time>2020-09-30T09:46:48Z</time>
      </trkpt>
      <trkpt lat="46.47686" lon="4.38264">
        <ele>368.5719909668</ele>
        <time>2020-09-30T09:46:53Z</time>
      </trkpt>
      <trkpt lat="46.47692" lon="4.38271">
        <ele>367.5719909668</ele>
        <time>2020-09-30T09:46:58Z</time>
      </trkpt>
      <trkpt lat="46.477" lon="4.38279">
        <ele>369.5719909668</ele>
        <time>2020-09-30T09:47:03Z</time>
      </trkpt>
      <trkpt lat="46.47705" lon="4.38286">
        <ele>369.5719909668</ele>
        <time>2020-09-30T09:47:08Z</time>
      </trkpt>
      <trkpt lat="46.4771" lon="4.38293">
        <ele>367.5719909668</ele>
        <time>2020-09-30T09:47:14Z</time>
      </trkpt>
      <trkpt lat="46.47716" lon="4.38299">
        <ele>368.5719909668</ele>
        <time>2020-09-30T09:47:19Z</time>
      </trkpt>
      <trkpt lat="46.47723" lon="4.38304">
        <ele>368.5719909668</ele>
        <time>2020-09-30T09:47:25Z</time>
      </trkpt>
      <trkpt lat="46.47729" lon="4.3831">
        <ele>368.5719909668</ele>
        <time>2020-09-30T09:47:30Z</time>
      </trkpt>
      <trkpt lat="46.47736" lon="4.38315">
        <ele>368.5719909668</ele>
        <time>2020-09-30T09:47:36Z</time>
      </trkpt>
      <trkpt lat="46.47742" lon="4.38322">
        <ele>369.5719909668</ele>
        <time>2020-09-30T09:47:41Z</time>
      </trkpt>
      <trkpt lat="46.47749" lon="4.38328">
        <ele>372.5719909668</ele>
        <time>2020-09-30T09:47:46Z</time>
      </trkpt>
      <trkpt lat="46.47754" lon="4.38334">
        <ele>373.5719909668</ele>
        <time>2020-09-30T09:47:51Z</time>
      </trkpt>
      <trkpt lat="46.47759" lon="4.3834">
        <ele>373.5719909668</ele>
        <time>2020-09-30T09:47:57Z</time>
      </trkpt>
      <trkpt lat="46.47765" lon="4.38347">
        <ele>374.5719909668</ele>
        <time>2020-09-30T09:48:02Z</time>
      </trkpt>
      <trkpt lat="46.4777" lon="4.38354">
        <ele>374.57299804688</ele>
        <time>2020-09-30T09:48:09Z</time>
      </trkpt>
      <trkpt lat="46.47776" lon="4.3836">
        <ele>373.57299804688</ele>
        <time>2020-09-30T09:48:14Z</time>
      </trkpt>
      <trkpt lat="46.47783" lon="4.38362">
        <ele>371.57299804688</ele>
        <time>2020-09-30T09:48:20Z</time>
      </trkpt>
      <trkpt lat="46.4779" lon="4.38367">
        <ele>369.57299804688</ele>
        <time>2020-09-30T09:48:26Z</time>
      </trkpt>
      <trkpt lat="46.47797" lon="4.38371">
        <ele>371.57299804688</ele>
        <time>2020-09-30T09:48:31Z</time>
      </trkpt>
      <trkpt lat="46.47805" lon="4.38376">
        <ele>372.57299804688</ele>
        <time>2020-09-30T09:48:37Z</time>
      </trkpt>
      <trkpt lat="46.47812" lon="4.38378">
        <ele>369.57299804688</ele>
        <time>2020-09-30T09:48:44Z</time>
      </trkpt>
      <trkpt lat="46.47815" lon="4.38387">
        <ele>369.57299804688</ele>
        <time>2020-09-30T09:48:50Z</time>
      </trkpt>
      <trkpt lat="46.47822" lon="4.38392">
        <ele>369.57299804688</ele>
        <time>2020-09-30T09:48:55Z</time>
      </trkpt>
      <trkpt lat="46.47829" lon="4.38397">
        <ele>369.57299804688</ele>
        <time>2020-09-30T09:49:01Z</time>
      </trkpt>
      <trkpt lat="46.47835" lon="4.38402">
        <ele>370.57299804688</ele>
        <time>2020-09-30T09:49:08Z</time>
      </trkpt>
      <trkpt lat="46.4784" lon="4.38409">
        <ele>371.57299804688</ele>
        <time>2020-09-30T09:49:15Z</time>
      </trkpt>
      <trkpt lat="46.47847" lon="4.38412">
        <ele>376.57299804688</ele>
        <time>2020-09-30T09:49:25Z</time>
      </trkpt>
      <trkpt lat="46.47851" lon="4.38404">
        <ele>376.57299804688</ele>
        <time>2020-09-30T09:49:32Z</time>
      </trkpt>
      <trkpt lat="46.47853" lon="4.38395">
        <ele>381.57299804688</ele>
        <time>2020-09-30T09:49:39Z</time>
      </trkpt>
      <trkpt lat="46.47859" lon="4.38385">
        <ele>374.57299804688</ele>
        <time>2020-09-30T09:49:44Z</time>
      </trkpt>
      <trkpt lat="46.47862" lon="4.38376">
        <ele>371.57299804688</ele>
        <time>2020-09-30T09:50:03Z</time>
      </trkpt>
      <trkpt lat="46.47867" lon="4.38359">
        <ele>368.57299804688</ele>
        <time>2020-09-30T09:50:08Z</time>
      </trkpt>
      <trkpt lat="46.4787" lon="4.38348">
        <ele>366.57299804688</ele>
        <time>2020-09-30T09:50:13Z</time>
      </trkpt>
      <trkpt lat="46.47871" lon="4.38332">
        <ele>365.57299804688</ele>
        <time>2020-09-30T09:50:18Z</time>
      </trkpt>
      <trkpt lat="46.47876" lon="4.38315">
        <ele>367.57299804688</ele>
        <time>2020-09-30T09:50:23Z</time>
      </trkpt>
      <trkpt lat="46.47879" lon="4.38301">
        <ele>367.57299804688</ele>
        <time>2020-09-30T09:50:28Z</time>
      </trkpt>
      <trkpt lat="46.47883" lon="4.38292">
        <ele>367.57299804688</ele>
        <time>2020-09-30T09:50:34Z</time>
      </trkpt>
      <trkpt lat="46.47885" lon="4.38283">
        <ele>368.57299804688</ele>
        <time>2020-09-30T09:50:39Z</time>
      </trkpt>
      <trkpt lat="46.47889" lon="4.38274">
        <ele>368.57299804688</ele>
        <time>2020-09-30T09:50:44Z</time>
      </trkpt>
      <trkpt lat="46.47892" lon="4.38264">
        <ele>369.57299804688</ele>
        <time>2020-09-30T09:50:49Z</time>
      </trkpt>
      <trkpt lat="46.47894" lon="4.38255">
        <ele>368.57299804688</ele>
        <time>2020-09-30T09:50:54Z</time>
      </trkpt>
      <trkpt lat="46.47898" lon="4.38245">
        <ele>367.57299804688</ele>
        <time>2020-09-30T09:50:59Z</time>
      </trkpt>
      <trkpt lat="46.47898" lon="4.38234">
        <ele>369.57299804688</ele>
        <time>2020-09-30T09:51:04Z</time>
      </trkpt>
      <trkpt lat="46.479" lon="4.38223">
        <ele>365.57299804688</ele>
        <time>2020-09-30T09:51:12Z</time>
      </trkpt>
      <trkpt lat="46.47904" lon="4.38214">
        <ele>364.57299804688</ele>
        <time>2020-09-30T09:51:17Z</time>
      </trkpt>
      <trkpt lat="46.47905" lon="4.38204">
        <ele>366.57299804688</ele>
        <time>2020-09-30T09:51:22Z</time>
      </trkpt>
      <trkpt lat="46.4791" lon="4.38192">
        <ele>366.57299804688</ele>
        <time>2020-09-30T09:51:27Z</time>
      </trkpt>
      <trkpt lat="46.47914" lon="4.38182">
        <ele>366.57299804688</ele>
        <time>2020-09-30T09:51:32Z</time>
      </trkpt>
      <trkpt lat="46.47917" lon="4.38174">
        <ele>365.57299804688</ele>
        <time>2020-09-30T09:51:39Z</time>
      </trkpt>
      <trkpt lat="46.4792" lon="4.38162">
        <ele>364.57299804688</ele>
        <time>2020-09-30T09:51:44Z</time>
      </trkpt>
      <trkpt lat="46.47925" lon="4.38153">
        <ele>362.57299804688</ele>
        <time>2020-09-30T09:51:49Z</time>
      </trkpt>
      <trkpt lat="46.47928" lon="4.38144">
        <ele>365.57299804688</ele>
        <time>2020-09-30T09:51:54Z</time>
      </trkpt>
      <trkpt lat="46.4793" lon="4.38129">
        <ele>365.57299804688</ele>
        <time>2020-09-30T09:51:59Z</time>
      </trkpt>
      <trkpt lat="46.47933" lon="4.38119">
        <ele>361.57299804688</ele>
        <time>2020-09-30T09:52:05Z</time>
      </trkpt>
      <trkpt lat="46.47936" lon="4.38108">
        <ele>361.57299804688</ele>
        <time>2020-09-30T09:52:11Z</time>
      </trkpt>
      <trkpt lat="46.47935" lon="4.38097">
        <ele>358.57299804688</ele>
        <time>2020-09-30T09:52:18Z</time>
      </trkpt>
      <trkpt lat="46.47938" lon="4.38086">
        <ele>357.57299804688</ele>
        <time>2020-09-30T09:52:23Z</time>
      </trkpt>
      <trkpt lat="46.4794" lon="4.38075">
        <ele>357.57299804688</ele>
        <time>2020-09-30T09:52:28Z</time>
      </trkpt>
      <trkpt lat="46.47945" lon="4.38066">
        <ele>356.57299804688</ele>
        <time>2020-09-30T09:52:34Z</time>
      </trkpt>
      <trkpt lat="46.47949" lon="4.38057">
        <ele>355.57299804688</ele>
        <time>2020-09-30T09:52:40Z</time>
      </trkpt>
      <trkpt lat="46.47952" lon="4.38048">
        <ele>356.57299804688</ele>
        <time>2020-09-30T09:52:45Z</time>
      </trkpt>
      <trkpt lat="46.47954" lon="4.38037">
        <ele>356.57299804688</ele>
        <time>2020-09-30T09:52:51Z</time>
      </trkpt>
      <trkpt lat="46.47954" lon="4.38026">
        <ele>355.57299804688</ele>
        <time>2020-09-30T09:52:56Z</time>
      </trkpt>
      <trkpt lat="46.47957" lon="4.38015">
        <ele>356.57299804688</ele>
        <time>2020-09-30T09:53:01Z</time>
      </trkpt>
      <trkpt lat="46.4796" lon="4.38006">
        <ele>355.57299804688</ele>
        <time>2020-09-30T09:53:07Z</time>
      </trkpt>
      <trkpt lat="46.47963" lon="4.37996">
        <ele>353.57299804688</ele>
        <time>2020-09-30T09:53:14Z</time>
      </trkpt>
      <trkpt lat="46.47966" lon="4.37984">
        <ele>353.57299804688</ele>
        <time>2020-09-30T09:53:19Z</time>
      </trkpt>
      <trkpt lat="46.47969" lon="4.37973">
        <ele>353.57299804688</ele>
        <time>2020-09-30T09:53:24Z</time>
      </trkpt>
      <trkpt lat="46.47973" lon="4.37962">
        <ele>357.57299804688</ele>
        <time>2020-09-30T09:53:29Z</time>
      </trkpt>
      <trkpt lat="46.47975" lon="4.37951">
        <ele>353.57299804688</ele>
        <time>2020-09-30T09:53:36Z</time>
      </trkpt>
      <trkpt lat="46.47977" lon="4.3794">
        <ele>353.57299804688</ele>
        <time>2020-09-30T09:53:42Z</time>
      </trkpt>
      <trkpt lat="46.47981" lon="4.37929">
        <ele>355.57299804688</ele>
        <time>2020-09-30T09:53:47Z</time>
      </trkpt>
      <trkpt lat="46.47985" lon="4.3792">
        <ele>353.57299804688</ele>
        <time>2020-09-30T09:53:52Z</time>
      </trkpt>
      <trkpt lat="46.47984" lon="4.37909">
        <ele>352.57299804688</ele>
        <time>2020-09-30T09:53:59Z</time>
      </trkpt>
      <trkpt lat="46.47987" lon="4.37898">
        <ele>351.57299804688</ele>
        <time>2020-09-30T09:54:04Z</time>
      </trkpt>
      <trkpt lat="46.4799" lon="4.37887">
        <ele>354.57299804688</ele>
        <time>2020-09-30T09:54:09Z</time>
      </trkpt>
      <trkpt lat="46.47993" lon="4.37879">
        <ele>353.57299804688</ele>
        <time>2020-09-30T09:54:14Z</time>
      </trkpt>
      <trkpt lat="46.47996" lon="4.37869">
        <ele>352.57299804688</ele>
        <time>2020-09-30T09:54:21Z</time>
      </trkpt>
      <trkpt lat="46.47998" lon="4.37859">
        <ele>352.57299804688</ele>
        <time>2020-09-30T09:54:26Z</time>
      </trkpt>
      <trkpt lat="46.48" lon="4.37849">
        <ele>354.57299804688</ele>
        <time>2020-09-30T09:54:34Z</time>
      </trkpt>
      <trkpt lat="46.48" lon="4.3783">
        <ele>355.57299804688</ele>
        <time>2020-09-30T09:54:39Z</time>
      </trkpt>
      <trkpt lat="46.48008" lon="4.37821">
        <ele>359.57299804688</ele>
        <time>2020-09-30T09:54:44Z</time>
      </trkpt>
      <trkpt lat="46.48012" lon="4.37814">
        <ele>360.57299804688</ele>
        <time>2020-09-30T09:54:50Z</time>
      </trkpt>
      <trkpt lat="46.48011" lon="4.37803">
        <ele>362.57299804688</ele>
        <time>2020-09-30T09:54:55Z</time>
      </trkpt>
      <trkpt lat="46.48011" lon="4.37794">
        <ele>360.57299804688</ele>
        <time>2020-09-30T09:55:03Z</time>
      </trkpt>
      <trkpt lat="46.48015" lon="4.37786">
        <ele>361.57299804688</ele>
        <time>2020-09-30T09:55:09Z</time>
      </trkpt>
      <trkpt lat="46.4802" lon="4.37778">
        <ele>359.57299804688</ele>
        <time>2020-09-30T09:55:16Z</time>
      </trkpt>
      <trkpt lat="46.48023" lon="4.37768">
        <ele>361.57299804688</ele>
        <time>2020-09-30T09:55:21Z</time>
      </trkpt>
      <trkpt lat="46.48025" lon="4.37759">
        <ele>363.57299804688</ele>
        <time>2020-09-30T09:55:29Z</time>
      </trkpt>
      <trkpt lat="46.48027" lon="4.37749">
        <ele>364.57299804688</ele>
        <time>2020-09-30T09:55:36Z</time>
      </trkpt>
      <trkpt lat="46.48031" lon="4.37741">
        <ele>360.57299804688</ele>
        <time>2020-09-30T09:55:44Z</time>
      </trkpt>
      <trkpt lat="46.48032" lon="4.37731">
        <ele>360.57299804688</ele>
        <time>2020-09-30T09:55:50Z</time>
      </trkpt>
      <trkpt lat="46.48036" lon="4.37723">
        <ele>359.57299804688</ele>
        <time>2020-09-30T09:55:55Z</time>
      </trkpt>
      <trkpt lat="46.4804" lon="4.37715">
        <ele>360.57299804688</ele>
        <time>2020-09-30T09:56:00Z</time>
      </trkpt>
      <trkpt lat="46.48044" lon="4.37706">
        <ele>359.57299804688</ele>
        <time>2020-09-30T09:56:05Z</time>
      </trkpt>
      <trkpt lat="46.48047" lon="4.37697">
        <ele>363.57299804688</ele>
        <time>2020-09-30T09:56:10Z</time>
      </trkpt>
      <trkpt lat="46.48048" lon="4.37687">
        <ele>365.57299804688</ele>
        <time>2020-09-30T09:56:16Z</time>
      </trkpt>
      <trkpt lat="46.48052" lon="4.37679">
        <ele>366.57299804688</ele>
        <time>2020-09-30T09:56:22Z</time>
      </trkpt>
      <trkpt lat="46.4805" lon="4.37669">
        <ele>365.57299804688</ele>
        <time>2020-09-30T09:56:29Z</time>
      </trkpt>
      <trkpt lat="46.48054" lon="4.37662">
        <ele>365.57299804688</ele>
        <time>2020-09-30T09:56:34Z</time>
      </trkpt>
      <trkpt lat="46.48061" lon="4.37657">
        <ele>369.57299804688</ele>
        <time>2020-09-30T09:56:39Z</time>
      </trkpt>
      <trkpt lat="46.48068" lon="4.37654">
        <ele>369.57299804688</ele>
        <time>2020-09-30T09:56:47Z</time>
      </trkpt>
      <trkpt lat="46.48075" lon="4.37649">
        <ele>369.57299804688</ele>
        <time>2020-09-30T09:56:52Z</time>
      </trkpt>
      <trkpt lat="46.48082" lon="4.37645">
        <ele>366.57299804688</ele>
        <time>2020-09-30T09:56:58Z</time>
      </trkpt>
      <trkpt lat="46.4809" lon="4.37643">
        <ele>366.57299804688</ele>
        <time>2020-09-30T09:57:03Z</time>
      </trkpt>
      <trkpt lat="46.48096" lon="4.3764">
        <ele>368.57299804688</ele>
        <time>2020-09-30T09:57:08Z</time>
      </trkpt>
      <trkpt lat="46.48105" lon="4.37634">
        <ele>365.57299804688</ele>
        <time>2020-09-30T09:57:13Z</time>
      </trkpt>
      <trkpt lat="46.48112" lon="4.37627">
        <ele>362.57299804688</ele>
        <time>2020-09-30T09:57:19Z</time>
      </trkpt>
      <trkpt lat="46.48118" lon="4.37622">
        <ele>362.57299804688</ele>
        <time>2020-09-30T09:57:27Z</time>
      </trkpt>
      <trkpt lat="46.48126" lon="4.37622">
        <ele>363.57299804688</ele>
        <time>2020-09-30T09:57:33Z</time>
      </trkpt>
      <trkpt lat="46.48135" lon="4.37615">
        <ele>361.57299804688</ele>
        <time>2020-09-30T09:57:38Z</time>
      </trkpt>
      <trkpt lat="46.48142" lon="4.37611">
        <ele>362.57299804688</ele>
        <time>2020-09-30T09:57:43Z</time>
      </trkpt>
      <trkpt lat="46.48148" lon="4.37604">
        <ele>357.57299804688</ele>
        <time>2020-09-30T09:57:49Z</time>
      </trkpt>
      <trkpt lat="46.48154" lon="4.37602">
        <ele>357.57299804688</ele>
        <time>2020-09-30T09:57:54Z</time>
      </trkpt>
      <trkpt lat="46.48163" lon="4.37598">
        <ele>357.57299804688</ele>
        <time>2020-09-30T09:57:59Z</time>
      </trkpt>
      <trkpt lat="46.4817" lon="4.37593">
        <ele>360.57299804688</ele>
        <time>2020-09-30T09:58:04Z</time>
      </trkpt>
      <trkpt lat="46.48177" lon="4.37589">
        <ele>362.57299804688</ele>
        <time>2020-09-30T09:58:09Z</time>
      </trkpt>
      <trkpt lat="46.48183" lon="4.37584">
        <ele>360.57299804688</ele>
        <time>2020-09-30T09:58:14Z</time>
      </trkpt>
      <trkpt lat="46.48193" lon="4.37579">
        <ele>361.57299804688</ele>
        <time>2020-09-30T09:58:19Z</time>
      </trkpt>
      <trkpt lat="46.48199" lon="4.37576">
        <ele>356.57299804688</ele>
        <time>2020-09-30T09:58:26Z</time>
      </trkpt>
      <trkpt lat="46.48207" lon="4.37569">
        <ele>358.57299804688</ele>
        <time>2020-09-30T09:58:31Z</time>
      </trkpt>
      <trkpt lat="46.48215" lon="4.37568">
        <ele>359.57299804688</ele>
        <time>2020-09-30T09:58:36Z</time>
      </trkpt>
      <trkpt lat="46.48222" lon="4.37563">
        <ele>358.57299804688</ele>
        <time>2020-09-30T09:58:41Z</time>
      </trkpt>
      <trkpt lat="46.4823" lon="4.37561">
        <ele>362.57299804688</ele>
        <time>2020-09-30T09:58:49Z</time>
      </trkpt>
      <trkpt lat="46.48237" lon="4.37558">
        <ele>362.57299804688</ele>
        <time>2020-09-30T09:58:54Z</time>
      </trkpt>
      <trkpt lat="46.48243" lon="4.37551">
        <ele>363.57299804688</ele>
        <time>2020-09-30T09:58:59Z</time>
      </trkpt>
      <trkpt lat="46.48249" lon="4.37546">
        <ele>361.57299804688</ele>
        <time>2020-09-30T09:59:04Z</time>
      </trkpt>
      <trkpt lat="46.48257" lon="4.3754">
        <ele>364.57299804688</ele>
        <time>2020-09-30T09:59:09Z</time>
      </trkpt>
      <trkpt lat="46.48264" lon="4.37535">
        <ele>363.57299804688</ele>
        <time>2020-09-30T09:59:16Z</time>
      </trkpt>
      <trkpt lat="46.48271" lon="4.37533">
        <ele>361.57299804688</ele>
        <time>2020-09-30T09:59:22Z</time>
      </trkpt>
      <trkpt lat="46.48277" lon="4.37529">
        <ele>362.57299804688</ele>
        <time>2020-09-30T09:59:27Z</time>
      </trkpt>
      <trkpt lat="46.48285" lon="4.37528">
        <ele>364.57299804688</ele>
        <time>2020-09-30T09:59:32Z</time>
      </trkpt>
      <trkpt lat="46.48293" lon="4.37523">
        <ele>361.57299804688</ele>
        <time>2020-09-30T09:59:37Z</time>
      </trkpt>
      <trkpt lat="46.48299" lon="4.37521">
        <ele>359.57299804688</ele>
        <time>2020-09-30T09:59:44Z</time>
      </trkpt>
      <trkpt lat="46.48306" lon="4.37515">
        <ele>360.57299804688</ele>
        <time>2020-09-30T09:59:49Z</time>
      </trkpt>
      <trkpt lat="46.48314" lon="4.37514">
        <ele>363.57299804688</ele>
        <time>2020-09-30T09:59:54Z</time>
      </trkpt>
      <trkpt lat="46.48321" lon="4.37508">
        <ele>364.57299804688</ele>
        <time>2020-09-30T09:59:59Z</time>
      </trkpt>
      <trkpt lat="46.48327" lon="4.37505">
        <ele>361.57299804688</ele>
        <time>2020-09-30T10:00:04Z</time>
      </trkpt>
      <trkpt lat="46.48333" lon="4.37498">
        <ele>364.57299804688</ele>
        <time>2020-09-30T10:00:09Z</time>
      </trkpt>
      <trkpt lat="46.48339" lon="4.37495">
        <ele>367.57299804688</ele>
        <time>2020-09-30T10:00:14Z</time>
      </trkpt>
      <trkpt lat="46.48349" lon="4.37496">
        <ele>363.57299804688</ele>
        <time>2020-09-30T10:00:19Z</time>
      </trkpt>
      <trkpt lat="46.48355" lon="4.37492">
        <ele>361.57299804688</ele>
        <time>2020-09-30T10:00:27Z</time>
      </trkpt>
      <trkpt lat="46.48363" lon="4.37487">
        <ele>361.57400512695</ele>
        <time>2020-09-30T10:00:32Z</time>
      </trkpt>
      <trkpt lat="46.4837" lon="4.37482">
        <ele>362.57400512695</ele>
        <time>2020-09-30T10:00:37Z</time>
      </trkpt>
      <trkpt lat="46.48379" lon="4.37478">
        <ele>360.57400512695</ele>
        <time>2020-09-30T10:00:42Z</time>
      </trkpt>
      <trkpt lat="46.48385" lon="4.37472">
        <ele>356.57400512695</ele>
        <time>2020-09-30T10:00:48Z</time>
      </trkpt>
      <trkpt lat="46.48394" lon="4.37464">
        <ele>356.57400512695</ele>
        <time>2020-09-30T10:00:53Z</time>
      </trkpt>
      <trkpt lat="46.484" lon="4.37458">
        <ele>354.57400512695</ele>
        <time>2020-09-30T10:00:59Z</time>
      </trkpt>
      <trkpt lat="46.48407" lon="4.37457">
        <ele>357.57400512695</ele>
        <time>2020-09-30T10:01:04Z</time>
      </trkpt>
      <trkpt lat="46.48414" lon="4.37453">
        <ele>355.57400512695</ele>
        <time>2020-09-30T10:01:09Z</time>
      </trkpt>
      <trkpt lat="46.48425" lon="4.37447">
        <ele>356.57400512695</ele>
        <time>2020-09-30T10:01:14Z</time>
      </trkpt>
      <trkpt lat="46.48435" lon="4.37443">
        <ele>355.57400512695</ele>
        <time>2020-09-30T10:01:19Z</time>
      </trkpt>
      <trkpt lat="46.48441" lon="4.3744">
        <ele>357.57400512695</ele>
        <time>2020-09-30T10:01:24Z</time>
      </trkpt>
      <trkpt lat="46.48448" lon="4.37433">
        <ele>356.57400512695</ele>
        <time>2020-09-30T10:01:30Z</time>
      </trkpt>
      <trkpt lat="46.48455" lon="4.37429">
        <ele>354.57400512695</ele>
        <time>2020-09-30T10:01:35Z</time>
      </trkpt>
      <trkpt lat="46.48462" lon="4.37425">
        <ele>356.57400512695</ele>
        <time>2020-09-30T10:01:48Z</time>
      </trkpt>
      <trkpt lat="46.48473" lon="4.37419">
        <ele>354.57400512695</ele>
        <time>2020-09-30T10:01:53Z</time>
      </trkpt>
      <trkpt lat="46.48482" lon="4.37413">
        <ele>357.57400512695</ele>
        <time>2020-09-30T10:01:58Z</time>
      </trkpt>
      <trkpt lat="46.48491" lon="4.37408">
        <ele>358.57400512695</ele>
        <time>2020-09-30T10:02:03Z</time>
      </trkpt>
      <trkpt lat="46.485" lon="4.37404">
        <ele>359.57400512695</ele>
        <time>2020-09-30T10:02:08Z</time>
      </trkpt>
      <trkpt lat="46.48504" lon="4.37396">
        <ele>356.57400512695</ele>
        <time>2020-09-30T10:02:13Z</time>
      </trkpt>
      <trkpt lat="46.48511" lon="4.37395">
        <ele>353.57400512695</ele>
        <time>2020-09-30T10:02:19Z</time>
      </trkpt>
      <trkpt lat="46.48518" lon="4.37391">
        <ele>352.57400512695</ele>
        <time>2020-09-30T10:02:24Z</time>
      </trkpt>
      <trkpt lat="46.48525" lon="4.37388">
        <ele>351.57400512695</ele>
        <time>2020-09-30T10:02:29Z</time>
      </trkpt>
      <trkpt lat="46.48535" lon="4.37384">
        <ele>355.57400512695</ele>
        <time>2020-09-30T10:02:34Z</time>
      </trkpt>
      <trkpt lat="46.48541" lon="4.37379">
        <ele>355.57400512695</ele>
        <time>2020-09-30T10:02:41Z</time>
      </trkpt>
      <trkpt lat="46.48549" lon="4.37372">
        <ele>353.57400512695</ele>
        <time>2020-09-30T10:02:46Z</time>
      </trkpt>
      <trkpt lat="46.48559" lon="4.37367">
        <ele>353.57400512695</ele>
        <time>2020-09-30T10:02:51Z</time>
      </trkpt>
      <trkpt lat="46.48566" lon="4.37362">
        <ele>354.57400512695</ele>
        <time>2020-09-30T10:02:56Z</time>
      </trkpt>
      <trkpt lat="46.48572" lon="4.37359">
        <ele>357.57400512695</ele>
        <time>2020-09-30T10:03:01Z</time>
      </trkpt>
      <trkpt lat="46.4858" lon="4.37352">
        <ele>358.57400512695</ele>
        <time>2020-09-30T10:03:06Z</time>
      </trkpt>
      <trkpt lat="46.48588" lon="4.3735">
        <ele>356.57400512695</ele>
        <time>2020-09-30T10:03:12Z</time>
      </trkpt>
      <trkpt lat="46.48597" lon="4.37347">
        <ele>357.57400512695</ele>
        <time>2020-09-30T10:03:17Z</time>
      </trkpt>
      <trkpt lat="46.48605" lon="4.37342">
        <ele>356.57400512695</ele>
        <time>2020-09-30T10:03:23Z</time>
      </trkpt>
      <trkpt lat="46.48609" lon="4.37335">
        <ele>357.57400512695</ele>
        <time>2020-09-30T10:03:28Z</time>
      </trkpt>
      <trkpt lat="46.48616" lon="4.37331">
        <ele>358.57400512695</ele>
        <time>2020-09-30T10:03:34Z</time>
      </trkpt>
      <trkpt lat="46.48622" lon="4.37328">
        <ele>360.57400512695</ele>
        <time>2020-09-30T10:03:39Z</time>
      </trkpt>
      <trkpt lat="46.48628" lon="4.37324">
        <ele>359.57400512695</ele>
        <time>2020-09-30T10:03:45Z</time>
      </trkpt>
      <trkpt lat="46.48637" lon="4.37323">
        <ele>359.57400512695</ele>
        <time>2020-09-30T10:03:50Z</time>
      </trkpt>
      <trkpt lat="46.48644" lon="4.37317">
        <ele>355.57400512695</ele>
        <time>2020-09-30T10:03:56Z</time>
      </trkpt>
      <trkpt lat="46.48652" lon="4.37319">
        <ele>354.57400512695</ele>
        <time>2020-09-30T10:04:02Z</time>
      </trkpt>
      <trkpt lat="46.4866" lon="4.37318">
        <ele>354.57400512695</ele>
        <time>2020-09-30T10:04:07Z</time>
      </trkpt>
      <trkpt lat="46.48669" lon="4.37319">
        <ele>357.57400512695</ele>
        <time>2020-09-30T10:04:12Z</time>
      </trkpt>
      <trkpt lat="46.48677" lon="4.37315">
        <ele>356.57400512695</ele>
        <time>2020-09-30T10:04:17Z</time>
      </trkpt>
      <trkpt lat="46.48685" lon="4.37316">
        <ele>355.57400512695</ele>
        <time>2020-09-30T10:04:22Z</time>
      </trkpt>
      <trkpt lat="46.48693" lon="4.37317">
        <ele>354.57400512695</ele>
        <time>2020-09-30T10:04:27Z</time>
      </trkpt>
      <trkpt lat="46.487" lon="4.37314">
        <ele>352.57400512695</ele>
        <time>2020-09-30T10:04:32Z</time>
      </trkpt>
      <trkpt lat="46.48708" lon="4.37315">
        <ele>353.57400512695</ele>
        <time>2020-09-30T10:04:38Z</time>
      </trkpt>
      <trkpt lat="46.48715" lon="4.37316">
        <ele>353.57400512695</ele>
        <time>2020-09-30T10:04:44Z</time>
      </trkpt>
      <trkpt lat="46.48722" lon="4.37313">
        <ele>348.57400512695</ele>
        <time>2020-09-30T10:04:49Z</time>
      </trkpt>
      <trkpt lat="46.48731" lon="4.37312">
        <ele>347.57400512695</ele>
        <time>2020-09-30T10:04:54Z</time>
      </trkpt>
      <trkpt lat="46.48738" lon="4.37312">
        <ele>347.57400512695</ele>
        <time>2020-09-30T10:04:59Z</time>
      </trkpt>
      <trkpt lat="46.48746" lon="4.3731">
        <ele>347.57400512695</ele>
        <time>2020-09-30T10:05:04Z</time>
      </trkpt>
      <trkpt lat="46.48753" lon="4.37311">
        <ele>347.57400512695</ele>
        <time>2020-09-30T10:05:09Z</time>
      </trkpt>
      <trkpt lat="46.48761" lon="4.37311">
        <ele>347.57400512695</ele>
        <time>2020-09-30T10:05:14Z</time>
      </trkpt>
      <trkpt lat="46.48768" lon="4.37315">
        <ele>348.57501220703</ele>
        <time>2020-09-30T10:05:19Z</time>
      </trkpt>
      <trkpt lat="46.48777" lon="4.37319">
        <ele>344.57501220703</ele>
        <time>2020-09-30T10:05:24Z</time>
      </trkpt>
      <trkpt lat="46.48784" lon="4.3732">
        <ele>344.57501220703</ele>
        <time>2020-09-30T10:05:29Z</time>
      </trkpt>
      <trkpt lat="46.48791" lon="4.37322">
        <ele>345.57501220703</ele>
        <time>2020-09-30T10:05:34Z</time>
      </trkpt>
      <trkpt lat="46.48798" lon="4.37323">
        <ele>345.57501220703</ele>
        <time>2020-09-30T10:05:39Z</time>
      </trkpt>
      <trkpt lat="46.48806" lon="4.37321">
        <ele>348.57501220703</ele>
        <time>2020-09-30T10:05:44Z</time>
      </trkpt>
      <trkpt lat="46.48812" lon="4.37321">
        <ele>347.57501220703</ele>
        <time>2020-09-30T10:05:49Z</time>
      </trkpt>
      <trkpt lat="46.48819" lon="4.37321">
        <ele>347.57501220703</ele>
        <time>2020-09-30T10:05:54Z</time>
      </trkpt>
      <trkpt lat="46.48827" lon="4.37318">
        <ele>350.57501220703</ele>
        <time>2020-09-30T10:05:59Z</time>
      </trkpt>
      <trkpt lat="46.48834" lon="4.37319">
        <ele>348.57501220703</ele>
        <time>2020-09-30T10:06:05Z</time>
      </trkpt>
      <trkpt lat="46.4884" lon="4.3732">
        <ele>347.57501220703</ele>
        <time>2020-09-30T10:06:11Z</time>
      </trkpt>
      <trkpt lat="46.48847" lon="4.3732">
        <ele>347.57501220703</ele>
        <time>2020-09-30T10:06:16Z</time>
      </trkpt>
      <trkpt lat="46.48854" lon="4.37322">
        <ele>348.57501220703</ele>
        <time>2020-09-30T10:06:21Z</time>
      </trkpt>
      <trkpt lat="46.48861" lon="4.37324">
        <ele>350.57501220703</ele>
        <time>2020-09-30T10:06:26Z</time>
      </trkpt>
      <trkpt lat="46.48869" lon="4.37325">
        <ele>353.57501220703</ele>
        <time>2020-09-30T10:06:31Z</time>
      </trkpt>
      <trkpt lat="46.48876" lon="4.37327">
        <ele>354.57501220703</ele>
        <time>2020-09-30T10:06:36Z</time>
      </trkpt>
      <trkpt lat="46.48883" lon="4.37328">
        <ele>357.57501220703</ele>
        <time>2020-09-30T10:06:42Z</time>
      </trkpt>
      <trkpt lat="46.48889" lon="4.37326">
        <ele>356.57501220703</ele>
        <time>2020-09-30T10:06:47Z</time>
      </trkpt>
      <trkpt lat="46.48895" lon="4.37334">
        <ele>355.57501220703</ele>
        <time>2020-09-30T10:06:52Z</time>
      </trkpt>
      <trkpt lat="46.48903" lon="4.3734">
        <ele>354.57501220703</ele>
        <time>2020-09-30T10:06:58Z</time>
      </trkpt>
      <trkpt lat="46.48909" lon="4.37347">
        <ele>357.57501220703</ele>
        <time>2020-09-30T10:07:04Z</time>
      </trkpt>
      <trkpt lat="46.48914" lon="4.37353">
        <ele>357.57501220703</ele>
        <time>2020-09-30T10:07:10Z</time>
      </trkpt>
      <trkpt lat="46.48921" lon="4.37356">
        <ele>355.57501220703</ele>
        <time>2020-09-30T10:07:16Z</time>
      </trkpt>
      <trkpt lat="46.48925" lon="4.37365">
        <ele>356.57501220703</ele>
        <time>2020-09-30T10:07:21Z</time>
      </trkpt>
      <trkpt lat="46.48931" lon="4.37372">
        <ele>357.57501220703</ele>
        <time>2020-09-30T10:07:27Z</time>
      </trkpt>
      <trkpt lat="46.48936" lon="4.3738">
        <ele>356.57501220703</ele>
        <time>2020-09-30T10:07:32Z</time>
      </trkpt>
      <trkpt lat="46.48943" lon="4.37383">
        <ele>354.57501220703</ele>
        <time>2020-09-30T10:07:37Z</time>
      </trkpt>
      <trkpt lat="46.48937" lon="4.37376">
        <ele>360.57501220703</ele>
        <time>2020-09-30T10:07:59Z</time>
      </trkpt>
      <trkpt lat="46.48929" lon="4.37372">
        <ele>360.57501220703</ele>
        <time>2020-09-30T10:08:04Z</time>
      </trkpt>
      <trkpt lat="46.48922" lon="4.37367">
        <ele>359.57501220703</ele>
        <time>2020-09-30T10:08:10Z</time>
      </trkpt>
      <trkpt lat="46.48917" lon="4.37361">
        <ele>361.57501220703</ele>
        <time>2020-09-30T10:08:15Z</time>
      </trkpt>
      <trkpt lat="46.48914" lon="4.37353">
        <ele>357.57501220703</ele>
        <time>2020-09-30T10:08:22Z</time>
      </trkpt>
      <trkpt lat="46.48907" lon="4.37348">
        <ele>359.57501220703</ele>
        <time>2020-09-30T10:08:27Z</time>
      </trkpt>
      <trkpt lat="46.48901" lon="4.37344">
        <ele>359.57501220703</ele>
        <time>2020-09-30T10:08:32Z</time>
      </trkpt>
      <trkpt lat="46.48894" lon="4.37342">
        <ele>360.57501220703</ele>
        <time>2020-09-30T10:08:37Z</time>
      </trkpt>
      <trkpt lat="46.48892" lon="4.37352">
        <ele>361.57501220703</ele>
        <time>2020-09-30T10:08:44Z</time>
      </trkpt>
      <trkpt lat="46.48897" lon="4.3736">
        <ele>361.57501220703</ele>
        <time>2020-09-30T10:08:49Z</time>
      </trkpt>
      <trkpt lat="46.489" lon="4.37368">
        <ele>360.57501220703</ele>
        <time>2020-09-30T10:08:54Z</time>
      </trkpt>
      <trkpt lat="46.48905" lon="4.37375">
        <ele>360.57501220703</ele>
        <time>2020-09-30T10:08:59Z</time>
      </trkpt>
      <trkpt lat="46.4891" lon="4.37382">
        <ele>356.57501220703</ele>
        <time>2020-09-30T10:09:06Z</time>
      </trkpt>
      <trkpt lat="46.48915" lon="4.3739">
        <ele>356.57501220703</ele>
        <time>2020-09-30T10:09:12Z</time>
      </trkpt>
      <trkpt lat="46.48915" lon="4.374">
        <ele>361.57501220703</ele>
        <time>2020-09-30T10:09:18Z</time>
      </trkpt>
      <trkpt lat="46.48912" lon="4.37411">
        <ele>361.57501220703</ele>
        <time>2020-09-30T10:09:24Z</time>
      </trkpt>
      <trkpt lat="46.48909" lon="4.37421">
        <ele>362.57501220703</ele>
        <time>2020-09-30T10:09:29Z</time>
      </trkpt>
      <trkpt lat="46.48906" lon="4.37431">
        <ele>362.57501220703</ele>
        <time>2020-09-30T10:09:34Z</time>
      </trkpt>
      <trkpt lat="46.48904" lon="4.37441">
        <ele>361.57501220703</ele>
        <time>2020-09-30T10:09:41Z</time>
      </trkpt>
      <trkpt lat="46.48904" lon="4.37453">
        <ele>360.57501220703</ele>
        <time>2020-09-30T10:09:46Z</time>
      </trkpt>
      <trkpt lat="46.48904" lon="4.37464">
        <ele>357.57501220703</ele>
        <time>2020-09-30T10:09:53Z</time>
      </trkpt>
      <trkpt lat="46.48902" lon="4.37475">
        <ele>359.57501220703</ele>
        <time>2020-09-30T10:09:58Z</time>
      </trkpt>
      <trkpt lat="46.48902" lon="4.37484">
        <ele>360.57501220703</ele>
        <time>2020-09-30T10:10:05Z</time>
      </trkpt>
      <trkpt lat="46.48899" lon="4.37495">
        <ele>360.57501220703</ele>
        <time>2020-09-30T10:10:11Z</time>
      </trkpt>
      <trkpt lat="46.48899" lon="4.37508">
        <ele>360.57501220703</ele>
        <time>2020-09-30T10:10:16Z</time>
      </trkpt>
      <trkpt lat="46.489" lon="4.37517">
        <ele>357.57501220703</ele>
        <time>2020-09-30T10:10:22Z</time>
      </trkpt>
      <trkpt lat="46.48901" lon="4.37529">
        <ele>357.57501220703</ele>
        <time>2020-09-30T10:10:27Z</time>
      </trkpt>
      <trkpt lat="46.48903" lon="4.37539">
        <ele>359.57501220703</ele>
        <time>2020-09-30T10:10:32Z</time>
      </trkpt>
      <trkpt lat="46.48907" lon="4.37548">
        <ele>356.57501220703</ele>
        <time>2020-09-30T10:10:40Z</time>
      </trkpt>
      <trkpt lat="46.48907" lon="4.37558">
        <ele>356.57501220703</ele>
        <time>2020-09-30T10:10:45Z</time>
      </trkpt>
      <trkpt lat="46.48903" lon="4.37566">
        <ele>357.57501220703</ele>
        <time>2020-09-30T10:10:50Z</time>
      </trkpt>
      <trkpt lat="46.48897" lon="4.37573">
        <ele>358.57501220703</ele>
        <time>2020-09-30T10:10:55Z</time>
      </trkpt>
      <trkpt lat="46.48891" lon="4.3758">
        <ele>358.57501220703</ele>
        <time>2020-09-30T10:11:00Z</time>
      </trkpt>
      <trkpt lat="46.48886" lon="4.37586">
        <ele>358.57501220703</ele>
        <time>2020-09-30T10:11:05Z</time>
      </trkpt>
      <trkpt lat="46.4888" lon="4.37594">
        <ele>358.57501220703</ele>
        <time>2020-09-30T10:11:11Z</time>
      </trkpt>
      <trkpt lat="46.48873" lon="4.37601">
        <ele>359.57501220703</ele>
        <time>2020-09-30T10:11:17Z</time>
      </trkpt>
      <trkpt lat="46.48868" lon="4.3761">
        <ele>361.57501220703</ele>
        <time>2020-09-30T10:11:22Z</time>
      </trkpt>
      <trkpt lat="46.48864" lon="4.37618">
        <ele>359.57501220703</ele>
        <time>2020-09-30T10:11:28Z</time>
      </trkpt>
      <trkpt lat="46.48862" lon="4.37627">
        <ele>357.57501220703</ele>
        <time>2020-09-30T10:11:35Z</time>
      </trkpt>
      <trkpt lat="46.48856" lon="4.37633">
        <ele>356.57501220703</ele>
        <time>2020-09-30T10:11:40Z</time>
      </trkpt>
      <trkpt lat="46.48848" lon="4.37636">
        <ele>356.57501220703</ele>
        <time>2020-09-30T10:11:46Z</time>
      </trkpt>
      <trkpt lat="46.4884" lon="4.37634">
        <ele>353.57501220703</ele>
        <time>2020-09-30T10:11:51Z</time>
      </trkpt>
      <trkpt lat="46.48831" lon="4.37632">
        <ele>355.57501220703</ele>
        <time>2020-09-30T10:11:56Z</time>
      </trkpt>
      <trkpt lat="46.48826" lon="4.37625">
        <ele>356.57501220703</ele>
        <time>2020-09-30T10:12:02Z</time>
      </trkpt>
      <trkpt lat="46.48818" lon="4.37623">
        <ele>357.57501220703</ele>
        <time>2020-09-30T10:12:09Z</time>
      </trkpt>
      <trkpt lat="46.48807" lon="4.37617">
        <ele>355.57501220703</ele>
        <time>2020-09-30T10:12:14Z</time>
      </trkpt>
      <trkpt lat="46.48801" lon="4.3761">
        <ele>352.57501220703</ele>
        <time>2020-09-30T10:12:19Z</time>
      </trkpt>
      <trkpt lat="46.48794" lon="4.37612">
        <ele>352.57501220703</ele>
        <time>2020-09-30T10:12:27Z</time>
      </trkpt>
      <trkpt lat="46.48788" lon="4.37616">
        <ele>350.57501220703</ele>
        <time>2020-09-30T10:12:33Z</time>
      </trkpt>
      <trkpt lat="46.48783" lon="4.37623">
        <ele>345.57501220703</ele>
        <time>2020-09-30T10:12:40Z</time>
      </trkpt>
      <trkpt lat="46.48776" lon="4.3763">
        <ele>344.57501220703</ele>
        <time>2020-09-30T10:12:45Z</time>
      </trkpt>
      <trkpt lat="46.48769" lon="4.37632">
        <ele>346.57501220703</ele>
        <time>2020-09-30T10:12:52Z</time>
      </trkpt>
      <trkpt lat="46.48761" lon="4.37634">
        <ele>346.57501220703</ele>
        <time>2020-09-30T10:12:58Z</time>
      </trkpt>
      <trkpt lat="46.48754" lon="4.37635">
        <ele>346.57501220703</ele>
        <time>2020-09-30T10:13:04Z</time>
      </trkpt>
      <trkpt lat="46.48746" lon="4.37631">
        <ele>346.57501220703</ele>
        <time>2020-09-30T10:13:09Z</time>
      </trkpt>
      <trkpt lat="46.4874" lon="4.37631">
        <ele>348.57501220703</ele>
        <time>2020-09-30T10:13:20Z</time>
      </trkpt>
      <trkpt lat="46.48733" lon="4.3763">
        <ele>347.57501220703</ele>
        <time>2020-09-30T10:13:27Z</time>
      </trkpt>
      <trkpt lat="46.48725" lon="4.37631">
        <ele>348.57501220703</ele>
        <time>2020-09-30T10:13:33Z</time>
      </trkpt>
      <trkpt lat="46.48718" lon="4.37634">
        <ele>348.57501220703</ele>
        <time>2020-09-30T10:13:39Z</time>
      </trkpt>
      <trkpt lat="46.48712" lon="4.37638">
        <ele>351.57501220703</ele>
        <time>2020-09-30T10:13:45Z</time>
      </trkpt>
      <trkpt lat="46.48705" lon="4.37643">
        <ele>350.57501220703</ele>
        <time>2020-09-30T10:13:51Z</time>
      </trkpt>
      <trkpt lat="46.487" lon="4.3765">
        <ele>355.57501220703</ele>
        <time>2020-09-30T10:13:56Z</time>
      </trkpt>
      <trkpt lat="46.48707" lon="4.3764">
        <ele>351.57501220703</ele>
        <time>2020-09-30T10:14:05Z</time>
      </trkpt>
      <trkpt lat="46.48713" lon="4.37635">
        <ele>351.57501220703</ele>
        <time>2020-09-30T10:14:11Z</time>
      </trkpt>
      <trkpt lat="46.4872" lon="4.37634">
        <ele>347.57501220703</ele>
        <time>2020-09-30T10:14:25Z</time>
      </trkpt>
      <trkpt lat="46.48727" lon="4.37631">
        <ele>352.57501220703</ele>
        <time>2020-09-30T10:14:30Z</time>
      </trkpt>
      <trkpt lat="46.48737" lon="4.37629">
        <ele>355.57501220703</ele>
        <time>2020-09-30T10:14:35Z</time>
      </trkpt>
      <trkpt lat="46.48745" lon="4.37627">
        <ele>356.57501220703</ele>
        <time>2020-09-30T10:14:44Z</time>
      </trkpt>
      <trkpt lat="46.48753" lon="4.37626">
        <ele>356.57501220703</ele>
        <time>2020-09-30T10:14:49Z</time>
      </trkpt>
      <trkpt lat="46.4876" lon="4.37623">
        <ele>351.57501220703</ele>
        <time>2020-09-30T10:14:59Z</time>
      </trkpt>
      <trkpt lat="46.48767" lon="4.37622">
        <ele>350.57501220703</ele>
        <time>2020-09-30T10:15:04Z</time>
      </trkpt>
      <trkpt lat="46.4877" lon="4.3763">
        <ele>351.57501220703</ele>
        <time>2020-09-30T10:15:18Z</time>
      </trkpt>
      <trkpt lat="46.48771" lon="4.37641">
        <ele>349.57501220703</ele>
        <time>2020-09-30T10:15:26Z</time>
      </trkpt>
      <trkpt lat="46.48766" lon="4.3765">
        <ele>352.57501220703</ele>
        <time>2020-09-30T10:15:36Z</time>
      </trkpt>
      <trkpt lat="46.48763" lon="4.3766">
        <ele>354.57501220703</ele>
        <time>2020-09-30T10:15:41Z</time>
      </trkpt>
      <trkpt lat="46.48757" lon="4.37666">
        <ele>355.57501220703</ele>
        <time>2020-09-30T10:15:47Z</time>
      </trkpt>
      <trkpt lat="46.48755" lon="4.37675">
        <ele>356.57501220703</ele>
        <time>2020-09-30T10:15:52Z</time>
      </trkpt>
      <trkpt lat="46.48753" lon="4.37688">
        <ele>354.57501220703</ele>
        <time>2020-09-30T10:16:05Z</time>
      </trkpt>
      <trkpt lat="46.48745" lon="4.37691">
        <ele>357.57501220703</ele>
        <time>2020-09-30T10:16:17Z</time>
      </trkpt>
      <trkpt lat="46.48742" lon="4.37699">
        <ele>358.57501220703</ele>
        <time>2020-09-30T10:16:24Z</time>
      </trkpt>
      <trkpt lat="46.48736" lon="4.37706">
        <ele>357.57501220703</ele>
        <time>2020-09-30T10:16:31Z</time>
      </trkpt>
      <trkpt lat="46.48734" lon="4.37718">
        <ele>357.57501220703</ele>
        <time>2020-09-30T10:16:36Z</time>
      </trkpt>
      <trkpt lat="46.48729" lon="4.37731">
        <ele>359.57501220703</ele>
        <time>2020-09-30T10:16:41Z</time>
      </trkpt>
      <trkpt lat="46.48724" lon="4.37737">
        <ele>362.57501220703</ele>
        <time>2020-09-30T10:16:46Z</time>
      </trkpt>
      <trkpt lat="46.48718" lon="4.37748">
        <ele>365.57501220703</ele>
        <time>2020-09-30T10:16:51Z</time>
      </trkpt>
      <trkpt lat="46.48716" lon="4.3776">
        <ele>364.57501220703</ele>
        <time>2020-09-30T10:16:58Z</time>
      </trkpt>
      <trkpt lat="46.48709" lon="4.37762">
        <ele>362.57501220703</ele>
        <time>2020-09-30T10:17:04Z</time>
      </trkpt>
      <trkpt lat="46.4871" lon="4.37772">
        <ele>357.57501220703</ele>
        <time>2020-09-30T10:17:10Z</time>
      </trkpt>
      <trkpt lat="46.48711" lon="4.37784">
        <ele>360.57501220703</ele>
        <time>2020-09-30T10:17:18Z</time>
      </trkpt>
      <trkpt lat="46.48704" lon="4.37785">
        <ele>361.57501220703</ele>
        <time>2020-09-30T10:17:24Z</time>
      </trkpt>
      <trkpt lat="46.48711" lon="4.3779">
        <ele>362.57501220703</ele>
        <time>2020-09-30T10:17:29Z</time>
      </trkpt>
      <trkpt lat="46.48704" lon="4.37795">
        <ele>360.57501220703</ele>
        <time>2020-09-30T10:17:38Z</time>
      </trkpt>
      <trkpt lat="46.48705" lon="4.37808">
        <ele>363.57501220703</ele>
        <time>2020-09-30T10:17:46Z</time>
      </trkpt>
      <trkpt lat="46.48698" lon="4.37807">
        <ele>360.57501220703</ele>
        <time>2020-09-30T10:18:05Z</time>
      </trkpt>
      <trkpt lat="46.48697" lon="4.37809">
        <ele>360.57501220703</ele>
        <time>2020-09-30T10:18:25Z</time>
      </trkpt>
      <trkpt lat="46.4869" lon="4.37808">
        <ele>363.57501220703</ele>
        <time>2020-09-30T10:19:12Z</time>
      </trkpt>
      <trkpt lat="46.48691" lon="4.3782">
        <ele>364.57501220703</ele>
        <time>2020-09-30T10:20:21Z</time>
      </trkpt>
      <trkpt lat="46.48693" lon="4.3783">
        <ele>364.57501220703</ele>
        <time>2020-09-30T10:20:28Z</time>
      </trkpt>
      <trkpt lat="46.48692" lon="4.37839">
        <ele>358.57501220703</ele>
        <time>2020-09-30T10:20:33Z</time>
      </trkpt>
      <trkpt lat="46.48692" lon="4.37849">
        <ele>359.57501220703</ele>
        <time>2020-09-30T10:21:02Z</time>
      </trkpt>
      <trkpt lat="46.48697" lon="4.37858">
        <ele>365.57501220703</ele>
        <time>2020-09-30T10:21:10Z</time>
      </trkpt>
      <trkpt lat="46.48698" lon="4.37871">
        <ele>363.57501220703</ele>
        <time>2020-09-30T10:21:16Z</time>
      </trkpt>
      <trkpt lat="46.48702" lon="4.3788">
        <ele>361.57501220703</ele>
        <time>2020-09-30T10:21:25Z</time>
      </trkpt>
      <trkpt lat="46.48701" lon="4.37892">
        <ele>366.57501220703</ele>
        <time>2020-09-30T10:21:30Z</time>
      </trkpt>
      <trkpt lat="46.487" lon="4.37901">
        <ele>368.57501220703</ele>
        <time>2020-09-30T10:21:40Z</time>
      </trkpt>
      <trkpt lat="46.487" lon="4.37913">
        <ele>368.57501220703</ele>
        <time>2020-09-30T10:21:49Z</time>
      </trkpt>
      <trkpt lat="46.48699" lon="4.37923">
        <ele>365.57501220703</ele>
        <time>2020-09-30T10:21:59Z</time>
      </trkpt>
      <trkpt lat="46.48696" lon="4.37932">
        <ele>365.57501220703</ele>
        <time>2020-09-30T10:22:05Z</time>
      </trkpt>
      <trkpt lat="46.48695" lon="4.37942">
        <ele>363.57501220703</ele>
        <time>2020-09-30T10:22:12Z</time>
      </trkpt>
      <trkpt lat="46.48695" lon="4.37951">
        <ele>362.57501220703</ele>
        <time>2020-09-30T10:22:20Z</time>
      </trkpt>
      <trkpt lat="46.48689" lon="4.37963">
        <ele>359.57501220703</ele>
        <time>2020-09-30T10:22:27Z</time>
      </trkpt>
      <trkpt lat="46.48684" lon="4.37974">
        <ele>359.57501220703</ele>
        <time>2020-09-30T10:22:33Z</time>
      </trkpt>
      <trkpt lat="46.48677" lon="4.37977">
        <ele>364.57501220703</ele>
        <time>2020-09-30T10:22:44Z</time>
      </trkpt>
      <trkpt lat="46.48671" lon="4.3798">
        <ele>366.57501220703</ele>
        <time>2020-09-30T10:22:52Z</time>
      </trkpt>
      <trkpt lat="46.48667" lon="4.37988">
        <ele>367.57501220703</ele>
        <time>2020-09-30T10:22:59Z</time>
      </trkpt>
      <trkpt lat="46.48661" lon="4.37986">
        <ele>364.57501220703</ele>
        <time>2020-09-30T10:23:09Z</time>
      </trkpt>
      <trkpt lat="46.48654" lon="4.37985">
        <ele>369.57501220703</ele>
        <time>2020-09-30T10:23:17Z</time>
      </trkpt>
      <trkpt lat="46.48647" lon="4.37984">
        <ele>368.57501220703</ele>
        <time>2020-09-30T10:23:28Z</time>
      </trkpt>
      <trkpt lat="46.48641" lon="4.37988">
        <ele>368.57501220703</ele>
        <time>2020-09-30T10:23:34Z</time>
      </trkpt>
      <trkpt lat="46.48636" lon="4.37996">
        <ele>368.57501220703</ele>
        <time>2020-09-30T10:23:41Z</time>
      </trkpt>
      <trkpt lat="46.4863" lon="4.38001">
        <ele>372.57501220703</ele>
        <time>2020-09-30T10:23:48Z</time>
      </trkpt>
      <trkpt lat="46.48627" lon="4.38012">
        <ele>372.57501220703</ele>
        <time>2020-09-30T10:23:55Z</time>
      </trkpt>
      <trkpt lat="46.48626" lon="4.38023">
        <ele>373.57501220703</ele>
        <time>2020-09-30T10:24:00Z</time>
      </trkpt>
      <trkpt lat="46.48623" lon="4.38032">
        <ele>374.57501220703</ele>
        <time>2020-09-30T10:24:06Z</time>
      </trkpt>
      <trkpt lat="46.48623" lon="4.38043">
        <ele>373.57501220703</ele>
        <time>2020-09-30T10:24:13Z</time>
      </trkpt>
      <trkpt lat="46.48624" lon="4.38053">
        <ele>375.57501220703</ele>
        <time>2020-09-30T10:24:20Z</time>
      </trkpt>
      <trkpt lat="46.48625" lon="4.38062">
        <ele>378.57501220703</ele>
        <time>2020-09-30T10:24:30Z</time>
      </trkpt>
      <trkpt lat="46.48627" lon="4.38072">
        <ele>376.57501220703</ele>
        <time>2020-09-30T10:24:38Z</time>
      </trkpt>
      <trkpt lat="46.48628" lon="4.38083">
        <ele>379.57501220703</ele>
        <time>2020-09-30T10:24:45Z</time>
      </trkpt>
      <trkpt lat="46.48629" lon="4.38094">
        <ele>375.57501220703</ele>
        <time>2020-09-30T10:24:50Z</time>
      </trkpt>
      <trkpt lat="46.48622" lon="4.38098">
        <ele>372.57501220703</ele>
        <time>2020-09-30T10:24:57Z</time>
      </trkpt>
      <trkpt lat="46.48618" lon="4.38107">
        <ele>374.57501220703</ele>
        <time>2020-09-30T10:25:02Z</time>
      </trkpt>
      <trkpt lat="46.4862" lon="4.38117">
        <ele>376.57501220703</ele>
        <time>2020-09-30T10:25:09Z</time>
      </trkpt>
      <trkpt lat="46.48623" lon="4.38129">
        <ele>377.57501220703</ele>
        <time>2020-09-30T10:25:14Z</time>
      </trkpt>
      <trkpt lat="46.48622" lon="4.38138">
        <ele>375.57501220703</ele>
        <time>2020-09-30T10:25:20Z</time>
      </trkpt>
      <trkpt lat="46.48617" lon="4.38146">
        <ele>374.57501220703</ele>
        <time>2020-09-30T10:25:26Z</time>
      </trkpt>
      <trkpt lat="46.48616" lon="4.38155">
        <ele>376.57501220703</ele>
        <time>2020-09-30T10:25:33Z</time>
      </trkpt>
      <trkpt lat="46.48609" lon="4.38159">
        <ele>375.57501220703</ele>
        <time>2020-09-30T10:25:39Z</time>
      </trkpt>
      <trkpt lat="46.48617" lon="4.38162">
        <ele>372.57501220703</ele>
        <time>2020-09-30T10:25:56Z</time>
      </trkpt>
      <trkpt lat="46.48623" lon="4.3817">
        <ele>371.57501220703</ele>
        <time>2020-09-30T10:26:01Z</time>
      </trkpt>
      <trkpt lat="46.48617" lon="4.38178">
        <ele>370.57501220703</ele>
        <time>2020-09-30T10:26:09Z</time>
      </trkpt>
      <trkpt lat="46.48616" lon="4.3819">
        <ele>368.57501220703</ele>
        <time>2020-09-30T10:26:16Z</time>
      </trkpt>
      <trkpt lat="46.48613" lon="4.38198">
        <ele>368.57501220703</ele>
        <time>2020-09-30T10:26:26Z</time>
      </trkpt>
      <trkpt lat="46.48608" lon="4.3821">
        <ele>368.57501220703</ele>
        <time>2020-09-30T10:26:31Z</time>
      </trkpt>
      <trkpt lat="46.4861" lon="4.3822">
        <ele>367.57501220703</ele>
        <time>2020-09-30T10:26:41Z</time>
      </trkpt>
      <trkpt lat="46.48617" lon="4.38226">
        <ele>367.57501220703</ele>
        <time>2020-09-30T10:26:46Z</time>
      </trkpt>
      <trkpt lat="46.48624" lon="4.38233">
        <ele>368.57501220703</ele>
        <time>2020-09-30T10:26:51Z</time>
      </trkpt>
      <trkpt lat="46.48631" lon="4.3824">
        <ele>369.57501220703</ele>
        <time>2020-09-30T10:26:57Z</time>
      </trkpt>
      <trkpt lat="46.48638" lon="4.38243">
        <ele>368.57501220703</ele>
        <time>2020-09-30T10:27:02Z</time>
      </trkpt>
      <trkpt lat="46.48644" lon="4.38247">
        <ele>368.57501220703</ele>
        <time>2020-09-30T10:27:10Z</time>
      </trkpt>
      <trkpt lat="46.48649" lon="4.38255">
        <ele>366.57501220703</ele>
        <time>2020-09-30T10:27:26Z</time>
      </trkpt>
      <trkpt lat="46.48657" lon="4.38267">
        <ele>370.57501220703</ele>
        <time>2020-09-30T10:27:31Z</time>
      </trkpt>
      <trkpt lat="46.48669" lon="4.38277">
        <ele>369.57501220703</ele>
        <time>2020-09-30T10:27:36Z</time>
      </trkpt>
      <trkpt lat="46.48679" lon="4.38287">
        <ele>370.57501220703</ele>
        <time>2020-09-30T10:27:41Z</time>
      </trkpt>
      <trkpt lat="46.48687" lon="4.38296">
        <ele>372.57501220703</ele>
        <time>2020-09-30T10:27:46Z</time>
      </trkpt>
      <trkpt lat="46.48694" lon="4.38302">
        <ele>373.57501220703</ele>
        <time>2020-09-30T10:27:51Z</time>
      </trkpt>
      <trkpt lat="46.48699" lon="4.38309">
        <ele>372.57501220703</ele>
        <time>2020-09-30T10:27:56Z</time>
      </trkpt>
      <trkpt lat="46.48705" lon="4.38318">
        <ele>373.57501220703</ele>
        <time>2020-09-30T10:28:01Z</time>
      </trkpt>
      <trkpt lat="46.48711" lon="4.38326">
        <ele>373.57501220703</ele>
        <time>2020-09-30T10:28:06Z</time>
      </trkpt>
      <trkpt lat="46.48716" lon="4.38333">
        <ele>372.57501220703</ele>
        <time>2020-09-30T10:28:11Z</time>
      </trkpt>
      <trkpt lat="46.48723" lon="4.38342">
        <ele>372.57501220703</ele>
        <time>2020-09-30T10:28:16Z</time>
      </trkpt>
      <trkpt lat="46.48729" lon="4.38349">
        <ele>370.57501220703</ele>
        <time>2020-09-30T10:28:23Z</time>
      </trkpt>
      <trkpt lat="46.48735" lon="4.38354">
        <ele>371.57501220703</ele>
        <time>2020-09-30T10:28:28Z</time>
      </trkpt>
      <trkpt lat="46.48743" lon="4.38355">
        <ele>370.57501220703</ele>
        <time>2020-09-30T10:28:35Z</time>
      </trkpt>
      <trkpt lat="46.4875" lon="4.38367">
        <ele>373.57501220703</ele>
        <time>2020-09-30T10:28:40Z</time>
      </trkpt>
      <trkpt lat="46.48756" lon="4.3837">
        <ele>371.57501220703</ele>
        <time>2020-09-30T10:28:47Z</time>
      </trkpt>
      <trkpt lat="46.48763" lon="4.38378">
        <ele>372.57501220703</ele>
        <time>2020-09-30T10:28:54Z</time>
      </trkpt>
      <trkpt lat="46.4877" lon="4.38384">
        <ele>373.57501220703</ele>
        <time>2020-09-30T10:28:59Z</time>
      </trkpt>
      <trkpt lat="46.48776" lon="4.3839">
        <ele>373.57501220703</ele>
        <time>2020-09-30T10:29:05Z</time>
      </trkpt>
      <trkpt lat="46.48783" lon="4.38392">
        <ele>374.57501220703</ele>
        <time>2020-09-30T10:29:10Z</time>
      </trkpt>
      <trkpt lat="46.48789" lon="4.38399">
        <ele>374.57501220703</ele>
        <time>2020-09-30T10:29:16Z</time>
      </trkpt>
      <trkpt lat="46.48797" lon="4.38405">
        <ele>377.57501220703</ele>
        <time>2020-09-30T10:29:21Z</time>
      </trkpt>
      <trkpt lat="46.48802" lon="4.38411">
        <ele>375.57501220703</ele>
        <time>2020-09-30T10:29:27Z</time>
      </trkpt>
      <trkpt lat="46.48808" lon="4.38414">
        <ele>374.57501220703</ele>
        <time>2020-09-30T10:29:32Z</time>
      </trkpt>
      <trkpt lat="46.48813" lon="4.38421">
        <ele>374.57501220703</ele>
        <time>2020-09-30T10:29:37Z</time>
      </trkpt>
      <trkpt lat="46.48819" lon="4.3843">
        <ele>374.57598876953</ele>
        <time>2020-09-30T10:29:42Z</time>
      </trkpt>
      <trkpt lat="46.48824" lon="4.38438">
        <ele>374.57598876953</ele>
        <time>2020-09-30T10:29:48Z</time>
      </trkpt>
      <trkpt lat="46.4883" lon="4.38443">
        <ele>374.57598876953</ele>
        <time>2020-09-30T10:29:54Z</time>
      </trkpt>
      <trkpt lat="46.48836" lon="4.38449">
        <ele>375.57598876953</ele>
        <time>2020-09-30T10:30:00Z</time>
      </trkpt>
      <trkpt lat="46.48843" lon="4.38453">
        <ele>377.57598876953</ele>
        <time>2020-09-30T10:30:09Z</time>
      </trkpt>
      <trkpt lat="46.48837" lon="4.38445">
        <ele>368.57598876953</ele>
        <time>2020-09-30T10:30:52Z</time>
      </trkpt>
      <trkpt lat="46.48843" lon="4.38451">
        <ele>371.57598876953</ele>
        <time>2020-09-30T10:31:31Z</time>
      </trkpt>
      <trkpt lat="46.48849" lon="4.38455">
        <ele>372.57598876953</ele>
        <time>2020-09-30T10:31:41Z</time>
      </trkpt>
      <trkpt lat="46.48846" lon="4.38464">
        <ele>375.57598876953</ele>
        <time>2020-09-30T10:31:51Z</time>
      </trkpt>
      <trkpt lat="46.48844" lon="4.38474">
        <ele>375.57598876953</ele>
        <time>2020-09-30T10:31:57Z</time>
      </trkpt>
      <trkpt lat="46.48848" lon="4.38482">
        <ele>374.57598876953</ele>
        <time>2020-09-30T10:32:03Z</time>
      </trkpt>
      <trkpt lat="46.48851" lon="4.38494">
        <ele>375.57598876953</ele>
        <time>2020-09-30T10:32:17Z</time>
      </trkpt>
      <trkpt lat="46.4885" lon="4.38505">
        <ele>375.57598876953</ele>
        <time>2020-09-30T10:32:25Z</time>
      </trkpt>
      <trkpt lat="46.48847" lon="4.38496">
        <ele>369.57598876953</ele>
        <time>2020-09-30T10:32:32Z</time>
      </trkpt>
      <trkpt lat="46.48839" lon="4.38502">
        <ele>373.57598876953</ele>
        <time>2020-09-30T10:32:39Z</time>
      </trkpt>
      <trkpt lat="46.48834" lon="4.38516">
        <ele>368.57598876953</ele>
        <time>2020-09-30T10:32:46Z</time>
      </trkpt>
      <trkpt lat="46.48828" lon="4.3852">
        <ele>376.57598876953</ele>
        <time>2020-09-30T10:32:53Z</time>
      </trkpt>
      <trkpt lat="46.4882" lon="4.38522">
        <ele>376.57598876953</ele>
        <time>2020-09-30T10:33:00Z</time>
      </trkpt>
      <trkpt lat="46.48812" lon="4.3852">
        <ele>375.57598876953</ele>
        <time>2020-09-30T10:33:05Z</time>
      </trkpt>
      <trkpt lat="46.48806" lon="4.38525">
        <ele>375.57598876953</ele>
        <time>2020-09-30T10:33:10Z</time>
      </trkpt>
      <trkpt lat="46.48799" lon="4.38528">
        <ele>376.57598876953</ele>
        <time>2020-09-30T10:33:15Z</time>
      </trkpt>
      <trkpt lat="46.48794" lon="4.38535">
        <ele>375.57598876953</ele>
        <time>2020-09-30T10:33:21Z</time>
      </trkpt>
      <trkpt lat="46.48785" lon="4.3854">
        <ele>376.57501220703</ele>
        <time>2020-09-30T10:33:26Z</time>
      </trkpt>
      <trkpt lat="46.48784" lon="4.38551">
        <ele>378.57598876953</ele>
        <time>2020-09-30T10:33:31Z</time>
      </trkpt>
      <trkpt lat="46.48779" lon="4.38559">
        <ele>379.57501220703</ele>
        <time>2020-09-30T10:33:37Z</time>
      </trkpt>
      <trkpt lat="46.48772" lon="4.38564">
        <ele>381.57501220703</ele>
        <time>2020-09-30T10:33:42Z</time>
      </trkpt>
      <trkpt lat="46.48767" lon="4.38572">
        <ele>382.57501220703</ele>
        <time>2020-09-30T10:33:47Z</time>
      </trkpt>
      <trkpt lat="46.48759" lon="4.38575">
        <ele>381.57501220703</ele>
        <time>2020-09-30T10:33:52Z</time>
      </trkpt>
      <trkpt lat="46.48754" lon="4.38583">
        <ele>381.57501220703</ele>
        <time>2020-09-30T10:34:00Z</time>
      </trkpt>
      <trkpt lat="46.4875" lon="4.38592">
        <ele>378.57501220703</ele>
        <time>2020-09-30T10:34:05Z</time>
      </trkpt>
      <trkpt lat="46.48743" lon="4.38598">
        <ele>380.57501220703</ele>
        <time>2020-09-30T10:34:12Z</time>
      </trkpt>
      <trkpt lat="46.48736" lon="4.38594">
        <ele>378.57501220703</ele>
        <time>2020-09-30T10:34:17Z</time>
      </trkpt>
      <trkpt lat="46.48732" lon="4.38602">
        <ele>373.57501220703</ele>
        <time>2020-09-30T10:34:22Z</time>
      </trkpt>
      <trkpt lat="46.48726" lon="4.38606">
        <ele>373.57501220703</ele>
        <time>2020-09-30T10:34:28Z</time>
      </trkpt>
      <trkpt lat="46.48718" lon="4.38605">
        <ele>376.57501220703</ele>
        <time>2020-09-30T10:34:33Z</time>
      </trkpt>
      <trkpt lat="46.48709" lon="4.38603">
        <ele>379.57501220703</ele>
        <time>2020-09-30T10:34:38Z</time>
      </trkpt>
      <trkpt lat="46.487" lon="4.38604">
        <ele>384.57501220703</ele>
        <time>2020-09-30T10:34:44Z</time>
      </trkpt>
      <trkpt lat="46.48693" lon="4.38603">
        <ele>387.57501220703</ele>
        <time>2020-09-30T10:34:49Z</time>
      </trkpt>
      <trkpt lat="46.48688" lon="4.38609">
        <ele>387.57501220703</ele>
        <time>2020-09-30T10:34:54Z</time>
      </trkpt>
      <trkpt lat="46.48681" lon="4.38613">
        <ele>384.57501220703</ele>
        <time>2020-09-30T10:35:03Z</time>
      </trkpt>
      <trkpt lat="46.48675" lon="4.38612">
        <ele>388.57501220703</ele>
        <time>2020-09-30T10:35:08Z</time>
      </trkpt>
      <trkpt lat="46.48665" lon="4.38608">
        <ele>390.57501220703</ele>
        <time>2020-09-30T10:35:13Z</time>
      </trkpt>
      <trkpt lat="46.48659" lon="4.38613">
        <ele>392.57501220703</ele>
        <time>2020-09-30T10:35:18Z</time>
      </trkpt>
      <trkpt lat="46.48652" lon="4.38617">
        <ele>392.57501220703</ele>
        <time>2020-09-30T10:35:23Z</time>
      </trkpt>
      <trkpt lat="46.48646" lon="4.38617">
        <ele>391.57501220703</ele>
        <time>2020-09-30T10:35:28Z</time>
      </trkpt>
      <trkpt lat="46.48642" lon="4.38626">
        <ele>390.57501220703</ele>
        <time>2020-09-30T10:35:34Z</time>
      </trkpt>
      <trkpt lat="46.48636" lon="4.38632">
        <ele>390.57501220703</ele>
        <time>2020-09-30T10:35:39Z</time>
      </trkpt>
      <trkpt lat="46.48632" lon="4.38641">
        <ele>388.57501220703</ele>
        <time>2020-09-30T10:35:46Z</time>
      </trkpt>
      <trkpt lat="46.48626" lon="4.38647">
        <ele>390.57501220703</ele>
        <time>2020-09-30T10:35:51Z</time>
      </trkpt>
      <trkpt lat="46.48621" lon="4.38655">
        <ele>391.57501220703</ele>
        <time>2020-09-30T10:35:58Z</time>
      </trkpt>
      <trkpt lat="46.48617" lon="4.38664">
        <ele>393.57501220703</ele>
        <time>2020-09-30T10:36:03Z</time>
      </trkpt>
      <trkpt lat="46.4861" lon="4.38669">
        <ele>392.57501220703</ele>
        <time>2020-09-30T10:36:09Z</time>
      </trkpt>
      <trkpt lat="46.48605" lon="4.38677">
        <ele>394.57501220703</ele>
        <time>2020-09-30T10:36:14Z</time>
      </trkpt>
      <trkpt lat="46.48598" lon="4.38681">
        <ele>394.57501220703</ele>
        <time>2020-09-30T10:36:19Z</time>
      </trkpt>
      <trkpt lat="46.48595" lon="4.3869">
        <ele>391.57501220703</ele>
        <time>2020-09-30T10:36:25Z</time>
      </trkpt>
      <trkpt lat="46.48592" lon="4.387">
        <ele>393.57501220703</ele>
        <time>2020-09-30T10:36:31Z</time>
      </trkpt>
      <trkpt lat="46.48586" lon="4.38706">
        <ele>392.57501220703</ele>
        <time>2020-09-30T10:36:38Z</time>
      </trkpt>
      <trkpt lat="46.48583" lon="4.38716">
        <ele>390.57501220703</ele>
        <time>2020-09-30T10:36:43Z</time>
      </trkpt>
      <trkpt lat="46.48576" lon="4.38723">
        <ele>392.57501220703</ele>
        <time>2020-09-30T10:36:49Z</time>
      </trkpt>
      <trkpt lat="46.48568" lon="4.38725">
        <ele>393.57501220703</ele>
        <time>2020-09-30T10:36:55Z</time>
      </trkpt>
      <trkpt lat="46.48564" lon="4.38734">
        <ele>387.57501220703</ele>
        <time>2020-09-30T10:37:02Z</time>
      </trkpt>
      <trkpt lat="46.48552" lon="4.38736">
        <ele>389.57501220703</ele>
        <time>2020-09-30T10:37:07Z</time>
      </trkpt>
      <trkpt lat="46.48545" lon="4.38739">
        <ele>390.57501220703</ele>
        <time>2020-09-30T10:37:13Z</time>
      </trkpt>
      <trkpt lat="46.48539" lon="4.38742">
        <ele>390.57501220703</ele>
        <time>2020-09-30T10:37:18Z</time>
      </trkpt>
      <trkpt lat="46.48532" lon="4.38746">
        <ele>390.57501220703</ele>
        <time>2020-09-30T10:37:23Z</time>
      </trkpt>
      <trkpt lat="46.48525" lon="4.3875">
        <ele>394.57501220703</ele>
        <time>2020-09-30T10:37:28Z</time>
      </trkpt>
      <trkpt lat="46.48521" lon="4.38758">
        <ele>391.57501220703</ele>
        <time>2020-09-30T10:37:35Z</time>
      </trkpt>
      <trkpt lat="46.4852" lon="4.38758">
        <ele>386.57501220703</ele>
        <time>2020-09-30T10:49:49Z</time>
      </trkpt>
      <trkpt lat="46.48517" lon="4.38768">
        <ele>388.57501220703</ele>
        <time>2020-09-30T10:50:15Z</time>
      </trkpt>
      <trkpt lat="46.48512" lon="4.38777">
        <ele>390.57501220703</ele>
        <time>2020-09-30T10:50:20Z</time>
      </trkpt>
      <trkpt lat="46.48504" lon="4.38783">
        <ele>391.57501220703</ele>
        <time>2020-09-30T10:50:25Z</time>
      </trkpt>
      <trkpt lat="46.48502" lon="4.38798">
        <ele>393.57501220703</ele>
        <time>2020-09-30T10:50:30Z</time>
      </trkpt>
      <trkpt lat="46.48497" lon="4.38805">
        <ele>394.57501220703</ele>
        <time>2020-09-30T10:50:35Z</time>
      </trkpt>
      <trkpt lat="46.48498" lon="4.3882">
        <ele>394.57501220703</ele>
        <time>2020-09-30T10:50:40Z</time>
      </trkpt>
      <trkpt lat="46.48496" lon="4.3883">
        <ele>393.57501220703</ele>
        <time>2020-09-30T10:50:47Z</time>
      </trkpt>
      <trkpt lat="46.48494" lon="4.38839">
        <ele>392.57501220703</ele>
        <time>2020-09-30T10:50:52Z</time>
      </trkpt>
      <trkpt lat="46.4849" lon="4.38849">
        <ele>393.57501220703</ele>
        <time>2020-09-30T10:50:57Z</time>
      </trkpt>
      <trkpt lat="46.48488" lon="4.38861">
        <ele>394.57501220703</ele>
        <time>2020-09-30T10:51:02Z</time>
      </trkpt>
      <trkpt lat="46.48484" lon="4.3887">
        <ele>393.57501220703</ele>
        <time>2020-09-30T10:51:09Z</time>
      </trkpt>
      <trkpt lat="46.48479" lon="4.38879">
        <ele>395.57501220703</ele>
        <time>2020-09-30T10:51:15Z</time>
      </trkpt>
      <trkpt lat="46.48478" lon="4.38889">
        <ele>390.57501220703</ele>
        <time>2020-09-30T10:51:20Z</time>
      </trkpt>
      <trkpt lat="46.48475" lon="4.389">
        <ele>390.57501220703</ele>
        <time>2020-09-30T10:51:26Z</time>
      </trkpt>
      <trkpt lat="46.48474" lon="4.38913">
        <ele>390.57501220703</ele>
        <time>2020-09-30T10:51:31Z</time>
      </trkpt>
      <trkpt lat="46.4847" lon="4.38925">
        <ele>393.57501220703</ele>
        <time>2020-09-30T10:51:36Z</time>
      </trkpt>
      <trkpt lat="46.48468" lon="4.38936">
        <ele>390.57501220703</ele>
        <time>2020-09-30T10:51:42Z</time>
      </trkpt>
      <trkpt lat="46.48466" lon="4.38949">
        <ele>389.57501220703</ele>
        <time>2020-09-30T10:51:47Z</time>
      </trkpt>
      <trkpt lat="46.48467" lon="4.38959">
        <ele>392.57501220703</ele>
        <time>2020-09-30T10:51:52Z</time>
      </trkpt>
      <trkpt lat="46.48465" lon="4.38969">
        <ele>389.57501220703</ele>
        <time>2020-09-30T10:52:01Z</time>
      </trkpt>
      <trkpt lat="46.48465" lon="4.38981">
        <ele>389.57501220703</ele>
        <time>2020-09-30T10:52:06Z</time>
      </trkpt>
      <trkpt lat="46.48462" lon="4.3899">
        <ele>391.57501220703</ele>
        <time>2020-09-30T10:52:16Z</time>
      </trkpt>
      <trkpt lat="46.4846" lon="4.39001">
        <ele>391.57501220703</ele>
        <time>2020-09-30T10:52:22Z</time>
      </trkpt>
      <trkpt lat="46.48457" lon="4.39015">
        <ele>391.57501220703</ele>
        <time>2020-09-30T10:52:27Z</time>
      </trkpt>
      <trkpt lat="46.48457" lon="4.39027">
        <ele>390.57501220703</ele>
        <time>2020-09-30T10:52:32Z</time>
      </trkpt>
      <trkpt lat="46.4846" lon="4.39039">
        <ele>386.57501220703</ele>
        <time>2020-09-30T10:52:37Z</time>
      </trkpt>
      <trkpt lat="46.4846" lon="4.39051">
        <ele>390.57501220703</ele>
        <time>2020-09-30T10:52:42Z</time>
      </trkpt>
      <trkpt lat="46.48455" lon="4.39062">
        <ele>392.57501220703</ele>
        <time>2020-09-30T10:52:47Z</time>
      </trkpt>
      <trkpt lat="46.48453" lon="4.39073">
        <ele>391.57501220703</ele>
        <time>2020-09-30T10:52:55Z</time>
      </trkpt>
      <trkpt lat="46.48452" lon="4.39083">
        <ele>391.57501220703</ele>
        <time>2020-09-30T10:53:00Z</time>
      </trkpt>
      <trkpt lat="46.48452" lon="4.39093">
        <ele>389.57501220703</ele>
        <time>2020-09-30T10:53:05Z</time>
      </trkpt>
      <trkpt lat="46.4845" lon="4.39104">
        <ele>388.57501220703</ele>
        <time>2020-09-30T10:53:10Z</time>
      </trkpt>
      <trkpt lat="46.48445" lon="4.39114">
        <ele>389.57501220703</ele>
        <time>2020-09-30T10:53:16Z</time>
      </trkpt>
      <trkpt lat="46.4844" lon="4.39123">
        <ele>390.57501220703</ele>
        <time>2020-09-30T10:53:21Z</time>
      </trkpt>
      <trkpt lat="46.48437" lon="4.39133">
        <ele>387.57501220703</ele>
        <time>2020-09-30T10:53:26Z</time>
      </trkpt>
      <trkpt lat="46.48434" lon="4.39144">
        <ele>388.57501220703</ele>
        <time>2020-09-30T10:53:32Z</time>
      </trkpt>
      <trkpt lat="46.48431" lon="4.39158">
        <ele>390.57501220703</ele>
        <time>2020-09-30T10:53:37Z</time>
      </trkpt>
      <trkpt lat="46.48427" lon="4.39171">
        <ele>394.57501220703</ele>
        <time>2020-09-30T10:53:42Z</time>
      </trkpt>
      <trkpt lat="46.48423" lon="4.39181">
        <ele>393.57501220703</ele>
        <time>2020-09-30T10:53:49Z</time>
      </trkpt>
      <trkpt lat="46.4842" lon="4.39195">
        <ele>393.57501220703</ele>
        <time>2020-09-30T10:53:54Z</time>
      </trkpt>
      <trkpt lat="46.48417" lon="4.39203">
        <ele>393.57501220703</ele>
        <time>2020-09-30T10:54:00Z</time>
      </trkpt>
      <trkpt lat="46.48413" lon="4.39212">
        <ele>396.57501220703</ele>
        <time>2020-09-30T10:54:05Z</time>
      </trkpt>
      <trkpt lat="46.48407" lon="4.39219">
        <ele>397.57501220703</ele>
        <time>2020-09-30T10:54:10Z</time>
      </trkpt>
      <trkpt lat="46.48403" lon="4.39226">
        <ele>398.57501220703</ele>
        <time>2020-09-30T10:54:15Z</time>
      </trkpt>
      <trkpt lat="46.48398" lon="4.39237">
        <ele>400.57501220703</ele>
        <time>2020-09-30T10:54:21Z</time>
      </trkpt>
      <trkpt lat="46.48394" lon="4.39246">
        <ele>402.57501220703</ele>
        <time>2020-09-30T10:54:26Z</time>
      </trkpt>
      <trkpt lat="46.48392" lon="4.39255">
        <ele>400.57501220703</ele>
        <time>2020-09-30T10:54:34Z</time>
      </trkpt>
      <trkpt lat="46.4839" lon="4.39264">
        <ele>394.57501220703</ele>
        <time>2020-09-30T10:54:39Z</time>
      </trkpt>
      <trkpt lat="46.48387" lon="4.39274">
        <ele>394.57501220703</ele>
        <time>2020-09-30T10:54:45Z</time>
      </trkpt>
      <trkpt lat="46.48387" lon="4.39284">
        <ele>393.57501220703</ele>
        <time>2020-09-30T10:54:50Z</time>
      </trkpt>
      <trkpt lat="46.48388" lon="4.39296">
        <ele>389.57501220703</ele>
        <time>2020-09-30T10:54:56Z</time>
      </trkpt>
      <trkpt lat="46.48387" lon="4.39307">
        <ele>389.57501220703</ele>
        <time>2020-09-30T10:55:02Z</time>
      </trkpt>
      <trkpt lat="46.48381" lon="4.39309">
        <ele>397.57501220703</ele>
        <time>2020-09-30T10:55:33Z</time>
      </trkpt>
      <trkpt lat="46.48377" lon="4.39317">
        <ele>395.57501220703</ele>
        <time>2020-09-30T10:55:39Z</time>
      </trkpt>
      <trkpt lat="46.48371" lon="4.39325">
        <ele>396.57501220703</ele>
        <time>2020-09-30T10:55:45Z</time>
      </trkpt>
      <trkpt lat="46.48368" lon="4.39334">
        <ele>393.57501220703</ele>
        <time>2020-09-30T10:55:50Z</time>
      </trkpt>
      <trkpt lat="46.48362" lon="4.3934">
        <ele>393.57501220703</ele>
        <time>2020-09-30T10:55:57Z</time>
      </trkpt>
      <trkpt lat="46.48358" lon="4.39349">
        <ele>392.57501220703</ele>
        <time>2020-09-30T10:56:03Z</time>
      </trkpt>
      <trkpt lat="46.48364" lon="4.39354">
        <ele>392.57501220703</ele>
        <time>2020-09-30T10:56:13Z</time>
      </trkpt>
      <trkpt lat="46.48372" lon="4.39353">
        <ele>387.57501220703</ele>
        <time>2020-09-30T10:56:20Z</time>
      </trkpt>
      <trkpt lat="46.48377" lon="4.39359">
        <ele>386.57501220703</ele>
        <time>2020-09-30T10:56:25Z</time>
      </trkpt>
      <trkpt lat="46.48381" lon="4.39369">
        <ele>385.57501220703</ele>
        <time>2020-09-30T10:56:30Z</time>
      </trkpt>
      <trkpt lat="46.48381" lon="4.39378">
        <ele>389.57501220703</ele>
        <time>2020-09-30T10:56:36Z</time>
      </trkpt>
      <trkpt lat="46.48377" lon="4.39387">
        <ele>389.57501220703</ele>
        <time>2020-09-30T10:56:42Z</time>
      </trkpt>
      <trkpt lat="46.48377" lon="4.39398">
        <ele>389.57501220703</ele>
        <time>2020-09-30T10:56:48Z</time>
      </trkpt>
      <trkpt lat="46.48374" lon="4.39408">
        <ele>388.57501220703</ele>
        <time>2020-09-30T10:56:56Z</time>
      </trkpt>
      <trkpt lat="46.48371" lon="4.3942">
        <ele>388.57501220703</ele>
        <time>2020-09-30T10:57:01Z</time>
      </trkpt>
      <trkpt lat="46.48369" lon="4.39434">
        <ele>389.57501220703</ele>
        <time>2020-09-30T10:57:06Z</time>
      </trkpt>
      <trkpt lat="46.48366" lon="4.39446">
        <ele>390.57501220703</ele>
        <time>2020-09-30T10:57:11Z</time>
      </trkpt>
      <trkpt lat="46.48365" lon="4.39462">
        <ele>393.57501220703</ele>
        <time>2020-09-30T10:57:16Z</time>
      </trkpt>
      <trkpt lat="46.48362" lon="4.39471">
        <ele>395.57501220703</ele>
        <time>2020-09-30T10:57:22Z</time>
      </trkpt>
      <trkpt lat="46.48358" lon="4.39482">
        <ele>396.57501220703</ele>
        <time>2020-09-30T10:57:28Z</time>
      </trkpt>
      <trkpt lat="46.48356" lon="4.39497">
        <ele>396.57501220703</ele>
        <time>2020-09-30T10:57:33Z</time>
      </trkpt>
      <trkpt lat="46.48358" lon="4.39506">
        <ele>396.57501220703</ele>
        <time>2020-09-30T10:57:38Z</time>
      </trkpt>
      <trkpt lat="46.48356" lon="4.39516">
        <ele>396.57501220703</ele>
        <time>2020-09-30T10:57:51Z</time>
      </trkpt>
      <trkpt lat="46.48363" lon="4.39529">
        <ele>396.57501220703</ele>
        <time>2020-09-30T10:57:56Z</time>
      </trkpt>
      <trkpt lat="46.48364" lon="4.39539">
        <ele>397.57501220703</ele>
        <time>2020-09-30T10:58:03Z</time>
      </trkpt>
      <trkpt lat="46.48357" lon="4.39542">
        <ele>404.57501220703</ele>
        <time>2020-09-30T10:58:26Z</time>
      </trkpt>
      <trkpt lat="46.48356" lon="4.39552">
        <ele>400.57501220703</ele>
        <time>2020-09-30T10:58:42Z</time>
      </trkpt>
      <trkpt lat="46.48356" lon="4.39561">
        <ele>396.57501220703</ele>
        <time>2020-09-30T10:58:48Z</time>
      </trkpt>
      <trkpt lat="46.48345" lon="4.39571">
        <ele>397.57501220703</ele>
        <time>2020-09-30T10:58:53Z</time>
      </trkpt>
      <trkpt lat="46.48351" lon="4.39584">
        <ele>400.57501220703</ele>
        <time>2020-09-30T10:58:58Z</time>
      </trkpt>
      <trkpt lat="46.48356" lon="4.39596">
        <ele>400.57501220703</ele>
        <time>2020-09-30T10:59:03Z</time>
      </trkpt>
      <trkpt lat="46.48359" lon="4.39606">
        <ele>397.57501220703</ele>
        <time>2020-09-30T10:59:08Z</time>
      </trkpt>
      <trkpt lat="46.4836" lon="4.39615">
        <ele>396.57501220703</ele>
        <time>2020-09-30T10:59:15Z</time>
      </trkpt>
      <trkpt lat="46.48362" lon="4.39625">
        <ele>395.57501220703</ele>
        <time>2020-09-30T10:59:20Z</time>
      </trkpt>
      <trkpt lat="46.48366" lon="4.39634">
        <ele>392.57501220703</ele>
        <time>2020-09-30T10:59:25Z</time>
      </trkpt>
      <trkpt lat="46.48368" lon="4.39645">
        <ele>392.57501220703</ele>
        <time>2020-09-30T10:59:30Z</time>
      </trkpt>
      <trkpt lat="46.4837" lon="4.39656">
        <ele>392.57501220703</ele>
        <time>2020-09-30T10:59:35Z</time>
      </trkpt>
      <trkpt lat="46.48375" lon="4.39669">
        <ele>392.57501220703</ele>
        <time>2020-09-30T10:59:40Z</time>
      </trkpt>
      <trkpt lat="46.48379" lon="4.39677">
        <ele>390.57501220703</ele>
        <time>2020-09-30T10:59:45Z</time>
      </trkpt>
      <trkpt lat="46.48379" lon="4.39686">
        <ele>388.57501220703</ele>
        <time>2020-09-30T10:59:50Z</time>
      </trkpt>
      <trkpt lat="46.48382" lon="4.39697">
        <ele>388.57501220703</ele>
        <time>2020-09-30T10:59:55Z</time>
      </trkpt>
      <trkpt lat="46.48384" lon="4.39708">
        <ele>387.57501220703</ele>
        <time>2020-09-30T11:00:01Z</time>
      </trkpt>
      <trkpt lat="46.48386" lon="4.39717">
        <ele>386.57501220703</ele>
        <time>2020-09-30T11:00:07Z</time>
      </trkpt>
      <trkpt lat="46.4839" lon="4.39726">
        <ele>386.57501220703</ele>
        <time>2020-09-30T11:00:12Z</time>
      </trkpt>
      <trkpt lat="46.4839" lon="4.39736">
        <ele>389.57501220703</ele>
        <time>2020-09-30T11:00:17Z</time>
      </trkpt>
      <trkpt lat="46.48394" lon="4.39744">
        <ele>387.57501220703</ele>
        <time>2020-09-30T11:00:22Z</time>
      </trkpt>
      <trkpt lat="46.48395" lon="4.39761">
        <ele>388.57501220703</ele>
        <time>2020-09-30T11:00:27Z</time>
      </trkpt>
      <trkpt lat="46.48397" lon="4.39773">
        <ele>387.57501220703</ele>
        <time>2020-09-30T11:00:32Z</time>
      </trkpt>
      <trkpt lat="46.48395" lon="4.39785">
        <ele>385.57501220703</ele>
        <time>2020-09-30T11:00:44Z</time>
      </trkpt>
      <trkpt lat="46.48394" lon="4.39796">
        <ele>387.57501220703</ele>
        <time>2020-09-30T11:00:49Z</time>
      </trkpt>
      <trkpt lat="46.48394" lon="4.39808">
        <ele>388.57501220703</ele>
        <time>2020-09-30T11:00:54Z</time>
      </trkpt>
      <trkpt lat="46.48393" lon="4.39819">
        <ele>389.57501220703</ele>
        <time>2020-09-30T11:01:03Z</time>
      </trkpt>
      <trkpt lat="46.48391" lon="4.39831">
        <ele>389.57501220703</ele>
        <time>2020-09-30T11:01:08Z</time>
      </trkpt>
      <trkpt lat="46.48387" lon="4.39842">
        <ele>388.57501220703</ele>
        <time>2020-09-30T11:01:13Z</time>
      </trkpt>
      <trkpt lat="46.48384" lon="4.39854">
        <ele>388.57501220703</ele>
        <time>2020-09-30T11:01:18Z</time>
      </trkpt>
      <trkpt lat="46.48381" lon="4.39865">
        <ele>388.57501220703</ele>
        <time>2020-09-30T11:01:24Z</time>
      </trkpt>
      <trkpt lat="46.48377" lon="4.39877">
        <ele>386.57501220703</ele>
        <time>2020-09-30T11:01:29Z</time>
      </trkpt>
      <trkpt lat="46.48376" lon="4.39888">
        <ele>390.57501220703</ele>
        <time>2020-09-30T11:01:37Z</time>
      </trkpt>
      <trkpt lat="46.48375" lon="4.39903">
        <ele>389.57501220703</ele>
        <time>2020-09-30T11:01:42Z</time>
      </trkpt>
      <trkpt lat="46.48373" lon="4.39913">
        <ele>388.57501220703</ele>
        <time>2020-09-30T11:01:47Z</time>
      </trkpt>
      <trkpt lat="46.48372" lon="4.39927">
        <ele>390.57501220703</ele>
        <time>2020-09-30T11:01:52Z</time>
      </trkpt>
      <trkpt lat="46.4837" lon="4.3994">
        <ele>391.57501220703</ele>
        <time>2020-09-30T11:01:57Z</time>
      </trkpt>
      <trkpt lat="46.48366" lon="4.39951">
        <ele>389.57501220703</ele>
        <time>2020-09-30T11:02:02Z</time>
      </trkpt>
      <trkpt lat="46.48364" lon="4.39961">
        <ele>387.57501220703</ele>
        <time>2020-09-30T11:02:12Z</time>
      </trkpt>
      <trkpt lat="46.48359" lon="4.3997">
        <ele>388.57501220703</ele>
        <time>2020-09-30T11:02:18Z</time>
      </trkpt>
      <trkpt lat="46.48355" lon="4.3998">
        <ele>388.57501220703</ele>
        <time>2020-09-30T11:02:23Z</time>
      </trkpt>
      <trkpt lat="46.4835" lon="4.39987">
        <ele>386.57501220703</ele>
        <time>2020-09-30T11:02:28Z</time>
      </trkpt>
      <trkpt lat="46.48345" lon="4.39997">
        <ele>384.57501220703</ele>
        <time>2020-09-30T11:02:34Z</time>
      </trkpt>
      <trkpt lat="46.48338" lon="4.40006">
        <ele>383.57501220703</ele>
        <time>2020-09-30T11:02:39Z</time>
      </trkpt>
      <trkpt lat="46.48334" lon="4.40014">
        <ele>389.57501220703</ele>
        <time>2020-09-30T11:02:44Z</time>
      </trkpt>
      <trkpt lat="46.48329" lon="4.40021">
        <ele>388.57501220703</ele>
        <time>2020-09-30T11:02:50Z</time>
      </trkpt>
      <trkpt lat="46.48327" lon="4.40032">
        <ele>389.57501220703</ele>
        <time>2020-09-30T11:02:55Z</time>
      </trkpt>
      <trkpt lat="46.48329" lon="4.40047">
        <ele>386.57501220703</ele>
        <time>2020-09-30T11:03:00Z</time>
      </trkpt>
      <trkpt lat="46.48329" lon="4.40057">
        <ele>387.57501220703</ele>
        <time>2020-09-30T11:03:05Z</time>
      </trkpt>
      <trkpt lat="46.48332" lon="4.40065">
        <ele>388.57501220703</ele>
        <time>2020-09-30T11:03:10Z</time>
      </trkpt>
      <trkpt lat="46.48336" lon="4.40075">
        <ele>384.57501220703</ele>
        <time>2020-09-30T11:03:15Z</time>
      </trkpt>
      <trkpt lat="46.48339" lon="4.40085">
        <ele>381.57501220703</ele>
        <time>2020-09-30T11:03:20Z</time>
      </trkpt>
      <trkpt lat="46.48339" lon="4.40095">
        <ele>380.57501220703</ele>
        <time>2020-09-30T11:03:25Z</time>
      </trkpt>
      <trkpt lat="46.48335" lon="4.40106">
        <ele>380.57501220703</ele>
        <time>2020-09-30T11:03:35Z</time>
      </trkpt>
      <trkpt lat="46.48333" lon="4.40115">
        <ele>382.57501220703</ele>
        <time>2020-09-30T11:03:40Z</time>
      </trkpt>
      <trkpt lat="46.48336" lon="4.40124">
        <ele>378.57501220703</ele>
        <time>2020-09-30T11:04:10Z</time>
      </trkpt>
      <trkpt lat="46.48342" lon="4.40135">
        <ele>381.57501220703</ele>
        <time>2020-09-30T11:04:15Z</time>
      </trkpt>
      <trkpt lat="46.48348" lon="4.40142">
        <ele>381.57501220703</ele>
        <time>2020-09-30T11:04:21Z</time>
      </trkpt>
      <trkpt lat="46.48356" lon="4.40146">
        <ele>383.57598876953</ele>
        <time>2020-09-30T11:04:26Z</time>
      </trkpt>
      <trkpt lat="46.48361" lon="4.40154">
        <ele>383.57598876953</ele>
        <time>2020-09-30T11:04:35Z</time>
      </trkpt>
      <trkpt lat="46.48366" lon="4.40161">
        <ele>385.57598876953</ele>
        <time>2020-09-30T11:04:40Z</time>
      </trkpt>
      <trkpt lat="46.48366" lon="4.40172">
        <ele>378.57598876953</ele>
        <time>2020-09-30T11:04:45Z</time>
      </trkpt>
      <trkpt lat="46.48369" lon="4.4018">
        <ele>377.57598876953</ele>
        <time>2020-09-30T11:04:51Z</time>
      </trkpt>
      <trkpt lat="46.48376" lon="4.40186">
        <ele>377.57598876953</ele>
        <time>2020-09-30T11:04:56Z</time>
      </trkpt>
      <trkpt lat="46.48381" lon="4.40193">
        <ele>376.57598876953</ele>
        <time>2020-09-30T11:05:01Z</time>
      </trkpt>
      <trkpt lat="46.48385" lon="4.40203">
        <ele>373.57598876953</ele>
        <time>2020-09-30T11:05:11Z</time>
      </trkpt>
      <trkpt lat="46.48388" lon="4.40212">
        <ele>373.57598876953</ele>
        <time>2020-09-30T11:05:19Z</time>
      </trkpt>
      <trkpt lat="46.48391" lon="4.40223">
        <ele>373.57598876953</ele>
        <time>2020-09-30T11:05:25Z</time>
      </trkpt>
      <trkpt lat="46.48397" lon="4.40219">
        <ele>374.57598876953</ele>
        <time>2020-09-30T11:05:32Z</time>
      </trkpt>
      <trkpt lat="46.4839" lon="4.40216">
        <ele>374.57598876953</ele>
        <time>2020-09-30T11:05:37Z</time>
      </trkpt>
      <trkpt lat="46.48397" lon="4.40215">
        <ele>372.57598876953</ele>
        <time>2020-09-30T11:05:42Z</time>
      </trkpt>
      <trkpt lat="46.48407" lon="4.40218">
        <ele>371.57598876953</ele>
        <time>2020-09-30T11:05:47Z</time>
      </trkpt>
      <trkpt lat="46.48412" lon="4.40227">
        <ele>374.57598876953</ele>
        <time>2020-09-30T11:05:54Z</time>
      </trkpt>
      <trkpt lat="46.48418" lon="4.40224">
        <ele>377.57598876953</ele>
        <time>2020-09-30T11:05:59Z</time>
      </trkpt>
      <trkpt lat="46.48425" lon="4.4023">
        <ele>375.57598876953</ele>
        <time>2020-09-30T11:06:04Z</time>
      </trkpt>
      <trkpt lat="46.48421" lon="4.40222">
        <ele>377.57598876953</ele>
        <time>2020-09-30T11:06:09Z</time>
      </trkpt>
      <trkpt lat="46.48426" lon="4.40228">
        <ele>382.57598876953</ele>
        <time>2020-09-30T11:06:23Z</time>
      </trkpt>
      <trkpt lat="46.48431" lon="4.40234">
        <ele>373.57598876953</ele>
        <time>2020-09-30T11:06:28Z</time>
      </trkpt>
      <trkpt lat="46.48434" lon="4.40244">
        <ele>374.57598876953</ele>
        <time>2020-09-30T11:06:35Z</time>
      </trkpt>
      <trkpt lat="46.48439" lon="4.40251">
        <ele>375.57598876953</ele>
        <time>2020-09-30T11:06:41Z</time>
      </trkpt>
      <trkpt lat="46.48444" lon="4.40257">
        <ele>373.57598876953</ele>
        <time>2020-09-30T11:06:47Z</time>
      </trkpt>
      <trkpt lat="46.48451" lon="4.40263">
        <ele>372.57598876953</ele>
        <time>2020-09-30T11:06:56Z</time>
      </trkpt>
      <trkpt lat="46.48458" lon="4.40261">
        <ele>368.57598876953</ele>
        <time>2020-09-30T11:07:04Z</time>
      </trkpt>
      <trkpt lat="46.48466" lon="4.40265">
        <ele>368.57598876953</ele>
        <time>2020-09-30T11:07:09Z</time>
      </trkpt>
      <trkpt lat="46.48471" lon="4.40272">
        <ele>367.57598876953</ele>
        <time>2020-09-30T11:07:15Z</time>
      </trkpt>
      <trkpt lat="46.48479" lon="4.40276">
        <ele>366.57598876953</ele>
        <time>2020-09-30T11:07:23Z</time>
      </trkpt>
      <trkpt lat="46.48487" lon="4.40283">
        <ele>367.57598876953</ele>
        <time>2020-09-30T11:07:28Z</time>
      </trkpt>
      <trkpt lat="46.48493" lon="4.40288">
        <ele>365.57598876953</ele>
        <time>2020-09-30T11:07:33Z</time>
      </trkpt>
      <trkpt lat="46.48497" lon="4.40297">
        <ele>364.57598876953</ele>
        <time>2020-09-30T11:07:41Z</time>
      </trkpt>
      <trkpt lat="46.48504" lon="4.40301">
        <ele>362.57598876953</ele>
        <time>2020-09-30T11:07:48Z</time>
      </trkpt>
      <trkpt lat="46.4851" lon="4.40305">
        <ele>362.57598876953</ele>
        <time>2020-09-30T11:07:53Z</time>
      </trkpt>
      <trkpt lat="46.48516" lon="4.4031">
        <ele>362.57598876953</ele>
        <time>2020-09-30T11:08:00Z</time>
      </trkpt>
      <trkpt lat="46.48522" lon="4.40316">
        <ele>363.57598876953</ele>
        <time>2020-09-30T11:08:06Z</time>
      </trkpt>
      <trkpt lat="46.48527" lon="4.40324">
        <ele>364.57598876953</ele>
        <time>2020-09-30T11:08:11Z</time>
      </trkpt>
      <trkpt lat="46.48533" lon="4.40331">
        <ele>366.57598876953</ele>
        <time>2020-09-30T11:08:16Z</time>
      </trkpt>
      <trkpt lat="46.48539" lon="4.40334">
        <ele>367.57598876953</ele>
        <time>2020-09-30T11:08:23Z</time>
      </trkpt>
      <trkpt lat="46.48545" lon="4.40341">
        <ele>368.57598876953</ele>
        <time>2020-09-30T11:08:28Z</time>
      </trkpt>
      <trkpt lat="46.48551" lon="4.40345">
        <ele>370.57598876953</ele>
        <time>2020-09-30T11:08:34Z</time>
      </trkpt>
      <trkpt lat="46.48558" lon="4.40351">
        <ele>370.57598876953</ele>
        <time>2020-09-30T11:08:39Z</time>
      </trkpt>
      <trkpt lat="46.48563" lon="4.40358">
        <ele>370.57598876953</ele>
        <time>2020-09-30T11:08:45Z</time>
      </trkpt>
      <trkpt lat="46.48571" lon="4.4036">
        <ele>370.57598876953</ele>
        <time>2020-09-30T11:08:50Z</time>
      </trkpt>
      <trkpt lat="46.48578" lon="4.40364">
        <ele>367.57598876953</ele>
        <time>2020-09-30T11:08:59Z</time>
      </trkpt>
      <trkpt lat="46.48582" lon="4.40374">
        <ele>369.57598876953</ele>
        <time>2020-09-30T11:09:05Z</time>
      </trkpt>
      <trkpt lat="46.48588" lon="4.40375">
        <ele>370.57598876953</ele>
        <time>2020-09-30T11:09:13Z</time>
      </trkpt>
      <trkpt lat="46.48596" lon="4.40382">
        <ele>372.57598876953</ele>
        <time>2020-09-30T11:09:18Z</time>
      </trkpt>
      <trkpt lat="46.48603" lon="4.40386">
        <ele>374.57598876953</ele>
        <time>2020-09-30T11:09:23Z</time>
      </trkpt>
      <trkpt lat="46.48607" lon="4.40395">
        <ele>373.57598876953</ele>
        <time>2020-09-30T11:09:29Z</time>
      </trkpt>
      <trkpt lat="46.48614" lon="4.40403">
        <ele>375.57598876953</ele>
        <time>2020-09-30T11:09:34Z</time>
      </trkpt>
      <trkpt lat="46.48621" lon="4.40409">
        <ele>375.57598876953</ele>
        <time>2020-09-30T11:09:40Z</time>
      </trkpt>
      <trkpt lat="46.48627" lon="4.40412">
        <ele>374.57598876953</ele>
        <time>2020-09-30T11:09:46Z</time>
      </trkpt>
      <trkpt lat="46.48634" lon="4.40416">
        <ele>375.57598876953</ele>
        <time>2020-09-30T11:09:52Z</time>
      </trkpt>
      <trkpt lat="46.48641" lon="4.40419">
        <ele>374.57699584961</ele>
        <time>2020-09-30T11:09:58Z</time>
      </trkpt>
      <trkpt lat="46.48647" lon="4.40427">
        <ele>375.57699584961</ele>
        <time>2020-09-30T11:10:03Z</time>
      </trkpt>
      <trkpt lat="46.48652" lon="4.40432">
        <ele>377.57699584961</ele>
        <time>2020-09-30T11:10:08Z</time>
      </trkpt>
      <trkpt lat="46.48658" lon="4.40437">
        <ele>377.57699584961</ele>
        <time>2020-09-30T11:10:14Z</time>
      </trkpt>
      <trkpt lat="46.48663" lon="4.40443">
        <ele>375.57699584961</ele>
        <time>2020-09-30T11:10:19Z</time>
      </trkpt>
      <trkpt lat="46.48666" lon="4.40453">
        <ele>375.57699584961</ele>
        <time>2020-09-30T11:10:25Z</time>
      </trkpt>
      <trkpt lat="46.4867" lon="4.40463">
        <ele>377.57699584961</ele>
        <time>2020-09-30T11:10:30Z</time>
      </trkpt>
      <trkpt lat="46.48675" lon="4.40469">
        <ele>377.57699584961</ele>
        <time>2020-09-30T11:10:36Z</time>
      </trkpt>
      <trkpt lat="46.48679" lon="4.40479">
        <ele>378.57699584961</ele>
        <time>2020-09-30T11:10:42Z</time>
      </trkpt>
      <trkpt lat="46.48681" lon="4.40489">
        <ele>380.57699584961</ele>
        <time>2020-09-30T11:10:48Z</time>
      </trkpt>
      <trkpt lat="46.48687" lon="4.40492">
        <ele>378.57699584961</ele>
        <time>2020-09-30T11:10:54Z</time>
      </trkpt>
      <trkpt lat="46.48691" lon="4.405">
        <ele>380.57699584961</ele>
        <time>2020-09-30T11:10:59Z</time>
      </trkpt>
      <trkpt lat="46.48695" lon="4.40508">
        <ele>381.57699584961</ele>
        <time>2020-09-30T11:11:05Z</time>
      </trkpt>
      <trkpt lat="46.487" lon="4.40517">
        <ele>380.57699584961</ele>
        <time>2020-09-30T11:11:10Z</time>
      </trkpt>
      <trkpt lat="46.48707" lon="4.40523">
        <ele>377.57699584961</ele>
        <time>2020-09-30T11:11:15Z</time>
      </trkpt>
      <trkpt lat="46.48713" lon="4.40529">
        <ele>376.57699584961</ele>
        <time>2020-09-30T11:11:23Z</time>
      </trkpt>
      <trkpt lat="46.4872" lon="4.40533">
        <ele>374.57699584961</ele>
        <time>2020-09-30T11:11:29Z</time>
      </trkpt>
      <trkpt lat="46.48726" lon="4.40538">
        <ele>376.57699584961</ele>
        <time>2020-09-30T11:11:35Z</time>
      </trkpt>
      <trkpt lat="46.48731" lon="4.40546">
        <ele>379.57699584961</ele>
        <time>2020-09-30T11:11:40Z</time>
      </trkpt>
      <trkpt lat="46.48738" lon="4.40548">
        <ele>378.57699584961</ele>
        <time>2020-09-30T11:11:47Z</time>
      </trkpt>
      <trkpt lat="46.48744" lon="4.40554">
        <ele>377.57699584961</ele>
        <time>2020-09-30T11:11:52Z</time>
      </trkpt>
      <trkpt lat="46.48749" lon="4.40561">
        <ele>380.57699584961</ele>
        <time>2020-09-30T11:12:00Z</time>
      </trkpt>
      <trkpt lat="46.48755" lon="4.40567">
        <ele>381.57699584961</ele>
        <time>2020-09-30T11:12:07Z</time>
      </trkpt>
      <trkpt lat="46.48759" lon="4.40574">
        <ele>382.57699584961</ele>
        <time>2020-09-30T11:12:13Z</time>
      </trkpt>
      <trkpt lat="46.48765" lon="4.4058">
        <ele>384.57699584961</ele>
        <time>2020-09-30T11:12:18Z</time>
      </trkpt>
      <trkpt lat="46.48769" lon="4.40588">
        <ele>387.57699584961</ele>
        <time>2020-09-30T11:12:23Z</time>
      </trkpt>
      <trkpt lat="46.48771" lon="4.40597">
        <ele>388.57699584961</ele>
        <time>2020-09-30T11:12:28Z</time>
      </trkpt>
      <trkpt lat="46.48777" lon="4.40604">
        <ele>385.57699584961</ele>
        <time>2020-09-30T11:12:34Z</time>
      </trkpt>
      <trkpt lat="46.48784" lon="4.40605">
        <ele>385.57699584961</ele>
        <time>2020-09-30T11:12:41Z</time>
      </trkpt>
      <trkpt lat="46.4879" lon="4.4061">
        <ele>383.57699584961</ele>
        <time>2020-09-30T11:12:48Z</time>
      </trkpt>
      <trkpt lat="46.48794" lon="4.4062">
        <ele>383.57699584961</ele>
        <time>2020-09-30T11:12:54Z</time>
      </trkpt>
      <trkpt lat="46.488" lon="4.40624">
        <ele>381.57699584961</ele>
        <time>2020-09-30T11:13:00Z</time>
      </trkpt>
      <trkpt lat="46.48806" lon="4.40631">
        <ele>381.57699584961</ele>
        <time>2020-09-30T11:13:05Z</time>
      </trkpt>
      <trkpt lat="46.48812" lon="4.40637">
        <ele>384.57699584961</ele>
        <time>2020-09-30T11:13:10Z</time>
      </trkpt>
      <trkpt lat="46.48818" lon="4.40643">
        <ele>385.57699584961</ele>
        <time>2020-09-30T11:13:16Z</time>
      </trkpt>
      <trkpt lat="46.48825" lon="4.40645">
        <ele>388.57699584961</ele>
        <time>2020-09-30T11:13:21Z</time>
      </trkpt>
      <trkpt lat="46.48833" lon="4.40647">
        <ele>387.57699584961</ele>
        <time>2020-09-30T11:13:28Z</time>
      </trkpt>
      <trkpt lat="46.48839" lon="4.4065">
        <ele>385.57699584961</ele>
        <time>2020-09-30T11:13:36Z</time>
      </trkpt>
      <trkpt lat="46.48849" lon="4.40654">
        <ele>388.57699584961</ele>
        <time>2020-09-30T11:13:44Z</time>
      </trkpt>
      <trkpt lat="46.48855" lon="4.40662">
        <ele>390.57699584961</ele>
        <time>2020-09-30T11:13:49Z</time>
      </trkpt>
      <trkpt lat="46.48861" lon="4.40669">
        <ele>388.57699584961</ele>
        <time>2020-09-30T11:14:46Z</time>
      </trkpt>
      <trkpt lat="46.48866" lon="4.40676">
        <ele>391.57699584961</ele>
        <time>2020-09-30T11:14:51Z</time>
      </trkpt>
      <trkpt lat="46.48872" lon="4.40682">
        <ele>393.57699584961</ele>
        <time>2020-09-30T11:14:57Z</time>
      </trkpt>
      <trkpt lat="46.4888" lon="4.40683">
        <ele>394.57699584961</ele>
        <time>2020-09-30T11:15:02Z</time>
      </trkpt>
      <trkpt lat="46.48887" lon="4.40687">
        <ele>396.57699584961</ele>
        <time>2020-09-30T11:15:08Z</time>
      </trkpt>
      <trkpt lat="46.4889" lon="4.40695">
        <ele>396.57699584961</ele>
        <time>2020-09-30T11:15:18Z</time>
      </trkpt>
      <trkpt lat="46.48895" lon="4.40702">
        <ele>394.57699584961</ele>
        <time>2020-09-30T11:15:23Z</time>
      </trkpt>
      <trkpt lat="46.489" lon="4.40711">
        <ele>397.57699584961</ele>
        <time>2020-09-30T11:15:28Z</time>
      </trkpt>
      <trkpt lat="46.48906" lon="4.40717">
        <ele>394.57699584961</ele>
        <time>2020-09-30T11:15:33Z</time>
      </trkpt>
      <trkpt lat="46.48908" lon="4.40726">
        <ele>391.57699584961</ele>
        <time>2020-09-30T11:15:38Z</time>
      </trkpt>
      <trkpt lat="46.48911" lon="4.40736">
        <ele>390.57800292969</ele>
        <time>2020-09-30T11:15:43Z</time>
      </trkpt>
      <trkpt lat="46.48915" lon="4.40725">
        <ele>392.57800292969</ele>
        <time>2020-09-30T11:15:51Z</time>
      </trkpt>
      <trkpt lat="46.4892" lon="4.40731">
        <ele>392.57800292969</ele>
        <time>2020-09-30T11:16:00Z</time>
      </trkpt>
      <trkpt lat="46.48925" lon="4.40741">
        <ele>391.57800292969</ele>
        <time>2020-09-30T11:16:06Z</time>
      </trkpt>
      <trkpt lat="46.48931" lon="4.40746">
        <ele>389.57800292969</ele>
        <time>2020-09-30T11:16:12Z</time>
      </trkpt>
      <trkpt lat="46.48936" lon="4.40752">
        <ele>391.57800292969</ele>
        <time>2020-09-30T11:16:18Z</time>
      </trkpt>
      <trkpt lat="46.48943" lon="4.40756">
        <ele>391.57800292969</ele>
        <time>2020-09-30T11:16:23Z</time>
      </trkpt>
      <trkpt lat="46.4895" lon="4.4076">
        <ele>388.57800292969</ele>
        <time>2020-09-30T11:16:29Z</time>
      </trkpt>
      <trkpt lat="46.48958" lon="4.40761">
        <ele>387.57800292969</ele>
        <time>2020-09-30T11:16:37Z</time>
      </trkpt>
      <trkpt lat="46.48967" lon="4.40759">
        <ele>387.57800292969</ele>
        <time>2020-09-30T11:16:42Z</time>
      </trkpt>
      <trkpt lat="46.48975" lon="4.40761">
        <ele>386.57800292969</ele>
        <time>2020-09-30T11:16:47Z</time>
      </trkpt>
      <trkpt lat="46.48983" lon="4.40764">
        <ele>386.57800292969</ele>
        <time>2020-09-30T11:16:55Z</time>
      </trkpt>
      <trkpt lat="46.48991" lon="4.40773">
        <ele>386.57800292969</ele>
        <time>2020-09-30T11:17:00Z</time>
      </trkpt>
      <trkpt lat="46.48999" lon="4.40777">
        <ele>383.57800292969</ele>
        <time>2020-09-30T11:17:08Z</time>
      </trkpt>
      <trkpt lat="46.49007" lon="4.40787">
        <ele>386.57800292969</ele>
        <time>2020-09-30T11:17:13Z</time>
      </trkpt>
      <trkpt lat="46.49011" lon="4.40797">
        <ele>386.57800292969</ele>
        <time>2020-09-30T11:17:22Z</time>
      </trkpt>
      <trkpt lat="46.49017" lon="4.40808">
        <ele>391.57800292969</ele>
        <time>2020-09-30T11:17:27Z</time>
      </trkpt>
      <trkpt lat="46.49021" lon="4.40817">
        <ele>387.57800292969</ele>
        <time>2020-09-30T11:17:34Z</time>
      </trkpt>
      <trkpt lat="46.49027" lon="4.4083">
        <ele>388.57800292969</ele>
        <time>2020-09-30T11:17:39Z</time>
      </trkpt>
      <trkpt lat="46.4903" lon="4.40839">
        <ele>388.57800292969</ele>
        <time>2020-09-30T11:17:45Z</time>
      </trkpt>
      <trkpt lat="46.49034" lon="4.40847">
        <ele>385.57800292969</ele>
        <time>2020-09-30T11:17:52Z</time>
      </trkpt>
      <trkpt lat="46.4904" lon="4.40862">
        <ele>387.57800292969</ele>
        <time>2020-09-30T11:17:57Z</time>
      </trkpt>
      <trkpt lat="46.49045" lon="4.40871">
        <ele>386.57800292969</ele>
        <time>2020-09-30T11:18:06Z</time>
      </trkpt>
      <trkpt lat="46.49051" lon="4.40886">
        <ele>385.57800292969</ele>
        <time>2020-09-30T11:18:11Z</time>
      </trkpt>
      <trkpt lat="46.49058" lon="4.4089">
        <ele>380.57800292969</ele>
        <time>2020-09-30T11:18:21Z</time>
      </trkpt>
      <trkpt lat="46.49063" lon="4.40904">
        <ele>385.57800292969</ele>
        <time>2020-09-30T11:18:26Z</time>
      </trkpt>
      <trkpt lat="46.49067" lon="4.40912">
        <ele>382.57800292969</ele>
        <time>2020-09-30T11:18:31Z</time>
      </trkpt>
      <trkpt lat="46.49068" lon="4.40923">
        <ele>379.57800292969</ele>
        <time>2020-09-30T11:18:39Z</time>
      </trkpt>
      <trkpt lat="46.49076" lon="4.40928">
        <ele>387.57800292969</ele>
        <time>2020-09-30T11:18:44Z</time>
      </trkpt>
      <trkpt lat="46.49082" lon="4.40937">
        <ele>388.57800292969</ele>
        <time>2020-09-30T11:18:49Z</time>
      </trkpt>
      <trkpt lat="46.49088" lon="4.40947">
        <ele>386.57800292969</ele>
        <time>2020-09-30T11:18:54Z</time>
      </trkpt>
      <trkpt lat="46.49092" lon="4.40954">
        <ele>387.57800292969</ele>
        <time>2020-09-30T11:18:59Z</time>
      </trkpt>
      <trkpt lat="46.49096" lon="4.40962">
        <ele>384.57800292969</ele>
        <time>2020-09-30T11:19:07Z</time>
      </trkpt>
      <trkpt lat="46.49102" lon="4.40969">
        <ele>390.57800292969</ele>
        <time>2020-09-30T11:19:12Z</time>
      </trkpt>
      <trkpt lat="46.49108" lon="4.40975">
        <ele>391.57800292969</ele>
        <time>2020-09-30T11:19:18Z</time>
      </trkpt>
      <trkpt lat="46.49114" lon="4.40982">
        <ele>389.57800292969</ele>
        <time>2020-09-30T11:19:23Z</time>
      </trkpt>
      <trkpt lat="46.49117" lon="4.40991">
        <ele>390.57800292969</ele>
        <time>2020-09-30T11:19:48Z</time>
      </trkpt>
      <trkpt lat="46.4912" lon="4.41001">
        <ele>389.57800292969</ele>
        <time>2020-09-30T11:19:55Z</time>
      </trkpt>
      <trkpt lat="46.49123" lon="4.41008">
        <ele>390.57800292969</ele>
        <time>2020-09-30T11:20:00Z</time>
      </trkpt>
      <trkpt lat="46.49129" lon="4.41017">
        <ele>390.57800292969</ele>
        <time>2020-09-30T11:20:06Z</time>
      </trkpt>
      <trkpt lat="46.49129" lon="4.41029">
        <ele>391.57800292969</ele>
        <time>2020-09-30T11:20:15Z</time>
      </trkpt>
      <trkpt lat="46.4913" lon="4.41038">
        <ele>391.57800292969</ele>
        <time>2020-09-30T11:20:21Z</time>
      </trkpt>
      <trkpt lat="46.49133" lon="4.41049">
        <ele>391.57800292969</ele>
        <time>2020-09-30T11:20:28Z</time>
      </trkpt>
      <trkpt lat="46.49136" lon="4.4106">
        <ele>390.57800292969</ele>
        <time>2020-09-30T11:20:33Z</time>
      </trkpt>
      <trkpt lat="46.49137" lon="4.4107">
        <ele>390.57800292969</ele>
        <time>2020-09-30T11:20:38Z</time>
      </trkpt>
      <trkpt lat="46.49139" lon="4.41079">
        <ele>390.57800292969</ele>
        <time>2020-09-30T11:20:43Z</time>
      </trkpt>
      <trkpt lat="46.49142" lon="4.41088">
        <ele>391.57800292969</ele>
        <time>2020-09-30T11:20:48Z</time>
      </trkpt>
      <trkpt lat="46.49144" lon="4.411">
        <ele>393.57800292969</ele>
        <time>2020-09-30T11:20:53Z</time>
      </trkpt>
      <trkpt lat="46.49145" lon="4.41113">
        <ele>394.57800292969</ele>
        <time>2020-09-30T11:20:58Z</time>
      </trkpt>
      <trkpt lat="46.4915" lon="4.4112">
        <ele>392.57800292969</ele>
        <time>2020-09-30T11:21:04Z</time>
      </trkpt>
      <trkpt lat="46.49155" lon="4.41128">
        <ele>391.57800292969</ele>
        <time>2020-09-30T11:21:10Z</time>
      </trkpt>
      <trkpt lat="46.49158" lon="4.41137">
        <ele>390.57901000977</ele>
        <time>2020-09-30T11:21:16Z</time>
      </trkpt>
      <trkpt lat="46.49164" lon="4.41139">
        <ele>390.57901000977</ele>
        <time>2020-09-30T11:21:21Z</time>
      </trkpt>
      <trkpt lat="46.49168" lon="4.41152">
        <ele>392.57901000977</ele>
        <time>2020-09-30T11:21:26Z</time>
      </trkpt>
      <trkpt lat="46.49174" lon="4.41156">
        <ele>389.57901000977</ele>
        <time>2020-09-30T11:21:33Z</time>
      </trkpt>
      <trkpt lat="46.49176" lon="4.41168">
        <ele>393.57901000977</ele>
        <time>2020-09-30T11:21:38Z</time>
      </trkpt>
      <trkpt lat="46.4918" lon="4.41176">
        <ele>391.57901000977</ele>
        <time>2020-09-30T11:21:44Z</time>
      </trkpt>
      <trkpt lat="46.49184" lon="4.41183">
        <ele>390.57901000977</ele>
        <time>2020-09-30T11:21:49Z</time>
      </trkpt>
      <trkpt lat="46.49188" lon="4.41194">
        <ele>391.57901000977</ele>
        <time>2020-09-30T11:21:54Z</time>
      </trkpt>
      <trkpt lat="46.49193" lon="4.41201">
        <ele>390.57901000977</ele>
        <time>2020-09-30T11:21:59Z</time>
      </trkpt>
      <trkpt lat="46.49196" lon="4.41216">
        <ele>392.57901000977</ele>
        <time>2020-09-30T11:22:04Z</time>
      </trkpt>
      <trkpt lat="46.492" lon="4.41225">
        <ele>392.57901000977</ele>
        <time>2020-09-30T11:22:10Z</time>
      </trkpt>
      <trkpt lat="46.49201" lon="4.41235">
        <ele>394.57901000977</ele>
        <time>2020-09-30T11:22:15Z</time>
      </trkpt>
      <trkpt lat="46.49204" lon="4.41245">
        <ele>391.57901000977</ele>
        <time>2020-09-30T11:22:21Z</time>
      </trkpt>
      <trkpt lat="46.49208" lon="4.41255">
        <ele>391.57901000977</ele>
        <time>2020-09-30T11:22:26Z</time>
      </trkpt>
      <trkpt lat="46.49212" lon="4.41263">
        <ele>391.57901000977</ele>
        <time>2020-09-30T11:22:31Z</time>
      </trkpt>
      <trkpt lat="46.49217" lon="4.41273">
        <ele>390.57901000977</ele>
        <time>2020-09-30T11:22:36Z</time>
      </trkpt>
      <trkpt lat="46.49222" lon="4.4128">
        <ele>390.57901000977</ele>
        <time>2020-09-30T11:22:41Z</time>
      </trkpt>
      <trkpt lat="46.49229" lon="4.41284">
        <ele>389.57901000977</ele>
        <time>2020-09-30T11:22:48Z</time>
      </trkpt>
      <trkpt lat="46.49232" lon="4.41294">
        <ele>388.57901000977</ele>
        <time>2020-09-30T11:22:54Z</time>
      </trkpt>
      <trkpt lat="46.49234" lon="4.41303">
        <ele>388.57901000977</ele>
        <time>2020-09-30T11:22:59Z</time>
      </trkpt>
      <trkpt lat="46.49237" lon="4.41314">
        <ele>389.57901000977</ele>
        <time>2020-09-30T11:23:04Z</time>
      </trkpt>
      <trkpt lat="46.4924" lon="4.41324">
        <ele>389.57901000977</ele>
        <time>2020-09-30T11:23:09Z</time>
      </trkpt>
      <trkpt lat="46.49242" lon="4.41336">
        <ele>390.57901000977</ele>
        <time>2020-09-30T11:23:14Z</time>
      </trkpt>
      <trkpt lat="46.49248" lon="4.41344">
        <ele>390.57901000977</ele>
        <time>2020-09-30T11:23:20Z</time>
      </trkpt>
      <trkpt lat="46.49252" lon="4.41352">
        <ele>389.57901000977</ele>
        <time>2020-09-30T11:23:25Z</time>
      </trkpt>
      <trkpt lat="46.49256" lon="4.41361">
        <ele>390.57901000977</ele>
        <time>2020-09-30T11:23:31Z</time>
      </trkpt>
      <trkpt lat="46.49259" lon="4.41372">
        <ele>390.57901000977</ele>
        <time>2020-09-30T11:23:36Z</time>
      </trkpt>
      <trkpt lat="46.49262" lon="4.41381">
        <ele>392.57901000977</ele>
        <time>2020-09-30T11:23:42Z</time>
      </trkpt>
      <trkpt lat="46.49267" lon="4.41392">
        <ele>393.57901000977</ele>
        <time>2020-09-30T11:23:47Z</time>
      </trkpt>
      <trkpt lat="46.49268" lon="4.41401">
        <ele>395.57901000977</ele>
        <time>2020-09-30T11:23:52Z</time>
      </trkpt>
      <trkpt lat="46.49271" lon="4.41411">
        <ele>395.57901000977</ele>
        <time>2020-09-30T11:23:57Z</time>
      </trkpt>
      <trkpt lat="46.49276" lon="4.41419">
        <ele>395.57901000977</ele>
        <time>2020-09-30T11:24:04Z</time>
      </trkpt>
      <trkpt lat="46.49277" lon="4.41429">
        <ele>397.57901000977</ele>
        <time>2020-09-30T11:24:10Z</time>
      </trkpt>
      <trkpt lat="46.49283" lon="4.41434">
        <ele>396.57901000977</ele>
        <time>2020-09-30T11:24:15Z</time>
      </trkpt>
      <trkpt lat="46.49288" lon="4.41441">
        <ele>398.57901000977</ele>
        <time>2020-09-30T11:24:23Z</time>
      </trkpt>
      <trkpt lat="46.49292" lon="4.4145">
        <ele>398.57901000977</ele>
        <time>2020-09-30T11:24:28Z</time>
      </trkpt>
      <trkpt lat="46.49296" lon="4.41459">
        <ele>400.57901000977</ele>
        <time>2020-09-30T11:24:35Z</time>
      </trkpt>
      <trkpt lat="46.493" lon="4.41468">
        <ele>400.57901000977</ele>
        <time>2020-09-30T11:24:40Z</time>
      </trkpt>
      <trkpt lat="46.49303" lon="4.41479">
        <ele>402.57901000977</ele>
        <time>2020-09-30T11:24:46Z</time>
      </trkpt>
      <trkpt lat="46.49307" lon="4.41486">
        <ele>402.57901000977</ele>
        <time>2020-09-30T11:24:52Z</time>
      </trkpt>
      <trkpt lat="46.49311" lon="4.41496">
        <ele>401.57901000977</ele>
        <time>2020-09-30T11:24:57Z</time>
      </trkpt>
      <trkpt lat="46.49315" lon="4.41503">
        <ele>399.57901000977</ele>
        <time>2020-09-30T11:25:02Z</time>
      </trkpt>
      <trkpt lat="46.4932" lon="4.41511">
        <ele>401.57901000977</ele>
        <time>2020-09-30T11:25:09Z</time>
      </trkpt>
      <trkpt lat="46.49323" lon="4.41523">
        <ele>402.57901000977</ele>
        <time>2020-09-30T11:25:15Z</time>
      </trkpt>
      <trkpt lat="46.4933" lon="4.41522">
        <ele>406.57901000977</ele>
        <time>2020-09-30T11:26:04Z</time>
      </trkpt>
      <trkpt lat="46.49336" lon="4.41517">
        <ele>404.57901000977</ele>
        <time>2020-09-30T11:26:09Z</time>
      </trkpt>
      <trkpt lat="46.49342" lon="4.41511">
        <ele>403.57901000977</ele>
        <time>2020-09-30T11:26:16Z</time>
      </trkpt>
      <trkpt lat="46.49349" lon="4.41502">
        <ele>405.57901000977</ele>
        <time>2020-09-30T11:26:21Z</time>
      </trkpt>
      <trkpt lat="46.49355" lon="4.41495">
        <ele>406.57901000977</ele>
        <time>2020-09-30T11:26:27Z</time>
      </trkpt>
      <trkpt lat="46.49361" lon="4.41487">
        <ele>406.57901000977</ele>
        <time>2020-09-30T11:26:32Z</time>
      </trkpt>
      <trkpt lat="46.49361" lon="4.41476">
        <ele>404.57901000977</ele>
        <time>2020-09-30T11:26:39Z</time>
      </trkpt>
      <trkpt lat="46.49367" lon="4.41469">
        <ele>404.57901000977</ele>
        <time>2020-09-30T11:26:45Z</time>
      </trkpt>
      <trkpt lat="46.49371" lon="4.41459">
        <ele>401.57901000977</ele>
        <time>2020-09-30T11:26:51Z</time>
      </trkpt>
      <trkpt lat="46.49375" lon="4.4145">
        <ele>403.57901000977</ele>
        <time>2020-09-30T11:26:56Z</time>
      </trkpt>
      <trkpt lat="46.49381" lon="4.41444">
        <ele>401.57901000977</ele>
        <time>2020-09-30T11:27:02Z</time>
      </trkpt>
      <trkpt lat="46.49386" lon="4.41438">
        <ele>400.57901000977</ele>
        <time>2020-09-30T11:27:07Z</time>
      </trkpt>
      <trkpt lat="46.49394" lon="4.41429">
        <ele>400.57901000977</ele>
        <time>2020-09-30T11:27:12Z</time>
      </trkpt>
      <trkpt lat="46.49397" lon="4.41419">
        <ele>399.57901000977</ele>
        <time>2020-09-30T11:27:20Z</time>
      </trkpt>
      <trkpt lat="46.49395" lon="4.41409">
        <ele>397.57901000977</ele>
        <time>2020-09-30T11:27:26Z</time>
      </trkpt>
      <trkpt lat="46.49394" lon="4.41398">
        <ele>396.57901000977</ele>
        <time>2020-09-30T11:27:31Z</time>
      </trkpt>
      <trkpt lat="46.49401" lon="4.4139">
        <ele>401.57901000977</ele>
        <time>2020-09-30T11:27:36Z</time>
      </trkpt>
      <trkpt lat="46.49406" lon="4.41381">
        <ele>399.57901000977</ele>
        <time>2020-09-30T11:27:41Z</time>
      </trkpt>
      <trkpt lat="46.4941" lon="4.41373">
        <ele>398.57901000977</ele>
        <time>2020-09-30T11:27:48Z</time>
      </trkpt>
      <trkpt lat="46.49414" lon="4.41362">
        <ele>398.57901000977</ele>
        <time>2020-09-30T11:27:53Z</time>
      </trkpt>
      <trkpt lat="46.49418" lon="4.41351">
        <ele>400.57901000977</ele>
        <time>2020-09-30T11:27:58Z</time>
      </trkpt>
      <trkpt lat="46.49418" lon="4.41341">
        <ele>403.57901000977</ele>
        <time>2020-09-30T11:28:03Z</time>
      </trkpt>
      <trkpt lat="46.49419" lon="4.41331">
        <ele>407.57901000977</ele>
        <time>2020-09-30T11:28:08Z</time>
      </trkpt>
      <trkpt lat="46.49423" lon="4.41319">
        <ele>409.57901000977</ele>
        <time>2020-09-30T11:28:13Z</time>
      </trkpt>
      <trkpt lat="46.49428" lon="4.41308">
        <ele>409.57901000977</ele>
        <time>2020-09-30T11:28:18Z</time>
      </trkpt>
      <trkpt lat="46.49432" lon="4.413">
        <ele>410.57901000977</ele>
        <time>2020-09-30T11:28:23Z</time>
      </trkpt>
      <trkpt lat="46.4943" lon="4.4129">
        <ele>407.57901000977</ele>
        <time>2020-09-30T11:28:28Z</time>
      </trkpt>
      <trkpt lat="46.49427" lon="4.41282">
        <ele>406.57901000977</ele>
        <time>2020-09-30T11:28:33Z</time>
      </trkpt>
      <trkpt lat="46.4943" lon="4.41273">
        <ele>407.57901000977</ele>
        <time>2020-09-30T11:28:38Z</time>
      </trkpt>
      <trkpt lat="46.49433" lon="4.4126">
        <ele>406.57901000977</ele>
        <time>2020-09-30T11:28:43Z</time>
      </trkpt>
      <trkpt lat="46.49435" lon="4.41249">
        <ele>401.57901000977</ele>
        <time>2020-09-30T11:28:51Z</time>
      </trkpt>
      <trkpt lat="46.49437" lon="4.41237">
        <ele>402.57901000977</ele>
        <time>2020-09-30T11:28:56Z</time>
      </trkpt>
      <trkpt lat="46.49439" lon="4.41227">
        <ele>400.57901000977</ele>
        <time>2020-09-30T11:29:01Z</time>
      </trkpt>
      <trkpt lat="46.49444" lon="4.4122">
        <ele>406.57901000977</ele>
        <time>2020-09-30T11:29:06Z</time>
      </trkpt>
      <trkpt lat="46.49452" lon="4.41227">
        <ele>407.57901000977</ele>
        <time>2020-09-30T11:29:12Z</time>
      </trkpt>
      <trkpt lat="46.49458" lon="4.41234">
        <ele>406.57901000977</ele>
        <time>2020-09-30T11:29:59Z</time>
      </trkpt>
      <trkpt lat="46.49464" lon="4.41241">
        <ele>404.57901000977</ele>
        <time>2020-09-30T11:30:06Z</time>
      </trkpt>
      <trkpt lat="46.4947" lon="4.41246">
        <ele>410.57901000977</ele>
        <time>2020-09-30T11:30:13Z</time>
      </trkpt>
      <trkpt lat="46.49479" lon="4.41247">
        <ele>411.57901000977</ele>
        <time>2020-09-30T11:30:18Z</time>
      </trkpt>
      <trkpt lat="46.49485" lon="4.41252">
        <ele>407.57998657227</ele>
        <time>2020-09-30T11:30:23Z</time>
      </trkpt>
      <trkpt lat="46.49489" lon="4.41262">
        <ele>407.57998657227</ele>
        <time>2020-09-30T11:30:30Z</time>
      </trkpt>
      <trkpt lat="46.49492" lon="4.41271">
        <ele>409.57998657227</ele>
        <time>2020-09-30T11:30:35Z</time>
      </trkpt>
      <trkpt lat="46.49493" lon="4.41281">
        <ele>409.57998657227</ele>
        <time>2020-09-30T11:30:40Z</time>
      </trkpt>
      <trkpt lat="46.49499" lon="4.41285">
        <ele>409.57998657227</ele>
        <time>2020-09-30T11:30:45Z</time>
      </trkpt>
      <trkpt lat="46.49502" lon="4.41296">
        <ele>404.57998657227</ele>
        <time>2020-09-30T11:30:52Z</time>
      </trkpt>
      <trkpt lat="46.49506" lon="4.41307">
        <ele>406.57998657227</ele>
        <time>2020-09-30T11:30:58Z</time>
      </trkpt>
      <trkpt lat="46.49513" lon="4.41316">
        <ele>407.57998657227</ele>
        <time>2020-09-30T11:31:03Z</time>
      </trkpt>
      <trkpt lat="46.49517" lon="4.41323">
        <ele>407.57998657227</ele>
        <time>2020-09-30T11:31:09Z</time>
      </trkpt>
      <trkpt lat="46.49521" lon="4.41331">
        <ele>408.57998657227</ele>
        <time>2020-09-30T11:31:14Z</time>
      </trkpt>
      <trkpt lat="46.49526" lon="4.4134">
        <ele>406.57998657227</ele>
        <time>2020-09-30T11:31:19Z</time>
      </trkpt>
      <trkpt lat="46.49529" lon="4.4135">
        <ele>408.57998657227</ele>
        <time>2020-09-30T11:31:24Z</time>
      </trkpt>
      <trkpt lat="46.49533" lon="4.41359">
        <ele>410.57998657227</ele>
        <time>2020-09-30T11:31:29Z</time>
      </trkpt>
      <trkpt lat="46.49536" lon="4.41368">
        <ele>410.57998657227</ele>
        <time>2020-09-30T11:31:34Z</time>
      </trkpt>
      <trkpt lat="46.49539" lon="4.41377">
        <ele>409.57998657227</ele>
        <time>2020-09-30T11:31:40Z</time>
      </trkpt>
      <trkpt lat="46.49543" lon="4.41385">
        <ele>409.57998657227</ele>
        <time>2020-09-30T11:31:46Z</time>
      </trkpt>
      <trkpt lat="46.49547" lon="4.41393">
        <ele>409.57998657227</ele>
        <time>2020-09-30T11:31:51Z</time>
      </trkpt>
      <trkpt lat="46.49551" lon="4.41402">
        <ele>410.57998657227</ele>
        <time>2020-09-30T11:31:57Z</time>
      </trkpt>
      <trkpt lat="46.49555" lon="4.41411">
        <ele>409.57998657227</ele>
        <time>2020-09-30T11:32:03Z</time>
      </trkpt>
      <trkpt lat="46.49558" lon="4.4142">
        <ele>410.57998657227</ele>
        <time>2020-09-30T11:32:08Z</time>
      </trkpt>
      <trkpt lat="46.49561" lon="4.4143">
        <ele>410.57998657227</ele>
        <time>2020-09-30T11:32:14Z</time>
      </trkpt>
      <trkpt lat="46.49563" lon="4.4144">
        <ele>410.57998657227</ele>
        <time>2020-09-30T11:32:20Z</time>
      </trkpt>
      <trkpt lat="46.49566" lon="4.41449">
        <ele>410.57998657227</ele>
        <time>2020-09-30T11:32:25Z</time>
      </trkpt>
      <trkpt lat="46.4957" lon="4.41458">
        <ele>413.57998657227</ele>
        <time>2020-09-30T11:32:31Z</time>
      </trkpt>
      <trkpt lat="46.49573" lon="4.41467">
        <ele>415.57998657227</ele>
        <time>2020-09-30T11:32:37Z</time>
      </trkpt>
      <trkpt lat="46.49576" lon="4.41476">
        <ele>413.57998657227</ele>
        <time>2020-09-30T11:32:44Z</time>
      </trkpt>
      <trkpt lat="46.4958" lon="4.41486">
        <ele>413.57998657227</ele>
        <time>2020-09-30T11:32:49Z</time>
      </trkpt>
      <trkpt lat="46.49582" lon="4.41496">
        <ele>413.57998657227</ele>
        <time>2020-09-30T11:32:55Z</time>
      </trkpt>
      <trkpt lat="46.49585" lon="4.41505">
        <ele>414.57998657227</ele>
        <time>2020-09-30T11:33:00Z</time>
      </trkpt>
      <trkpt lat="46.4959" lon="4.41514">
        <ele>415.57998657227</ele>
        <time>2020-09-30T11:33:06Z</time>
      </trkpt>
      <trkpt lat="46.49594" lon="4.41524">
        <ele>418.57998657227</ele>
        <time>2020-09-30T11:33:12Z</time>
      </trkpt>
      <trkpt lat="46.49599" lon="4.41534">
        <ele>418.57998657227</ele>
        <time>2020-09-30T11:33:19Z</time>
      </trkpt>
      <trkpt lat="46.49604" lon="4.41542">
        <ele>422.57998657227</ele>
        <time>2020-09-30T11:33:24Z</time>
      </trkpt>
      <trkpt lat="46.49609" lon="4.4155">
        <ele>420.57998657227</ele>
        <time>2020-09-30T11:33:32Z</time>
      </trkpt>
      <trkpt lat="46.49614" lon="4.41558">
        <ele>423.57998657227</ele>
        <time>2020-09-30T11:33:38Z</time>
      </trkpt>
      <trkpt lat="46.4962" lon="4.41563">
        <ele>422.57998657227</ele>
        <time>2020-09-30T11:33:44Z</time>
      </trkpt>
      <trkpt lat="46.49625" lon="4.41569">
        <ele>420.57998657227</ele>
        <time>2020-09-30T11:33:50Z</time>
      </trkpt>
      <trkpt lat="46.49631" lon="4.41577">
        <ele>421.57998657227</ele>
        <time>2020-09-30T11:33:55Z</time>
      </trkpt>
      <trkpt lat="46.49634" lon="4.41585">
        <ele>421.57998657227</ele>
        <time>2020-09-30T11:34:00Z</time>
      </trkpt>
      <trkpt lat="46.4964" lon="4.41592">
        <ele>421.57998657227</ele>
        <time>2020-09-30T11:34:05Z</time>
      </trkpt>
      <trkpt lat="46.49646" lon="4.41598">
        <ele>420.57998657227</ele>
        <time>2020-09-30T11:34:12Z</time>
      </trkpt>
      <trkpt lat="46.49652" lon="4.41605">
        <ele>421.57998657227</ele>
        <time>2020-09-30T11:34:21Z</time>
      </trkpt>
      <trkpt lat="46.49658" lon="4.4161">
        <ele>421.57998657227</ele>
        <time>2020-09-30T11:34:27Z</time>
      </trkpt>
      <trkpt lat="46.49664" lon="4.41616">
        <ele>421.57998657227</ele>
        <time>2020-09-30T11:34:32Z</time>
      </trkpt>
      <trkpt lat="46.49669" lon="4.41623">
        <ele>422.57998657227</ele>
        <time>2020-09-30T11:34:37Z</time>
      </trkpt>
      <trkpt lat="46.49673" lon="4.41633">
        <ele>423.57998657227</ele>
        <time>2020-09-30T11:34:42Z</time>
      </trkpt>
      <trkpt lat="46.49679" lon="4.41639">
        <ele>424.57998657227</ele>
        <time>2020-09-30T11:34:47Z</time>
      </trkpt>
      <trkpt lat="46.49684" lon="4.41646">
        <ele>423.57998657227</ele>
        <time>2020-09-30T11:34:53Z</time>
      </trkpt>
      <trkpt lat="46.49689" lon="4.41653">
        <ele>424.57998657227</ele>
        <time>2020-09-30T11:34:59Z</time>
      </trkpt>
      <trkpt lat="46.49694" lon="4.41661">
        <ele>425.57998657227</ele>
        <time>2020-09-30T11:35:04Z</time>
      </trkpt>
      <trkpt lat="46.49698" lon="4.41669">
        <ele>428.57998657227</ele>
        <time>2020-09-30T11:35:09Z</time>
      </trkpt>
      <trkpt lat="46.49702" lon="4.41678">
        <ele>428.57998657227</ele>
        <time>2020-09-30T11:35:50Z</time>
      </trkpt>
      <trkpt lat="46.49708" lon="4.41679">
        <ele>433.57998657227</ele>
        <time>2020-09-30T11:36:04Z</time>
      </trkpt>
      <trkpt lat="46.49714" lon="4.41673">
        <ele>435.57998657227</ele>
        <time>2020-09-30T11:36:12Z</time>
      </trkpt>
      <trkpt lat="46.49714" lon="4.41683">
        <ele>435.57998657227</ele>
        <time>2020-09-30T11:36:21Z</time>
      </trkpt>
      <trkpt lat="46.49715" lon="4.41673">
        <ele>441.57998657227</ele>
        <time>2020-09-30T11:36:32Z</time>
      </trkpt>
      <trkpt lat="46.49722" lon="4.41673">
        <ele>443.57998657227</ele>
        <time>2020-09-30T11:36:41Z</time>
      </trkpt>
      <trkpt lat="46.49727" lon="4.41666">
        <ele>444.57998657227</ele>
        <time>2020-09-30T11:36:47Z</time>
      </trkpt>
      <trkpt lat="46.49733" lon="4.41659">
        <ele>444.58099365234</ele>
        <time>2020-09-30T11:36:53Z</time>
      </trkpt>
      <trkpt lat="46.4974" lon="4.41654">
        <ele>437.58099365234</ele>
        <time>2020-09-30T11:37:02Z</time>
      </trkpt>
      <trkpt lat="46.49745" lon="4.4165">
        <ele>435.58099365234</ele>
        <time>2020-09-30T11:37:08Z</time>
      </trkpt>
      <trkpt lat="46.4975" lon="4.41642">
        <ele>434.58099365234</ele>
        <time>2020-09-30T11:37:14Z</time>
      </trkpt>
      <trkpt lat="46.49756" lon="4.41636">
        <ele>434.58099365234</ele>
        <time>2020-09-30T11:37:20Z</time>
      </trkpt>
      <trkpt lat="46.49763" lon="4.41631">
        <ele>436.58099365234</ele>
        <time>2020-09-30T11:37:25Z</time>
      </trkpt>
      <trkpt lat="46.49771" lon="4.41629">
        <ele>435.58099365234</ele>
        <time>2020-09-30T11:37:30Z</time>
      </trkpt>
      <trkpt lat="46.49775" lon="4.41622">
        <ele>434.58099365234</ele>
        <time>2020-09-30T11:37:36Z</time>
      </trkpt>
      <trkpt lat="46.49781" lon="4.41615">
        <ele>433.58099365234</ele>
        <time>2020-09-30T11:37:42Z</time>
      </trkpt>
      <trkpt lat="46.49786" lon="4.41608">
        <ele>431.58099365234</ele>
        <time>2020-09-30T11:37:48Z</time>
      </trkpt>
      <trkpt lat="46.49792" lon="4.41604">
        <ele>430.58099365234</ele>
        <time>2020-09-30T11:37:54Z</time>
      </trkpt>
      <trkpt lat="46.498" lon="4.41606">
        <ele>429.58099365234</ele>
        <time>2020-09-30T11:38:05Z</time>
      </trkpt>
      <trkpt lat="46.49805" lon="4.41599">
        <ele>427.58099365234</ele>
        <time>2020-09-30T11:38:12Z</time>
      </trkpt>
      <trkpt lat="46.4982" lon="4.41605">
        <ele>427.58099365234</ele>
        <time>2020-09-30T11:38:17Z</time>
      </trkpt>
      <trkpt lat="46.49828" lon="4.41606">
        <ele>429.58099365234</ele>
        <time>2020-09-30T11:38:24Z</time>
      </trkpt>
      <trkpt lat="46.49834" lon="4.41607">
        <ele>428.58099365234</ele>
        <time>2020-09-30T11:38:28Z</time>
      </trkpt>
      <trkpt lat="46.49841" lon="4.41612">
        <ele>433.58099365234</ele>
        <time>2020-09-30T11:38:37Z</time>
      </trkpt>
      <trkpt lat="46.49849" lon="4.41614">
        <ele>435.58099365234</ele>
        <time>2020-09-30T11:38:42Z</time>
      </trkpt>
      <trkpt lat="46.49858" lon="4.41616">
        <ele>430.58099365234</ele>
        <time>2020-09-30T11:38:47Z</time>
      </trkpt>
      <trkpt lat="46.49865" lon="4.41617">
        <ele>431.58099365234</ele>
        <time>2020-09-30T11:38:53Z</time>
      </trkpt>
      <trkpt lat="46.49873" lon="4.41618">
        <ele>432.58099365234</ele>
        <time>2020-09-30T11:38:59Z</time>
      </trkpt>
      <trkpt lat="46.49883" lon="4.41617">
        <ele>430.58099365234</ele>
        <time>2020-09-30T11:39:04Z</time>
      </trkpt>
      <trkpt lat="46.4989" lon="4.41616">
        <ele>431.58099365234</ele>
        <time>2020-09-30T11:39:09Z</time>
      </trkpt>
      <trkpt lat="46.49898" lon="4.41617">
        <ele>428.58099365234</ele>
        <time>2020-09-30T11:39:16Z</time>
      </trkpt>
      <trkpt lat="46.49906" lon="4.41618">
        <ele>423.58099365234</ele>
        <time>2020-09-30T11:39:38Z</time>
      </trkpt>
      <trkpt lat="46.49913" lon="4.41616">
        <ele>422.58099365234</ele>
        <time>2020-09-30T11:39:44Z</time>
      </trkpt>
      <trkpt lat="46.49921" lon="4.41611">
        <ele>423.58099365234</ele>
        <time>2020-09-30T11:39:49Z</time>
      </trkpt>
      <trkpt lat="46.49929" lon="4.41611">
        <ele>422.58099365234</ele>
        <time>2020-09-30T11:39:54Z</time>
      </trkpt>
      <trkpt lat="46.49938" lon="4.41616">
        <ele>419.58099365234</ele>
        <time>2020-09-30T11:40:02Z</time>
      </trkpt>
      <trkpt lat="46.49945" lon="4.41618">
        <ele>421.58099365234</ele>
        <time>2020-09-30T11:40:09Z</time>
      </trkpt>
      <trkpt lat="46.49951" lon="4.41624">
        <ele>422.58099365234</ele>
        <time>2020-09-30T11:40:14Z</time>
      </trkpt>
      <trkpt lat="46.49957" lon="4.41632">
        <ele>421.58099365234</ele>
        <time>2020-09-30T11:40:21Z</time>
      </trkpt>
      <trkpt lat="46.49963" lon="4.41637">
        <ele>420.58099365234</ele>
        <time>2020-09-30T11:40:29Z</time>
      </trkpt>
      <trkpt lat="46.49967" lon="4.41647">
        <ele>421.58099365234</ele>
        <time>2020-09-30T11:40:34Z</time>
      </trkpt>
      <trkpt lat="46.49972" lon="4.41657">
        <ele>420.58099365234</ele>
        <time>2020-09-30T11:40:39Z</time>
      </trkpt>
      <trkpt lat="46.49977" lon="4.41664">
        <ele>420.58099365234</ele>
        <time>2020-09-30T11:40:47Z</time>
      </trkpt>
      <trkpt lat="46.49984" lon="4.41665">
        <ele>419.58099365234</ele>
        <time>2020-09-30T11:40:53Z</time>
      </trkpt>
      <trkpt lat="46.4999" lon="4.41673">
        <ele>418.58099365234</ele>
        <time>2020-09-30T11:40:58Z</time>
      </trkpt>
      <trkpt lat="46.49998" lon="4.41681">
        <ele>418.58099365234</ele>
        <time>2020-09-30T11:41:03Z</time>
      </trkpt>
      <trkpt lat="46.50003" lon="4.4169">
        <ele>424.58099365234</ele>
        <time>2020-09-30T11:41:09Z</time>
      </trkpt>
      <trkpt lat="46.50009" lon="4.41704">
        <ele>427.58099365234</ele>
        <time>2020-09-30T11:41:14Z</time>
      </trkpt>
      <trkpt lat="46.50016" lon="4.41713">
        <ele>428.58099365234</ele>
        <time>2020-09-30T11:41:21Z</time>
      </trkpt>
      <trkpt lat="46.50017" lon="4.41724">
        <ele>427.58099365234</ele>
        <time>2020-09-30T11:41:27Z</time>
      </trkpt>
      <trkpt lat="46.5002" lon="4.41734">
        <ele>426.58099365234</ele>
        <time>2020-09-30T11:41:32Z</time>
      </trkpt>
      <trkpt lat="46.50025" lon="4.41742">
        <ele>427.58099365234</ele>
        <time>2020-09-30T11:41:38Z</time>
      </trkpt>
      <trkpt lat="46.5003" lon="4.41751">
        <ele>427.58099365234</ele>
        <time>2020-09-30T11:41:46Z</time>
      </trkpt>
      <trkpt lat="46.50034" lon="4.41759">
        <ele>430.58099365234</ele>
        <time>2020-09-30T11:41:54Z</time>
      </trkpt>
      <trkpt lat="46.50037" lon="4.41772">
        <ele>428.58099365234</ele>
        <time>2020-09-30T11:42:00Z</time>
      </trkpt>
      <trkpt lat="46.50037" lon="4.41787">
        <ele>428.58099365234</ele>
        <time>2020-09-30T11:42:05Z</time>
      </trkpt>
      <trkpt lat="46.50041" lon="4.41796">
        <ele>436.58099365234</ele>
        <time>2020-09-30T11:42:14Z</time>
      </trkpt>
      <trkpt lat="46.50042" lon="4.41807">
        <ele>432.58099365234</ele>
        <time>2020-09-30T11:42:20Z</time>
      </trkpt>
      <trkpt lat="46.50041" lon="4.41818">
        <ele>431.58099365234</ele>
        <time>2020-09-30T11:42:26Z</time>
      </trkpt>
      <trkpt lat="46.5004" lon="4.41829">
        <ele>432.58099365234</ele>
        <time>2020-09-30T11:42:31Z</time>
      </trkpt>
      <trkpt lat="46.5004" lon="4.41839">
        <ele>435.58099365234</ele>
        <time>2020-09-30T11:42:40Z</time>
      </trkpt>
      <trkpt lat="46.50033" lon="4.41845">
        <ele>438.58099365234</ele>
        <time>2020-09-30T11:42:49Z</time>
      </trkpt>
      <trkpt lat="46.50026" lon="4.41848">
        <ele>441.58099365234</ele>
        <time>2020-09-30T11:42:55Z</time>
      </trkpt>
      <trkpt lat="46.50019" lon="4.41852">
        <ele>443.58099365234</ele>
        <time>2020-09-30T11:43:00Z</time>
      </trkpt>
      <trkpt lat="46.50013" lon="4.41858">
        <ele>444.58099365234</ele>
        <time>2020-09-30T11:43:06Z</time>
      </trkpt>
      <trkpt lat="46.50009" lon="4.41867">
        <ele>440.58099365234</ele>
        <time>2020-09-30T11:43:13Z</time>
      </trkpt>
      <trkpt lat="46.50002" lon="4.41866">
        <ele>437.58099365234</ele>
        <time>2020-09-30T11:43:22Z</time>
      </trkpt>
      <trkpt lat="46.50004" lon="4.41879">
        <ele>439.58099365234</ele>
        <time>2020-09-30T11:43:29Z</time>
      </trkpt>
      <trkpt lat="46.49999" lon="4.41886">
        <ele>438.58099365234</ele>
        <time>2020-09-30T11:43:36Z</time>
      </trkpt>
      <trkpt lat="46.49992" lon="4.41894">
        <ele>440.58099365234</ele>
        <time>2020-09-30T11:43:42Z</time>
      </trkpt>
      <trkpt lat="46.49985" lon="4.41894">
        <ele>442.58099365234</ele>
        <time>2020-09-30T11:43:50Z</time>
      </trkpt>
      <trkpt lat="46.49978" lon="4.41897">
        <ele>441.58099365234</ele>
        <time>2020-09-30T11:43:55Z</time>
      </trkpt>
      <trkpt lat="46.4997" lon="4.4191">
        <ele>441.58099365234</ele>
        <time>2020-09-30T11:44:00Z</time>
      </trkpt>
      <trkpt lat="46.49963" lon="4.41914">
        <ele>438.58099365234</ele>
        <time>2020-09-30T11:44:06Z</time>
      </trkpt>
      <trkpt lat="46.49958" lon="4.41919">
        <ele>437.58099365234</ele>
        <time>2020-09-30T11:44:11Z</time>
      </trkpt>
      <trkpt lat="46.49951" lon="4.41922">
        <ele>437.58099365234</ele>
        <time>2020-09-30T11:44:22Z</time>
      </trkpt>
      <trkpt lat="46.49944" lon="4.41928">
        <ele>437.58099365234</ele>
        <time>2020-09-30T11:44:27Z</time>
      </trkpt>
      <trkpt lat="46.49937" lon="4.41933">
        <ele>435.58099365234</ele>
        <time>2020-09-30T11:44:33Z</time>
      </trkpt>
      <trkpt lat="46.49931" lon="4.41941">
        <ele>434.58099365234</ele>
        <time>2020-09-30T11:44:38Z</time>
      </trkpt>
      <trkpt lat="46.49924" lon="4.41944">
        <ele>431.58099365234</ele>
        <time>2020-09-30T11:44:43Z</time>
      </trkpt>
      <trkpt lat="46.49917" lon="4.41944">
        <ele>437.58099365234</ele>
        <time>2020-09-30T11:44:48Z</time>
      </trkpt>
      <trkpt lat="46.4991" lon="4.41951">
        <ele>440.58099365234</ele>
        <time>2020-09-30T11:44:53Z</time>
      </trkpt>
      <trkpt lat="46.49904" lon="4.41958">
        <ele>442.58099365234</ele>
        <time>2020-09-30T11:44:58Z</time>
      </trkpt>
      <trkpt lat="46.49896" lon="4.41959">
        <ele>441.58099365234</ele>
        <time>2020-09-30T11:45:06Z</time>
      </trkpt>
      <trkpt lat="46.4989" lon="4.41964">
        <ele>438.58099365234</ele>
        <time>2020-09-30T11:45:14Z</time>
      </trkpt>
      <trkpt lat="46.49885" lon="4.41972">
        <ele>441.58099365234</ele>
        <time>2020-09-30T11:45:19Z</time>
      </trkpt>
      <trkpt lat="46.49878" lon="4.41976">
        <ele>441.58099365234</ele>
        <time>2020-09-30T11:45:24Z</time>
      </trkpt>
      <trkpt lat="46.49872" lon="4.41982">
        <ele>440.58099365234</ele>
        <time>2020-09-30T11:45:29Z</time>
      </trkpt>
      <trkpt lat="46.49869" lon="4.41992">
        <ele>442.58099365234</ele>
        <time>2020-09-30T11:45:34Z</time>
      </trkpt>
      <trkpt lat="46.49875" lon="4.42">
        <ele>441.58099365234</ele>
        <time>2020-09-30T11:45:59Z</time>
      </trkpt>
      <trkpt lat="46.49887" lon="4.42012">
        <ele>441.58099365234</ele>
        <time>2020-09-30T11:46:04Z</time>
      </trkpt>
      <trkpt lat="46.49885" lon="4.42023">
        <ele>440.58099365234</ele>
        <time>2020-09-30T11:46:12Z</time>
      </trkpt>
      <trkpt lat="46.49881" lon="4.42035">
        <ele>444.58099365234</ele>
        <time>2020-09-30T11:46:17Z</time>
      </trkpt>
      <trkpt lat="46.49873" lon="4.42043">
        <ele>445.58099365234</ele>
        <time>2020-09-30T11:46:22Z</time>
      </trkpt>
      <trkpt lat="46.49866" lon="4.42048">
        <ele>446.58099365234</ele>
        <time>2020-09-30T11:46:30Z</time>
      </trkpt>
      <trkpt lat="46.49858" lon="4.42056">
        <ele>445.58099365234</ele>
        <time>2020-09-30T11:46:36Z</time>
      </trkpt>
      <trkpt lat="46.49852" lon="4.42067">
        <ele>444.58099365234</ele>
        <time>2020-09-30T11:46:41Z</time>
      </trkpt>
      <trkpt lat="46.49847" lon="4.42073">
        <ele>441.58099365234</ele>
        <time>2020-09-30T11:46:48Z</time>
      </trkpt>
      <trkpt lat="46.49841" lon="4.42084">
        <ele>441.58099365234</ele>
        <time>2020-09-30T11:46:53Z</time>
      </trkpt>
      <trkpt lat="46.49836" lon="4.42091">
        <ele>438.58099365234</ele>
        <time>2020-09-30T11:47:01Z</time>
      </trkpt>
      <trkpt lat="46.49834" lon="4.421">
        <ele>435.58099365234</ele>
        <time>2020-09-30T11:47:06Z</time>
      </trkpt>
      <trkpt lat="46.49833" lon="4.42111">
        <ele>435.58099365234</ele>
        <time>2020-09-30T11:47:11Z</time>
      </trkpt>
      <trkpt lat="46.49832" lon="4.42123">
        <ele>434.58099365234</ele>
        <time>2020-09-30T11:47:16Z</time>
      </trkpt>
      <trkpt lat="46.49828" lon="4.42132">
        <ele>432.58099365234</ele>
        <time>2020-09-30T11:47:22Z</time>
      </trkpt>
      <trkpt lat="46.49827" lon="4.42142">
        <ele>430.58099365234</ele>
        <time>2020-09-30T11:47:27Z</time>
      </trkpt>
      <trkpt lat="46.49827" lon="4.42155">
        <ele>428.58099365234</ele>
        <time>2020-09-30T11:47:32Z</time>
      </trkpt>
      <trkpt lat="46.49827" lon="4.42165">
        <ele>426.58099365234</ele>
        <time>2020-09-30T11:47:38Z</time>
      </trkpt>
      <trkpt lat="46.49826" lon="4.42176">
        <ele>426.58099365234</ele>
        <time>2020-09-30T11:47:43Z</time>
      </trkpt>
      <trkpt lat="46.49825" lon="4.42189">
        <ele>426.58099365234</ele>
        <time>2020-09-30T11:47:51Z</time>
      </trkpt>
      <trkpt lat="46.49826" lon="4.42199">
        <ele>424.58099365234</ele>
        <time>2020-09-30T11:47:56Z</time>
      </trkpt>
      <trkpt lat="46.49827" lon="4.42208">
        <ele>422.58099365234</ele>
        <time>2020-09-30T11:48:01Z</time>
      </trkpt>
      <trkpt lat="46.49827" lon="4.42221">
        <ele>422.58099365234</ele>
        <time>2020-09-30T11:48:06Z</time>
      </trkpt>
      <trkpt lat="46.49825" lon="4.42233">
        <ele>419.58099365234</ele>
        <time>2020-09-30T11:48:13Z</time>
      </trkpt>
      <trkpt lat="46.49824" lon="4.42244">
        <ele>420.58099365234</ele>
        <time>2020-09-30T11:48:18Z</time>
      </trkpt>
      <trkpt lat="46.49825" lon="4.42255">
        <ele>418.58099365234</ele>
        <time>2020-09-30T11:48:24Z</time>
      </trkpt>
      <trkpt lat="46.49826" lon="4.42266">
        <ele>416.58099365234</ele>
        <time>2020-09-30T11:48:32Z</time>
      </trkpt>
      <trkpt lat="46.49826" lon="4.42279">
        <ele>415.58099365234</ele>
        <time>2020-09-30T11:48:37Z</time>
      </trkpt>
      <trkpt lat="46.49824" lon="4.4229">
        <ele>418.58099365234</ele>
        <time>2020-09-30T11:48:43Z</time>
      </trkpt>
      <trkpt lat="46.49823" lon="4.423">
        <ele>416.58099365234</ele>
        <time>2020-09-30T11:48:48Z</time>
      </trkpt>
      <trkpt lat="46.49826" lon="4.42309">
        <ele>415.58099365234</ele>
        <time>2020-09-30T11:48:53Z</time>
      </trkpt>
      <trkpt lat="46.49827" lon="4.4232">
        <ele>413.58099365234</ele>
        <time>2020-09-30T11:48:58Z</time>
      </trkpt>
      <trkpt lat="46.49827" lon="4.4233">
        <ele>412.58099365234</ele>
        <time>2020-09-30T11:49:07Z</time>
      </trkpt>
      <trkpt lat="46.49827" lon="4.42339">
        <ele>411.58099365234</ele>
        <time>2020-09-30T11:49:14Z</time>
      </trkpt>
      <trkpt lat="46.49825" lon="4.42349">
        <ele>412.58099365234</ele>
        <time>2020-09-30T11:49:21Z</time>
      </trkpt>
      <trkpt lat="46.49825" lon="4.42359">
        <ele>414.58099365234</ele>
        <time>2020-09-30T11:49:27Z</time>
      </trkpt>
      <trkpt lat="46.49825" lon="4.4237">
        <ele>412.58099365234</ele>
        <time>2020-09-30T11:49:34Z</time>
      </trkpt>
      <trkpt lat="46.49825" lon="4.4238">
        <ele>414.58099365234</ele>
        <time>2020-09-30T11:49:39Z</time>
      </trkpt>
      <trkpt lat="46.49827" lon="4.42391">
        <ele>409.58099365234</ele>
        <time>2020-09-30T11:49:44Z</time>
      </trkpt>
      <trkpt lat="46.49829" lon="4.42402">
        <ele>408.58099365234</ele>
        <time>2020-09-30T11:49:52Z</time>
      </trkpt>
      <trkpt lat="46.4983" lon="4.42415">
        <ele>405.58099365234</ele>
        <time>2020-09-30T11:49:58Z</time>
      </trkpt>
      <trkpt lat="46.49833" lon="4.42427">
        <ele>405.58099365234</ele>
        <time>2020-09-30T11:50:03Z</time>
      </trkpt>
      <trkpt lat="46.49835" lon="4.42438">
        <ele>402.58099365234</ele>
        <time>2020-09-30T11:50:08Z</time>
      </trkpt>
      <trkpt lat="46.49835" lon="4.42448">
        <ele>403.58099365234</ele>
        <time>2020-09-30T11:50:13Z</time>
      </trkpt>
      <trkpt lat="46.49835" lon="4.42457">
        <ele>403.58099365234</ele>
        <time>2020-09-30T11:50:18Z</time>
      </trkpt>
      <trkpt lat="46.49838" lon="4.42469">
        <ele>402.58099365234</ele>
        <time>2020-09-30T11:50:23Z</time>
      </trkpt>
      <trkpt lat="46.49839" lon="4.42478">
        <ele>400.58099365234</ele>
        <time>2020-09-30T11:50:28Z</time>
      </trkpt>
      <trkpt lat="46.49842" lon="4.42487">
        <ele>399.58099365234</ele>
        <time>2020-09-30T11:50:33Z</time>
      </trkpt>
      <trkpt lat="46.49843" lon="4.425">
        <ele>399.58099365234</ele>
        <time>2020-09-30T11:50:38Z</time>
      </trkpt>
      <trkpt lat="46.49845" lon="4.4251">
        <ele>399.58099365234</ele>
        <time>2020-09-30T11:50:43Z</time>
      </trkpt>
      <trkpt lat="46.49849" lon="4.4252">
        <ele>399.58099365234</ele>
        <time>2020-09-30T11:50:49Z</time>
      </trkpt>
      <trkpt lat="46.49855" lon="4.42525">
        <ele>396.58099365234</ele>
        <time>2020-09-30T11:50:56Z</time>
      </trkpt>
      <trkpt lat="46.49861" lon="4.42529">
        <ele>396.58200073242</ele>
        <time>2020-09-30T11:51:02Z</time>
      </trkpt>
      <trkpt lat="46.49867" lon="4.42538">
        <ele>395.58200073242</ele>
        <time>2020-09-30T11:51:07Z</time>
      </trkpt>
      <trkpt lat="46.49874" lon="4.42544">
        <ele>395.58200073242</ele>
        <time>2020-09-30T11:51:12Z</time>
      </trkpt>
      <trkpt lat="46.49878" lon="4.42551">
        <ele>396.58200073242</ele>
        <time>2020-09-30T11:51:17Z</time>
      </trkpt>
      <trkpt lat="46.49884" lon="4.42554">
        <ele>394.58200073242</ele>
        <time>2020-09-30T11:51:22Z</time>
      </trkpt>
      <trkpt lat="46.49892" lon="4.42559">
        <ele>393.58200073242</ele>
        <time>2020-09-30T11:51:27Z</time>
      </trkpt>
      <trkpt lat="46.49901" lon="4.42563">
        <ele>392.58200073242</ele>
        <time>2020-09-30T11:51:32Z</time>
      </trkpt>
      <trkpt lat="46.49908" lon="4.42565">
        <ele>390.58200073242</ele>
        <time>2020-09-30T11:51:37Z</time>
      </trkpt>
      <trkpt lat="46.49915" lon="4.42573">
        <ele>387.58200073242</ele>
        <time>2020-09-30T11:51:44Z</time>
      </trkpt>
      <trkpt lat="46.49921" lon="4.42579">
        <ele>381.58200073242</ele>
        <time>2020-09-30T11:51:50Z</time>
      </trkpt>
      <trkpt lat="46.49926" lon="4.42585">
        <ele>379.58200073242</ele>
        <time>2020-09-30T11:51:55Z</time>
      </trkpt>
      <trkpt lat="46.49932" lon="4.42593">
        <ele>377.58200073242</ele>
        <time>2020-09-30T11:52:00Z</time>
      </trkpt>
      <trkpt lat="46.49937" lon="4.426">
        <ele>378.58200073242</ele>
        <time>2020-09-30T11:52:06Z</time>
      </trkpt>
      <trkpt lat="46.49945" lon="4.42602">
        <ele>378.58200073242</ele>
        <time>2020-09-30T11:52:11Z</time>
      </trkpt>
      <trkpt lat="46.49951" lon="4.42608">
        <ele>376.58200073242</ele>
        <time>2020-09-30T11:52:18Z</time>
      </trkpt>
      <trkpt lat="46.49956" lon="4.42616">
        <ele>376.58200073242</ele>
        <time>2020-09-30T11:52:23Z</time>
      </trkpt>
      <trkpt lat="46.49961" lon="4.42625">
        <ele>371.58200073242</ele>
        <time>2020-09-30T11:52:29Z</time>
      </trkpt>
      <trkpt lat="46.49966" lon="4.42633">
        <ele>370.58200073242</ele>
        <time>2020-09-30T11:52:34Z</time>
      </trkpt>
      <trkpt lat="46.4997" lon="4.42643">
        <ele>372.58200073242</ele>
        <time>2020-09-30T11:52:39Z</time>
      </trkpt>
      <trkpt lat="46.49979" lon="4.42651">
        <ele>375.58200073242</ele>
        <time>2020-09-30T11:52:44Z</time>
      </trkpt>
      <trkpt lat="46.49985" lon="4.42659">
        <ele>376.58200073242</ele>
        <time>2020-09-30T11:52:49Z</time>
      </trkpt>
      <trkpt lat="46.4999" lon="4.42666">
        <ele>378.58200073242</ele>
        <time>2020-09-30T11:52:54Z</time>
      </trkpt>
      <trkpt lat="46.49998" lon="4.42672">
        <ele>378.58200073242</ele>
        <time>2020-09-30T11:53:01Z</time>
      </trkpt>
      <trkpt lat="46.50004" lon="4.4268">
        <ele>378.58200073242</ele>
        <time>2020-09-30T11:53:06Z</time>
      </trkpt>
      <trkpt lat="46.50011" lon="4.42685">
        <ele>377.58200073242</ele>
        <time>2020-09-30T11:53:11Z</time>
      </trkpt>
      <trkpt lat="46.50016" lon="4.42691">
        <ele>374.58200073242</ele>
        <time>2020-09-30T11:53:16Z</time>
      </trkpt>
      <trkpt lat="46.50023" lon="4.42698">
        <ele>372.58200073242</ele>
        <time>2020-09-30T11:53:22Z</time>
      </trkpt>
      <trkpt lat="46.50028" lon="4.42705">
        <ele>369.58200073242</ele>
        <time>2020-09-30T11:53:27Z</time>
      </trkpt>
      <trkpt lat="46.50034" lon="4.4271">
        <ele>367.58200073242</ele>
        <time>2020-09-30T11:53:32Z</time>
      </trkpt>
      <trkpt lat="46.5004" lon="4.42717">
        <ele>367.58200073242</ele>
        <time>2020-09-30T11:53:38Z</time>
      </trkpt>
      <trkpt lat="46.50047" lon="4.42724">
        <ele>367.58200073242</ele>
        <time>2020-09-30T11:53:43Z</time>
      </trkpt>
      <trkpt lat="46.50053" lon="4.42729">
        <ele>366.58200073242</ele>
        <time>2020-09-30T11:53:50Z</time>
      </trkpt>
      <trkpt lat="46.50058" lon="4.42741">
        <ele>366.58200073242</ele>
        <time>2020-09-30T11:53:55Z</time>
      </trkpt>
      <trkpt lat="46.50061" lon="4.4275">
        <ele>361.58200073242</ele>
        <time>2020-09-30T11:54:02Z</time>
      </trkpt>
      <trkpt lat="46.50066" lon="4.42759">
        <ele>360.58200073242</ele>
        <time>2020-09-30T11:54:08Z</time>
      </trkpt>
      <trkpt lat="46.5007" lon="4.42767">
        <ele>361.58200073242</ele>
        <time>2020-09-30T11:54:13Z</time>
      </trkpt>
      <trkpt lat="46.50076" lon="4.42773">
        <ele>360.58200073242</ele>
        <time>2020-09-30T11:54:19Z</time>
      </trkpt>
      <trkpt lat="46.50084" lon="4.42777">
        <ele>355.58200073242</ele>
        <time>2020-09-30T11:54:27Z</time>
      </trkpt>
      <trkpt lat="46.50091" lon="4.4278">
        <ele>351.58200073242</ele>
        <time>2020-09-30T11:54:33Z</time>
      </trkpt>
      <trkpt lat="46.50097" lon="4.42785">
        <ele>355.58200073242</ele>
        <time>2020-09-30T11:54:38Z</time>
      </trkpt>
      <trkpt lat="46.50104" lon="4.4279">
        <ele>354.58200073242</ele>
        <time>2020-09-30T11:54:43Z</time>
      </trkpt>
      <trkpt lat="46.50108" lon="4.42803">
        <ele>354.58200073242</ele>
        <time>2020-09-30T11:54:48Z</time>
      </trkpt>
      <trkpt lat="46.50113" lon="4.4281">
        <ele>355.58200073242</ele>
        <time>2020-09-30T11:54:53Z</time>
      </trkpt>
      <trkpt lat="46.50121" lon="4.4281">
        <ele>353.58200073242</ele>
        <time>2020-09-30T11:54:58Z</time>
      </trkpt>
      <trkpt lat="46.50126" lon="4.42817">
        <ele>354.58200073242</ele>
        <time>2020-09-30T11:55:05Z</time>
      </trkpt>
      <trkpt lat="46.50133" lon="4.4282">
        <ele>348.58200073242</ele>
        <time>2020-09-30T11:55:11Z</time>
      </trkpt>
      <trkpt lat="46.50139" lon="4.42829">
        <ele>352.5830078125</ele>
        <time>2020-09-30T11:55:16Z</time>
      </trkpt>
      <trkpt lat="46.50145" lon="4.42836">
        <ele>353.5830078125</ele>
        <time>2020-09-30T11:55:21Z</time>
      </trkpt>
      <trkpt lat="46.50149" lon="4.42846">
        <ele>356.5830078125</ele>
        <time>2020-09-30T11:55:27Z</time>
      </trkpt>
      <trkpt lat="46.50156" lon="4.42852">
        <ele>356.5830078125</ele>
        <time>2020-09-30T11:55:32Z</time>
      </trkpt>
      <trkpt lat="46.50162" lon="4.42863">
        <ele>355.5830078125</ele>
        <time>2020-09-30T11:55:37Z</time>
      </trkpt>
      <trkpt lat="46.50169" lon="4.42874">
        <ele>356.5830078125</ele>
        <time>2020-09-30T11:55:42Z</time>
      </trkpt>
      <trkpt lat="46.50175" lon="4.42886">
        <ele>358.5830078125</ele>
        <time>2020-09-30T11:55:47Z</time>
      </trkpt>
      <trkpt lat="46.50181" lon="4.42891">
        <ele>356.5830078125</ele>
        <time>2020-09-30T11:55:53Z</time>
      </trkpt>
      <trkpt lat="46.50184" lon="4.429">
        <ele>351.5830078125</ele>
        <time>2020-09-30T11:56:00Z</time>
      </trkpt>
      <trkpt lat="46.50188" lon="4.42908">
        <ele>348.5830078125</ele>
        <time>2020-09-30T11:56:06Z</time>
      </trkpt>
      <trkpt lat="46.50191" lon="4.42919">
        <ele>348.5830078125</ele>
        <time>2020-09-30T11:56:11Z</time>
      </trkpt>
      <trkpt lat="46.50198" lon="4.4292">
        <ele>345.5830078125</ele>
        <time>2020-09-30T11:56:16Z</time>
      </trkpt>
      <trkpt lat="46.50202" lon="4.4293">
        <ele>347.5830078125</ele>
        <time>2020-09-30T11:56:22Z</time>
      </trkpt>
      <trkpt lat="46.50206" lon="4.42939">
        <ele>345.5830078125</ele>
        <time>2020-09-30T11:56:28Z</time>
      </trkpt>
      <trkpt lat="46.50215" lon="4.42944">
        <ele>342.5830078125</ele>
        <time>2020-09-30T11:56:33Z</time>
      </trkpt>
      <trkpt lat="46.50222" lon="4.42953">
        <ele>342.5830078125</ele>
        <time>2020-09-30T11:56:38Z</time>
      </trkpt>
      <trkpt lat="46.50228" lon="4.42958">
        <ele>340.5830078125</ele>
        <time>2020-09-30T11:56:44Z</time>
      </trkpt>
      <trkpt lat="46.50232" lon="4.4297">
        <ele>343.5830078125</ele>
        <time>2020-09-30T11:56:49Z</time>
      </trkpt>
      <trkpt lat="46.50237" lon="4.42979">
        <ele>345.5830078125</ele>
        <time>2020-09-30T11:56:54Z</time>
      </trkpt>
      <trkpt lat="46.50242" lon="4.42985">
        <ele>345.5830078125</ele>
        <time>2020-09-30T11:56:59Z</time>
      </trkpt>
      <trkpt lat="46.50246" lon="4.42995">
        <ele>345.5830078125</ele>
        <time>2020-09-30T11:57:04Z</time>
      </trkpt>
      <trkpt lat="46.50253" lon="4.42998">
        <ele>347.5830078125</ele>
        <time>2020-09-30T11:57:11Z</time>
      </trkpt>
      <trkpt lat="46.50259" lon="4.43007">
        <ele>350.5830078125</ele>
        <time>2020-09-30T11:57:16Z</time>
      </trkpt>
      <trkpt lat="46.50264" lon="4.43017">
        <ele>352.5830078125</ele>
        <time>2020-09-30T11:57:21Z</time>
      </trkpt>
      <trkpt lat="46.5027" lon="4.43022">
        <ele>350.5830078125</ele>
        <time>2020-09-30T11:57:26Z</time>
      </trkpt>
      <trkpt lat="46.50275" lon="4.43031">
        <ele>351.5830078125</ele>
        <time>2020-09-30T11:57:31Z</time>
      </trkpt>
      <trkpt lat="46.50281" lon="4.43043">
        <ele>352.5830078125</ele>
        <time>2020-09-30T11:57:36Z</time>
      </trkpt>
      <trkpt lat="46.50285" lon="4.43054">
        <ele>351.5830078125</ele>
        <time>2020-09-30T11:57:44Z</time>
      </trkpt>
      <trkpt lat="46.5029" lon="4.43063">
        <ele>350.5830078125</ele>
        <time>2020-09-30T11:57:49Z</time>
      </trkpt>
      <trkpt lat="46.50296" lon="4.43062">
        <ele>345.5830078125</ele>
        <time>2020-09-30T11:57:54Z</time>
      </trkpt>
      <trkpt lat="46.50304" lon="4.43062">
        <ele>346.5830078125</ele>
        <time>2020-09-30T11:57:59Z</time>
      </trkpt>
      <trkpt lat="46.50313" lon="4.4307">
        <ele>346.5830078125</ele>
        <time>2020-09-30T11:58:04Z</time>
      </trkpt>
      <trkpt lat="46.50319" lon="4.43078">
        <ele>347.5830078125</ele>
        <time>2020-09-30T11:58:09Z</time>
      </trkpt>
      <trkpt lat="46.50326" lon="4.43083">
        <ele>348.5830078125</ele>
        <time>2020-09-30T11:58:16Z</time>
      </trkpt>
      <trkpt lat="46.50331" lon="4.4309">
        <ele>347.5830078125</ele>
        <time>2020-09-30T11:58:22Z</time>
      </trkpt>
      <trkpt lat="46.50338" lon="4.43099">
        <ele>346.5830078125</ele>
        <time>2020-09-30T11:58:27Z</time>
      </trkpt>
      <trkpt lat="46.50346" lon="4.43103">
        <ele>347.5830078125</ele>
        <time>2020-09-30T11:58:32Z</time>
      </trkpt>
      <trkpt lat="46.50351" lon="4.43113">
        <ele>345.5830078125</ele>
        <time>2020-09-30T11:58:37Z</time>
      </trkpt>
      <trkpt lat="46.50358" lon="4.43122">
        <ele>344.5830078125</ele>
        <time>2020-09-30T11:58:42Z</time>
      </trkpt>
      <trkpt lat="46.50364" lon="4.43127">
        <ele>344.5830078125</ele>
        <time>2020-09-30T11:58:47Z</time>
      </trkpt>
      <trkpt lat="46.50369" lon="4.43133">
        <ele>346.5830078125</ele>
        <time>2020-09-30T11:58:52Z</time>
      </trkpt>
      <trkpt lat="46.50375" lon="4.43141">
        <ele>346.5830078125</ele>
        <time>2020-09-30T11:58:57Z</time>
      </trkpt>
      <trkpt lat="46.50384" lon="4.43147">
        <ele>343.5830078125</ele>
        <time>2020-09-30T11:59:02Z</time>
      </trkpt>
      <trkpt lat="46.50391" lon="4.43152">
        <ele>343.5830078125</ele>
        <time>2020-09-30T11:59:07Z</time>
      </trkpt>
      <trkpt lat="46.50397" lon="4.43157">
        <ele>344.5830078125</ele>
        <time>2020-09-30T11:59:12Z</time>
      </trkpt>
      <trkpt lat="46.50402" lon="4.43163">
        <ele>344.5830078125</ele>
        <time>2020-09-30T11:59:17Z</time>
      </trkpt>
      <trkpt lat="46.50409" lon="4.43168">
        <ele>344.58401489258</ele>
        <time>2020-09-30T11:59:22Z</time>
      </trkpt>
      <trkpt lat="46.50415" lon="4.43176">
        <ele>341.58401489258</ele>
        <time>2020-09-30T11:59:27Z</time>
      </trkpt>
      <trkpt lat="46.50422" lon="4.43183">
        <ele>342.58401489258</ele>
        <time>2020-09-30T11:59:32Z</time>
      </trkpt>
      <trkpt lat="46.50432" lon="4.43189">
        <ele>344.58401489258</ele>
        <time>2020-09-30T11:59:37Z</time>
      </trkpt>
      <trkpt lat="46.50437" lon="4.43198">
        <ele>342.58401489258</ele>
        <time>2020-09-30T11:59:42Z</time>
      </trkpt>
      <trkpt lat="46.50442" lon="4.43207">
        <ele>343.58401489258</ele>
        <time>2020-09-30T11:59:47Z</time>
      </trkpt>
      <trkpt lat="46.50449" lon="4.43212">
        <ele>341.58401489258</ele>
        <time>2020-09-30T11:59:54Z</time>
      </trkpt>
      <trkpt lat="46.50456" lon="4.43219">
        <ele>344.58401489258</ele>
        <time>2020-09-30T12:00:01Z</time>
      </trkpt>
      <trkpt lat="46.50464" lon="4.43223">
        <ele>341.58401489258</ele>
        <time>2020-09-30T12:00:07Z</time>
      </trkpt>
      <trkpt lat="46.50469" lon="4.43228">
        <ele>340.58401489258</ele>
        <time>2020-09-30T12:00:12Z</time>
      </trkpt>
      <trkpt lat="46.50475" lon="4.43233">
        <ele>341.58401489258</ele>
        <time>2020-09-30T12:00:19Z</time>
      </trkpt>
      <trkpt lat="46.50481" lon="4.43237">
        <ele>341.58401489258</ele>
        <time>2020-09-30T12:00:25Z</time>
      </trkpt>
      <trkpt lat="46.50489" lon="4.43246">
        <ele>343.58401489258</ele>
        <time>2020-09-30T12:00:30Z</time>
      </trkpt>
      <trkpt lat="46.50494" lon="4.43256">
        <ele>345.58401489258</ele>
        <time>2020-09-30T12:00:35Z</time>
      </trkpt>
      <trkpt lat="46.50501" lon="4.43263">
        <ele>348.58401489258</ele>
        <time>2020-09-30T12:00:40Z</time>
      </trkpt>
      <trkpt lat="46.50506" lon="4.4327">
        <ele>349.58401489258</ele>
        <time>2020-09-30T12:00:46Z</time>
      </trkpt>
      <trkpt lat="46.50512" lon="4.43275">
        <ele>346.58401489258</ele>
        <time>2020-09-30T12:00:53Z</time>
      </trkpt>
      <trkpt lat="46.50518" lon="4.43281">
        <ele>346.58401489258</ele>
        <time>2020-09-30T12:00:58Z</time>
      </trkpt>
      <trkpt lat="46.50527" lon="4.43289">
        <ele>345.58401489258</ele>
        <time>2020-09-30T12:01:03Z</time>
      </trkpt>
      <trkpt lat="46.50534" lon="4.43292">
        <ele>345.58401489258</ele>
        <time>2020-09-30T12:01:08Z</time>
      </trkpt>
      <trkpt lat="46.50538" lon="4.43301">
        <ele>346.58401489258</ele>
        <time>2020-09-30T12:01:13Z</time>
      </trkpt>
      <trkpt lat="46.50545" lon="4.43308">
        <ele>348.58401489258</ele>
        <time>2020-09-30T12:01:18Z</time>
      </trkpt>
      <trkpt lat="46.50553" lon="4.43316">
        <ele>350.58401489258</ele>
        <time>2020-09-30T12:01:23Z</time>
      </trkpt>
      <trkpt lat="46.50559" lon="4.43324">
        <ele>346.58401489258</ele>
        <time>2020-09-30T12:01:28Z</time>
      </trkpt>
      <trkpt lat="46.50566" lon="4.43332">
        <ele>344.58401489258</ele>
        <time>2020-09-30T12:01:33Z</time>
      </trkpt>
      <trkpt lat="46.50571" lon="4.43337">
        <ele>344.58401489258</ele>
        <time>2020-09-30T12:01:38Z</time>
      </trkpt>
      <trkpt lat="46.50579" lon="4.43342">
        <ele>344.58401489258</ele>
        <time>2020-09-30T12:01:43Z</time>
      </trkpt>
      <trkpt lat="46.50584" lon="4.43349">
        <ele>344.58401489258</ele>
        <time>2020-09-30T12:01:48Z</time>
      </trkpt>
      <trkpt lat="46.50591" lon="4.43353">
        <ele>341.58401489258</ele>
        <time>2020-09-30T12:01:54Z</time>
      </trkpt>
      <trkpt lat="46.50597" lon="4.43359">
        <ele>340.58401489258</ele>
        <time>2020-09-30T12:01:59Z</time>
      </trkpt>
      <trkpt lat="46.50603" lon="4.43367">
        <ele>338.58401489258</ele>
        <time>2020-09-30T12:02:04Z</time>
      </trkpt>
      <trkpt lat="46.50609" lon="4.43375">
        <ele>341.58401489258</ele>
        <time>2020-09-30T12:02:12Z</time>
      </trkpt>
      <trkpt lat="46.50615" lon="4.43385">
        <ele>340.58401489258</ele>
        <time>2020-09-30T12:02:17Z</time>
      </trkpt>
      <trkpt lat="46.50622" lon="4.43386">
        <ele>338.58401489258</ele>
        <time>2020-09-30T12:02:23Z</time>
      </trkpt>
      <trkpt lat="46.50627" lon="4.43394">
        <ele>338.58401489258</ele>
        <time>2020-09-30T12:02:28Z</time>
      </trkpt>
      <trkpt lat="46.50631" lon="4.43403">
        <ele>339.58401489258</ele>
        <time>2020-09-30T12:02:33Z</time>
      </trkpt>
      <trkpt lat="46.50638" lon="4.43414">
        <ele>338.58401489258</ele>
        <time>2020-09-30T12:02:38Z</time>
      </trkpt>
      <trkpt lat="46.50645" lon="4.43417">
        <ele>334.58401489258</ele>
        <time>2020-09-30T12:02:43Z</time>
      </trkpt>
      <trkpt lat="46.50652" lon="4.43423">
        <ele>341.58401489258</ele>
        <time>2020-09-30T12:02:48Z</time>
      </trkpt>
      <trkpt lat="46.5066" lon="4.43426">
        <ele>341.58401489258</ele>
        <time>2020-09-30T12:02:53Z</time>
      </trkpt>
      <trkpt lat="46.50664" lon="4.43434">
        <ele>341.58401489258</ele>
        <time>2020-09-30T12:02:58Z</time>
      </trkpt>
      <trkpt lat="46.50668" lon="4.43442">
        <ele>341.58401489258</ele>
        <time>2020-09-30T12:03:03Z</time>
      </trkpt>
      <trkpt lat="46.50673" lon="4.43448">
        <ele>338.58401489258</ele>
        <time>2020-09-30T12:03:08Z</time>
      </trkpt>
      <trkpt lat="46.50678" lon="4.43455">
        <ele>336.58401489258</ele>
        <time>2020-09-30T12:03:13Z</time>
      </trkpt>
      <trkpt lat="46.50684" lon="4.43461">
        <ele>334.58499145508</ele>
        <time>2020-09-30T12:03:18Z</time>
      </trkpt>
      <trkpt lat="46.50691" lon="4.43469">
        <ele>334.58499145508</ele>
        <time>2020-09-30T12:03:24Z</time>
      </trkpt>
      <trkpt lat="46.50697" lon="4.43476">
        <ele>336.58499145508</ele>
        <time>2020-09-30T12:03:29Z</time>
      </trkpt>
      <trkpt lat="46.50702" lon="4.43486">
        <ele>336.58499145508</ele>
        <time>2020-09-30T12:03:34Z</time>
      </trkpt>
      <trkpt lat="46.50706" lon="4.43493">
        <ele>339.58499145508</ele>
        <time>2020-09-30T12:03:39Z</time>
      </trkpt>
      <trkpt lat="46.50712" lon="4.43498">
        <ele>339.58499145508</ele>
        <time>2020-09-30T12:03:44Z</time>
      </trkpt>
      <trkpt lat="46.50719" lon="4.435">
        <ele>336.58499145508</ele>
        <time>2020-09-30T12:03:51Z</time>
      </trkpt>
      <trkpt lat="46.50722" lon="4.4351">
        <ele>336.58499145508</ele>
        <time>2020-09-30T12:03:56Z</time>
      </trkpt>
      <trkpt lat="46.50733" lon="4.43502">
        <ele>336.58499145508</ele>
        <time>2020-09-30T12:04:01Z</time>
      </trkpt>
      <trkpt lat="46.50743" lon="4.435">
        <ele>339.58499145508</ele>
        <time>2020-09-30T12:04:06Z</time>
      </trkpt>
      <trkpt lat="46.50748" lon="4.43508">
        <ele>341.58499145508</ele>
        <time>2020-09-30T12:04:11Z</time>
      </trkpt>
      <trkpt lat="46.50754" lon="4.43514">
        <ele>341.58499145508</ele>
        <time>2020-09-30T12:04:16Z</time>
      </trkpt>
      <trkpt lat="46.50761" lon="4.43512">
        <ele>341.58499145508</ele>
        <time>2020-09-30T12:04:22Z</time>
      </trkpt>
      <trkpt lat="46.50768" lon="4.43514">
        <ele>342.58499145508</ele>
        <time>2020-09-30T12:04:28Z</time>
      </trkpt>
      <trkpt lat="46.50776" lon="4.4352">
        <ele>342.58499145508</ele>
        <time>2020-09-30T12:04:33Z</time>
      </trkpt>
      <trkpt lat="46.50783" lon="4.43525">
        <ele>344.58499145508</ele>
        <time>2020-09-30T12:04:38Z</time>
      </trkpt>
      <trkpt lat="46.5079" lon="4.43528">
        <ele>346.58499145508</ele>
        <time>2020-09-30T12:04:43Z</time>
      </trkpt>
      <trkpt lat="46.50796" lon="4.43532">
        <ele>347.58499145508</ele>
        <time>2020-09-30T12:04:51Z</time>
      </trkpt>
      <trkpt lat="46.50804" lon="4.4353">
        <ele>346.58499145508</ele>
        <time>2020-09-30T12:04:57Z</time>
      </trkpt>
      <trkpt lat="46.50814" lon="4.43532">
        <ele>346.58499145508</ele>
        <time>2020-09-30T12:05:02Z</time>
      </trkpt>
      <trkpt lat="46.50821" lon="4.43534">
        <ele>347.58499145508</ele>
        <time>2020-09-30T12:05:07Z</time>
      </trkpt>
      <trkpt lat="46.50827" lon="4.43544">
        <ele>351.58499145508</ele>
        <time>2020-09-30T12:05:12Z</time>
      </trkpt>
      <trkpt lat="46.50833" lon="4.43546">
        <ele>351.58499145508</ele>
        <time>2020-09-30T12:05:20Z</time>
      </trkpt>
      <trkpt lat="46.50838" lon="4.43554">
        <ele>354.58499145508</ele>
        <time>2020-09-30T12:05:31Z</time>
      </trkpt>
      <trkpt lat="46.50845" lon="4.43556">
        <ele>352.58499145508</ele>
        <time>2020-09-30T12:05:37Z</time>
      </trkpt>
      <trkpt lat="46.50852" lon="4.43559">
        <ele>353.58499145508</ele>
        <time>2020-09-30T12:05:44Z</time>
      </trkpt>
      <trkpt lat="46.50857" lon="4.43565">
        <ele>354.58499145508</ele>
        <time>2020-09-30T12:05:49Z</time>
      </trkpt>
      <trkpt lat="46.50865" lon="4.43569">
        <ele>355.58499145508</ele>
        <time>2020-09-30T12:05:54Z</time>
      </trkpt>
      <trkpt lat="46.50872" lon="4.43573">
        <ele>354.58499145508</ele>
        <time>2020-09-30T12:06:02Z</time>
      </trkpt>
      <trkpt lat="46.50882" lon="4.43572">
        <ele>354.58499145508</ele>
        <time>2020-09-30T12:06:07Z</time>
      </trkpt>
      <trkpt lat="46.50888" lon="4.4357">
        <ele>354.58499145508</ele>
        <time>2020-09-30T12:06:14Z</time>
      </trkpt>
      <trkpt lat="46.50896" lon="4.4357">
        <ele>355.58499145508</ele>
        <time>2020-09-30T12:06:22Z</time>
      </trkpt>
      <trkpt lat="46.50906" lon="4.43575">
        <ele>356.58499145508</ele>
        <time>2020-09-30T12:06:27Z</time>
      </trkpt>
      <trkpt lat="46.50913" lon="4.43578">
        <ele>352.58499145508</ele>
        <time>2020-09-30T12:06:47Z</time>
      </trkpt>
      <trkpt lat="46.50921" lon="4.4358">
        <ele>352.58499145508</ele>
        <time>2020-09-30T12:07:03Z</time>
      </trkpt>
      <trkpt lat="46.50929" lon="4.43583">
        <ele>353.58499145508</ele>
        <time>2020-09-30T12:07:08Z</time>
      </trkpt>
      <trkpt lat="46.50937" lon="4.43585">
        <ele>352.58499145508</ele>
        <time>2020-09-30T12:07:14Z</time>
      </trkpt>
      <trkpt lat="46.50944" lon="4.43588">
        <ele>355.58499145508</ele>
        <time>2020-09-30T12:07:19Z</time>
      </trkpt>
      <trkpt lat="46.5095" lon="4.43591">
        <ele>350.58499145508</ele>
        <time>2020-09-30T12:07:25Z</time>
      </trkpt>
      <trkpt lat="46.5096" lon="4.43589">
        <ele>354.58499145508</ele>
        <time>2020-09-30T12:07:30Z</time>
      </trkpt>
      <trkpt lat="46.50967" lon="4.43589">
        <ele>353.58499145508</ele>
        <time>2020-09-30T12:07:36Z</time>
      </trkpt>
      <trkpt lat="46.50975" lon="4.43588">
        <ele>355.58499145508</ele>
        <time>2020-09-30T12:07:43Z</time>
      </trkpt>
      <trkpt lat="46.50982" lon="4.43592">
        <ele>354.58499145508</ele>
        <time>2020-09-30T12:07:50Z</time>
      </trkpt>
      <trkpt lat="46.50989" lon="4.43589">
        <ele>353.58499145508</ele>
        <time>2020-09-30T12:07:56Z</time>
      </trkpt>
      <trkpt lat="46.50995" lon="4.43596">
        <ele>353.58499145508</ele>
        <time>2020-09-30T12:08:01Z</time>
      </trkpt>
      <trkpt lat="46.51001" lon="4.43596">
        <ele>349.58499145508</ele>
        <time>2020-09-30T12:08:06Z</time>
      </trkpt>
      <trkpt lat="46.51008" lon="4.43599">
        <ele>351.58599853516</ele>
        <time>2020-09-30T12:08:11Z</time>
      </trkpt>
      <trkpt lat="46.51016" lon="4.436">
        <ele>353.58599853516</ele>
        <time>2020-09-30T12:08:17Z</time>
      </trkpt>
      <trkpt lat="46.51024" lon="4.43599">
        <ele>351.58599853516</ele>
        <time>2020-09-30T12:08:22Z</time>
      </trkpt>
      <trkpt lat="46.51031" lon="4.43596">
        <ele>350.58599853516</ele>
        <time>2020-09-30T12:08:28Z</time>
      </trkpt>
      <trkpt lat="46.51034" lon="4.43605">
        <ele>353.58599853516</ele>
        <time>2020-09-30T12:08:36Z</time>
      </trkpt>
      <trkpt lat="46.51042" lon="4.43606">
        <ele>355.58599853516</ele>
        <time>2020-09-30T12:08:41Z</time>
      </trkpt>
      <trkpt lat="46.5105" lon="4.43606">
        <ele>355.58599853516</ele>
        <time>2020-09-30T12:08:47Z</time>
      </trkpt>
      <trkpt lat="46.51058" lon="4.43607">
        <ele>355.58599853516</ele>
        <time>2020-09-30T12:08:52Z</time>
      </trkpt>
      <trkpt lat="46.51065" lon="4.43608">
        <ele>357.58599853516</ele>
        <time>2020-09-30T12:08:58Z</time>
      </trkpt>
      <trkpt lat="46.51074" lon="4.43606">
        <ele>355.58599853516</ele>
        <time>2020-09-30T12:09:05Z</time>
      </trkpt>
      <trkpt lat="46.51082" lon="4.43606">
        <ele>353.58599853516</ele>
        <time>2020-09-30T12:09:14Z</time>
      </trkpt>
      <trkpt lat="46.5109" lon="4.43605">
        <ele>355.58599853516</ele>
        <time>2020-09-30T12:09:19Z</time>
      </trkpt>
      <trkpt lat="46.51097" lon="4.43605">
        <ele>357.58599853516</ele>
        <time>2020-09-30T12:09:25Z</time>
      </trkpt>
      <trkpt lat="46.51105" lon="4.43604">
        <ele>359.58599853516</ele>
        <time>2020-09-30T12:09:31Z</time>
      </trkpt>
      <trkpt lat="46.51112" lon="4.436">
        <ele>361.58599853516</ele>
        <time>2020-09-30T12:09:37Z</time>
      </trkpt>
      <trkpt lat="46.5112" lon="4.43601">
        <ele>365.58599853516</ele>
        <time>2020-09-30T12:09:43Z</time>
      </trkpt>
      <trkpt lat="46.51126" lon="4.43602">
        <ele>367.58599853516</ele>
        <time>2020-09-30T12:09:48Z</time>
      </trkpt>
      <trkpt lat="46.51134" lon="4.43602">
        <ele>368.58599853516</ele>
        <time>2020-09-30T12:09:53Z</time>
      </trkpt>
      <trkpt lat="46.51144" lon="4.43601">
        <ele>369.58599853516</ele>
        <time>2020-09-30T12:09:58Z</time>
      </trkpt>
      <trkpt lat="46.51152" lon="4.436">
        <ele>370.58599853516</ele>
        <time>2020-09-30T12:10:04Z</time>
      </trkpt>
      <trkpt lat="46.51158" lon="4.43603">
        <ele>369.58599853516</ele>
        <time>2020-09-30T12:10:10Z</time>
      </trkpt>
      <trkpt lat="46.51165" lon="4.43601">
        <ele>371.58599853516</ele>
        <time>2020-09-30T12:10:16Z</time>
      </trkpt>
      <trkpt lat="46.51174" lon="4.43601">
        <ele>365.58599853516</ele>
        <time>2020-09-30T12:10:21Z</time>
      </trkpt>
      <trkpt lat="46.51182" lon="4.43601">
        <ele>364.58599853516</ele>
        <time>2020-09-30T12:10:26Z</time>
      </trkpt>
      <trkpt lat="46.51189" lon="4.43603">
        <ele>361.58599853516</ele>
        <time>2020-09-30T12:10:31Z</time>
      </trkpt>
      <trkpt lat="46.51196" lon="4.4361">
        <ele>361.58599853516</ele>
        <time>2020-09-30T12:10:36Z</time>
      </trkpt>
      <trkpt lat="46.51203" lon="4.43613">
        <ele>364.58599853516</ele>
        <time>2020-09-30T12:10:41Z</time>
      </trkpt>
      <trkpt lat="46.5121" lon="4.43612">
        <ele>367.58599853516</ele>
        <time>2020-09-30T12:10:46Z</time>
      </trkpt>
      <trkpt lat="46.51218" lon="4.43613">
        <ele>365.58599853516</ele>
        <time>2020-09-30T12:10:54Z</time>
      </trkpt>
      <trkpt lat="46.51227" lon="4.43616">
        <ele>364.58599853516</ele>
        <time>2020-09-30T12:11:02Z</time>
      </trkpt>
      <trkpt lat="46.51234" lon="4.43618">
        <ele>364.58599853516</ele>
        <time>2020-09-30T12:11:09Z</time>
      </trkpt>
      <trkpt lat="46.51241" lon="4.43621">
        <ele>362.58599853516</ele>
        <time>2020-09-30T12:11:15Z</time>
      </trkpt>
      <trkpt lat="46.51248" lon="4.43622">
        <ele>363.58599853516</ele>
        <time>2020-09-30T12:11:20Z</time>
      </trkpt>
      <trkpt lat="46.51256" lon="4.43625">
        <ele>365.58599853516</ele>
        <time>2020-09-30T12:11:25Z</time>
      </trkpt>
      <trkpt lat="46.51263" lon="4.43624">
        <ele>366.58599853516</ele>
        <time>2020-09-30T12:11:32Z</time>
      </trkpt>
      <trkpt lat="46.51269" lon="4.43627">
        <ele>368.58599853516</ele>
        <time>2020-09-30T12:11:37Z</time>
      </trkpt>
      <trkpt lat="46.51277" lon="4.43629">
        <ele>369.58599853516</ele>
        <time>2020-09-30T12:11:44Z</time>
      </trkpt>
      <trkpt lat="46.51284" lon="4.43631">
        <ele>368.58599853516</ele>
        <time>2020-09-30T12:11:49Z</time>
      </trkpt>
      <trkpt lat="46.51291" lon="4.43632">
        <ele>370.58599853516</ele>
        <time>2020-09-30T12:11:54Z</time>
      </trkpt>
      <trkpt lat="46.51301" lon="4.43637">
        <ele>369.58599853516</ele>
        <time>2020-09-30T12:11:59Z</time>
      </trkpt>
      <trkpt lat="46.51309" lon="4.4364">
        <ele>369.58599853516</ele>
        <time>2020-09-30T12:12:05Z</time>
      </trkpt>
      <trkpt lat="46.51316" lon="4.43642">
        <ele>368.58599853516</ele>
        <time>2020-09-30T12:12:11Z</time>
      </trkpt>
      <trkpt lat="46.51323" lon="4.4365">
        <ele>372.58599853516</ele>
        <time>2020-09-30T12:12:16Z</time>
      </trkpt>
      <trkpt lat="46.51328" lon="4.43656">
        <ele>374.58599853516</ele>
        <time>2020-09-30T12:12:22Z</time>
      </trkpt>
      <trkpt lat="46.51335" lon="4.43658">
        <ele>373.58599853516</ele>
        <time>2020-09-30T12:12:27Z</time>
      </trkpt>
      <trkpt lat="46.51339" lon="4.43667">
        <ele>373.58599853516</ele>
        <time>2020-09-30T12:12:32Z</time>
      </trkpt>
      <trkpt lat="46.51344" lon="4.43674">
        <ele>372.58599853516</ele>
        <time>2020-09-30T12:12:37Z</time>
      </trkpt>
      <trkpt lat="46.51349" lon="4.43683">
        <ele>373.58700561523</ele>
        <time>2020-09-30T12:12:42Z</time>
      </trkpt>
      <trkpt lat="46.51355" lon="4.43689">
        <ele>375.58700561523</ele>
        <time>2020-09-30T12:12:48Z</time>
      </trkpt>
      <trkpt lat="46.51361" lon="4.43695">
        <ele>376.58700561523</ele>
        <time>2020-09-30T12:12:54Z</time>
      </trkpt>
      <trkpt lat="46.51365" lon="4.43702">
        <ele>376.58700561523</ele>
        <time>2020-09-30T12:12:59Z</time>
      </trkpt>
      <trkpt lat="46.51371" lon="4.43707">
        <ele>376.58700561523</ele>
        <time>2020-09-30T12:13:06Z</time>
      </trkpt>
      <trkpt lat="46.51376" lon="4.43714">
        <ele>376.58700561523</ele>
        <time>2020-09-30T12:13:12Z</time>
      </trkpt>
      <trkpt lat="46.5138" lon="4.43726">
        <ele>375.58700561523</ele>
        <time>2020-09-30T12:13:17Z</time>
      </trkpt>
      <trkpt lat="46.51387" lon="4.43728">
        <ele>372.58700561523</ele>
        <time>2020-09-30T12:13:24Z</time>
      </trkpt>
      <trkpt lat="46.51392" lon="4.43736">
        <ele>371.58700561523</ele>
        <time>2020-09-30T12:13:38Z</time>
      </trkpt>
      <trkpt lat="46.51395" lon="4.43744">
        <ele>370.58700561523</ele>
        <time>2020-09-30T12:13:43Z</time>
      </trkpt>
      <trkpt lat="46.51401" lon="4.43751">
        <ele>370.58700561523</ele>
        <time>2020-09-30T12:13:48Z</time>
      </trkpt>
      <trkpt lat="46.51406" lon="4.43764">
        <ele>369.58700561523</ele>
        <time>2020-09-30T12:13:53Z</time>
      </trkpt>
      <trkpt lat="46.5141" lon="4.43773">
        <ele>371.58700561523</ele>
        <time>2020-09-30T12:13:58Z</time>
      </trkpt>
      <trkpt lat="46.51416" lon="4.43779">
        <ele>370.58700561523</ele>
        <time>2020-09-30T12:14:04Z</time>
      </trkpt>
      <trkpt lat="46.5142" lon="4.43788">
        <ele>373.58700561523</ele>
        <time>2020-09-30T12:14:12Z</time>
      </trkpt>
      <trkpt lat="46.5143" lon="4.4379">
        <ele>373.58700561523</ele>
        <time>2020-09-30T12:14:17Z</time>
      </trkpt>
      <trkpt lat="46.5144" lon="4.43795">
        <ele>374.58700561523</ele>
        <time>2020-09-30T12:14:22Z</time>
      </trkpt>
      <trkpt lat="46.51448" lon="4.43797">
        <ele>372.58700561523</ele>
        <time>2020-09-30T12:14:27Z</time>
      </trkpt>
      <trkpt lat="46.51451" lon="4.43807">
        <ele>370.58700561523</ele>
        <time>2020-09-30T12:14:33Z</time>
      </trkpt>
      <trkpt lat="46.51456" lon="4.43816">
        <ele>371.58700561523</ele>
        <time>2020-09-30T12:14:38Z</time>
      </trkpt>
      <trkpt lat="46.51461" lon="4.43825">
        <ele>371.58700561523</ele>
        <time>2020-09-30T12:14:43Z</time>
      </trkpt>
      <trkpt lat="46.51467" lon="4.43831">
        <ele>372.58700561523</ele>
        <time>2020-09-30T12:14:48Z</time>
      </trkpt>
      <trkpt lat="46.51474" lon="4.43834">
        <ele>370.58700561523</ele>
        <time>2020-09-30T12:14:55Z</time>
      </trkpt>
      <trkpt lat="46.5148" lon="4.43841">
        <ele>370.58700561523</ele>
        <time>2020-09-30T12:15:01Z</time>
      </trkpt>
      <trkpt lat="46.51485" lon="4.43848">
        <ele>370.58700561523</ele>
        <time>2020-09-30T12:15:06Z</time>
      </trkpt>
      <trkpt lat="46.51492" lon="4.43851">
        <ele>368.58700561523</ele>
        <time>2020-09-30T12:15:12Z</time>
      </trkpt>
      <trkpt lat="46.51498" lon="4.43859">
        <ele>367.58700561523</ele>
        <time>2020-09-30T12:15:18Z</time>
      </trkpt>
      <trkpt lat="46.51504" lon="4.43866">
        <ele>369.58700561523</ele>
        <time>2020-09-30T12:15:23Z</time>
      </trkpt>
      <trkpt lat="46.51511" lon="4.43868">
        <ele>367.58700561523</ele>
        <time>2020-09-30T12:15:29Z</time>
      </trkpt>
      <trkpt lat="46.51516" lon="4.43878">
        <ele>369.58700561523</ele>
        <time>2020-09-30T12:15:34Z</time>
      </trkpt>
      <trkpt lat="46.51521" lon="4.43886">
        <ele>368.58700561523</ele>
        <time>2020-09-30T12:15:39Z</time>
      </trkpt>
      <trkpt lat="46.51526" lon="4.43892">
        <ele>368.58700561523</ele>
        <time>2020-09-30T12:15:44Z</time>
      </trkpt>
      <trkpt lat="46.51531" lon="4.43901">
        <ele>368.58700561523</ele>
        <time>2020-09-30T12:15:49Z</time>
      </trkpt>
      <trkpt lat="46.51536" lon="4.43912">
        <ele>370.58700561523</ele>
        <time>2020-09-30T12:15:54Z</time>
      </trkpt>
      <trkpt lat="46.51542" lon="4.43923">
        <ele>371.58700561523</ele>
        <time>2020-09-30T12:16:00Z</time>
      </trkpt>
      <trkpt lat="46.51547" lon="4.43933">
        <ele>370.58700561523</ele>
        <time>2020-09-30T12:16:05Z</time>
      </trkpt>
      <trkpt lat="46.51554" lon="4.43937">
        <ele>371.58700561523</ele>
        <time>2020-09-30T12:16:10Z</time>
      </trkpt>
      <trkpt lat="46.51558" lon="4.43949">
        <ele>373.58700561523</ele>
        <time>2020-09-30T12:16:15Z</time>
      </trkpt>
      <trkpt lat="46.51564" lon="4.43953">
        <ele>372.58700561523</ele>
        <time>2020-09-30T12:16:21Z</time>
      </trkpt>
      <trkpt lat="46.51571" lon="4.43954">
        <ele>371.58700561523</ele>
        <time>2020-09-30T12:16:27Z</time>
      </trkpt>
      <trkpt lat="46.51577" lon="4.43962">
        <ele>372.58700561523</ele>
        <time>2020-09-30T12:16:32Z</time>
      </trkpt>
      <trkpt lat="46.51583" lon="4.43973">
        <ele>373.58700561523</ele>
        <time>2020-09-30T12:16:37Z</time>
      </trkpt>
      <trkpt lat="46.51588" lon="4.43978">
        <ele>372.58700561523</ele>
        <time>2020-09-30T12:16:42Z</time>
      </trkpt>
      <trkpt lat="46.51594" lon="4.43985">
        <ele>370.58700561523</ele>
        <time>2020-09-30T12:16:47Z</time>
      </trkpt>
      <trkpt lat="46.51599" lon="4.43992">
        <ele>370.58700561523</ele>
        <time>2020-09-30T12:16:52Z</time>
      </trkpt>
      <trkpt lat="46.51604" lon="4.43998">
        <ele>368.58700561523</ele>
        <time>2020-09-30T12:16:57Z</time>
      </trkpt>
      <trkpt lat="46.51609" lon="4.44008">
        <ele>368.58700561523</ele>
        <time>2020-09-30T12:17:02Z</time>
      </trkpt>
      <trkpt lat="46.51614" lon="4.44017">
        <ele>369.58801269531</ele>
        <time>2020-09-30T12:17:07Z</time>
      </trkpt>
      <trkpt lat="46.5162" lon="4.44025">
        <ele>367.58801269531</ele>
        <time>2020-09-30T12:17:12Z</time>
      </trkpt>
      <trkpt lat="46.51626" lon="4.4403">
        <ele>369.58801269531</ele>
        <time>2020-09-30T12:17:17Z</time>
      </trkpt>
      <trkpt lat="46.51633" lon="4.44032">
        <ele>369.58801269531</ele>
        <time>2020-09-30T12:17:24Z</time>
      </trkpt>
      <trkpt lat="46.51639" lon="4.44044">
        <ele>370.58801269531</ele>
        <time>2020-09-30T12:17:29Z</time>
      </trkpt>
      <trkpt lat="46.51645" lon="4.44047">
        <ele>367.58801269531</ele>
        <time>2020-09-30T12:17:34Z</time>
      </trkpt>
      <trkpt lat="46.5165" lon="4.44053">
        <ele>366.58801269531</ele>
        <time>2020-09-30T12:17:39Z</time>
      </trkpt>
      <trkpt lat="46.51656" lon="4.44059">
        <ele>366.58801269531</ele>
        <time>2020-09-30T12:17:44Z</time>
      </trkpt>
      <trkpt lat="46.51662" lon="4.44064">
        <ele>365.58801269531</ele>
        <time>2020-09-30T12:17:50Z</time>
      </trkpt>
      <trkpt lat="46.51668" lon="4.4408">
        <ele>364.58801269531</ele>
        <time>2020-09-30T12:17:55Z</time>
      </trkpt>
      <trkpt lat="46.51675" lon="4.4408">
        <ele>362.58801269531</ele>
        <time>2020-09-30T12:18:01Z</time>
      </trkpt>
      <trkpt lat="46.5168" lon="4.44088">
        <ele>363.58801269531</ele>
        <time>2020-09-30T12:18:06Z</time>
      </trkpt>
      <trkpt lat="46.51686" lon="4.44095">
        <ele>362.58801269531</ele>
        <time>2020-09-30T12:18:12Z</time>
      </trkpt>
      <trkpt lat="46.51692" lon="4.44099">
        <ele>363.58801269531</ele>
        <time>2020-09-30T12:18:18Z</time>
      </trkpt>
      <trkpt lat="46.517" lon="4.44104">
        <ele>362.58801269531</ele>
        <time>2020-09-30T12:18:24Z</time>
      </trkpt>
      <trkpt lat="46.51705" lon="4.44109">
        <ele>363.58801269531</ele>
        <time>2020-09-30T12:18:29Z</time>
      </trkpt>
      <trkpt lat="46.5171" lon="4.44123">
        <ele>364.58801269531</ele>
        <time>2020-09-30T12:18:34Z</time>
      </trkpt>
      <trkpt lat="46.51716" lon="4.44137">
        <ele>365.58801269531</ele>
        <time>2020-09-30T12:18:39Z</time>
      </trkpt>
      <trkpt lat="46.51722" lon="4.44144">
        <ele>366.58801269531</ele>
        <time>2020-09-30T12:18:45Z</time>
      </trkpt>
      <trkpt lat="46.51728" lon="4.44151">
        <ele>366.58801269531</ele>
        <time>2020-09-30T12:18:51Z</time>
      </trkpt>
      <trkpt lat="46.51735" lon="4.44158">
        <ele>365.58801269531</ele>
        <time>2020-09-30T12:18:56Z</time>
      </trkpt>
      <trkpt lat="46.51742" lon="4.44163">
        <ele>365.58801269531</ele>
        <time>2020-09-30T12:19:02Z</time>
      </trkpt>
      <trkpt lat="46.51746" lon="4.44172">
        <ele>368.58801269531</ele>
        <time>2020-09-30T12:19:07Z</time>
      </trkpt>
      <trkpt lat="46.51753" lon="4.44181">
        <ele>370.58801269531</ele>
        <time>2020-09-30T12:19:12Z</time>
      </trkpt>
      <trkpt lat="46.51758" lon="4.4419">
        <ele>369.58801269531</ele>
        <time>2020-09-30T12:19:17Z</time>
      </trkpt>
      <trkpt lat="46.51764" lon="4.44198">
        <ele>367.58801269531</ele>
        <time>2020-09-30T12:19:22Z</time>
      </trkpt>
      <trkpt lat="46.5177" lon="4.44204">
        <ele>369.58801269531</ele>
        <time>2020-09-30T12:19:27Z</time>
      </trkpt>
      <trkpt lat="46.51775" lon="4.44213">
        <ele>368.58801269531</ele>
        <time>2020-09-30T12:19:32Z</time>
      </trkpt>
      <trkpt lat="46.51782" lon="4.44217">
        <ele>366.58801269531</ele>
        <time>2020-09-30T12:19:38Z</time>
      </trkpt>
      <trkpt lat="46.51787" lon="4.44224">
        <ele>367.58801269531</ele>
        <time>2020-09-30T12:19:43Z</time>
      </trkpt>
      <trkpt lat="46.51792" lon="4.44234">
        <ele>367.58801269531</ele>
        <time>2020-09-30T12:19:48Z</time>
      </trkpt>
      <trkpt lat="46.51797" lon="4.4424">
        <ele>369.58801269531</ele>
        <time>2020-09-30T12:19:54Z</time>
      </trkpt>
      <trkpt lat="46.51801" lon="4.44248">
        <ele>369.58801269531</ele>
        <time>2020-09-30T12:19:59Z</time>
      </trkpt>
      <trkpt lat="46.51805" lon="4.44256">
        <ele>370.58801269531</ele>
        <time>2020-09-30T12:20:04Z</time>
      </trkpt>
      <trkpt lat="46.51809" lon="4.44265">
        <ele>372.58801269531</ele>
        <time>2020-09-30T12:20:10Z</time>
      </trkpt>
      <trkpt lat="46.51811" lon="4.44277">
        <ele>373.58801269531</ele>
        <time>2020-09-30T12:20:15Z</time>
      </trkpt>
      <trkpt lat="46.51813" lon="4.44286">
        <ele>372.58801269531</ele>
        <time>2020-09-30T12:20:20Z</time>
      </trkpt>
      <trkpt lat="46.51814" lon="4.44298">
        <ele>373.58801269531</ele>
        <time>2020-09-30T12:20:25Z</time>
      </trkpt>
      <trkpt lat="46.51816" lon="4.4431">
        <ele>375.58801269531</ele>
        <time>2020-09-30T12:20:32Z</time>
      </trkpt>
      <trkpt lat="46.51817" lon="4.4432">
        <ele>374.58801269531</ele>
        <time>2020-09-30T12:20:37Z</time>
      </trkpt>
      <trkpt lat="46.5182" lon="4.44332">
        <ele>373.58801269531</ele>
        <time>2020-09-30T12:20:42Z</time>
      </trkpt>
      <trkpt lat="46.5182" lon="4.44344">
        <ele>377.58801269531</ele>
        <time>2020-09-30T12:20:47Z</time>
      </trkpt>
      <trkpt lat="46.51823" lon="4.44353">
        <ele>375.58801269531</ele>
        <time>2020-09-30T12:20:53Z</time>
      </trkpt>
      <trkpt lat="46.51826" lon="4.44364">
        <ele>375.58801269531</ele>
        <time>2020-09-30T12:20:58Z</time>
      </trkpt>
      <trkpt lat="46.51825" lon="4.44374">
        <ele>374.58801269531</ele>
        <time>2020-09-30T12:21:03Z</time>
      </trkpt>
      <trkpt lat="46.51827" lon="4.44384">
        <ele>371.58801269531</ele>
        <time>2020-09-30T12:21:09Z</time>
      </trkpt>
      <trkpt lat="46.51828" lon="4.44394">
        <ele>368.58801269531</ele>
        <time>2020-09-30T12:21:14Z</time>
      </trkpt>
      <trkpt lat="46.51829" lon="4.44406">
        <ele>370.58801269531</ele>
        <time>2020-09-30T12:21:19Z</time>
      </trkpt>
      <trkpt lat="46.51828" lon="4.44417">
        <ele>369.58801269531</ele>
        <time>2020-09-30T12:21:24Z</time>
      </trkpt>
      <trkpt lat="46.51824" lon="4.44426">
        <ele>369.58801269531</ele>
        <time>2020-09-30T12:21:33Z</time>
      </trkpt>
      <trkpt lat="46.51831" lon="4.44431">
        <ele>369.58801269531</ele>
        <time>2020-09-30T12:21:42Z</time>
      </trkpt>
      <trkpt lat="46.51833" lon="4.44444">
        <ele>368.58801269531</ele>
        <time>2020-09-30T12:21:47Z</time>
      </trkpt>
      <trkpt lat="46.51834" lon="4.44456">
        <ele>372.58801269531</ele>
        <time>2020-09-30T12:21:54Z</time>
      </trkpt>
      <trkpt lat="46.51838" lon="4.44466">
        <ele>376.58801269531</ele>
        <time>2020-09-30T12:22:01Z</time>
      </trkpt>
      <trkpt lat="46.5184" lon="4.44478">
        <ele>376.58801269531</ele>
        <time>2020-09-30T12:22:40Z</time>
      </trkpt>
      <trkpt lat="46.51845" lon="4.44491">
        <ele>374.58801269531</ele>
        <time>2020-09-30T12:22:45Z</time>
      </trkpt>
      <trkpt lat="46.51848" lon="4.44508">
        <ele>373.58898925781</ele>
        <time>2020-09-30T12:22:50Z</time>
      </trkpt>
      <trkpt lat="46.51851" lon="4.44519">
        <ele>371.58898925781</ele>
        <time>2020-09-30T12:22:57Z</time>
      </trkpt>
      <trkpt lat="46.51851" lon="4.44533">
        <ele>372.58898925781</ele>
        <time>2020-09-30T12:23:02Z</time>
      </trkpt>
      <trkpt lat="46.51852" lon="4.44544">
        <ele>369.58898925781</ele>
        <time>2020-09-30T12:23:08Z</time>
      </trkpt>
      <trkpt lat="46.51854" lon="4.44555">
        <ele>372.58898925781</ele>
        <time>2020-09-30T12:23:13Z</time>
      </trkpt>
      <trkpt lat="46.51854" lon="4.44565">
        <ele>374.58898925781</ele>
        <time>2020-09-30T12:23:18Z</time>
      </trkpt>
      <trkpt lat="46.51856" lon="4.44576">
        <ele>379.58898925781</ele>
        <time>2020-09-30T12:23:23Z</time>
      </trkpt>
      <trkpt lat="46.51857" lon="4.44586">
        <ele>380.58898925781</ele>
        <time>2020-09-30T12:23:29Z</time>
      </trkpt>
      <trkpt lat="46.51859" lon="4.44596">
        <ele>380.58898925781</ele>
        <time>2020-09-30T12:23:35Z</time>
      </trkpt>
      <trkpt lat="46.51862" lon="4.44608">
        <ele>379.58898925781</ele>
        <time>2020-09-30T12:23:40Z</time>
      </trkpt>
      <trkpt lat="46.51862" lon="4.44619">
        <ele>379.58898925781</ele>
        <time>2020-09-30T12:23:46Z</time>
      </trkpt>
      <trkpt lat="46.51861" lon="4.44631">
        <ele>378.58898925781</ele>
        <time>2020-09-30T12:23:52Z</time>
      </trkpt>
      <trkpt lat="46.5186" lon="4.44643">
        <ele>376.58898925781</ele>
        <time>2020-09-30T12:23:57Z</time>
      </trkpt>
      <trkpt lat="46.51855" lon="4.44653">
        <ele>376.58898925781</ele>
        <time>2020-09-30T12:24:02Z</time>
      </trkpt>
      <trkpt lat="46.51852" lon="4.44662">
        <ele>379.58898925781</ele>
        <time>2020-09-30T12:24:08Z</time>
      </trkpt>
      <trkpt lat="46.51846" lon="4.44666">
        <ele>376.58898925781</ele>
        <time>2020-09-30T12:24:19Z</time>
      </trkpt>
      <trkpt lat="46.51838" lon="4.44677">
        <ele>375.58898925781</ele>
        <time>2020-09-30T12:24:24Z</time>
      </trkpt>
      <trkpt lat="46.51831" lon="4.44687">
        <ele>374.58898925781</ele>
        <time>2020-09-30T12:24:29Z</time>
      </trkpt>
      <trkpt lat="46.51825" lon="4.44695">
        <ele>378.58898925781</ele>
        <time>2020-09-30T12:24:34Z</time>
      </trkpt>
      <trkpt lat="46.51821" lon="4.44704">
        <ele>379.58898925781</ele>
        <time>2020-09-30T12:24:39Z</time>
      </trkpt>
      <trkpt lat="46.51812" lon="4.44709">
        <ele>379.58898925781</ele>
        <time>2020-09-30T12:24:44Z</time>
      </trkpt>
      <trkpt lat="46.51807" lon="4.44719">
        <ele>378.58898925781</ele>
        <time>2020-09-30T12:24:50Z</time>
      </trkpt>
      <trkpt lat="46.51803" lon="4.44727">
        <ele>381.58898925781</ele>
        <time>2020-09-30T12:24:55Z</time>
      </trkpt>
      <trkpt lat="46.51799" lon="4.44735">
        <ele>379.58898925781</ele>
        <time>2020-09-30T12:25:01Z</time>
      </trkpt>
      <trkpt lat="46.51791" lon="4.44741">
        <ele>376.58898925781</ele>
        <time>2020-09-30T12:25:06Z</time>
      </trkpt>
      <trkpt lat="46.51787" lon="4.44751">
        <ele>379.58898925781</ele>
        <time>2020-09-30T12:25:11Z</time>
      </trkpt>
      <trkpt lat="46.51783" lon="4.4476">
        <ele>376.58898925781</ele>
        <time>2020-09-30T12:25:17Z</time>
      </trkpt>
      <trkpt lat="46.51778" lon="4.44769">
        <ele>377.58898925781</ele>
        <time>2020-09-30T12:25:23Z</time>
      </trkpt>
      <trkpt lat="46.51772" lon="4.44775">
        <ele>378.58898925781</ele>
        <time>2020-09-30T12:25:28Z</time>
      </trkpt>
      <trkpt lat="46.51767" lon="4.44782">
        <ele>377.58801269531</ele>
        <time>2020-09-30T12:25:33Z</time>
      </trkpt>
      <trkpt lat="46.51762" lon="4.44789">
        <ele>378.58801269531</ele>
        <time>2020-09-30T12:25:38Z</time>
      </trkpt>
      <trkpt lat="46.51755" lon="4.44796">
        <ele>379.58801269531</ele>
        <time>2020-09-30T12:25:43Z</time>
      </trkpt>
      <trkpt lat="46.5175" lon="4.44803">
        <ele>379.58801269531</ele>
        <time>2020-09-30T12:25:48Z</time>
      </trkpt>
      <trkpt lat="46.51746" lon="4.44812">
        <ele>380.58801269531</ele>
        <time>2020-09-30T12:25:55Z</time>
      </trkpt>
      <trkpt lat="46.51738" lon="4.44817">
        <ele>382.58801269531</ele>
        <time>2020-09-30T12:26:00Z</time>
      </trkpt>
      <trkpt lat="46.51732" lon="4.44822">
        <ele>384.58801269531</ele>
        <time>2020-09-30T12:26:05Z</time>
      </trkpt>
      <trkpt lat="46.51726" lon="4.44827">
        <ele>382.58801269531</ele>
        <time>2020-09-30T12:26:10Z</time>
      </trkpt>
      <trkpt lat="46.51721" lon="4.44835">
        <ele>382.58801269531</ele>
        <time>2020-09-30T12:26:15Z</time>
      </trkpt>
      <trkpt lat="46.51714" lon="4.4484">
        <ele>384.58801269531</ele>
        <time>2020-09-30T12:26:20Z</time>
      </trkpt>
      <trkpt lat="46.51707" lon="4.44846">
        <ele>382.58801269531</ele>
        <time>2020-09-30T12:26:25Z</time>
      </trkpt>
      <trkpt lat="46.51701" lon="4.44852">
        <ele>380.58801269531</ele>
        <time>2020-09-30T12:26:31Z</time>
      </trkpt>
      <trkpt lat="46.51695" lon="4.44858">
        <ele>380.58801269531</ele>
        <time>2020-09-30T12:26:36Z</time>
      </trkpt>
      <trkpt lat="46.51689" lon="4.44864">
        <ele>379.58801269531</ele>
        <time>2020-09-30T12:26:41Z</time>
      </trkpt>
      <trkpt lat="46.51682" lon="4.4487">
        <ele>382.58801269531</ele>
        <time>2020-09-30T12:26:46Z</time>
      </trkpt>
      <trkpt lat="46.51676" lon="4.44874">
        <ele>382.58801269531</ele>
        <time>2020-09-30T12:26:51Z</time>
      </trkpt>
      <trkpt lat="46.51672" lon="4.44884">
        <ele>383.58801269531</ele>
        <time>2020-09-30T12:26:56Z</time>
      </trkpt>
      <trkpt lat="46.51664" lon="4.44891">
        <ele>382.58801269531</ele>
        <time>2020-09-30T12:27:01Z</time>
      </trkpt>
      <trkpt lat="46.51659" lon="4.44897">
        <ele>385.58801269531</ele>
        <time>2020-09-30T12:27:06Z</time>
      </trkpt>
      <trkpt lat="46.51653" lon="4.44904">
        <ele>387.58801269531</ele>
        <time>2020-09-30T12:27:13Z</time>
      </trkpt>
      <trkpt lat="46.51648" lon="4.44911">
        <ele>391.58801269531</ele>
        <time>2020-09-30T12:27:18Z</time>
      </trkpt>
      <trkpt lat="46.51642" lon="4.44921">
        <ele>388.58801269531</ele>
        <time>2020-09-30T12:27:23Z</time>
      </trkpt>
      <trkpt lat="46.51643" lon="4.44933">
        <ele>391.58801269531</ele>
        <time>2020-09-30T12:27:28Z</time>
      </trkpt>
      <trkpt lat="46.51645" lon="4.44943">
        <ele>387.58801269531</ele>
        <time>2020-09-30T12:27:34Z</time>
      </trkpt>
      <trkpt lat="46.51648" lon="4.44953">
        <ele>388.58801269531</ele>
        <time>2020-09-30T12:27:39Z</time>
      </trkpt>
      <trkpt lat="46.51649" lon="4.44963">
        <ele>385.58801269531</ele>
        <time>2020-09-30T12:27:45Z</time>
      </trkpt>
      <trkpt lat="46.51652" lon="4.44972">
        <ele>384.58801269531</ele>
        <time>2020-09-30T12:27:50Z</time>
      </trkpt>
      <trkpt lat="46.51654" lon="4.44984">
        <ele>383.58801269531</ele>
        <time>2020-09-30T12:27:55Z</time>
      </trkpt>
      <trkpt lat="46.51656" lon="4.44994">
        <ele>382.58801269531</ele>
        <time>2020-09-30T12:28:00Z</time>
      </trkpt>
      <trkpt lat="46.5166" lon="4.45005">
        <ele>381.58801269531</ele>
        <time>2020-09-30T12:28:06Z</time>
      </trkpt>
      <trkpt lat="46.51661" lon="4.45014">
        <ele>380.58801269531</ele>
        <time>2020-09-30T12:28:12Z</time>
      </trkpt>
      <trkpt lat="46.51664" lon="4.45023">
        <ele>379.58801269531</ele>
        <time>2020-09-30T12:28:18Z</time>
      </trkpt>
      <trkpt lat="46.51667" lon="4.45034">
        <ele>378.58801269531</ele>
        <time>2020-09-30T12:28:24Z</time>
      </trkpt>
      <trkpt lat="46.5167" lon="4.45045">
        <ele>375.58801269531</ele>
        <time>2020-09-30T12:28:29Z</time>
      </trkpt>
      <trkpt lat="46.5167" lon="4.45062">
        <ele>376.58801269531</ele>
        <time>2020-09-30T12:28:34Z</time>
      </trkpt>
      <trkpt lat="46.51673" lon="4.45072">
        <ele>377.58801269531</ele>
        <time>2020-09-30T12:28:39Z</time>
      </trkpt>
      <trkpt lat="46.51672" lon="4.45084">
        <ele>378.58801269531</ele>
        <time>2020-09-30T12:29:06Z</time>
      </trkpt>
      <trkpt lat="46.51675" lon="4.45095">
        <ele>379.58801269531</ele>
        <time>2020-09-30T12:29:11Z</time>
      </trkpt>
      <trkpt lat="46.51675" lon="4.45106">
        <ele>378.58801269531</ele>
        <time>2020-09-30T12:29:16Z</time>
      </trkpt>
      <trkpt lat="46.51679" lon="4.45117">
        <ele>383.58801269531</ele>
        <time>2020-09-30T12:29:22Z</time>
      </trkpt>
      <trkpt lat="46.5168" lon="4.45132">
        <ele>380.58898925781</ele>
        <time>2020-09-30T12:29:27Z</time>
      </trkpt>
      <trkpt lat="46.51682" lon="4.45145">
        <ele>380.58898925781</ele>
        <time>2020-09-30T12:29:32Z</time>
      </trkpt>
      <trkpt lat="46.51682" lon="4.4516">
        <ele>381.58898925781</ele>
        <time>2020-09-30T12:29:37Z</time>
      </trkpt>
      <trkpt lat="46.51683" lon="4.4517">
        <ele>378.58898925781</ele>
        <time>2020-09-30T12:29:42Z</time>
      </trkpt>
      <trkpt lat="46.51683" lon="4.45181">
        <ele>379.58898925781</ele>
        <time>2020-09-30T12:29:47Z</time>
      </trkpt>
      <trkpt lat="46.51685" lon="4.45192">
        <ele>375.58898925781</ele>
        <time>2020-09-30T12:29:53Z</time>
      </trkpt>
      <trkpt lat="46.51685" lon="4.45202">
        <ele>374.58898925781</ele>
        <time>2020-09-30T12:29:59Z</time>
      </trkpt>
      <trkpt lat="46.51686" lon="4.45214">
        <ele>371.58898925781</ele>
        <time>2020-09-30T12:30:04Z</time>
      </trkpt>
      <trkpt lat="46.51685" lon="4.45224">
        <ele>370.58898925781</ele>
        <time>2020-09-30T12:30:09Z</time>
      </trkpt>
      <trkpt lat="46.51685" lon="4.45236">
        <ele>368.58898925781</ele>
        <time>2020-09-30T12:30:14Z</time>
      </trkpt>
      <trkpt lat="46.51686" lon="4.45248">
        <ele>368.58898925781</ele>
        <time>2020-09-30T12:30:19Z</time>
      </trkpt>
      <trkpt lat="46.51685" lon="4.45259">
        <ele>370.58898925781</ele>
        <time>2020-09-30T12:30:24Z</time>
      </trkpt>
      <trkpt lat="46.51684" lon="4.45273">
        <ele>372.58898925781</ele>
        <time>2020-09-30T12:30:29Z</time>
      </trkpt>
      <trkpt lat="46.51685" lon="4.45284">
        <ele>372.58898925781</ele>
        <time>2020-09-30T12:30:34Z</time>
      </trkpt>
      <trkpt lat="46.51686" lon="4.45294">
        <ele>371.58898925781</ele>
        <time>2020-09-30T12:30:39Z</time>
      </trkpt>
      <trkpt lat="46.51688" lon="4.45303">
        <ele>373.58898925781</ele>
        <time>2020-09-30T12:31:40Z</time>
      </trkpt>
      <trkpt lat="46.51692" lon="4.45311">
        <ele>374.58898925781</ele>
        <time>2020-09-30T12:31:47Z</time>
      </trkpt>
      <trkpt lat="46.51694" lon="4.4532">
        <ele>375.58898925781</ele>
        <time>2020-09-30T12:31:52Z</time>
      </trkpt>
      <trkpt lat="46.51695" lon="4.45332">
        <ele>373.58898925781</ele>
        <time>2020-09-30T12:32:05Z</time>
      </trkpt>
      <trkpt lat="46.51695" lon="4.45342">
        <ele>369.58898925781</ele>
        <time>2020-09-30T12:32:12Z</time>
      </trkpt>
      <trkpt lat="46.51696" lon="4.45352">
        <ele>368.58898925781</ele>
        <time>2020-09-30T12:32:17Z</time>
      </trkpt>
      <trkpt lat="46.51695" lon="4.45361">
        <ele>366.58898925781</ele>
        <time>2020-09-30T12:32:22Z</time>
      </trkpt>
      <trkpt lat="46.51693" lon="4.45374">
        <ele>363.58898925781</ele>
        <time>2020-09-30T12:32:27Z</time>
      </trkpt>
      <trkpt lat="46.51695" lon="4.45384">
        <ele>364.58898925781</ele>
        <time>2020-09-30T12:32:32Z</time>
      </trkpt>
      <trkpt lat="46.51696" lon="4.45398">
        <ele>368.58898925781</ele>
        <time>2020-09-30T12:32:37Z</time>
      </trkpt>
      <trkpt lat="46.51697" lon="4.4541">
        <ele>370.58898925781</ele>
        <time>2020-09-30T12:32:42Z</time>
      </trkpt>
      <trkpt lat="46.51699" lon="4.45419">
        <ele>371.58898925781</ele>
        <time>2020-09-30T12:32:47Z</time>
      </trkpt>
      <trkpt lat="46.51703" lon="4.45428">
        <ele>372.58898925781</ele>
        <time>2020-09-30T12:32:52Z</time>
      </trkpt>
      <trkpt lat="46.51706" lon="4.45437">
        <ele>377.58898925781</ele>
        <time>2020-09-30T12:32:58Z</time>
      </trkpt>
      <trkpt lat="46.51708" lon="4.45448">
        <ele>374.58898925781</ele>
        <time>2020-09-30T12:33:05Z</time>
      </trkpt>
      <trkpt lat="46.51709" lon="4.45459">
        <ele>374.58898925781</ele>
        <time>2020-09-30T12:33:10Z</time>
      </trkpt>
      <trkpt lat="46.51712" lon="4.45469">
        <ele>377.58898925781</ele>
        <time>2020-09-30T12:33:26Z</time>
      </trkpt>
      <trkpt lat="46.51718" lon="4.45489">
        <ele>375.58898925781</ele>
        <time>2020-09-30T12:33:31Z</time>
      </trkpt>
      <trkpt lat="46.51722" lon="4.45501">
        <ele>376.58898925781</ele>
        <time>2020-09-30T12:33:36Z</time>
      </trkpt>
      <trkpt lat="46.51727" lon="4.45509">
        <ele>376.58898925781</ele>
        <time>2020-09-30T12:33:41Z</time>
      </trkpt>
      <trkpt lat="46.51733" lon="4.45516">
        <ele>374.58898925781</ele>
        <time>2020-09-30T12:33:47Z</time>
      </trkpt>
      <trkpt lat="46.51739" lon="4.45522">
        <ele>375.58898925781</ele>
        <time>2020-09-30T12:33:53Z</time>
      </trkpt>
      <trkpt lat="46.51747" lon="4.45528">
        <ele>375.58898925781</ele>
        <time>2020-09-30T12:33:58Z</time>
      </trkpt>
      <trkpt lat="46.51754" lon="4.45534">
        <ele>376.58898925781</ele>
        <time>2020-09-30T12:34:03Z</time>
      </trkpt>
      <trkpt lat="46.51758" lon="4.4554">
        <ele>378.58898925781</ele>
        <time>2020-09-30T12:34:08Z</time>
      </trkpt>
      <trkpt lat="46.51764" lon="4.45548">
        <ele>376.58898925781</ele>
        <time>2020-09-30T12:34:13Z</time>
      </trkpt>
      <trkpt lat="46.51772" lon="4.45551">
        <ele>372.58898925781</ele>
        <time>2020-09-30T12:34:18Z</time>
      </trkpt>
      <trkpt lat="46.51776" lon="4.45558">
        <ele>371.58898925781</ele>
        <time>2020-09-30T12:34:24Z</time>
      </trkpt>
      <trkpt lat="46.51782" lon="4.45564">
        <ele>372.58898925781</ele>
        <time>2020-09-30T12:34:30Z</time>
      </trkpt>
      <trkpt lat="46.51788" lon="4.45569">
        <ele>374.58898925781</ele>
        <time>2020-09-30T12:34:35Z</time>
      </trkpt>
      <trkpt lat="46.51794" lon="4.45575">
        <ele>375.58898925781</ele>
        <time>2020-09-30T12:34:40Z</time>
      </trkpt>
      <trkpt lat="46.51799" lon="4.45582">
        <ele>375.58898925781</ele>
        <time>2020-09-30T12:34:45Z</time>
      </trkpt>
      <trkpt lat="46.51804" lon="4.45589">
        <ele>375.58898925781</ele>
        <time>2020-09-30T12:34:50Z</time>
      </trkpt>
      <trkpt lat="46.51811" lon="4.45595">
        <ele>373.58898925781</ele>
        <time>2020-09-30T12:34:55Z</time>
      </trkpt>
      <trkpt lat="46.51816" lon="4.456">
        <ele>373.58898925781</ele>
        <time>2020-09-30T12:35:01Z</time>
      </trkpt>
      <trkpt lat="46.51823" lon="4.4561">
        <ele>375.58898925781</ele>
        <time>2020-09-30T12:35:06Z</time>
      </trkpt>
      <trkpt lat="46.51829" lon="4.45617">
        <ele>378.58898925781</ele>
        <time>2020-09-30T12:35:11Z</time>
      </trkpt>
      <trkpt lat="46.51835" lon="4.45624">
        <ele>377.58898925781</ele>
        <time>2020-09-30T12:35:16Z</time>
      </trkpt>
      <trkpt lat="46.51842" lon="4.45621">
        <ele>374.58898925781</ele>
        <time>2020-09-30T12:35:22Z</time>
      </trkpt>
      <trkpt lat="46.51848" lon="4.45625">
        <ele>371.58898925781</ele>
        <time>2020-09-30T12:35:30Z</time>
      </trkpt>
      <trkpt lat="46.51855" lon="4.45629">
        <ele>370.58898925781</ele>
        <time>2020-09-30T12:35:35Z</time>
      </trkpt>
      <trkpt lat="46.51862" lon="4.45637">
        <ele>369.58898925781</ele>
        <time>2020-09-30T12:35:40Z</time>
      </trkpt>
      <trkpt lat="46.5187" lon="4.45645">
        <ele>370.58898925781</ele>
        <time>2020-09-30T12:35:45Z</time>
      </trkpt>
      <trkpt lat="46.51875" lon="4.45651">
        <ele>369.58898925781</ele>
        <time>2020-09-30T12:35:50Z</time>
      </trkpt>
      <trkpt lat="46.51882" lon="4.45655">
        <ele>369.58898925781</ele>
        <time>2020-09-30T12:35:56Z</time>
      </trkpt>
      <trkpt lat="46.51888" lon="4.45662">
        <ele>369.58898925781</ele>
        <time>2020-09-30T12:36:01Z</time>
      </trkpt>
      <trkpt lat="46.51893" lon="4.45671">
        <ele>368.58999633789</ele>
        <time>2020-09-30T12:36:06Z</time>
      </trkpt>
      <trkpt lat="46.51899" lon="4.45679">
        <ele>364.58999633789</ele>
        <time>2020-09-30T12:36:11Z</time>
      </trkpt>
      <trkpt lat="46.51904" lon="4.45687">
        <ele>364.58999633789</ele>
        <time>2020-09-30T12:36:16Z</time>
      </trkpt>
      <trkpt lat="46.51914" lon="4.45691">
        <ele>366.58999633789</ele>
        <time>2020-09-30T12:36:21Z</time>
      </trkpt>
      <trkpt lat="46.51921" lon="4.45704">
        <ele>367.58999633789</ele>
        <time>2020-09-30T12:36:26Z</time>
      </trkpt>
      <trkpt lat="46.51927" lon="4.45707">
        <ele>369.58999633789</ele>
        <time>2020-09-30T12:36:33Z</time>
      </trkpt>
      <trkpt lat="46.51932" lon="4.45713">
        <ele>371.58999633789</ele>
        <time>2020-09-30T12:36:41Z</time>
      </trkpt>
      <trkpt lat="46.51938" lon="4.45722">
        <ele>371.58999633789</ele>
        <time>2020-09-30T12:36:47Z</time>
      </trkpt>
      <trkpt lat="46.51944" lon="4.45736">
        <ele>370.58999633789</ele>
        <time>2020-09-30T12:36:52Z</time>
      </trkpt>
      <trkpt lat="46.51951" lon="4.45743">
        <ele>369.58999633789</ele>
        <time>2020-09-30T12:36:57Z</time>
      </trkpt>
      <trkpt lat="46.51958" lon="4.45745">
        <ele>367.58999633789</ele>
        <time>2020-09-30T12:37:02Z</time>
      </trkpt>
      <trkpt lat="46.51964" lon="4.45752">
        <ele>366.58999633789</ele>
        <time>2020-09-30T12:37:07Z</time>
      </trkpt>
      <trkpt lat="46.5197" lon="4.45756">
        <ele>368.58999633789</ele>
        <time>2020-09-30T12:37:13Z</time>
      </trkpt>
      <trkpt lat="46.51978" lon="4.45763">
        <ele>368.58999633789</ele>
        <time>2020-09-30T12:37:18Z</time>
      </trkpt>
      <trkpt lat="46.51987" lon="4.45758">
        <ele>367.58999633789</ele>
        <time>2020-09-30T12:37:23Z</time>
      </trkpt>
      <trkpt lat="46.51993" lon="4.45765">
        <ele>367.58999633789</ele>
        <time>2020-09-30T12:37:28Z</time>
      </trkpt>
      <trkpt lat="46.51999" lon="4.45772">
        <ele>367.58999633789</ele>
        <time>2020-09-30T12:37:33Z</time>
      </trkpt>
      <trkpt lat="46.52005" lon="4.45778">
        <ele>369.58999633789</ele>
        <time>2020-09-30T12:37:38Z</time>
      </trkpt>
      <trkpt lat="46.52014" lon="4.45783">
        <ele>370.58999633789</ele>
        <time>2020-09-30T12:37:43Z</time>
      </trkpt>
      <trkpt lat="46.5202" lon="4.45788">
        <ele>368.58999633789</ele>
        <time>2020-09-30T12:37:48Z</time>
      </trkpt>
      <trkpt lat="46.52026" lon="4.45793">
        <ele>368.58999633789</ele>
        <time>2020-09-30T12:37:53Z</time>
      </trkpt>
      <trkpt lat="46.52033" lon="4.45797">
        <ele>366.58999633789</ele>
        <time>2020-09-30T12:37:58Z</time>
      </trkpt>
      <trkpt lat="46.52041" lon="4.45799">
        <ele>366.58999633789</ele>
        <time>2020-09-30T12:38:03Z</time>
      </trkpt>
      <trkpt lat="46.52049" lon="4.458">
        <ele>364.58999633789</ele>
        <time>2020-09-30T12:38:09Z</time>
      </trkpt>
      <trkpt lat="46.52055" lon="4.45805">
        <ele>365.58999633789</ele>
        <time>2020-09-30T12:38:14Z</time>
      </trkpt>
      <trkpt lat="46.52064" lon="4.45808">
        <ele>362.58999633789</ele>
        <time>2020-09-30T12:38:19Z</time>
      </trkpt>
      <trkpt lat="46.52071" lon="4.45809">
        <ele>361.58999633789</ele>
        <time>2020-09-30T12:38:25Z</time>
      </trkpt>
      <trkpt lat="46.52078" lon="4.45814">
        <ele>360.58999633789</ele>
        <time>2020-09-30T12:38:33Z</time>
      </trkpt>
      <trkpt lat="46.52085" lon="4.45819">
        <ele>359.58999633789</ele>
        <time>2020-09-30T12:38:38Z</time>
      </trkpt>
      <trkpt lat="46.52094" lon="4.45822">
        <ele>358.58999633789</ele>
        <time>2020-09-30T12:38:43Z</time>
      </trkpt>
      <trkpt lat="46.52104" lon="4.4582">
        <ele>353.58999633789</ele>
        <time>2020-09-30T12:38:48Z</time>
      </trkpt>
      <trkpt lat="46.52111" lon="4.4582">
        <ele>353.58999633789</ele>
        <time>2020-09-30T12:38:53Z</time>
      </trkpt>
      <trkpt lat="46.52117" lon="4.45823">
        <ele>355.58999633789</ele>
        <time>2020-09-30T12:38:59Z</time>
      </trkpt>
      <trkpt lat="46.52123" lon="4.45827">
        <ele>354.58999633789</ele>
        <time>2020-09-30T12:39:05Z</time>
      </trkpt>
      <trkpt lat="46.52131" lon="4.45825">
        <ele>354.58999633789</ele>
        <time>2020-09-30T12:39:10Z</time>
      </trkpt>
      <trkpt lat="46.52139" lon="4.45825">
        <ele>355.58999633789</ele>
        <time>2020-09-30T12:39:15Z</time>
      </trkpt>
      <trkpt lat="46.52146" lon="4.45826">
        <ele>355.58999633789</ele>
        <time>2020-09-30T12:39:21Z</time>
      </trkpt>
      <trkpt lat="46.52154" lon="4.45826">
        <ele>355.58999633789</ele>
        <time>2020-09-30T12:39:27Z</time>
      </trkpt>
      <trkpt lat="46.52162" lon="4.45827">
        <ele>355.58999633789</ele>
        <time>2020-09-30T12:39:32Z</time>
      </trkpt>
      <trkpt lat="46.52169" lon="4.45828">
        <ele>355.58999633789</ele>
        <time>2020-09-30T12:39:37Z</time>
      </trkpt>
      <trkpt lat="46.52175" lon="4.4583">
        <ele>357.58999633789</ele>
        <time>2020-09-30T12:39:43Z</time>
      </trkpt>
      <trkpt lat="46.52182" lon="4.45836">
        <ele>357.58999633789</ele>
        <time>2020-09-30T12:39:48Z</time>
      </trkpt>
      <trkpt lat="46.52188" lon="4.45842">
        <ele>358.58999633789</ele>
        <time>2020-09-30T12:39:53Z</time>
      </trkpt>
      <trkpt lat="46.52195" lon="4.45847">
        <ele>356.58999633789</ele>
        <time>2020-09-30T12:39:58Z</time>
      </trkpt>
      <trkpt lat="46.52201" lon="4.45852">
        <ele>358.58999633789</ele>
        <time>2020-09-30T12:40:04Z</time>
      </trkpt>
      <trkpt lat="46.52206" lon="4.45858">
        <ele>356.59100341797</ele>
        <time>2020-09-30T12:40:09Z</time>
      </trkpt>
      <trkpt lat="46.52211" lon="4.45866">
        <ele>355.59100341797</ele>
        <time>2020-09-30T12:40:14Z</time>
      </trkpt>
      <trkpt lat="46.52217" lon="4.45877">
        <ele>355.59100341797</ele>
        <time>2020-09-30T12:40:19Z</time>
      </trkpt>
      <trkpt lat="46.52224" lon="4.45878">
        <ele>354.59100341797</ele>
        <time>2020-09-30T12:40:26Z</time>
      </trkpt>
      <trkpt lat="46.52229" lon="4.45886">
        <ele>354.59100341797</ele>
        <time>2020-09-30T12:40:31Z</time>
      </trkpt>
      <trkpt lat="46.52236" lon="4.45893">
        <ele>353.59100341797</ele>
        <time>2020-09-30T12:40:36Z</time>
      </trkpt>
      <trkpt lat="46.52241" lon="4.45897">
        <ele>356.59100341797</ele>
        <time>2020-09-30T12:40:42Z</time>
      </trkpt>
      <trkpt lat="46.52246" lon="4.45906">
        <ele>356.59100341797</ele>
        <time>2020-09-30T12:40:47Z</time>
      </trkpt>
      <trkpt lat="46.52256" lon="4.45907">
        <ele>357.59100341797</ele>
        <time>2020-09-30T12:40:52Z</time>
      </trkpt>
      <trkpt lat="46.52262" lon="4.4591">
        <ele>358.59100341797</ele>
        <time>2020-09-30T12:40:58Z</time>
      </trkpt>
      <trkpt lat="46.52268" lon="4.45915">
        <ele>355.59100341797</ele>
        <time>2020-09-30T12:41:03Z</time>
      </trkpt>
      <trkpt lat="46.52275" lon="4.45917">
        <ele>357.59100341797</ele>
        <time>2020-09-30T12:41:10Z</time>
      </trkpt>
      <trkpt lat="46.52281" lon="4.45923">
        <ele>359.59100341797</ele>
        <time>2020-09-30T12:41:16Z</time>
      </trkpt>
      <trkpt lat="46.52285" lon="4.45931">
        <ele>362.59100341797</ele>
        <time>2020-09-30T12:41:21Z</time>
      </trkpt>
      <trkpt lat="46.52291" lon="4.45935">
        <ele>363.59100341797</ele>
        <time>2020-09-30T12:41:28Z</time>
      </trkpt>
      <trkpt lat="46.52298" lon="4.45938">
        <ele>361.59100341797</ele>
        <time>2020-09-30T12:41:35Z</time>
      </trkpt>
      <trkpt lat="46.52304" lon="4.45945">
        <ele>363.59100341797</ele>
        <time>2020-09-30T12:41:41Z</time>
      </trkpt>
      <trkpt lat="46.5231" lon="4.45948">
        <ele>363.59100341797</ele>
        <time>2020-09-30T12:41:46Z</time>
      </trkpt>
      <trkpt lat="46.52316" lon="4.45954">
        <ele>365.59100341797</ele>
        <time>2020-09-30T12:41:52Z</time>
      </trkpt>
      <trkpt lat="46.52322" lon="4.45958">
        <ele>367.59100341797</ele>
        <time>2020-09-30T12:41:59Z</time>
      </trkpt>
      <trkpt lat="46.52328" lon="4.45965">
        <ele>367.59100341797</ele>
        <time>2020-09-30T12:42:04Z</time>
      </trkpt>
      <trkpt lat="46.52334" lon="4.45969">
        <ele>365.59100341797</ele>
        <time>2020-09-30T12:42:10Z</time>
      </trkpt>
      <trkpt lat="46.5234" lon="4.45975">
        <ele>367.59100341797</ele>
        <time>2020-09-30T12:42:16Z</time>
      </trkpt>
      <trkpt lat="46.52347" lon="4.45979">
        <ele>365.59100341797</ele>
        <time>2020-09-30T12:42:22Z</time>
      </trkpt>
      <trkpt lat="46.52354" lon="4.45985">
        <ele>367.59100341797</ele>
        <time>2020-09-30T12:42:28Z</time>
      </trkpt>
      <trkpt lat="46.52359" lon="4.45992">
        <ele>368.59100341797</ele>
        <time>2020-09-30T12:42:34Z</time>
      </trkpt>
      <trkpt lat="46.52365" lon="4.45997">
        <ele>369.59100341797</ele>
        <time>2020-09-30T12:42:39Z</time>
      </trkpt>
      <trkpt lat="46.52372" lon="4.45999">
        <ele>370.59100341797</ele>
        <time>2020-09-30T12:42:46Z</time>
      </trkpt>
      <trkpt lat="46.52378" lon="4.46007">
        <ele>371.59100341797</ele>
        <time>2020-09-30T12:42:52Z</time>
      </trkpt>
      <trkpt lat="46.52385" lon="4.46015">
        <ele>372.59100341797</ele>
        <time>2020-09-30T12:42:57Z</time>
      </trkpt>
      <trkpt lat="46.5239" lon="4.46022">
        <ele>374.59100341797</ele>
        <time>2020-09-30T12:43:03Z</time>
      </trkpt>
      <trkpt lat="46.52395" lon="4.4603">
        <ele>374.59100341797</ele>
        <time>2020-09-30T12:43:08Z</time>
      </trkpt>
      <trkpt lat="46.52398" lon="4.4604">
        <ele>374.59100341797</ele>
        <time>2020-09-30T12:43:13Z</time>
      </trkpt>
      <trkpt lat="46.52403" lon="4.46048">
        <ele>374.59100341797</ele>
        <time>2020-09-30T12:43:21Z</time>
      </trkpt>
      <trkpt lat="46.52407" lon="4.46058">
        <ele>375.59100341797</ele>
        <time>2020-09-30T12:43:26Z</time>
      </trkpt>
      <trkpt lat="46.52411" lon="4.46066">
        <ele>374.59100341797</ele>
        <time>2020-09-30T12:43:34Z</time>
      </trkpt>
      <trkpt lat="46.52416" lon="4.46074">
        <ele>377.59100341797</ele>
        <time>2020-09-30T12:43:39Z</time>
      </trkpt>
      <trkpt lat="46.52423" lon="4.46082">
        <ele>376.59100341797</ele>
        <time>2020-09-30T12:43:47Z</time>
      </trkpt>
      <trkpt lat="46.52428" lon="4.46093">
        <ele>373.59100341797</ele>
        <time>2020-09-30T12:43:52Z</time>
      </trkpt>
      <trkpt lat="46.52434" lon="4.46098">
        <ele>375.59100341797</ele>
        <time>2020-09-30T12:43:57Z</time>
      </trkpt>
      <trkpt lat="46.52439" lon="4.4611">
        <ele>376.59100341797</ele>
        <time>2020-09-30T12:44:04Z</time>
      </trkpt>
      <trkpt lat="46.52445" lon="4.46118">
        <ele>380.59100341797</ele>
        <time>2020-09-30T12:44:09Z</time>
      </trkpt>
      <trkpt lat="46.52451" lon="4.46125">
        <ele>380.59100341797</ele>
        <time>2020-09-30T12:44:14Z</time>
      </trkpt>
      <trkpt lat="46.52456" lon="4.46133">
        <ele>381.59100341797</ele>
        <time>2020-09-30T12:44:21Z</time>
      </trkpt>
      <trkpt lat="46.52462" lon="4.46141">
        <ele>378.59100341797</ele>
        <time>2020-09-30T12:44:27Z</time>
      </trkpt>
      <trkpt lat="46.52467" lon="4.46154">
        <ele>379.59100341797</ele>
        <time>2020-09-30T12:44:32Z</time>
      </trkpt>
      <trkpt lat="46.52473" lon="4.46163">
        <ele>382.59100341797</ele>
        <time>2020-09-30T12:44:37Z</time>
      </trkpt>
      <trkpt lat="46.52478" lon="4.46175">
        <ele>377.59100341797</ele>
        <time>2020-09-30T12:44:45Z</time>
      </trkpt>
      <trkpt lat="46.52482" lon="4.46185">
        <ele>376.59201049805</ele>
        <time>2020-09-30T12:44:50Z</time>
      </trkpt>
      <trkpt lat="46.52487" lon="4.46191">
        <ele>376.59201049805</ele>
        <time>2020-09-30T12:44:55Z</time>
      </trkpt>
      <trkpt lat="46.52493" lon="4.46196">
        <ele>377.59201049805</ele>
        <time>2020-09-30T12:45:00Z</time>
      </trkpt>
      <trkpt lat="46.52498" lon="4.46205">
        <ele>377.59201049805</ele>
        <time>2020-09-30T12:45:05Z</time>
      </trkpt>
      <trkpt lat="46.52504" lon="4.46216">
        <ele>377.59201049805</ele>
        <time>2020-09-30T12:45:10Z</time>
      </trkpt>
      <trkpt lat="46.52511" lon="4.46213">
        <ele>377.59201049805</ele>
        <time>2020-09-30T12:45:18Z</time>
      </trkpt>
      <trkpt lat="46.52517" lon="4.46221">
        <ele>375.59201049805</ele>
        <time>2020-09-30T12:45:23Z</time>
      </trkpt>
      <trkpt lat="46.52525" lon="4.46224">
        <ele>377.59201049805</ele>
        <time>2020-09-30T12:45:28Z</time>
      </trkpt>
      <trkpt lat="46.52532" lon="4.46224">
        <ele>378.59201049805</ele>
        <time>2020-09-30T12:45:33Z</time>
      </trkpt>
      <trkpt lat="46.5254" lon="4.46228">
        <ele>377.59201049805</ele>
        <time>2020-09-30T12:45:38Z</time>
      </trkpt>
      <trkpt lat="46.52547" lon="4.46231">
        <ele>379.59201049805</ele>
        <time>2020-09-30T12:45:43Z</time>
      </trkpt>
      <trkpt lat="46.52555" lon="4.46232">
        <ele>377.59201049805</ele>
        <time>2020-09-30T12:45:50Z</time>
      </trkpt>
      <trkpt lat="46.52562" lon="4.46239">
        <ele>377.59201049805</ele>
        <time>2020-09-30T12:45:55Z</time>
      </trkpt>
      <trkpt lat="46.52569" lon="4.4624">
        <ele>378.59201049805</ele>
        <time>2020-09-30T12:46:00Z</time>
      </trkpt>
      <trkpt lat="46.52575" lon="4.46245">
        <ele>379.59201049805</ele>
        <time>2020-09-30T12:46:05Z</time>
      </trkpt>
      <trkpt lat="46.52581" lon="4.46249">
        <ele>377.59201049805</ele>
        <time>2020-09-30T12:46:10Z</time>
      </trkpt>
      <trkpt lat="46.52588" lon="4.46247">
        <ele>376.59201049805</ele>
        <time>2020-09-30T12:46:15Z</time>
      </trkpt>
      <trkpt lat="46.52597" lon="4.46255">
        <ele>376.59201049805</ele>
        <time>2020-09-30T12:46:20Z</time>
      </trkpt>
      <trkpt lat="46.52605" lon="4.46255">
        <ele>377.59201049805</ele>
        <time>2020-09-30T12:46:25Z</time>
      </trkpt>
      <trkpt lat="46.52612" lon="4.46258">
        <ele>379.59201049805</ele>
        <time>2020-09-30T12:46:32Z</time>
      </trkpt>
      <trkpt lat="46.52618" lon="4.46255">
        <ele>381.59201049805</ele>
        <time>2020-09-30T12:46:38Z</time>
      </trkpt>
      <trkpt lat="46.52625" lon="4.4626">
        <ele>379.59201049805</ele>
        <time>2020-09-30T12:46:43Z</time>
      </trkpt>
      <trkpt lat="46.52631" lon="4.46265">
        <ele>379.59201049805</ele>
        <time>2020-09-30T12:46:48Z</time>
      </trkpt>
      <trkpt lat="46.52638" lon="4.46271">
        <ele>381.59201049805</ele>
        <time>2020-09-30T12:46:53Z</time>
      </trkpt>
      <trkpt lat="46.52645" lon="4.46276">
        <ele>382.59201049805</ele>
        <time>2020-09-30T12:46:58Z</time>
      </trkpt>
      <trkpt lat="46.52653" lon="4.4628">
        <ele>381.59201049805</ele>
        <time>2020-09-30T12:47:04Z</time>
      </trkpt>
      <trkpt lat="46.52659" lon="4.46283">
        <ele>380.59201049805</ele>
        <time>2020-09-30T12:47:09Z</time>
      </trkpt>
      <trkpt lat="46.52667" lon="4.46283">
        <ele>377.59201049805</ele>
        <time>2020-09-30T12:47:16Z</time>
      </trkpt>
      <trkpt lat="46.52674" lon="4.46288">
        <ele>378.59201049805</ele>
        <time>2020-09-30T12:47:21Z</time>
      </trkpt>
      <trkpt lat="46.52681" lon="4.46287">
        <ele>380.59201049805</ele>
        <time>2020-09-30T12:47:26Z</time>
      </trkpt>
      <trkpt lat="46.52688" lon="4.46293">
        <ele>381.59201049805</ele>
        <time>2020-09-30T12:47:31Z</time>
      </trkpt>
      <trkpt lat="46.52694" lon="4.46288">
        <ele>378.59201049805</ele>
        <time>2020-09-30T12:47:36Z</time>
      </trkpt>
      <trkpt lat="46.527" lon="4.46285">
        <ele>379.59201049805</ele>
        <time>2020-09-30T12:47:42Z</time>
      </trkpt>
      <trkpt lat="46.52707" lon="4.46292">
        <ele>381.59201049805</ele>
        <time>2020-09-30T12:47:47Z</time>
      </trkpt>
      <trkpt lat="46.52714" lon="4.46296">
        <ele>381.59201049805</ele>
        <time>2020-09-30T12:47:52Z</time>
      </trkpt>
      <trkpt lat="46.52721" lon="4.46293">
        <ele>382.59201049805</ele>
        <time>2020-09-30T12:47:59Z</time>
      </trkpt>
      <trkpt lat="46.52728" lon="4.46298">
        <ele>379.59201049805</ele>
        <time>2020-09-30T12:48:04Z</time>
      </trkpt>
      <trkpt lat="46.52736" lon="4.46301">
        <ele>381.59201049805</ele>
        <time>2020-09-30T12:48:10Z</time>
      </trkpt>
      <trkpt lat="46.52743" lon="4.46305">
        <ele>382.59201049805</ele>
        <time>2020-09-30T12:48:18Z</time>
      </trkpt>
      <trkpt lat="46.5275" lon="4.46311">
        <ele>384.59201049805</ele>
        <time>2020-09-30T12:48:23Z</time>
      </trkpt>
      <trkpt lat="46.5276" lon="4.46321">
        <ele>385.59201049805</ele>
        <time>2020-09-30T12:48:28Z</time>
      </trkpt>
      <trkpt lat="46.52767" lon="4.46325">
        <ele>385.59201049805</ele>
        <time>2020-09-30T12:48:33Z</time>
      </trkpt>
      <trkpt lat="46.52774" lon="4.46329">
        <ele>386.59201049805</ele>
        <time>2020-09-30T12:48:40Z</time>
      </trkpt>
      <trkpt lat="46.52781" lon="4.46332">
        <ele>388.59201049805</ele>
        <time>2020-09-30T12:48:45Z</time>
      </trkpt>
      <trkpt lat="46.52788" lon="4.46336">
        <ele>390.59201049805</ele>
        <time>2020-09-30T12:48:51Z</time>
      </trkpt>
      <trkpt lat="46.52795" lon="4.4634">
        <ele>389.59201049805</ele>
        <time>2020-09-30T12:48:58Z</time>
      </trkpt>
      <trkpt lat="46.52801" lon="4.46344">
        <ele>387.59298706055</ele>
        <time>2020-09-30T12:49:03Z</time>
      </trkpt>
      <trkpt lat="46.52808" lon="4.46347">
        <ele>387.59298706055</ele>
        <time>2020-09-30T12:49:09Z</time>
      </trkpt>
      <trkpt lat="46.52815" lon="4.4635">
        <ele>389.59298706055</ele>
        <time>2020-09-30T12:49:17Z</time>
      </trkpt>
      <trkpt lat="46.52822" lon="4.46348">
        <ele>389.59298706055</ele>
        <time>2020-09-30T12:49:22Z</time>
      </trkpt>
      <trkpt lat="46.52832" lon="4.46354">
        <ele>390.59298706055</ele>
        <time>2020-09-30T12:49:27Z</time>
      </trkpt>
      <trkpt lat="46.5284" lon="4.46361">
        <ele>391.59298706055</ele>
        <time>2020-09-30T12:49:32Z</time>
      </trkpt>
      <trkpt lat="46.52847" lon="4.46364">
        <ele>392.59298706055</ele>
        <time>2020-09-30T12:49:37Z</time>
      </trkpt>
      <trkpt lat="46.52853" lon="4.46368">
        <ele>392.59298706055</ele>
        <time>2020-09-30T12:49:42Z</time>
      </trkpt>
      <trkpt lat="46.5286" lon="4.46371">
        <ele>392.59298706055</ele>
        <time>2020-09-30T12:49:48Z</time>
      </trkpt>
      <trkpt lat="46.52868" lon="4.46375">
        <ele>395.59298706055</ele>
        <time>2020-09-30T12:49:53Z</time>
      </trkpt>
      <trkpt lat="46.52874" lon="4.46381">
        <ele>397.59298706055</ele>
        <time>2020-09-30T12:50:00Z</time>
      </trkpt>
      <trkpt lat="46.52879" lon="4.46386">
        <ele>395.59298706055</ele>
        <time>2020-09-30T12:50:06Z</time>
      </trkpt>
      <trkpt lat="46.52885" lon="4.46392">
        <ele>397.59298706055</ele>
        <time>2020-09-30T12:50:12Z</time>
      </trkpt>
      <trkpt lat="46.52888" lon="4.46402">
        <ele>397.59298706055</ele>
        <time>2020-09-30T12:50:19Z</time>
      </trkpt>
      <trkpt lat="46.52889" lon="4.46413">
        <ele>397.59298706055</ele>
        <time>2020-09-30T12:50:24Z</time>
      </trkpt>
      <trkpt lat="46.5289" lon="4.46424">
        <ele>392.59298706055</ele>
        <time>2020-09-30T12:50:30Z</time>
      </trkpt>
      <trkpt lat="46.52889" lon="4.46433">
        <ele>393.59298706055</ele>
        <time>2020-09-30T12:50:35Z</time>
      </trkpt>
      <trkpt lat="46.52889" lon="4.46444">
        <ele>393.59298706055</ele>
        <time>2020-09-30T12:50:40Z</time>
      </trkpt>
      <trkpt lat="46.52892" lon="4.46454">
        <ele>392.59298706055</ele>
        <time>2020-09-30T12:50:45Z</time>
      </trkpt>
      <trkpt lat="46.52896" lon="4.46465">
        <ele>391.59298706055</ele>
        <time>2020-09-30T12:50:50Z</time>
      </trkpt>
      <trkpt lat="46.52897" lon="4.46474">
        <ele>388.59298706055</ele>
        <time>2020-09-30T12:50:56Z</time>
      </trkpt>
      <trkpt lat="46.52896" lon="4.46484">
        <ele>389.59298706055</ele>
        <time>2020-09-30T12:51:01Z</time>
      </trkpt>
      <trkpt lat="46.52897" lon="4.46494">
        <ele>389.59298706055</ele>
        <time>2020-09-30T12:51:06Z</time>
      </trkpt>
      <trkpt lat="46.529" lon="4.46508">
        <ele>388.59298706055</ele>
        <time>2020-09-30T12:51:11Z</time>
      </trkpt>
      <trkpt lat="46.52901" lon="4.46521">
        <ele>389.59298706055</ele>
        <time>2020-09-30T12:51:16Z</time>
      </trkpt>
      <trkpt lat="46.52902" lon="4.46531">
        <ele>387.59298706055</ele>
        <time>2020-09-30T12:51:23Z</time>
      </trkpt>
      <trkpt lat="46.52904" lon="4.46542">
        <ele>386.59298706055</ele>
        <time>2020-09-30T12:51:29Z</time>
      </trkpt>
      <trkpt lat="46.52906" lon="4.46551">
        <ele>383.59298706055</ele>
        <time>2020-09-30T12:51:34Z</time>
      </trkpt>
      <trkpt lat="46.52909" lon="4.46561">
        <ele>384.59298706055</ele>
        <time>2020-09-30T12:51:39Z</time>
      </trkpt>
      <trkpt lat="46.52915" lon="4.46576">
        <ele>382.59298706055</ele>
        <time>2020-09-30T12:51:44Z</time>
      </trkpt>
      <trkpt lat="46.52914" lon="4.46586">
        <ele>384.59298706055</ele>
        <time>2020-09-30T12:51:49Z</time>
      </trkpt>
      <trkpt lat="46.52916" lon="4.46594">
        <ele>385.59298706055</ele>
        <time>2020-09-30T12:51:55Z</time>
      </trkpt>
      <trkpt lat="46.52918" lon="4.46605">
        <ele>383.59298706055</ele>
        <time>2020-09-30T12:52:02Z</time>
      </trkpt>
      <trkpt lat="46.52917" lon="4.46618">
        <ele>386.59298706055</ele>
        <time>2020-09-30T12:52:07Z</time>
      </trkpt>
      <trkpt lat="46.52919" lon="4.4663">
        <ele>387.59298706055</ele>
        <time>2020-09-30T12:52:12Z</time>
      </trkpt>
      <trkpt lat="46.52921" lon="4.46643">
        <ele>391.59298706055</ele>
        <time>2020-09-30T12:52:17Z</time>
      </trkpt>
      <trkpt lat="46.52923" lon="4.46655">
        <ele>389.59298706055</ele>
        <time>2020-09-30T12:52:22Z</time>
      </trkpt>
      <trkpt lat="46.52928" lon="4.46661">
        <ele>386.59298706055</ele>
        <time>2020-09-30T12:52:28Z</time>
      </trkpt>
      <trkpt lat="46.52932" lon="4.46671">
        <ele>386.59298706055</ele>
        <time>2020-09-30T12:52:34Z</time>
      </trkpt>
      <trkpt lat="46.52935" lon="4.46681">
        <ele>387.59298706055</ele>
        <time>2020-09-30T12:52:39Z</time>
      </trkpt>
      <trkpt lat="46.5294" lon="4.46689">
        <ele>390.59298706055</ele>
        <time>2020-09-30T12:52:44Z</time>
      </trkpt>
      <trkpt lat="46.52944" lon="4.467">
        <ele>391.59298706055</ele>
        <time>2020-09-30T12:52:49Z</time>
      </trkpt>
      <trkpt lat="46.52947" lon="4.46709">
        <ele>392.59298706055</ele>
        <time>2020-09-30T12:52:54Z</time>
      </trkpt>
      <trkpt lat="46.52949" lon="4.46719">
        <ele>393.59298706055</ele>
        <time>2020-09-30T12:53:00Z</time>
      </trkpt>
      <trkpt lat="46.52951" lon="4.46729">
        <ele>393.59298706055</ele>
        <time>2020-09-30T12:53:05Z</time>
      </trkpt>
      <trkpt lat="46.52954" lon="4.46739">
        <ele>391.59298706055</ele>
        <time>2020-09-30T12:53:10Z</time>
      </trkpt>
      <trkpt lat="46.52954" lon="4.46748">
        <ele>389.59298706055</ele>
        <time>2020-09-30T12:53:15Z</time>
      </trkpt>
      <trkpt lat="46.52957" lon="4.46759">
        <ele>384.59298706055</ele>
        <time>2020-09-30T12:53:20Z</time>
      </trkpt>
      <trkpt lat="46.52955" lon="4.4677">
        <ele>387.59298706055</ele>
        <time>2020-09-30T12:53:25Z</time>
      </trkpt>
      <trkpt lat="46.52953" lon="4.46779">
        <ele>386.59298706055</ele>
        <time>2020-09-30T12:53:31Z</time>
      </trkpt>
      <trkpt lat="46.52948" lon="4.46788">
        <ele>382.59298706055</ele>
        <time>2020-09-30T12:53:36Z</time>
      </trkpt>
      <trkpt lat="46.52945" lon="4.46798">
        <ele>385.59298706055</ele>
        <time>2020-09-30T12:53:41Z</time>
      </trkpt>
      <trkpt lat="46.52938" lon="4.46806">
        <ele>386.59298706055</ele>
        <time>2020-09-30T12:53:46Z</time>
      </trkpt>
      <trkpt lat="46.52932" lon="4.46814">
        <ele>389.59298706055</ele>
        <time>2020-09-30T12:53:51Z</time>
      </trkpt>
      <trkpt lat="46.52928" lon="4.46822">
        <ele>392.59298706055</ele>
        <time>2020-09-30T12:53:58Z</time>
      </trkpt>
      <trkpt lat="46.52922" lon="4.4683">
        <ele>394.59298706055</ele>
        <time>2020-09-30T12:54:03Z</time>
      </trkpt>
      <trkpt lat="46.52916" lon="4.46839">
        <ele>391.59298706055</ele>
        <time>2020-09-30T12:54:08Z</time>
      </trkpt>
      <trkpt lat="46.52914" lon="4.46848">
        <ele>391.59298706055</ele>
        <time>2020-09-30T12:54:14Z</time>
      </trkpt>
      <trkpt lat="46.52907" lon="4.46853">
        <ele>389.59298706055</ele>
        <time>2020-09-30T12:54:19Z</time>
      </trkpt>
      <trkpt lat="46.52901" lon="4.46858">
        <ele>389.59298706055</ele>
        <time>2020-09-30T12:54:24Z</time>
      </trkpt>
      <trkpt lat="46.52894" lon="4.46864">
        <ele>389.59298706055</ele>
        <time>2020-09-30T12:54:29Z</time>
      </trkpt>
      <trkpt lat="46.52888" lon="4.46871">
        <ele>389.59298706055</ele>
        <time>2020-09-30T12:54:34Z</time>
      </trkpt>
      <trkpt lat="46.52882" lon="4.4688">
        <ele>390.59298706055</ele>
        <time>2020-09-30T12:54:41Z</time>
      </trkpt>
      <trkpt lat="46.52877" lon="4.46887">
        <ele>391.59298706055</ele>
        <time>2020-09-30T12:54:46Z</time>
      </trkpt>
      <trkpt lat="46.52871" lon="4.46893">
        <ele>391.59298706055</ele>
        <time>2020-09-30T12:54:51Z</time>
      </trkpt>
      <trkpt lat="46.52868" lon="4.46902">
        <ele>395.59298706055</ele>
        <time>2020-09-30T12:54:57Z</time>
      </trkpt>
      <trkpt lat="46.52863" lon="4.46911">
        <ele>392.59298706055</ele>
        <time>2020-09-30T12:55:03Z</time>
      </trkpt>
      <trkpt lat="46.52856" lon="4.46917">
        <ele>394.59298706055</ele>
        <time>2020-09-30T12:55:08Z</time>
      </trkpt>
      <trkpt lat="46.52848" lon="4.46922">
        <ele>393.59298706055</ele>
        <time>2020-09-30T12:55:13Z</time>
      </trkpt>
      <trkpt lat="46.52843" lon="4.4693">
        <ele>393.59298706055</ele>
        <time>2020-09-30T12:55:18Z</time>
      </trkpt>
      <trkpt lat="46.52837" lon="4.46937">
        <ele>390.59298706055</ele>
        <time>2020-09-30T12:55:24Z</time>
      </trkpt>
      <trkpt lat="46.52833" lon="4.46945">
        <ele>389.59298706055</ele>
        <time>2020-09-30T12:55:29Z</time>
      </trkpt>
      <trkpt lat="46.52828" lon="4.46954">
        <ele>392.59298706055</ele>
        <time>2020-09-30T12:55:34Z</time>
      </trkpt>
      <trkpt lat="46.52822" lon="4.46962">
        <ele>392.59298706055</ele>
        <time>2020-09-30T12:55:39Z</time>
      </trkpt>
      <trkpt lat="46.52814" lon="4.46967">
        <ele>393.59298706055</ele>
        <time>2020-09-30T12:55:44Z</time>
      </trkpt>
      <trkpt lat="46.52806" lon="4.46973">
        <ele>393.59298706055</ele>
        <time>2020-09-30T12:55:49Z</time>
      </trkpt>
      <trkpt lat="46.52798" lon="4.46981">
        <ele>395.59298706055</ele>
        <time>2020-09-30T12:55:54Z</time>
      </trkpt>
      <trkpt lat="46.52793" lon="4.46987">
        <ele>395.59298706055</ele>
        <time>2020-09-30T12:55:59Z</time>
      </trkpt>
      <trkpt lat="46.52789" lon="4.46995">
        <ele>393.59298706055</ele>
        <time>2020-09-30T12:56:04Z</time>
      </trkpt>
      <trkpt lat="46.52788" lon="4.47005">
        <ele>391.59298706055</ele>
        <time>2020-09-30T12:56:10Z</time>
      </trkpt>
      <trkpt lat="46.52781" lon="4.47013">
        <ele>388.59298706055</ele>
        <time>2020-09-30T12:56:15Z</time>
      </trkpt>
      <trkpt lat="46.52774" lon="4.47019">
        <ele>387.59298706055</ele>
        <time>2020-09-30T12:56:20Z</time>
      </trkpt>
      <trkpt lat="46.52769" lon="4.47028">
        <ele>383.59298706055</ele>
        <time>2020-09-30T12:56:26Z</time>
      </trkpt>
      <trkpt lat="46.52766" lon="4.47036">
        <ele>384.59298706055</ele>
        <time>2020-09-30T12:56:32Z</time>
      </trkpt>
      <trkpt lat="46.5276" lon="4.47044">
        <ele>385.59298706055</ele>
        <time>2020-09-30T12:56:37Z</time>
      </trkpt>
      <trkpt lat="46.52756" lon="4.47053">
        <ele>383.59298706055</ele>
        <time>2020-09-30T12:56:42Z</time>
      </trkpt>
      <trkpt lat="46.5275" lon="4.4706">
        <ele>385.59298706055</ele>
        <time>2020-09-30T12:56:47Z</time>
      </trkpt>
      <trkpt lat="46.52747" lon="4.47068">
        <ele>384.59298706055</ele>
        <time>2020-09-30T12:56:54Z</time>
      </trkpt>
      <trkpt lat="46.5274" lon="4.47075">
        <ele>387.59298706055</ele>
        <time>2020-09-30T12:56:59Z</time>
      </trkpt>
      <trkpt lat="46.52735" lon="4.47082">
        <ele>387.59298706055</ele>
        <time>2020-09-30T12:57:04Z</time>
      </trkpt>
      <trkpt lat="46.52727" lon="4.47088">
        <ele>387.59298706055</ele>
        <time>2020-09-30T12:57:09Z</time>
      </trkpt>
      <trkpt lat="46.52722" lon="4.47095">
        <ele>390.59298706055</ele>
        <time>2020-09-30T12:57:15Z</time>
      </trkpt>
      <trkpt lat="46.52716" lon="4.47101">
        <ele>389.59298706055</ele>
        <time>2020-09-30T12:57:20Z</time>
      </trkpt>
      <trkpt lat="46.52711" lon="4.47109">
        <ele>387.59298706055</ele>
        <time>2020-09-30T12:57:25Z</time>
      </trkpt>
      <trkpt lat="46.52705" lon="4.47117">
        <ele>387.59298706055</ele>
        <time>2020-09-30T12:57:32Z</time>
      </trkpt>
      <trkpt lat="46.52697" lon="4.47126">
        <ele>387.59298706055</ele>
        <time>2020-09-30T12:57:37Z</time>
      </trkpt>
      <trkpt lat="46.52691" lon="4.47132">
        <ele>385.59298706055</ele>
        <time>2020-09-30T12:57:42Z</time>
      </trkpt>
      <trkpt lat="46.52685" lon="4.47139">
        <ele>385.59298706055</ele>
        <time>2020-09-30T12:57:48Z</time>
      </trkpt>
      <trkpt lat="46.52679" lon="4.47145">
        <ele>386.59298706055</ele>
        <time>2020-09-30T12:57:54Z</time>
      </trkpt>
      <trkpt lat="46.52671" lon="4.4715">
        <ele>389.59298706055</ele>
        <time>2020-09-30T12:58:00Z</time>
      </trkpt>
      <trkpt lat="46.52666" lon="4.47158">
        <ele>388.59298706055</ele>
        <time>2020-09-30T12:58:05Z</time>
      </trkpt>
      <trkpt lat="46.5266" lon="4.47167">
        <ele>389.59298706055</ele>
        <time>2020-09-30T12:58:10Z</time>
      </trkpt>
      <trkpt lat="46.52654" lon="4.47172">
        <ele>390.59298706055</ele>
        <time>2020-09-30T12:58:15Z</time>
      </trkpt>
      <trkpt lat="46.52649" lon="4.47181">
        <ele>392.59298706055</ele>
        <time>2020-09-30T12:58:22Z</time>
      </trkpt>
      <trkpt lat="46.52645" lon="4.47189">
        <ele>391.59298706055</ele>
        <time>2020-09-30T12:58:27Z</time>
      </trkpt>
      <trkpt lat="46.5264" lon="4.47196">
        <ele>389.59298706055</ele>
        <time>2020-09-30T12:58:32Z</time>
      </trkpt>
      <trkpt lat="46.52634" lon="4.47202">
        <ele>389.59298706055</ele>
        <time>2020-09-30T12:58:37Z</time>
      </trkpt>
      <trkpt lat="46.52628" lon="4.47209">
        <ele>389.59298706055</ele>
        <time>2020-09-30T12:58:42Z</time>
      </trkpt>
      <trkpt lat="46.52623" lon="4.47219">
        <ele>386.59298706055</ele>
        <time>2020-09-30T12:58:47Z</time>
      </trkpt>
      <trkpt lat="46.52619" lon="4.47227">
        <ele>386.59298706055</ele>
        <time>2020-09-30T12:58:54Z</time>
      </trkpt>
      <trkpt lat="46.52618" lon="4.47238">
        <ele>385.59298706055</ele>
        <time>2020-09-30T12:59:00Z</time>
      </trkpt>
      <trkpt lat="46.52614" lon="4.47247">
        <ele>386.59298706055</ele>
        <time>2020-09-30T12:59:05Z</time>
      </trkpt>
      <trkpt lat="46.5261" lon="4.47255">
        <ele>388.59298706055</ele>
        <time>2020-09-30T12:59:10Z</time>
      </trkpt>
      <trkpt lat="46.52605" lon="4.47262">
        <ele>388.59298706055</ele>
        <time>2020-09-30T12:59:15Z</time>
      </trkpt>
      <trkpt lat="46.52599" lon="4.47268">
        <ele>389.59298706055</ele>
        <time>2020-09-30T12:59:20Z</time>
      </trkpt>
      <trkpt lat="46.52594" lon="4.47274">
        <ele>391.59298706055</ele>
        <time>2020-09-30T12:59:26Z</time>
      </trkpt>
      <trkpt lat="46.52585" lon="4.47286">
        <ele>391.59298706055</ele>
        <time>2020-09-30T12:59:31Z</time>
      </trkpt>
      <trkpt lat="46.52582" lon="4.47295">
        <ele>391.59298706055</ele>
        <time>2020-09-30T12:59:36Z</time>
      </trkpt>
      <trkpt lat="46.52579" lon="4.47306">
        <ele>391.59298706055</ele>
        <time>2020-09-30T12:59:45Z</time>
      </trkpt>
      <trkpt lat="46.52582" lon="4.47317">
        <ele>391.59298706055</ele>
        <time>2020-09-30T12:59:50Z</time>
      </trkpt>
      <trkpt lat="46.52584" lon="4.47329">
        <ele>393.59298706055</ele>
        <time>2020-09-30T12:59:56Z</time>
      </trkpt>
      <trkpt lat="46.52585" lon="4.47339">
        <ele>394.59298706055</ele>
        <time>2020-09-30T13:00:01Z</time>
      </trkpt>
      <trkpt lat="46.52589" lon="4.47348">
        <ele>393.59298706055</ele>
        <time>2020-09-30T13:00:06Z</time>
      </trkpt>
      <trkpt lat="46.52592" lon="4.47357">
        <ele>391.59298706055</ele>
        <time>2020-09-30T13:00:11Z</time>
      </trkpt>
      <trkpt lat="46.52594" lon="4.47368">
        <ele>390.59298706055</ele>
        <time>2020-09-30T13:00:18Z</time>
      </trkpt>
      <trkpt lat="46.52594" lon="4.47381">
        <ele>394.59298706055</ele>
        <time>2020-09-30T13:00:23Z</time>
      </trkpt>
      <trkpt lat="46.52595" lon="4.47391">
        <ele>393.59298706055</ele>
        <time>2020-09-30T13:00:29Z</time>
      </trkpt>
      <trkpt lat="46.52595" lon="4.47402">
        <ele>392.59298706055</ele>
        <time>2020-09-30T13:00:36Z</time>
      </trkpt>
      <trkpt lat="46.52593" lon="4.47411">
        <ele>390.59298706055</ele>
        <time>2020-09-30T13:00:41Z</time>
      </trkpt>
      <trkpt lat="46.52592" lon="4.4742">
        <ele>389.59298706055</ele>
        <time>2020-09-30T13:00:46Z</time>
      </trkpt>
      <trkpt lat="46.52592" lon="4.47431">
        <ele>384.59298706055</ele>
        <time>2020-09-30T13:00:53Z</time>
      </trkpt>
      <trkpt lat="46.52591" lon="4.47441">
        <ele>384.59298706055</ele>
        <time>2020-09-30T13:00:58Z</time>
      </trkpt>
      <trkpt lat="46.52591" lon="4.47453">
        <ele>381.59298706055</ele>
        <time>2020-09-30T13:01:05Z</time>
      </trkpt>
      <trkpt lat="46.52589" lon="4.47463">
        <ele>383.59298706055</ele>
        <time>2020-09-30T13:01:10Z</time>
      </trkpt>
      <trkpt lat="46.52587" lon="4.47472">
        <ele>385.59298706055</ele>
        <time>2020-09-30T13:01:15Z</time>
      </trkpt>
      <trkpt lat="46.52589" lon="4.47483">
        <ele>383.59298706055</ele>
        <time>2020-09-30T13:01:21Z</time>
      </trkpt>
      <trkpt lat="46.52586" lon="4.47493">
        <ele>385.59298706055</ele>
        <time>2020-09-30T13:01:28Z</time>
      </trkpt>
      <trkpt lat="46.52582" lon="4.47503">
        <ele>391.59298706055</ele>
        <time>2020-09-30T13:01:33Z</time>
      </trkpt>
      <trkpt lat="46.52581" lon="4.47514">
        <ele>393.59298706055</ele>
        <time>2020-09-30T13:01:38Z</time>
      </trkpt>
      <trkpt lat="46.52577" lon="4.47523">
        <ele>396.59298706055</ele>
        <time>2020-09-30T13:01:43Z</time>
      </trkpt>
      <trkpt lat="46.52574" lon="4.47532">
        <ele>403.59298706055</ele>
        <time>2020-09-30T13:01:48Z</time>
      </trkpt>
      <trkpt lat="46.52572" lon="4.47542">
        <ele>402.59298706055</ele>
        <time>2020-09-30T13:01:54Z</time>
      </trkpt>
      <trkpt lat="46.5257" lon="4.47552">
        <ele>400.59298706055</ele>
        <time>2020-09-30T13:01:59Z</time>
      </trkpt>
      <trkpt lat="46.52567" lon="4.47561">
        <ele>401.59298706055</ele>
        <time>2020-09-30T13:02:04Z</time>
      </trkpt>
      <trkpt lat="46.52565" lon="4.47573">
        <ele>399.59298706055</ele>
        <time>2020-09-30T13:02:11Z</time>
      </trkpt>
      <trkpt lat="46.52565" lon="4.47583">
        <ele>402.59298706055</ele>
        <time>2020-09-30T13:02:20Z</time>
      </trkpt>
      <trkpt lat="46.52553" lon="4.47593">
        <ele>399.59298706055</ele>
        <time>2020-09-30T13:02:25Z</time>
      </trkpt>
      <trkpt lat="46.52551" lon="4.47603">
        <ele>401.59298706055</ele>
        <time>2020-09-30T13:02:32Z</time>
      </trkpt>
      <trkpt lat="46.52549" lon="4.47612">
        <ele>404.59298706055</ele>
        <time>2020-09-30T13:02:38Z</time>
      </trkpt>
      <trkpt lat="46.52549" lon="4.47623">
        <ele>403.59298706055</ele>
        <time>2020-09-30T13:02:47Z</time>
      </trkpt>
      <trkpt lat="46.52548" lon="4.47633">
        <ele>403.59298706055</ele>
        <time>2020-09-30T13:02:52Z</time>
      </trkpt>
      <trkpt lat="46.52544" lon="4.47643">
        <ele>399.59298706055</ele>
        <time>2020-09-30T13:02:58Z</time>
      </trkpt>
      <trkpt lat="46.52538" lon="4.47653">
        <ele>401.59298706055</ele>
        <time>2020-09-30T13:03:03Z</time>
      </trkpt>
      <trkpt lat="46.52534" lon="4.47663">
        <ele>402.59298706055</ele>
        <time>2020-09-30T13:03:08Z</time>
      </trkpt>
      <trkpt lat="46.5253" lon="4.47672">
        <ele>403.59298706055</ele>
        <time>2020-09-30T13:03:14Z</time>
      </trkpt>
      <trkpt lat="46.52525" lon="4.47681">
        <ele>402.59298706055</ele>
        <time>2020-09-30T13:03:20Z</time>
      </trkpt>
      <trkpt lat="46.52522" lon="4.4769">
        <ele>404.59298706055</ele>
        <time>2020-09-30T13:03:25Z</time>
      </trkpt>
      <trkpt lat="46.52515" lon="4.47697">
        <ele>403.59298706055</ele>
        <time>2020-09-30T13:03:30Z</time>
      </trkpt>
      <trkpt lat="46.52505" lon="4.47706">
        <ele>406.59298706055</ele>
        <time>2020-09-30T13:03:35Z</time>
      </trkpt>
      <trkpt lat="46.525" lon="4.47713">
        <ele>404.59298706055</ele>
        <time>2020-09-30T13:03:40Z</time>
      </trkpt>
      <trkpt lat="46.52494" lon="4.47719">
        <ele>405.59298706055</ele>
        <time>2020-09-30T13:03:45Z</time>
      </trkpt>
      <trkpt lat="46.52487" lon="4.47724">
        <ele>404.59298706055</ele>
        <time>2020-09-30T13:03:50Z</time>
      </trkpt>
      <trkpt lat="46.52482" lon="4.47731">
        <ele>404.59298706055</ele>
        <time>2020-09-30T13:03:55Z</time>
      </trkpt>
      <trkpt lat="46.52485" lon="4.47741">
        <ele>406.59298706055</ele>
        <time>2020-09-30T13:04:01Z</time>
      </trkpt>
      <trkpt lat="46.5249" lon="4.47751">
        <ele>404.59298706055</ele>
        <time>2020-09-30T13:04:06Z</time>
      </trkpt>
      <trkpt lat="46.52494" lon="4.4776">
        <ele>405.59298706055</ele>
        <time>2020-09-30T13:04:12Z</time>
      </trkpt>
      <trkpt lat="46.52496" lon="4.4777">
        <ele>405.59298706055</ele>
        <time>2020-09-30T13:04:19Z</time>
      </trkpt>
      <trkpt lat="46.52501" lon="4.47778">
        <ele>404.59298706055</ele>
        <time>2020-09-30T13:04:24Z</time>
      </trkpt>
      <trkpt lat="46.52503" lon="4.47787">
        <ele>406.59298706055</ele>
        <time>2020-09-30T13:04:29Z</time>
      </trkpt>
      <trkpt lat="46.52505" lon="4.47797">
        <ele>408.59298706055</ele>
        <time>2020-09-30T13:04:34Z</time>
      </trkpt>
      <trkpt lat="46.52508" lon="4.47807">
        <ele>408.59298706055</ele>
        <time>2020-09-30T13:04:39Z</time>
      </trkpt>
      <trkpt lat="46.52511" lon="4.47815">
        <ele>406.59298706055</ele>
        <time>2020-09-30T13:04:44Z</time>
      </trkpt>
      <trkpt lat="46.52513" lon="4.47825">
        <ele>405.59298706055</ele>
        <time>2020-09-30T13:04:50Z</time>
      </trkpt>
      <trkpt lat="46.52516" lon="4.47833">
        <ele>405.59298706055</ele>
        <time>2020-09-30T13:04:55Z</time>
      </trkpt>
      <trkpt lat="46.52519" lon="4.47844">
        <ele>403.59298706055</ele>
        <time>2020-09-30T13:05:02Z</time>
      </trkpt>
      <trkpt lat="46.52525" lon="4.47853">
        <ele>401.59298706055</ele>
        <time>2020-09-30T13:05:07Z</time>
      </trkpt>
      <trkpt lat="46.52528" lon="4.47861">
        <ele>402.59298706055</ele>
        <time>2020-09-30T13:05:12Z</time>
      </trkpt>
      <trkpt lat="46.52532" lon="4.47871">
        <ele>403.59298706055</ele>
        <time>2020-09-30T13:05:17Z</time>
      </trkpt>
      <trkpt lat="46.52535" lon="4.47881">
        <ele>406.59298706055</ele>
        <time>2020-09-30T13:05:23Z</time>
      </trkpt>
      <trkpt lat="46.5254" lon="4.4789">
        <ele>402.59298706055</ele>
        <time>2020-09-30T13:05:32Z</time>
      </trkpt>
      <trkpt lat="46.52543" lon="4.47901">
        <ele>401.59298706055</ele>
        <time>2020-09-30T13:05:38Z</time>
      </trkpt>
      <trkpt lat="46.52548" lon="4.47912">
        <ele>400.59298706055</ele>
        <time>2020-09-30T13:05:43Z</time>
      </trkpt>
      <trkpt lat="46.52552" lon="4.47924">
        <ele>398.59298706055</ele>
        <time>2020-09-30T13:05:48Z</time>
      </trkpt>
      <trkpt lat="46.52554" lon="4.47934">
        <ele>395.59298706055</ele>
        <time>2020-09-30T13:05:55Z</time>
      </trkpt>
      <trkpt lat="46.52561" lon="4.4794">
        <ele>392.59298706055</ele>
        <time>2020-09-30T13:06:00Z</time>
      </trkpt>
      <trkpt lat="46.52565" lon="4.47951">
        <ele>392.59298706055</ele>
        <time>2020-09-30T13:06:05Z</time>
      </trkpt>
      <trkpt lat="46.52568" lon="4.4796">
        <ele>391.59298706055</ele>
        <time>2020-09-30T13:06:11Z</time>
      </trkpt>
      <trkpt lat="46.52568" lon="4.47972">
        <ele>391.59298706055</ele>
        <time>2020-09-30T13:06:16Z</time>
      </trkpt>
      <trkpt lat="46.52571" lon="4.47983">
        <ele>392.59298706055</ele>
        <time>2020-09-30T13:06:21Z</time>
      </trkpt>
      <trkpt lat="46.52575" lon="4.47992">
        <ele>389.59298706055</ele>
        <time>2020-09-30T13:06:26Z</time>
      </trkpt>
      <trkpt lat="46.52577" lon="4.48002">
        <ele>389.59298706055</ele>
        <time>2020-09-30T13:06:32Z</time>
      </trkpt>
      <trkpt lat="46.5258" lon="4.48013">
        <ele>390.59298706055</ele>
        <time>2020-09-30T13:06:38Z</time>
      </trkpt>
      <trkpt lat="46.5258" lon="4.48022">
        <ele>394.59298706055</ele>
        <time>2020-09-30T13:06:43Z</time>
      </trkpt>
      <trkpt lat="46.52583" lon="4.48032">
        <ele>393.59298706055</ele>
        <time>2020-09-30T13:06:48Z</time>
      </trkpt>
      <trkpt lat="46.52582" lon="4.48044">
        <ele>395.59298706055</ele>
        <time>2020-09-30T13:06:59Z</time>
      </trkpt>
      <trkpt lat="46.52589" lon="4.4806">
        <ele>394.59298706055</ele>
        <time>2020-09-30T13:07:04Z</time>
      </trkpt>
      <trkpt lat="46.52591" lon="4.48075">
        <ele>393.59298706055</ele>
        <time>2020-09-30T13:07:09Z</time>
      </trkpt>
      <trkpt lat="46.52595" lon="4.48084">
        <ele>391.59298706055</ele>
        <time>2020-09-30T13:07:14Z</time>
      </trkpt>
      <trkpt lat="46.52599" lon="4.48092">
        <ele>392.59298706055</ele>
        <time>2020-09-30T13:07:19Z</time>
      </trkpt>
      <trkpt lat="46.52604" lon="4.481">
        <ele>389.59298706055</ele>
        <time>2020-09-30T13:07:24Z</time>
      </trkpt>
      <trkpt lat="46.52606" lon="4.48111">
        <ele>387.59298706055</ele>
        <time>2020-09-30T13:07:34Z</time>
      </trkpt>
      <trkpt lat="46.52611" lon="4.4812">
        <ele>381.59298706055</ele>
        <time>2020-09-30T13:07:46Z</time>
      </trkpt>
      <trkpt lat="46.52615" lon="4.48128">
        <ele>382.59298706055</ele>
        <time>2020-09-30T13:07:51Z</time>
      </trkpt>
      <trkpt lat="46.52621" lon="4.48135">
        <ele>378.59298706055</ele>
        <time>2020-09-30T13:07:57Z</time>
      </trkpt>
      <trkpt lat="46.52629" lon="4.48142">
        <ele>376.59298706055</ele>
        <time>2020-09-30T13:08:02Z</time>
      </trkpt>
      <trkpt lat="46.52635" lon="4.48153">
        <ele>377.59298706055</ele>
        <time>2020-09-30T13:08:07Z</time>
      </trkpt>
      <trkpt lat="46.52641" lon="4.48164">
        <ele>376.59298706055</ele>
        <time>2020-09-30T13:08:12Z</time>
      </trkpt>
      <trkpt lat="46.52647" lon="4.48174">
        <ele>375.59298706055</ele>
        <time>2020-09-30T13:08:17Z</time>
      </trkpt>
      <trkpt lat="46.52653" lon="4.48181">
        <ele>376.59298706055</ele>
        <time>2020-09-30T13:08:22Z</time>
      </trkpt>
      <trkpt lat="46.52658" lon="4.48188">
        <ele>375.59298706055</ele>
        <time>2020-09-30T13:08:27Z</time>
      </trkpt>
      <trkpt lat="46.52665" lon="4.48198">
        <ele>376.59399414062</ele>
        <time>2020-09-30T13:08:32Z</time>
      </trkpt>
      <trkpt lat="46.52668" lon="4.48209">
        <ele>377.59399414062</ele>
        <time>2020-09-30T13:08:37Z</time>
      </trkpt>
      <trkpt lat="46.52671" lon="4.48217">
        <ele>376.59399414062</ele>
        <time>2020-09-30T13:08:42Z</time>
      </trkpt>
      <trkpt lat="46.52676" lon="4.48227">
        <ele>374.59399414062</ele>
        <time>2020-09-30T13:08:48Z</time>
      </trkpt>
      <trkpt lat="46.52681" lon="4.48234">
        <ele>373.59399414062</ele>
        <time>2020-09-30T13:08:53Z</time>
      </trkpt>
      <trkpt lat="46.52685" lon="4.48241">
        <ele>374.59399414062</ele>
        <time>2020-09-30T13:08:58Z</time>
      </trkpt>
      <trkpt lat="46.5269" lon="4.48248">
        <ele>371.59399414062</ele>
        <time>2020-09-30T13:09:04Z</time>
      </trkpt>
      <trkpt lat="46.52694" lon="4.48258">
        <ele>368.59399414062</ele>
        <time>2020-09-30T13:09:11Z</time>
      </trkpt>
      <trkpt lat="46.52699" lon="4.48269">
        <ele>369.59399414062</ele>
        <time>2020-09-30T13:09:16Z</time>
      </trkpt>
      <trkpt lat="46.52702" lon="4.4828">
        <ele>368.59399414062</ele>
        <time>2020-09-30T13:09:21Z</time>
      </trkpt>
      <trkpt lat="46.52707" lon="4.48287">
        <ele>368.59399414062</ele>
        <time>2020-09-30T13:09:26Z</time>
      </trkpt>
      <trkpt lat="46.52713" lon="4.48296">
        <ele>370.59399414062</ele>
        <time>2020-09-30T13:09:31Z</time>
      </trkpt>
      <trkpt lat="46.52717" lon="4.48305">
        <ele>367.59399414062</ele>
        <time>2020-09-30T13:09:38Z</time>
      </trkpt>
      <trkpt lat="46.52723" lon="4.48311">
        <ele>366.59399414062</ele>
        <time>2020-09-30T13:09:43Z</time>
      </trkpt>
      <trkpt lat="46.52727" lon="4.4832">
        <ele>368.59399414062</ele>
        <time>2020-09-30T13:09:48Z</time>
      </trkpt>
      <trkpt lat="46.52733" lon="4.48328">
        <ele>368.59399414062</ele>
        <time>2020-09-30T13:09:53Z</time>
      </trkpt>
      <trkpt lat="46.52738" lon="4.48336">
        <ele>368.59399414062</ele>
        <time>2020-09-30T13:09:58Z</time>
      </trkpt>
      <trkpt lat="46.52743" lon="4.48349">
        <ele>365.59399414062</ele>
        <time>2020-09-30T13:10:03Z</time>
      </trkpt>
      <trkpt lat="46.52748" lon="4.48359">
        <ele>365.59399414062</ele>
        <time>2020-09-30T13:10:10Z</time>
      </trkpt>
      <trkpt lat="46.52752" lon="4.48367">
        <ele>365.59399414062</ele>
        <time>2020-09-30T13:10:15Z</time>
      </trkpt>
      <trkpt lat="46.52756" lon="4.48375">
        <ele>365.59399414062</ele>
        <time>2020-09-30T13:10:20Z</time>
      </trkpt>
      <trkpt lat="46.52761" lon="4.48385">
        <ele>368.59399414062</ele>
        <time>2020-09-30T13:10:26Z</time>
      </trkpt>
      <trkpt lat="46.52765" lon="4.48393">
        <ele>371.59399414062</ele>
        <time>2020-09-30T13:10:31Z</time>
      </trkpt>
      <trkpt lat="46.5277" lon="4.48405">
        <ele>372.59399414062</ele>
        <time>2020-09-30T13:10:36Z</time>
      </trkpt>
      <trkpt lat="46.52777" lon="4.48412">
        <ele>372.59399414062</ele>
        <time>2020-09-30T13:10:41Z</time>
      </trkpt>
      <trkpt lat="46.52781" lon="4.48424">
        <ele>373.59399414062</ele>
        <time>2020-09-30T13:10:49Z</time>
      </trkpt>
      <trkpt lat="46.52788" lon="4.48428">
        <ele>373.59399414062</ele>
        <time>2020-09-30T13:10:54Z</time>
      </trkpt>
      <trkpt lat="46.52792" lon="4.48435">
        <ele>370.59399414062</ele>
        <time>2020-09-30T13:11:02Z</time>
      </trkpt>
      <trkpt lat="46.528" lon="4.48447">
        <ele>365.59399414062</ele>
        <time>2020-09-30T13:11:07Z</time>
      </trkpt>
      <trkpt lat="46.52807" lon="4.4845">
        <ele>368.59399414062</ele>
        <time>2020-09-30T13:11:12Z</time>
      </trkpt>
      <trkpt lat="46.52814" lon="4.48455">
        <ele>368.59399414062</ele>
        <time>2020-09-30T13:11:17Z</time>
      </trkpt>
      <trkpt lat="46.5282" lon="4.48464">
        <ele>364.59399414062</ele>
        <time>2020-09-30T13:11:22Z</time>
      </trkpt>
      <trkpt lat="46.52827" lon="4.4847">
        <ele>361.59399414062</ele>
        <time>2020-09-30T13:11:27Z</time>
      </trkpt>
      <trkpt lat="46.52832" lon="4.48479">
        <ele>360.59399414062</ele>
        <time>2020-09-30T13:11:32Z</time>
      </trkpt>
      <trkpt lat="46.52835" lon="4.48487">
        <ele>357.59399414062</ele>
        <time>2020-09-30T13:11:38Z</time>
      </trkpt>
      <trkpt lat="46.5284" lon="4.48496">
        <ele>356.59399414062</ele>
        <time>2020-09-30T13:11:43Z</time>
      </trkpt>
      <trkpt lat="46.52844" lon="4.48504">
        <ele>356.59399414062</ele>
        <time>2020-09-30T13:11:48Z</time>
      </trkpt>
      <trkpt lat="46.52848" lon="4.48514">
        <ele>355.59399414062</ele>
        <time>2020-09-30T13:11:58Z</time>
      </trkpt>
      <trkpt lat="46.5285" lon="4.48526">
        <ele>354.59399414062</ele>
        <time>2020-09-30T13:12:06Z</time>
      </trkpt>
      <trkpt lat="46.52854" lon="4.48538">
        <ele>355.59399414062</ele>
        <time>2020-09-30T13:12:13Z</time>
      </trkpt>
      <trkpt lat="46.52858" lon="4.48548">
        <ele>354.59399414062</ele>
        <time>2020-09-30T13:12:18Z</time>
      </trkpt>
      <trkpt lat="46.52861" lon="4.48563">
        <ele>354.59399414062</ele>
        <time>2020-09-30T13:12:23Z</time>
      </trkpt>
      <trkpt lat="46.52863" lon="4.48572">
        <ele>354.59399414062</ele>
        <time>2020-09-30T13:12:28Z</time>
      </trkpt>
      <trkpt lat="46.52867" lon="4.48585">
        <ele>353.59399414062</ele>
        <time>2020-09-30T13:12:33Z</time>
      </trkpt>
      <trkpt lat="46.5287" lon="4.48596">
        <ele>352.59399414062</ele>
        <time>2020-09-30T13:12:38Z</time>
      </trkpt>
      <trkpt lat="46.52876" lon="4.48606">
        <ele>351.59399414062</ele>
        <time>2020-09-30T13:12:43Z</time>
      </trkpt>
      <trkpt lat="46.52879" lon="4.48616">
        <ele>350.59399414062</ele>
        <time>2020-09-30T13:12:49Z</time>
      </trkpt>
      <trkpt lat="46.52881" lon="4.48625">
        <ele>350.59399414062</ele>
        <time>2020-09-30T13:12:54Z</time>
      </trkpt>
      <trkpt lat="46.52884" lon="4.48635">
        <ele>350.59399414062</ele>
        <time>2020-09-30T13:12:59Z</time>
      </trkpt>
      <trkpt lat="46.52886" lon="4.48646">
        <ele>349.59399414062</ele>
        <time>2020-09-30T13:13:05Z</time>
      </trkpt>
      <trkpt lat="46.52887" lon="4.48657">
        <ele>347.59399414062</ele>
        <time>2020-09-30T13:13:10Z</time>
      </trkpt>
      <trkpt lat="46.52886" lon="4.48669">
        <ele>345.59399414062</ele>
        <time>2020-09-30T13:13:16Z</time>
      </trkpt>
      <trkpt lat="46.52885" lon="4.4868">
        <ele>344.59399414062</ele>
        <time>2020-09-30T13:13:21Z</time>
      </trkpt>
      <trkpt lat="46.52885" lon="4.4869">
        <ele>344.59399414062</ele>
        <time>2020-09-30T13:13:26Z</time>
      </trkpt>
      <trkpt lat="46.52883" lon="4.48704">
        <ele>347.59399414062</ele>
        <time>2020-09-30T13:13:31Z</time>
      </trkpt>
      <trkpt lat="46.52884" lon="4.48715">
        <ele>346.59399414062</ele>
        <time>2020-09-30T13:13:36Z</time>
      </trkpt>
      <trkpt lat="46.52881" lon="4.48726">
        <ele>345.59399414062</ele>
        <time>2020-09-30T13:13:41Z</time>
      </trkpt>
      <trkpt lat="46.5288" lon="4.48736">
        <ele>343.59399414062</ele>
        <time>2020-09-30T13:13:46Z</time>
      </trkpt>
      <trkpt lat="46.52878" lon="4.48748">
        <ele>341.59399414062</ele>
        <time>2020-09-30T13:13:51Z</time>
      </trkpt>
      <trkpt lat="46.52878" lon="4.4876">
        <ele>339.5950012207</ele>
        <time>2020-09-30T13:13:56Z</time>
      </trkpt>
      <trkpt lat="46.52877" lon="4.48771">
        <ele>337.5950012207</ele>
        <time>2020-09-30T13:14:02Z</time>
      </trkpt>
      <trkpt lat="46.52876" lon="4.48781">
        <ele>337.5950012207</ele>
        <time>2020-09-30T13:14:07Z</time>
      </trkpt>
      <trkpt lat="46.52876" lon="4.48795">
        <ele>336.5950012207</ele>
        <time>2020-09-30T13:14:12Z</time>
      </trkpt>
      <trkpt lat="46.52876" lon="4.48807">
        <ele>334.5950012207</ele>
        <time>2020-09-30T13:14:17Z</time>
      </trkpt>
      <trkpt lat="46.52871" lon="4.48814">
        <ele>337.5950012207</ele>
        <time>2020-09-30T13:14:24Z</time>
      </trkpt>
      <trkpt lat="46.52871" lon="4.48825">
        <ele>333.5950012207</ele>
        <time>2020-09-30T13:14:29Z</time>
      </trkpt>
      <trkpt lat="46.52869" lon="4.48837">
        <ele>332.5950012207</ele>
        <time>2020-09-30T13:14:34Z</time>
      </trkpt>
      <trkpt lat="46.5287" lon="4.48848">
        <ele>330.5950012207</ele>
        <time>2020-09-30T13:14:40Z</time>
      </trkpt>
      <trkpt lat="46.52872" lon="4.48859">
        <ele>326.5950012207</ele>
        <time>2020-09-30T13:14:45Z</time>
      </trkpt>
      <trkpt lat="46.5287" lon="4.48872">
        <ele>326.5950012207</ele>
        <time>2020-09-30T13:14:50Z</time>
      </trkpt>
      <trkpt lat="46.5287" lon="4.48882">
        <ele>323.5950012207</ele>
        <time>2020-09-30T13:14:56Z</time>
      </trkpt>
      <trkpt lat="46.52866" lon="4.48891">
        <ele>325.5950012207</ele>
        <time>2020-09-30T13:15:01Z</time>
      </trkpt>
      <trkpt lat="46.52865" lon="4.48901">
        <ele>325.5950012207</ele>
        <time>2020-09-30T13:15:06Z</time>
      </trkpt>
      <trkpt lat="46.52863" lon="4.48912">
        <ele>322.5950012207</ele>
        <time>2020-09-30T13:15:11Z</time>
      </trkpt>
      <trkpt lat="46.52861" lon="4.48923">
        <ele>322.5950012207</ele>
        <time>2020-09-30T13:15:16Z</time>
      </trkpt>
      <trkpt lat="46.52861" lon="4.48934">
        <ele>326.5950012207</ele>
        <time>2020-09-30T13:15:21Z</time>
      </trkpt>
      <trkpt lat="46.5286" lon="4.48946">
        <ele>329.5950012207</ele>
        <time>2020-09-30T13:15:26Z</time>
      </trkpt>
      <trkpt lat="46.52859" lon="4.48957">
        <ele>325.5950012207</ele>
        <time>2020-09-30T13:15:32Z</time>
      </trkpt>
      <trkpt lat="46.52857" lon="4.48968">
        <ele>324.5950012207</ele>
        <time>2020-09-30T13:15:38Z</time>
      </trkpt>
      <trkpt lat="46.52855" lon="4.48979">
        <ele>325.5950012207</ele>
        <time>2020-09-30T13:15:43Z</time>
      </trkpt>
      <trkpt lat="46.52854" lon="4.4899">
        <ele>323.5950012207</ele>
        <time>2020-09-30T13:15:48Z</time>
      </trkpt>
      <trkpt lat="46.52851" lon="4.49001">
        <ele>322.5950012207</ele>
        <time>2020-09-30T13:15:54Z</time>
      </trkpt>
      <trkpt lat="46.5285" lon="4.49012">
        <ele>324.5950012207</ele>
        <time>2020-09-30T13:15:59Z</time>
      </trkpt>
      <trkpt lat="46.52852" lon="4.49021">
        <ele>324.5950012207</ele>
        <time>2020-09-30T13:16:06Z</time>
      </trkpt>
      <trkpt lat="46.52847" lon="4.49034">
        <ele>320.5950012207</ele>
        <time>2020-09-30T13:16:11Z</time>
      </trkpt>
      <trkpt lat="46.52843" lon="4.49046">
        <ele>319.5950012207</ele>
        <time>2020-09-30T13:16:16Z</time>
      </trkpt>
      <trkpt lat="46.52842" lon="4.49057">
        <ele>319.5950012207</ele>
        <time>2020-09-30T13:16:21Z</time>
      </trkpt>
      <trkpt lat="46.52838" lon="4.49069">
        <ele>321.5950012207</ele>
        <time>2020-09-30T13:16:26Z</time>
      </trkpt>
      <trkpt lat="46.52836" lon="4.49079">
        <ele>322.5950012207</ele>
        <time>2020-09-30T13:16:32Z</time>
      </trkpt>
      <trkpt lat="46.52832" lon="4.49089">
        <ele>321.5950012207</ele>
        <time>2020-09-30T13:16:38Z</time>
      </trkpt>
      <trkpt lat="46.52829" lon="4.49099">
        <ele>324.5950012207</ele>
        <time>2020-09-30T13:16:44Z</time>
      </trkpt>
      <trkpt lat="46.52827" lon="4.4911">
        <ele>323.5950012207</ele>
        <time>2020-09-30T13:16:49Z</time>
      </trkpt>
      <trkpt lat="46.52825" lon="4.49121">
        <ele>326.5950012207</ele>
        <time>2020-09-30T13:16:54Z</time>
      </trkpt>
      <trkpt lat="46.52824" lon="4.49133">
        <ele>327.5950012207</ele>
        <time>2020-09-30T13:16:59Z</time>
      </trkpt>
      <trkpt lat="46.52822" lon="4.49142">
        <ele>325.5950012207</ele>
        <time>2020-09-30T13:17:04Z</time>
      </trkpt>
      <trkpt lat="46.52821" lon="4.49151">
        <ele>323.5950012207</ele>
        <time>2020-09-30T13:17:10Z</time>
      </trkpt>
      <trkpt lat="46.5282" lon="4.49162">
        <ele>322.5950012207</ele>
        <time>2020-09-30T13:17:15Z</time>
      </trkpt>
      <trkpt lat="46.5282" lon="4.49171">
        <ele>318.5950012207</ele>
        <time>2020-09-30T13:17:20Z</time>
      </trkpt>
      <trkpt lat="46.5282" lon="4.49183">
        <ele>318.5950012207</ele>
        <time>2020-09-30T13:17:25Z</time>
      </trkpt>
      <trkpt lat="46.52815" lon="4.49194">
        <ele>317.5950012207</ele>
        <time>2020-09-30T13:17:30Z</time>
      </trkpt>
      <trkpt lat="46.52816" lon="4.49205">
        <ele>316.5950012207</ele>
        <time>2020-09-30T13:17:35Z</time>
      </trkpt>
      <trkpt lat="46.52817" lon="4.49215">
        <ele>316.5950012207</ele>
        <time>2020-09-30T13:17:41Z</time>
      </trkpt>
      <trkpt lat="46.52816" lon="4.49225">
        <ele>318.5950012207</ele>
        <time>2020-09-30T13:17:46Z</time>
      </trkpt>
      <trkpt lat="46.52813" lon="4.49238">
        <ele>316.5950012207</ele>
        <time>2020-09-30T13:17:51Z</time>
      </trkpt>
      <trkpt lat="46.52813" lon="4.4925">
        <ele>315.5950012207</ele>
        <time>2020-09-30T13:17:56Z</time>
      </trkpt>
      <trkpt lat="46.52815" lon="4.4926">
        <ele>313.5950012207</ele>
        <time>2020-09-30T13:18:01Z</time>
      </trkpt>
      <trkpt lat="46.52813" lon="4.49272">
        <ele>317.5950012207</ele>
        <time>2020-09-30T13:18:08Z</time>
      </trkpt>
      <trkpt lat="46.5281" lon="4.49281">
        <ele>315.5950012207</ele>
        <time>2020-09-30T13:18:13Z</time>
      </trkpt>
      <trkpt lat="46.52805" lon="4.49292">
        <ele>317.5950012207</ele>
        <time>2020-09-30T13:18:18Z</time>
      </trkpt>
      <trkpt lat="46.52807" lon="4.49302">
        <ele>316.5950012207</ele>
        <time>2020-09-30T13:18:23Z</time>
      </trkpt>
      <trkpt lat="46.52805" lon="4.49312">
        <ele>316.5950012207</ele>
        <time>2020-09-30T13:18:28Z</time>
      </trkpt>
      <trkpt lat="46.52802" lon="4.49323">
        <ele>315.5950012207</ele>
        <time>2020-09-30T13:18:34Z</time>
      </trkpt>
      <trkpt lat="46.52797" lon="4.49331">
        <ele>315.5950012207</ele>
        <time>2020-09-30T13:18:40Z</time>
      </trkpt>
      <trkpt lat="46.52795" lon="4.4934">
        <ele>312.5950012207</ele>
        <time>2020-09-30T13:18:45Z</time>
      </trkpt>
      <trkpt lat="46.5279" lon="4.49351">
        <ele>309.5950012207</ele>
        <time>2020-09-30T13:18:50Z</time>
      </trkpt>
      <trkpt lat="46.52787" lon="4.4936">
        <ele>309.5950012207</ele>
        <time>2020-09-30T13:18:55Z</time>
      </trkpt>
      <trkpt lat="46.52783" lon="4.4937">
        <ele>311.5950012207</ele>
        <time>2020-09-30T13:19:00Z</time>
      </trkpt>
      <trkpt lat="46.52778" lon="4.49381">
        <ele>312.5950012207</ele>
        <time>2020-09-30T13:19:05Z</time>
      </trkpt>
      <trkpt lat="46.52773" lon="4.4939">
        <ele>314.5950012207</ele>
        <time>2020-09-30T13:19:10Z</time>
      </trkpt>
      <trkpt lat="46.5277" lon="4.49397">
        <ele>313.5950012207</ele>
        <time>2020-09-30T13:19:15Z</time>
      </trkpt>
      <trkpt lat="46.52766" lon="4.49409">
        <ele>312.5950012207</ele>
        <time>2020-09-30T13:19:20Z</time>
      </trkpt>
      <trkpt lat="46.52762" lon="4.4942">
        <ele>312.5950012207</ele>
        <time>2020-09-30T13:19:25Z</time>
      </trkpt>
      <trkpt lat="46.52761" lon="4.49431">
        <ele>310.5950012207</ele>
        <time>2020-09-30T13:19:31Z</time>
      </trkpt>
      <trkpt lat="46.52758" lon="4.49442">
        <ele>310.5950012207</ele>
        <time>2020-09-30T13:19:36Z</time>
      </trkpt>
      <trkpt lat="46.52755" lon="4.49451">
        <ele>310.5950012207</ele>
        <time>2020-09-30T13:19:43Z</time>
      </trkpt>
      <trkpt lat="46.52751" lon="4.4946">
        <ele>310.5950012207</ele>
        <time>2020-09-30T13:19:48Z</time>
      </trkpt>
      <trkpt lat="46.52749" lon="4.49469">
        <ele>307.5950012207</ele>
        <time>2020-09-30T13:19:53Z</time>
      </trkpt>
      <trkpt lat="46.52745" lon="4.49479">
        <ele>310.5950012207</ele>
        <time>2020-09-30T13:19:58Z</time>
      </trkpt>
      <trkpt lat="46.5274" lon="4.49488">
        <ele>310.5950012207</ele>
        <time>2020-09-30T13:20:03Z</time>
      </trkpt>
      <trkpt lat="46.52736" lon="4.49498">
        <ele>309.5950012207</ele>
        <time>2020-09-30T13:20:09Z</time>
      </trkpt>
      <trkpt lat="46.52732" lon="4.49509">
        <ele>308.5950012207</ele>
        <time>2020-09-30T13:20:14Z</time>
      </trkpt>
      <trkpt lat="46.52729" lon="4.49519">
        <ele>308.5950012207</ele>
        <time>2020-09-30T13:20:19Z</time>
      </trkpt>
      <trkpt lat="46.52726" lon="4.49529">
        <ele>310.5950012207</ele>
        <time>2020-09-30T13:20:24Z</time>
      </trkpt>
      <trkpt lat="46.52723" lon="4.49538">
        <ele>309.5950012207</ele>
        <time>2020-09-30T13:20:30Z</time>
      </trkpt>
      <trkpt lat="46.5272" lon="4.49548">
        <ele>308.5950012207</ele>
        <time>2020-09-30T13:20:35Z</time>
      </trkpt>
      <trkpt lat="46.52718" lon="4.49558">
        <ele>305.5950012207</ele>
        <time>2020-09-30T13:20:42Z</time>
      </trkpt>
      <trkpt lat="46.52717" lon="4.49569">
        <ele>305.5950012207</ele>
        <time>2020-09-30T13:20:47Z</time>
      </trkpt>
      <trkpt lat="46.52715" lon="4.49578">
        <ele>303.5950012207</ele>
        <time>2020-09-30T13:20:53Z</time>
      </trkpt>
      <trkpt lat="46.52714" lon="4.49588">
        <ele>301.5950012207</ele>
        <time>2020-09-30T13:20:59Z</time>
      </trkpt>
      <trkpt lat="46.52716" lon="4.496">
        <ele>301.5950012207</ele>
        <time>2020-09-30T13:21:04Z</time>
      </trkpt>
      <trkpt lat="46.52715" lon="4.4961">
        <ele>300.5950012207</ele>
        <time>2020-09-30T13:21:09Z</time>
      </trkpt>
      <trkpt lat="46.52715" lon="4.4962">
        <ele>296.5950012207</ele>
        <time>2020-09-30T13:21:17Z</time>
      </trkpt>
      <trkpt lat="46.52714" lon="4.49631">
        <ele>298.5950012207</ele>
        <time>2020-09-30T13:21:25Z</time>
      </trkpt>
      <trkpt lat="46.52714" lon="4.49641">
        <ele>296.5950012207</ele>
        <time>2020-09-30T13:21:34Z</time>
      </trkpt>
      <trkpt lat="46.52716" lon="4.49652">
        <ele>294.5950012207</ele>
        <time>2020-09-30T13:21:39Z</time>
      </trkpt>
      <trkpt lat="46.52717" lon="4.49664">
        <ele>296.5950012207</ele>
        <time>2020-09-30T13:21:48Z</time>
      </trkpt>
      <trkpt lat="46.5272" lon="4.49674">
        <ele>294.5950012207</ele>
        <time>2020-09-30T13:21:54Z</time>
      </trkpt>
      <trkpt lat="46.52724" lon="4.49688">
        <ele>291.5950012207</ele>
        <time>2020-09-30T13:21:59Z</time>
      </trkpt>
      <trkpt lat="46.52727" lon="4.49701">
        <ele>289.5950012207</ele>
        <time>2020-09-30T13:22:04Z</time>
      </trkpt>
      <trkpt lat="46.5273" lon="4.49711">
        <ele>289.5950012207</ele>
        <time>2020-09-30T13:22:09Z</time>
      </trkpt>
      <trkpt lat="46.52732" lon="4.49721">
        <ele>290.5950012207</ele>
        <time>2020-09-30T13:22:14Z</time>
      </trkpt>
      <trkpt lat="46.52736" lon="4.49729">
        <ele>289.5950012207</ele>
        <time>2020-09-30T13:22:19Z</time>
      </trkpt>
      <trkpt lat="46.52738" lon="4.4974">
        <ele>290.5950012207</ele>
        <time>2020-09-30T13:22:25Z</time>
      </trkpt>
      <trkpt lat="46.52741" lon="4.49754">
        <ele>292.5950012207</ele>
        <time>2020-09-30T13:22:30Z</time>
      </trkpt>
      <trkpt lat="46.52748" lon="4.49767">
        <ele>294.5950012207</ele>
        <time>2020-09-30T13:22:35Z</time>
      </trkpt>
      <trkpt lat="46.52753" lon="4.49779">
        <ele>295.5950012207</ele>
        <time>2020-09-30T13:22:40Z</time>
      </trkpt>
      <trkpt lat="46.52754" lon="4.49788">
        <ele>296.5950012207</ele>
        <time>2020-09-30T13:22:45Z</time>
      </trkpt>
      <trkpt lat="46.52757" lon="4.49799">
        <ele>298.5950012207</ele>
        <time>2020-09-30T13:22:50Z</time>
      </trkpt>
      <trkpt lat="46.52761" lon="4.49806">
        <ele>300.5950012207</ele>
        <time>2020-09-30T13:22:55Z</time>
      </trkpt>
      <trkpt lat="46.52766" lon="4.49814">
        <ele>300.5950012207</ele>
        <time>2020-09-30T13:23:00Z</time>
      </trkpt>
      <trkpt lat="46.52771" lon="4.49822">
        <ele>301.5950012207</ele>
        <time>2020-09-30T13:23:05Z</time>
      </trkpt>
      <trkpt lat="46.52773" lon="4.49831">
        <ele>300.5950012207</ele>
        <time>2020-09-30T13:23:10Z</time>
      </trkpt>
      <trkpt lat="46.52777" lon="4.49841">
        <ele>298.5950012207</ele>
        <time>2020-09-30T13:23:15Z</time>
      </trkpt>
      <trkpt lat="46.52781" lon="4.49849">
        <ele>298.5950012207</ele>
        <time>2020-09-30T13:23:20Z</time>
      </trkpt>
      <trkpt lat="46.52783" lon="4.49859">
        <ele>297.5950012207</ele>
        <time>2020-09-30T13:23:25Z</time>
      </trkpt>
      <trkpt lat="46.52785" lon="4.49872">
        <ele>295.5950012207</ele>
        <time>2020-09-30T13:23:30Z</time>
      </trkpt>
      <trkpt lat="46.52785" lon="4.49882">
        <ele>295.5950012207</ele>
        <time>2020-09-30T13:23:36Z</time>
      </trkpt>
      <trkpt lat="46.52785" lon="4.49893">
        <ele>296.5950012207</ele>
        <time>2020-09-30T13:23:41Z</time>
      </trkpt>
      <trkpt lat="46.52786" lon="4.49904">
        <ele>296.5950012207</ele>
        <time>2020-09-30T13:23:47Z</time>
      </trkpt>
      <trkpt lat="46.52787" lon="4.49916">
        <ele>296.5950012207</ele>
        <time>2020-09-30T13:23:52Z</time>
      </trkpt>
      <trkpt lat="46.52788" lon="4.49928">
        <ele>297.5950012207</ele>
        <time>2020-09-30T13:23:57Z</time>
      </trkpt>
      <trkpt lat="46.52788" lon="4.49939">
        <ele>296.5950012207</ele>
        <time>2020-09-30T13:24:03Z</time>
      </trkpt>
      <trkpt lat="46.52786" lon="4.49948">
        <ele>295.5950012207</ele>
        <time>2020-09-30T13:24:08Z</time>
      </trkpt>
      <trkpt lat="46.52786" lon="4.49959">
        <ele>293.5950012207</ele>
        <time>2020-09-30T13:24:13Z</time>
      </trkpt>
      <trkpt lat="46.52784" lon="4.49971">
        <ele>291.5950012207</ele>
        <time>2020-09-30T13:24:18Z</time>
      </trkpt>
      <trkpt lat="46.52785" lon="4.49982">
        <ele>293.5950012207</ele>
        <time>2020-09-30T13:24:24Z</time>
      </trkpt>
      <trkpt lat="46.52786" lon="4.49992">
        <ele>293.5950012207</ele>
        <time>2020-09-30T13:24:29Z</time>
      </trkpt>
      <trkpt lat="46.52787" lon="4.50003">
        <ele>290.5950012207</ele>
        <time>2020-09-30T13:24:34Z</time>
      </trkpt>
      <trkpt lat="46.52787" lon="4.50013">
        <ele>291.5950012207</ele>
        <time>2020-09-30T13:24:39Z</time>
      </trkpt>
      <trkpt lat="46.52789" lon="4.50022">
        <ele>289.5950012207</ele>
        <time>2020-09-30T13:24:44Z</time>
      </trkpt>
      <trkpt lat="46.52789" lon="4.50034">
        <ele>289.5950012207</ele>
        <time>2020-09-30T13:24:49Z</time>
      </trkpt>
      <trkpt lat="46.52791" lon="4.50044">
        <ele>288.5950012207</ele>
        <time>2020-09-30T13:24:54Z</time>
      </trkpt>
      <trkpt lat="46.5279" lon="4.50054">
        <ele>291.5950012207</ele>
        <time>2020-09-30T13:24:59Z</time>
      </trkpt>
      <trkpt lat="46.52793" lon="4.50064">
        <ele>291.5950012207</ele>
        <time>2020-09-30T13:25:04Z</time>
      </trkpt>
      <trkpt lat="46.52797" lon="4.50073">
        <ele>289.5950012207</ele>
        <time>2020-09-30T13:25:11Z</time>
      </trkpt>
      <trkpt lat="46.52798" lon="4.50083">
        <ele>288.5950012207</ele>
        <time>2020-09-30T13:25:16Z</time>
      </trkpt>
      <trkpt lat="46.528" lon="4.50092">
        <ele>288.5950012207</ele>
        <time>2020-09-30T13:25:24Z</time>
      </trkpt>
      <trkpt lat="46.528" lon="4.50103">
        <ele>293.5950012207</ele>
        <time>2020-09-30T13:25:29Z</time>
      </trkpt>
      <trkpt lat="46.52804" lon="4.50113">
        <ele>296.5950012207</ele>
        <time>2020-09-30T13:25:35Z</time>
      </trkpt>
      <trkpt lat="46.52808" lon="4.50122">
        <ele>295.5950012207</ele>
        <time>2020-09-30T13:25:40Z</time>
      </trkpt>
      <trkpt lat="46.52809" lon="4.50133">
        <ele>298.5950012207</ele>
        <time>2020-09-30T13:25:46Z</time>
      </trkpt>
      <trkpt lat="46.5281" lon="4.50144">
        <ele>295.5950012207</ele>
        <time>2020-09-30T13:25:52Z</time>
      </trkpt>
      <trkpt lat="46.52809" lon="4.50155">
        <ele>295.5950012207</ele>
        <time>2020-09-30T13:25:57Z</time>
      </trkpt>
      <trkpt lat="46.52814" lon="4.50165">
        <ele>290.5950012207</ele>
        <time>2020-09-30T13:26:02Z</time>
      </trkpt>
      <trkpt lat="46.52816" lon="4.50181">
        <ele>291.5950012207</ele>
        <time>2020-09-30T13:26:07Z</time>
      </trkpt>
      <trkpt lat="46.52818" lon="4.5019">
        <ele>287.5950012207</ele>
        <time>2020-09-30T13:26:14Z</time>
      </trkpt>
      <trkpt lat="46.52822" lon="4.50198">
        <ele>284.5950012207</ele>
        <time>2020-09-30T13:26:19Z</time>
      </trkpt>
      <trkpt lat="46.52826" lon="4.5021">
        <ele>285.5950012207</ele>
        <time>2020-09-30T13:26:24Z</time>
      </trkpt>
      <trkpt lat="46.52829" lon="4.50223">
        <ele>288.5950012207</ele>
        <time>2020-09-30T13:26:29Z</time>
      </trkpt>
      <trkpt lat="46.5283" lon="4.50233">
        <ele>289.5950012207</ele>
        <time>2020-09-30T13:26:35Z</time>
      </trkpt>
      <trkpt lat="46.52832" lon="4.50242">
        <ele>288.5950012207</ele>
        <time>2020-09-30T13:26:41Z</time>
      </trkpt>
      <trkpt lat="46.52834" lon="4.50254">
        <ele>285.5950012207</ele>
        <time>2020-09-30T13:26:46Z</time>
      </trkpt>
      <trkpt lat="46.52836" lon="4.50266">
        <ele>283.5950012207</ele>
        <time>2020-09-30T13:26:51Z</time>
      </trkpt>
      <trkpt lat="46.52839" lon="4.50279">
        <ele>283.59600830078</ele>
        <time>2020-09-30T13:26:56Z</time>
      </trkpt>
      <trkpt lat="46.52838" lon="4.50291">
        <ele>288.59600830078</ele>
        <time>2020-09-30T13:27:01Z</time>
      </trkpt>
      <trkpt lat="46.52838" lon="4.503">
        <ele>288.59600830078</ele>
        <time>2020-09-30T13:27:06Z</time>
      </trkpt>
      <trkpt lat="46.5284" lon="4.50311">
        <ele>288.59600830078</ele>
        <time>2020-09-30T13:27:12Z</time>
      </trkpt>
      <trkpt lat="46.52844" lon="4.50321">
        <ele>281.59600830078</ele>
        <time>2020-09-30T13:27:17Z</time>
      </trkpt>
      <trkpt lat="46.52844" lon="4.50331">
        <ele>279.59600830078</ele>
        <time>2020-09-30T13:27:22Z</time>
      </trkpt>
      <trkpt lat="46.52843" lon="4.50342">
        <ele>279.59600830078</ele>
        <time>2020-09-30T13:27:27Z</time>
      </trkpt>
      <trkpt lat="46.52849" lon="4.50357">
        <ele>280.59600830078</ele>
        <time>2020-09-30T13:27:32Z</time>
      </trkpt>
      <trkpt lat="46.52849" lon="4.50368">
        <ele>278.59600830078</ele>
        <time>2020-09-30T13:27:37Z</time>
      </trkpt>
      <trkpt lat="46.52848" lon="4.50379">
        <ele>280.59600830078</ele>
        <time>2020-09-30T13:27:41Z</time>
      </trkpt>
      <trkpt lat="46.52847" lon="4.5039">
        <ele>280.59600830078</ele>
        <time>2020-09-30T13:27:46Z</time>
      </trkpt>
      <trkpt lat="46.52851" lon="4.50399">
        <ele>281.59600830078</ele>
        <time>2020-09-30T13:27:51Z</time>
      </trkpt>
      <trkpt lat="46.52854" lon="4.50409">
        <ele>278.59600830078</ele>
        <time>2020-09-30T13:27:56Z</time>
      </trkpt>
      <trkpt lat="46.52861" lon="4.50416">
        <ele>279.59600830078</ele>
        <time>2020-09-30T13:28:01Z</time>
      </trkpt>
      <trkpt lat="46.52866" lon="4.50426">
        <ele>280.59600830078</ele>
        <time>2020-09-30T13:28:06Z</time>
      </trkpt>
      <trkpt lat="46.52869" lon="4.50434">
        <ele>278.59600830078</ele>
        <time>2020-09-30T13:28:13Z</time>
      </trkpt>
      <trkpt lat="46.52872" lon="4.50445">
        <ele>277.59600830078</ele>
        <time>2020-09-30T13:28:19Z</time>
      </trkpt>
      <trkpt lat="46.52875" lon="4.50455">
        <ele>276.59600830078</ele>
        <time>2020-09-30T13:28:24Z</time>
      </trkpt>
      <trkpt lat="46.5288" lon="4.50464">
        <ele>273.59600830078</ele>
        <time>2020-09-30T13:28:29Z</time>
      </trkpt>
      <trkpt lat="46.5288" lon="4.50474">
        <ele>273.59600830078</ele>
        <time>2020-09-30T13:28:35Z</time>
      </trkpt>
      <trkpt lat="46.52884" lon="4.50485">
        <ele>273.59600830078</ele>
        <time>2020-09-30T13:28:41Z</time>
      </trkpt>
      <trkpt lat="46.52886" lon="4.50498">
        <ele>277.59600830078</ele>
        <time>2020-09-30T13:28:46Z</time>
      </trkpt>
      <trkpt lat="46.52891" lon="4.50505">
        <ele>280.59600830078</ele>
        <time>2020-09-30T13:28:52Z</time>
      </trkpt>
      <trkpt lat="46.52895" lon="4.50514">
        <ele>280.59600830078</ele>
        <time>2020-09-30T13:28:57Z</time>
      </trkpt>
      <trkpt lat="46.52899" lon="4.50523">
        <ele>283.59600830078</ele>
        <time>2020-09-30T13:29:02Z</time>
      </trkpt>
      <trkpt lat="46.52902" lon="4.50532">
        <ele>283.59600830078</ele>
        <time>2020-09-30T13:29:08Z</time>
      </trkpt>
      <trkpt lat="46.52907" lon="4.50541">
        <ele>282.59600830078</ele>
        <time>2020-09-30T13:29:14Z</time>
      </trkpt>
      <trkpt lat="46.52911" lon="4.50551">
        <ele>282.59600830078</ele>
        <time>2020-09-30T13:29:20Z</time>
      </trkpt>
      <trkpt lat="46.52915" lon="4.50559">
        <ele>284.59600830078</ele>
        <time>2020-09-30T13:29:26Z</time>
      </trkpt>
      <trkpt lat="46.52919" lon="4.50567">
        <ele>281.59600830078</ele>
        <time>2020-09-30T13:29:31Z</time>
      </trkpt>
      <trkpt lat="46.52924" lon="4.50576">
        <ele>282.59600830078</ele>
        <time>2020-09-30T13:29:36Z</time>
      </trkpt>
      <trkpt lat="46.52928" lon="4.50585">
        <ele>284.59600830078</ele>
        <time>2020-09-30T13:29:42Z</time>
      </trkpt>
      <trkpt lat="46.52931" lon="4.50595">
        <ele>284.59600830078</ele>
        <time>2020-09-30T13:29:47Z</time>
      </trkpt>
      <trkpt lat="46.52931" lon="4.50612">
        <ele>285.59600830078</ele>
        <time>2020-09-30T13:29:52Z</time>
      </trkpt>
      <trkpt lat="46.52936" lon="4.5062">
        <ele>287.59600830078</ele>
        <time>2020-09-30T13:29:58Z</time>
      </trkpt>
      <trkpt lat="46.5294" lon="4.50629">
        <ele>290.59600830078</ele>
        <time>2020-09-30T13:30:05Z</time>
      </trkpt>
      <trkpt lat="46.52946" lon="4.50632">
        <ele>291.59600830078</ele>
        <time>2020-09-30T13:30:10Z</time>
      </trkpt>
      <trkpt lat="46.52951" lon="4.50642">
        <ele>292.59600830078</ele>
        <time>2020-09-30T13:30:16Z</time>
      </trkpt>
      <trkpt lat="46.52954" lon="4.50654">
        <ele>290.59600830078</ele>
        <time>2020-09-30T13:30:21Z</time>
      </trkpt>
      <trkpt lat="46.52956" lon="4.50663">
        <ele>288.59600830078</ele>
        <time>2020-09-30T13:30:26Z</time>
      </trkpt>
      <trkpt lat="46.5296" lon="4.50671">
        <ele>287.59600830078</ele>
        <time>2020-09-30T13:30:33Z</time>
      </trkpt>
      <trkpt lat="46.5296" lon="4.50681">
        <ele>287.59600830078</ele>
        <time>2020-09-30T13:30:38Z</time>
      </trkpt>
      <trkpt lat="46.52964" lon="4.50689">
        <ele>286.59600830078</ele>
        <time>2020-09-30T13:30:43Z</time>
      </trkpt>
      <trkpt lat="46.52963" lon="4.50702">
        <ele>288.59600830078</ele>
        <time>2020-09-30T13:30:48Z</time>
      </trkpt>
      <trkpt lat="46.52964" lon="4.50712">
        <ele>286.59600830078</ele>
        <time>2020-09-30T13:30:53Z</time>
      </trkpt>
      <trkpt lat="46.52964" lon="4.50723">
        <ele>287.59600830078</ele>
        <time>2020-09-30T13:30:59Z</time>
      </trkpt>
      <trkpt lat="46.52965" lon="4.50733">
        <ele>286.59600830078</ele>
        <time>2020-09-30T13:31:07Z</time>
      </trkpt>
      <trkpt lat="46.52967" lon="4.50743">
        <ele>284.59600830078</ele>
        <time>2020-09-30T13:31:12Z</time>
      </trkpt>
      <trkpt lat="46.52967" lon="4.50753">
        <ele>285.59600830078</ele>
        <time>2020-09-30T13:31:17Z</time>
      </trkpt>
      <trkpt lat="46.52971" lon="4.50762">
        <ele>284.59600830078</ele>
        <time>2020-09-30T13:31:22Z</time>
      </trkpt>
      <trkpt lat="46.52973" lon="4.50775">
        <ele>289.59600830078</ele>
        <time>2020-09-30T13:31:27Z</time>
      </trkpt>
      <trkpt lat="46.52973" lon="4.50785">
        <ele>291.59600830078</ele>
        <time>2020-09-30T13:31:33Z</time>
      </trkpt>
      <trkpt lat="46.52973" lon="4.50794">
        <ele>291.59600830078</ele>
        <time>2020-09-30T13:31:38Z</time>
      </trkpt>
      <trkpt lat="46.52974" lon="4.50805">
        <ele>290.59600830078</ele>
        <time>2020-09-30T13:31:43Z</time>
      </trkpt>
      <trkpt lat="46.52974" lon="4.50816">
        <ele>291.59600830078</ele>
        <time>2020-09-30T13:31:48Z</time>
      </trkpt>
      <trkpt lat="46.52972" lon="4.50826">
        <ele>291.59600830078</ele>
        <time>2020-09-30T13:31:53Z</time>
      </trkpt>
      <trkpt lat="46.52973" lon="4.50836">
        <ele>291.59600830078</ele>
        <time>2020-09-30T13:31:58Z</time>
      </trkpt>
      <trkpt lat="46.52973" lon="4.50847">
        <ele>290.59600830078</ele>
        <time>2020-09-30T13:32:04Z</time>
      </trkpt>
      <trkpt lat="46.52973" lon="4.50857">
        <ele>292.59600830078</ele>
        <time>2020-09-30T13:32:10Z</time>
      </trkpt>
      <trkpt lat="46.52975" lon="4.50869">
        <ele>290.59600830078</ele>
        <time>2020-09-30T13:32:15Z</time>
      </trkpt>
      <trkpt lat="46.52976" lon="4.50879">
        <ele>293.59600830078</ele>
        <time>2020-09-30T13:32:21Z</time>
      </trkpt>
      <trkpt lat="46.52979" lon="4.50888">
        <ele>291.59600830078</ele>
        <time>2020-09-30T13:32:26Z</time>
      </trkpt>
      <trkpt lat="46.5298" lon="4.50898">
        <ele>294.59600830078</ele>
        <time>2020-09-30T13:32:32Z</time>
      </trkpt>
      <trkpt lat="46.52981" lon="4.50908">
        <ele>295.59600830078</ele>
        <time>2020-09-30T13:32:37Z</time>
      </trkpt>
      <trkpt lat="46.52982" lon="4.50917">
        <ele>292.59600830078</ele>
        <time>2020-09-30T13:32:42Z</time>
      </trkpt>
      <trkpt lat="46.52983" lon="4.50928">
        <ele>291.59600830078</ele>
        <time>2020-09-30T13:32:49Z</time>
      </trkpt>
      <trkpt lat="46.52984" lon="4.50939">
        <ele>289.59600830078</ele>
        <time>2020-09-30T13:32:54Z</time>
      </trkpt>
      <trkpt lat="46.52985" lon="4.5095">
        <ele>288.59600830078</ele>
        <time>2020-09-30T13:32:59Z</time>
      </trkpt>
      <trkpt lat="46.52987" lon="4.5096">
        <ele>289.59600830078</ele>
        <time>2020-09-30T13:33:04Z</time>
      </trkpt>
      <trkpt lat="46.52989" lon="4.5097">
        <ele>288.59600830078</ele>
        <time>2020-09-30T13:33:09Z</time>
      </trkpt>
      <trkpt lat="46.52992" lon="4.50979">
        <ele>288.59600830078</ele>
        <time>2020-09-30T13:33:15Z</time>
      </trkpt>
      <trkpt lat="46.52993" lon="4.5099">
        <ele>289.59600830078</ele>
        <time>2020-09-30T13:33:21Z</time>
      </trkpt>
      <trkpt lat="46.52994" lon="4.51">
        <ele>292.59600830078</ele>
        <time>2020-09-30T13:33:27Z</time>
      </trkpt>
      <trkpt lat="46.52995" lon="4.51011">
        <ele>291.59600830078</ele>
        <time>2020-09-30T13:33:32Z</time>
      </trkpt>
      <trkpt lat="46.52997" lon="4.5102">
        <ele>291.59600830078</ele>
        <time>2020-09-30T13:33:38Z</time>
      </trkpt>
      <trkpt lat="46.52995" lon="4.5103">
        <ele>294.59600830078</ele>
        <time>2020-09-30T13:33:43Z</time>
      </trkpt>
      <trkpt lat="46.52998" lon="4.51039">
        <ele>292.59698486328</ele>
        <time>2020-09-30T13:33:48Z</time>
      </trkpt>
      <trkpt lat="46.52998" lon="4.51049">
        <ele>292.59698486328</ele>
        <time>2020-09-30T13:33:53Z</time>
      </trkpt>
      <trkpt lat="46.52996" lon="4.5106">
        <ele>293.59698486328</ele>
        <time>2020-09-30T13:33:58Z</time>
      </trkpt>
      <trkpt lat="46.53" lon="4.51072">
        <ele>294.59698486328</ele>
        <time>2020-09-30T13:34:03Z</time>
      </trkpt>
      <trkpt lat="46.52997" lon="4.51081">
        <ele>296.59698486328</ele>
        <time>2020-09-30T13:34:08Z</time>
      </trkpt>
      <trkpt lat="46.52997" lon="4.51093">
        <ele>294.59698486328</ele>
        <time>2020-09-30T13:34:16Z</time>
      </trkpt>
      <trkpt lat="46.52998" lon="4.51104">
        <ele>294.59698486328</ele>
        <time>2020-09-30T13:34:23Z</time>
      </trkpt>
      <trkpt lat="46.53001" lon="4.51113">
        <ele>292.59698486328</ele>
        <time>2020-09-30T13:34:29Z</time>
      </trkpt>
      <trkpt lat="46.53004" lon="4.51122">
        <ele>287.59698486328</ele>
        <time>2020-09-30T13:34:35Z</time>
      </trkpt>
      <trkpt lat="46.53007" lon="4.51136">
        <ele>288.59698486328</ele>
        <time>2020-09-30T13:34:40Z</time>
      </trkpt>
      <trkpt lat="46.53004" lon="4.51149">
        <ele>288.59698486328</ele>
        <time>2020-09-30T13:34:45Z</time>
      </trkpt>
      <trkpt lat="46.53004" lon="4.51159">
        <ele>291.59698486328</ele>
        <time>2020-09-30T13:34:50Z</time>
      </trkpt>
      <trkpt lat="46.53004" lon="4.51171">
        <ele>294.59698486328</ele>
        <time>2020-09-30T13:34:55Z</time>
      </trkpt>
      <trkpt lat="46.53006" lon="4.51181">
        <ele>292.59698486328</ele>
        <time>2020-09-30T13:35:00Z</time>
      </trkpt>
      <trkpt lat="46.53006" lon="4.51196">
        <ele>290.59698486328</ele>
        <time>2020-09-30T13:35:05Z</time>
      </trkpt>
      <trkpt lat="46.53009" lon="4.51204">
        <ele>288.59698486328</ele>
        <time>2020-09-30T13:35:10Z</time>
      </trkpt>
      <trkpt lat="46.53008" lon="4.51217">
        <ele>290.59698486328</ele>
        <time>2020-09-30T13:35:16Z</time>
      </trkpt>
      <trkpt lat="46.53003" lon="4.51225">
        <ele>291.59698486328</ele>
        <time>2020-09-30T13:35:21Z</time>
      </trkpt>
      <trkpt lat="46.53007" lon="4.51238">
        <ele>297.59698486328</ele>
        <time>2020-09-30T13:35:26Z</time>
      </trkpt>
      <trkpt lat="46.53012" lon="4.51246">
        <ele>292.59698486328</ele>
        <time>2020-09-30T13:35:31Z</time>
      </trkpt>
      <trkpt lat="46.53011" lon="4.51259">
        <ele>291.59698486328</ele>
        <time>2020-09-30T13:35:36Z</time>
      </trkpt>
      <trkpt lat="46.53008" lon="4.51271">
        <ele>291.59698486328</ele>
        <time>2020-09-30T13:35:41Z</time>
      </trkpt>
      <trkpt lat="46.5301" lon="4.51281">
        <ele>287.59698486328</ele>
        <time>2020-09-30T13:35:48Z</time>
      </trkpt>
      <trkpt lat="46.53011" lon="4.51292">
        <ele>290.59698486328</ele>
        <time>2020-09-30T13:35:54Z</time>
      </trkpt>
      <trkpt lat="46.53011" lon="4.51303">
        <ele>289.59698486328</ele>
        <time>2020-09-30T13:35:59Z</time>
      </trkpt>
      <trkpt lat="46.5301" lon="4.51314">
        <ele>288.59698486328</ele>
        <time>2020-09-30T13:36:04Z</time>
      </trkpt>
      <trkpt lat="46.53014" lon="4.51327">
        <ele>291.59698486328</ele>
        <time>2020-09-30T13:36:09Z</time>
      </trkpt>
      <trkpt lat="46.53017" lon="4.51336">
        <ele>289.59698486328</ele>
        <time>2020-09-30T13:36:16Z</time>
      </trkpt>
      <trkpt lat="46.53019" lon="4.51346">
        <ele>286.59698486328</ele>
        <time>2020-09-30T13:36:22Z</time>
      </trkpt>
      <trkpt lat="46.53018" lon="4.51357">
        <ele>284.59698486328</ele>
        <time>2020-09-30T13:36:29Z</time>
      </trkpt>
      <trkpt lat="46.53016" lon="4.51374">
        <ele>288.59698486328</ele>
        <time>2020-09-30T13:36:34Z</time>
      </trkpt>
      <trkpt lat="46.53018" lon="4.51384">
        <ele>286.59698486328</ele>
        <time>2020-09-30T13:36:39Z</time>
      </trkpt>
      <trkpt lat="46.53023" lon="4.51395">
        <ele>282.59698486328</ele>
        <time>2020-09-30T13:36:44Z</time>
      </trkpt>
      <trkpt lat="46.53026" lon="4.51411">
        <ele>283.59698486328</ele>
        <time>2020-09-30T13:36:49Z</time>
      </trkpt>
      <trkpt lat="46.53022" lon="4.51422">
        <ele>284.59698486328</ele>
        <time>2020-09-30T13:36:54Z</time>
      </trkpt>
      <trkpt lat="46.53022" lon="4.51437">
        <ele>287.59698486328</ele>
        <time>2020-09-30T13:37:01Z</time>
      </trkpt>
      <trkpt lat="46.53016" lon="4.51442">
        <ele>288.59698486328</ele>
        <time>2020-09-30T13:37:06Z</time>
      </trkpt>
      <trkpt lat="46.53026" lon="4.51454">
        <ele>289.59698486328</ele>
        <time>2020-09-30T13:37:11Z</time>
      </trkpt>
      <trkpt lat="46.53023" lon="4.51464">
        <ele>291.59698486328</ele>
        <time>2020-09-30T13:37:16Z</time>
      </trkpt>
      <trkpt lat="46.53027" lon="4.51473">
        <ele>287.59698486328</ele>
        <time>2020-09-30T13:37:22Z</time>
      </trkpt>
      <trkpt lat="46.5303" lon="4.51482">
        <ele>283.59698486328</ele>
        <time>2020-09-30T13:37:29Z</time>
      </trkpt>
      <trkpt lat="46.53029" lon="4.51492">
        <ele>281.59698486328</ele>
        <time>2020-09-30T13:37:35Z</time>
      </trkpt>
      <trkpt lat="46.53029" lon="4.51502">
        <ele>281.59698486328</ele>
        <time>2020-09-30T13:37:40Z</time>
      </trkpt>
      <trkpt lat="46.53031" lon="4.51513">
        <ele>281.59698486328</ele>
        <time>2020-09-30T13:37:45Z</time>
      </trkpt>
      <trkpt lat="46.53028" lon="4.51524">
        <ele>281.59698486328</ele>
        <time>2020-09-30T13:37:50Z</time>
      </trkpt>
      <trkpt lat="46.53029" lon="4.51536">
        <ele>283.59698486328</ele>
        <time>2020-09-30T13:37:56Z</time>
      </trkpt>
      <trkpt lat="46.53029" lon="4.51554">
        <ele>285.59698486328</ele>
        <time>2020-09-30T13:38:01Z</time>
      </trkpt>
      <trkpt lat="46.53022" lon="4.51565">
        <ele>281.59698486328</ele>
        <time>2020-09-30T13:38:06Z</time>
      </trkpt>
      <trkpt lat="46.53029" lon="4.51576">
        <ele>283.59698486328</ele>
        <time>2020-09-30T13:38:11Z</time>
      </trkpt>
      <trkpt lat="46.53036" lon="4.51581">
        <ele>286.59698486328</ele>
        <time>2020-09-30T13:38:16Z</time>
      </trkpt>
      <trkpt lat="46.53042" lon="4.51589">
        <ele>286.59698486328</ele>
        <time>2020-09-30T13:38:22Z</time>
      </trkpt>
      <trkpt lat="46.53047" lon="4.51596">
        <ele>285.59698486328</ele>
        <time>2020-09-30T13:38:28Z</time>
      </trkpt>
      <trkpt lat="46.53051" lon="4.51616">
        <ele>287.59698486328</ele>
        <time>2020-09-30T13:38:33Z</time>
      </trkpt>
      <trkpt lat="46.53052" lon="4.51626">
        <ele>288.59698486328</ele>
        <time>2020-09-30T13:38:38Z</time>
      </trkpt>
      <trkpt lat="46.53049" lon="4.51636">
        <ele>286.59698486328</ele>
        <time>2020-09-30T13:38:44Z</time>
      </trkpt>
      <trkpt lat="46.53051" lon="4.51645">
        <ele>280.59698486328</ele>
        <time>2020-09-30T13:38:51Z</time>
      </trkpt>
      <trkpt lat="46.53053" lon="4.51655">
        <ele>283.59698486328</ele>
        <time>2020-09-30T13:38:57Z</time>
      </trkpt>
      <trkpt lat="46.53057" lon="4.51665">
        <ele>282.59698486328</ele>
        <time>2020-09-30T13:39:03Z</time>
      </trkpt>
      <trkpt lat="46.53061" lon="4.51673">
        <ele>284.59698486328</ele>
        <time>2020-09-30T13:39:08Z</time>
      </trkpt>
      <trkpt lat="46.53066" lon="4.51682">
        <ele>282.59698486328</ele>
        <time>2020-09-30T13:39:13Z</time>
      </trkpt>
      <trkpt lat="46.53067" lon="4.51693">
        <ele>280.59698486328</ele>
        <time>2020-09-30T13:39:21Z</time>
      </trkpt>
      <trkpt lat="46.53069" lon="4.51704">
        <ele>280.59698486328</ele>
        <time>2020-09-30T13:39:26Z</time>
      </trkpt>
      <trkpt lat="46.53075" lon="4.51711">
        <ele>280.59698486328</ele>
        <time>2020-09-30T13:39:32Z</time>
      </trkpt>
      <trkpt lat="46.53078" lon="4.51722">
        <ele>277.59698486328</ele>
        <time>2020-09-30T13:39:38Z</time>
      </trkpt>
      <trkpt lat="46.53082" lon="4.51729">
        <ele>275.59698486328</ele>
        <time>2020-09-30T13:39:43Z</time>
      </trkpt>
      <trkpt lat="46.53084" lon="4.51741">
        <ele>276.59698486328</ele>
        <time>2020-09-30T13:39:48Z</time>
      </trkpt>
      <trkpt lat="46.53088" lon="4.51749">
        <ele>274.59698486328</ele>
        <time>2020-09-30T13:39:53Z</time>
      </trkpt>
      <trkpt lat="46.53091" lon="4.51762">
        <ele>274.59698486328</ele>
        <time>2020-09-30T13:39:58Z</time>
      </trkpt>
      <trkpt lat="46.53095" lon="4.51776">
        <ele>274.59698486328</ele>
        <time>2020-09-30T13:40:03Z</time>
      </trkpt>
      <trkpt lat="46.53102" lon="4.51791">
        <ele>276.59698486328</ele>
        <time>2020-09-30T13:40:08Z</time>
      </trkpt>
      <trkpt lat="46.53108" lon="4.51798">
        <ele>274.59698486328</ele>
        <time>2020-09-30T13:40:15Z</time>
      </trkpt>
      <trkpt lat="46.53113" lon="4.51805">
        <ele>273.59698486328</ele>
        <time>2020-09-30T13:40:21Z</time>
      </trkpt>
      <trkpt lat="46.53116" lon="4.51814">
        <ele>275.59698486328</ele>
        <time>2020-09-30T13:40:26Z</time>
      </trkpt>
      <trkpt lat="46.53116" lon="4.51824">
        <ele>276.59698486328</ele>
        <time>2020-09-30T13:40:31Z</time>
      </trkpt>
      <trkpt lat="46.53115" lon="4.51834">
        <ele>276.59698486328</ele>
        <time>2020-09-30T13:40:37Z</time>
      </trkpt>
      <trkpt lat="46.53115" lon="4.51847">
        <ele>277.59698486328</ele>
        <time>2020-09-30T13:40:42Z</time>
      </trkpt>
      <trkpt lat="46.53117" lon="4.51857">
        <ele>277.59698486328</ele>
        <time>2020-09-30T13:40:47Z</time>
      </trkpt>
      <trkpt lat="46.53117" lon="4.51868">
        <ele>273.59698486328</ele>
        <time>2020-09-30T13:40:53Z</time>
      </trkpt>
      <trkpt lat="46.5312" lon="4.51877">
        <ele>273.59698486328</ele>
        <time>2020-09-30T13:40:58Z</time>
      </trkpt>
      <trkpt lat="46.53122" lon="4.51887">
        <ele>272.59698486328</ele>
        <time>2020-09-30T13:41:03Z</time>
      </trkpt>
      <trkpt lat="46.53121" lon="4.51898">
        <ele>267.59698486328</ele>
        <time>2020-09-30T13:41:08Z</time>
      </trkpt>
      <trkpt lat="46.53122" lon="4.51908">
        <ele>268.59698486328</ele>
        <time>2020-09-30T13:41:13Z</time>
      </trkpt>
      <trkpt lat="46.53126" lon="4.51918">
        <ele>270.59799194336</ele>
        <time>2020-09-30T13:41:19Z</time>
      </trkpt>
      <trkpt lat="46.53125" lon="4.51933">
        <ele>272.59799194336</ele>
        <time>2020-09-30T13:41:24Z</time>
      </trkpt>
      <trkpt lat="46.53127" lon="4.51942">
        <ele>271.59799194336</ele>
        <time>2020-09-30T13:41:30Z</time>
      </trkpt>
      <trkpt lat="46.53128" lon="4.51954">
        <ele>272.59799194336</ele>
        <time>2020-09-30T13:41:35Z</time>
      </trkpt>
      <trkpt lat="46.53128" lon="4.51965">
        <ele>272.59799194336</ele>
        <time>2020-09-30T13:41:41Z</time>
      </trkpt>
      <trkpt lat="46.53129" lon="4.51976">
        <ele>272.59799194336</ele>
        <time>2020-09-30T13:41:47Z</time>
      </trkpt>
      <trkpt lat="46.53131" lon="4.51988">
        <ele>273.59799194336</ele>
        <time>2020-09-30T13:41:52Z</time>
      </trkpt>
      <trkpt lat="46.53133" lon="4.51998">
        <ele>271.59799194336</ele>
        <time>2020-09-30T13:41:58Z</time>
      </trkpt>
      <trkpt lat="46.53134" lon="4.52009">
        <ele>271.59799194336</ele>
        <time>2020-09-30T13:42:04Z</time>
      </trkpt>
      <trkpt lat="46.53135" lon="4.5202">
        <ele>270.59799194336</ele>
        <time>2020-09-30T13:42:09Z</time>
      </trkpt>
      <trkpt lat="46.53138" lon="4.52029">
        <ele>269.59799194336</ele>
        <time>2020-09-30T13:42:15Z</time>
      </trkpt>
      <trkpt lat="46.53139" lon="4.52041">
        <ele>267.59799194336</ele>
        <time>2020-09-30T13:42:20Z</time>
      </trkpt>
      <trkpt lat="46.53139" lon="4.52051">
        <ele>266.59799194336</ele>
        <time>2020-09-30T13:42:27Z</time>
      </trkpt>
      <trkpt lat="46.53141" lon="4.52062">
        <ele>265.59799194336</ele>
        <time>2020-09-30T13:42:32Z</time>
      </trkpt>
      <trkpt lat="46.53141" lon="4.52073">
        <ele>266.59799194336</ele>
        <time>2020-09-30T13:42:37Z</time>
      </trkpt>
      <trkpt lat="46.53142" lon="4.52086">
        <ele>267.59799194336</ele>
        <time>2020-09-30T13:42:42Z</time>
      </trkpt>
      <trkpt lat="46.53145" lon="4.52096">
        <ele>268.59799194336</ele>
        <time>2020-09-30T13:42:49Z</time>
      </trkpt>
      <trkpt lat="46.53144" lon="4.52106">
        <ele>266.59799194336</ele>
        <time>2020-09-30T13:42:54Z</time>
      </trkpt>
      <trkpt lat="46.53145" lon="4.52118">
        <ele>266.59799194336</ele>
        <time>2020-09-30T13:42:59Z</time>
      </trkpt>
      <trkpt lat="46.53144" lon="4.52129">
        <ele>267.59799194336</ele>
        <time>2020-09-30T13:43:05Z</time>
      </trkpt>
      <trkpt lat="46.53145" lon="4.52138">
        <ele>268.59799194336</ele>
        <time>2020-09-30T13:43:11Z</time>
      </trkpt>
      <trkpt lat="46.53146" lon="4.5215">
        <ele>266.59799194336</ele>
        <time>2020-09-30T13:43:16Z</time>
      </trkpt>
      <trkpt lat="46.53149" lon="4.52161">
        <ele>267.59799194336</ele>
        <time>2020-09-30T13:43:21Z</time>
      </trkpt>
      <trkpt lat="46.53149" lon="4.52171">
        <ele>265.59799194336</ele>
        <time>2020-09-30T13:43:27Z</time>
      </trkpt>
      <trkpt lat="46.53153" lon="4.5218">
        <ele>264.59799194336</ele>
        <time>2020-09-30T13:43:33Z</time>
      </trkpt>
      <trkpt lat="46.53158" lon="4.52186">
        <ele>263.59799194336</ele>
        <time>2020-09-30T13:43:39Z</time>
      </trkpt>
      <trkpt lat="46.53162" lon="4.52194">
        <ele>262.59799194336</ele>
        <time>2020-09-30T13:43:44Z</time>
      </trkpt>
      <trkpt lat="46.53167" lon="4.52204">
        <ele>262.59799194336</ele>
        <time>2020-09-30T13:43:49Z</time>
      </trkpt>
      <trkpt lat="46.53175" lon="4.52209">
        <ele>266.59799194336</ele>
        <time>2020-09-30T13:43:54Z</time>
      </trkpt>
      <trkpt lat="46.5318" lon="4.52215">
        <ele>269.59799194336</ele>
        <time>2020-09-30T13:44:00Z</time>
      </trkpt>
      <trkpt lat="46.53187" lon="4.52222">
        <ele>267.59799194336</ele>
        <time>2020-09-30T13:44:07Z</time>
      </trkpt>
      <trkpt lat="46.53192" lon="4.5223">
        <ele>265.59799194336</ele>
        <time>2020-09-30T13:44:14Z</time>
      </trkpt>
      <trkpt lat="46.53198" lon="4.52234">
        <ele>265.59799194336</ele>
        <time>2020-09-30T13:44:19Z</time>
      </trkpt>
      <trkpt lat="46.53207" lon="4.5224">
        <ele>267.59799194336</ele>
        <time>2020-09-30T13:44:24Z</time>
      </trkpt>
      <trkpt lat="46.53211" lon="4.52249">
        <ele>265.59799194336</ele>
        <time>2020-09-30T13:44:29Z</time>
      </trkpt>
      <trkpt lat="46.53218" lon="4.52249">
        <ele>265.59799194336</ele>
        <time>2020-09-30T13:44:34Z</time>
      </trkpt>
      <trkpt lat="46.53225" lon="4.52255">
        <ele>264.59799194336</ele>
        <time>2020-09-30T13:44:41Z</time>
      </trkpt>
      <trkpt lat="46.53231" lon="4.52261">
        <ele>264.59799194336</ele>
        <time>2020-09-30T13:44:46Z</time>
      </trkpt>
      <trkpt lat="46.53235" lon="4.52271">
        <ele>265.59799194336</ele>
        <time>2020-09-30T13:44:52Z</time>
      </trkpt>
      <trkpt lat="46.5324" lon="4.52278">
        <ele>265.59799194336</ele>
        <time>2020-09-30T13:44:59Z</time>
      </trkpt>
      <trkpt lat="46.53246" lon="4.52285">
        <ele>264.59799194336</ele>
        <time>2020-09-30T13:45:04Z</time>
      </trkpt>
      <trkpt lat="46.53255" lon="4.52292">
        <ele>266.59799194336</ele>
        <time>2020-09-30T13:45:09Z</time>
      </trkpt>
      <trkpt lat="46.53262" lon="4.52296">
        <ele>267.59799194336</ele>
        <time>2020-09-30T13:45:16Z</time>
      </trkpt>
      <trkpt lat="46.53267" lon="4.52304">
        <ele>264.59799194336</ele>
        <time>2020-09-30T13:45:22Z</time>
      </trkpt>
      <trkpt lat="46.53273" lon="4.52306">
        <ele>262.59799194336</ele>
        <time>2020-09-30T13:45:27Z</time>
      </trkpt>
      <trkpt lat="46.53281" lon="4.52313">
        <ele>263.59799194336</ele>
        <time>2020-09-30T13:45:32Z</time>
      </trkpt>
      <trkpt lat="46.53285" lon="4.5232">
        <ele>260.59799194336</ele>
        <time>2020-09-30T13:45:38Z</time>
      </trkpt>
      <trkpt lat="46.53294" lon="4.52325">
        <ele>262.59799194336</ele>
        <time>2020-09-30T13:45:43Z</time>
      </trkpt>
      <trkpt lat="46.53303" lon="4.52331">
        <ele>263.59799194336</ele>
        <time>2020-09-30T13:45:48Z</time>
      </trkpt>
      <trkpt lat="46.53306" lon="4.52342">
        <ele>264.59799194336</ele>
        <time>2020-09-30T13:45:53Z</time>
      </trkpt>
      <trkpt lat="46.53307" lon="4.52352">
        <ele>264.59799194336</ele>
        <time>2020-09-30T13:46:00Z</time>
      </trkpt>
      <trkpt lat="46.53304" lon="4.52365">
        <ele>263.59799194336</ele>
        <time>2020-09-30T13:46:05Z</time>
      </trkpt>
      <trkpt lat="46.53301" lon="4.52377">
        <ele>264.59799194336</ele>
        <time>2020-09-30T13:46:14Z</time>
      </trkpt>
      <trkpt lat="46.53301" lon="4.5239">
        <ele>265.59799194336</ele>
        <time>2020-09-30T13:46:19Z</time>
      </trkpt>
      <trkpt lat="46.533" lon="4.52403">
        <ele>265.59799194336</ele>
        <time>2020-09-30T13:46:26Z</time>
      </trkpt>
      <trkpt lat="46.53296" lon="4.52415">
        <ele>268.59799194336</ele>
        <time>2020-09-30T13:46:31Z</time>
      </trkpt>
      <trkpt lat="46.53295" lon="4.52426">
        <ele>265.59799194336</ele>
        <time>2020-09-30T13:46:40Z</time>
      </trkpt>
      <trkpt lat="46.53293" lon="4.52436">
        <ele>265.59799194336</ele>
        <time>2020-09-30T13:46:46Z</time>
      </trkpt>
      <trkpt lat="46.53293" lon="4.52446">
        <ele>264.59799194336</ele>
        <time>2020-09-30T13:46:52Z</time>
      </trkpt>
      <trkpt lat="46.53291" lon="4.52455">
        <ele>266.59799194336</ele>
        <time>2020-09-30T13:46:57Z</time>
      </trkpt>
      <trkpt lat="46.53289" lon="4.52465">
        <ele>265.59799194336</ele>
        <time>2020-09-30T13:47:03Z</time>
      </trkpt>
      <trkpt lat="46.53291" lon="4.52477">
        <ele>264.59799194336</ele>
        <time>2020-09-30T13:47:08Z</time>
      </trkpt>
      <trkpt lat="46.53285" lon="4.52482">
        <ele>264.59799194336</ele>
        <time>2020-09-30T13:47:13Z</time>
      </trkpt>
      <trkpt lat="46.53282" lon="4.52491">
        <ele>264.59799194336</ele>
        <time>2020-09-30T13:47:20Z</time>
      </trkpt>
      <trkpt lat="46.53274" lon="4.52497">
        <ele>266.59799194336</ele>
        <time>2020-09-30T13:47:25Z</time>
      </trkpt>
      <trkpt lat="46.53268" lon="4.52504">
        <ele>266.59799194336</ele>
        <time>2020-09-30T13:47:30Z</time>
      </trkpt>
      <trkpt lat="46.53261" lon="4.52504">
        <ele>265.59799194336</ele>
        <time>2020-09-30T13:47:35Z</time>
      </trkpt>
      <trkpt lat="46.53251" lon="4.5251">
        <ele>265.59799194336</ele>
        <time>2020-09-30T13:47:40Z</time>
      </trkpt>
      <trkpt lat="46.53244" lon="4.52515">
        <ele>263.59799194336</ele>
        <time>2020-09-30T13:47:49Z</time>
      </trkpt>
      <trkpt lat="46.53234" lon="4.52521">
        <ele>265.59799194336</ele>
        <time>2020-09-30T13:47:54Z</time>
      </trkpt>
      <trkpt lat="46.53228" lon="4.52525">
        <ele>262.59799194336</ele>
        <time>2020-09-30T13:48:01Z</time>
      </trkpt>
      <trkpt lat="46.53224" lon="4.52536">
        <ele>260.59799194336</ele>
        <time>2020-09-30T13:48:06Z</time>
      </trkpt>
      <trkpt lat="46.53223" lon="4.52547">
        <ele>260.59799194336</ele>
        <time>2020-09-30T13:48:11Z</time>
      </trkpt>
      <trkpt lat="46.53225" lon="4.52557">
        <ele>260.59799194336</ele>
        <time>2020-09-30T13:48:16Z</time>
      </trkpt>
      <trkpt lat="46.53224" lon="4.52569">
        <ele>264.59799194336</ele>
        <time>2020-09-30T13:48:21Z</time>
      </trkpt>
      <trkpt lat="46.53229" lon="4.52577">
        <ele>262.59799194336</ele>
        <time>2020-09-30T13:48:28Z</time>
      </trkpt>
      <trkpt lat="46.53229" lon="4.52588">
        <ele>265.59799194336</ele>
        <time>2020-09-30T13:48:33Z</time>
      </trkpt>
      <trkpt lat="46.53232" lon="4.52597">
        <ele>264.59799194336</ele>
        <time>2020-09-30T13:48:40Z</time>
      </trkpt>
      <trkpt lat="46.53235" lon="4.52609">
        <ele>261.59799194336</ele>
        <time>2020-09-30T13:48:45Z</time>
      </trkpt>
      <trkpt lat="46.53236" lon="4.52619">
        <ele>258.59799194336</ele>
        <time>2020-09-30T13:48:51Z</time>
      </trkpt>
      <trkpt lat="46.53238" lon="4.52629">
        <ele>254.59800720215</ele>
        <time>2020-09-30T13:48:56Z</time>
      </trkpt>
      <trkpt lat="46.53237" lon="4.52645">
        <ele>256.59799194336</ele>
        <time>2020-09-30T13:49:01Z</time>
      </trkpt>
      <trkpt lat="46.53236" lon="4.52655">
        <ele>258.59799194336</ele>
        <time>2020-09-30T13:49:06Z</time>
      </trkpt>
      <trkpt lat="46.53236" lon="4.52664">
        <ele>259.59799194336</ele>
        <time>2020-09-30T13:49:11Z</time>
      </trkpt>
      <trkpt lat="46.53236" lon="4.52675">
        <ele>257.59799194336</ele>
        <time>2020-09-30T13:49:16Z</time>
      </trkpt>
      <trkpt lat="46.53236" lon="4.52686">
        <ele>256.59799194336</ele>
        <time>2020-09-30T13:49:22Z</time>
      </trkpt>
      <trkpt lat="46.53236" lon="4.52696">
        <ele>257.59799194336</ele>
        <time>2020-09-30T13:49:27Z</time>
      </trkpt>
      <trkpt lat="46.53234" lon="4.52707">
        <ele>256.59799194336</ele>
        <time>2020-09-30T13:49:32Z</time>
      </trkpt>
      <trkpt lat="46.53232" lon="4.52716">
        <ele>256.59799194336</ele>
        <time>2020-09-30T13:49:37Z</time>
      </trkpt>
      <trkpt lat="46.53228" lon="4.52726">
        <ele>256.59799194336</ele>
        <time>2020-09-30T13:49:42Z</time>
      </trkpt>
      <trkpt lat="46.53224" lon="4.52734">
        <ele>256.59799194336</ele>
        <time>2020-09-30T13:49:47Z</time>
      </trkpt>
      <trkpt lat="46.53223" lon="4.52744">
        <ele>257.59799194336</ele>
        <time>2020-09-30T13:49:52Z</time>
      </trkpt>
      <trkpt lat="46.53229" lon="4.5275">
        <ele>252.59800720215</ele>
        <time>2020-09-30T13:49:59Z</time>
      </trkpt>
      <trkpt lat="46.53236" lon="4.52754">
        <ele>254.59800720215</ele>
        <time>2020-09-30T13:50:04Z</time>
      </trkpt>
      <trkpt lat="46.53242" lon="4.52761">
        <ele>257.59799194336</ele>
        <time>2020-09-30T13:50:13Z</time>
      </trkpt>
      <trkpt lat="46.53249" lon="4.52766">
        <ele>255.59800720215</ele>
        <time>2020-09-30T13:50:18Z</time>
      </trkpt>
      <trkpt lat="46.53255" lon="4.5277">
        <ele>255.59800720215</ele>
        <time>2020-09-30T13:50:23Z</time>
      </trkpt>
      <trkpt lat="46.53263" lon="4.52773">
        <ele>255.59899902344</ele>
        <time>2020-09-30T13:50:28Z</time>
      </trkpt>
      <trkpt lat="46.5327" lon="4.52779">
        <ele>254.59899902344</ele>
        <time>2020-09-30T13:50:33Z</time>
      </trkpt>
      <trkpt lat="46.53277" lon="4.52784">
        <ele>252.59899902344</ele>
        <time>2020-09-30T13:50:39Z</time>
      </trkpt>
      <trkpt lat="46.53283" lon="4.52792">
        <ele>251.59899902344</ele>
        <time>2020-09-30T13:50:44Z</time>
      </trkpt>
      <trkpt lat="46.53289" lon="4.52796">
        <ele>252.59899902344</ele>
        <time>2020-09-30T13:50:52Z</time>
      </trkpt>
      <trkpt lat="46.53296" lon="4.52801">
        <ele>252.59899902344</ele>
        <time>2020-09-30T13:50:58Z</time>
      </trkpt>
      <trkpt lat="46.53304" lon="4.52805">
        <ele>253.59899902344</ele>
        <time>2020-09-30T13:51:04Z</time>
      </trkpt>
      <trkpt lat="46.53309" lon="4.52812">
        <ele>252.59899902344</ele>
        <time>2020-09-30T13:51:09Z</time>
      </trkpt>
      <trkpt lat="46.53316" lon="4.52817">
        <ele>254.59899902344</ele>
        <time>2020-09-30T13:51:15Z</time>
      </trkpt>
      <trkpt lat="46.53321" lon="4.52824">
        <ele>255.59899902344</ele>
        <time>2020-09-30T13:51:20Z</time>
      </trkpt>
      <trkpt lat="46.53326" lon="4.52831">
        <ele>256.59899902344</ele>
        <time>2020-09-30T13:51:25Z</time>
      </trkpt>
      <trkpt lat="46.5333" lon="4.52839">
        <ele>257.59899902344</ele>
        <time>2020-09-30T13:51:30Z</time>
      </trkpt>
      <trkpt lat="46.53335" lon="4.52846">
        <ele>257.59899902344</ele>
        <time>2020-09-30T13:51:36Z</time>
      </trkpt>
      <trkpt lat="46.5334" lon="4.52855">
        <ele>257.59899902344</ele>
        <time>2020-09-30T13:51:42Z</time>
      </trkpt>
      <trkpt lat="46.53343" lon="4.52864">
        <ele>256.59899902344</ele>
        <time>2020-09-30T13:51:47Z</time>
      </trkpt>
      <trkpt lat="46.53346" lon="4.52873">
        <ele>255.59899902344</ele>
        <time>2020-09-30T13:51:52Z</time>
      </trkpt>
      <trkpt lat="46.53352" lon="4.52882">
        <ele>254.59899902344</ele>
        <time>2020-09-30T13:51:58Z</time>
      </trkpt>
      <trkpt lat="46.53356" lon="4.52894">
        <ele>256.59899902344</ele>
        <time>2020-09-30T13:52:03Z</time>
      </trkpt>
      <trkpt lat="46.53358" lon="4.52902">
        <ele>258.59899902344</ele>
        <time>2020-09-30T13:52:09Z</time>
      </trkpt>
      <trkpt lat="46.53362" lon="4.52911">
        <ele>256.59899902344</ele>
        <time>2020-09-30T13:52:15Z</time>
      </trkpt>
      <trkpt lat="46.53365" lon="4.5292">
        <ele>254.59899902344</ele>
        <time>2020-09-30T13:52:22Z</time>
      </trkpt>
      <trkpt lat="46.53368" lon="4.52928">
        <ele>254.59899902344</ele>
        <time>2020-09-30T13:52:28Z</time>
      </trkpt>
      <trkpt lat="46.53373" lon="4.52936">
        <ele>253.59899902344</ele>
        <time>2020-09-30T13:52:34Z</time>
      </trkpt>
      <trkpt lat="46.53376" lon="4.52948">
        <ele>252.59899902344</ele>
        <time>2020-09-30T13:52:39Z</time>
      </trkpt>
      <trkpt lat="46.53379" lon="4.52956">
        <ele>252.59899902344</ele>
        <time>2020-09-30T13:52:45Z</time>
      </trkpt>
      <trkpt lat="46.53383" lon="4.52965">
        <ele>251.59899902344</ele>
        <time>2020-09-30T13:52:50Z</time>
      </trkpt>
      <trkpt lat="46.53386" lon="4.52974">
        <ele>253.59899902344</ele>
        <time>2020-09-30T13:52:55Z</time>
      </trkpt>
      <trkpt lat="46.5339" lon="4.52982">
        <ele>253.59899902344</ele>
        <time>2020-09-30T13:53:00Z</time>
      </trkpt>
      <trkpt lat="46.5339" lon="4.52995">
        <ele>253.59899902344</ele>
        <time>2020-09-30T13:53:05Z</time>
      </trkpt>
      <trkpt lat="46.53393" lon="4.53004">
        <ele>252.59899902344</ele>
        <time>2020-09-30T13:53:10Z</time>
      </trkpt>
      <trkpt lat="46.53393" lon="4.53015">
        <ele>250.59899902344</ele>
        <time>2020-09-30T13:53:15Z</time>
      </trkpt>
      <trkpt lat="46.53395" lon="4.53025">
        <ele>252.59899902344</ele>
        <time>2020-09-30T13:53:20Z</time>
      </trkpt>
      <trkpt lat="46.534" lon="4.53033">
        <ele>251.59899902344</ele>
        <time>2020-09-30T13:53:26Z</time>
      </trkpt>
      <trkpt lat="46.53403" lon="4.53041">
        <ele>250.59899902344</ele>
        <time>2020-09-30T13:53:32Z</time>
      </trkpt>
      <trkpt lat="46.53404" lon="4.53051">
        <ele>249.59899902344</ele>
        <time>2020-09-30T13:53:38Z</time>
      </trkpt>
      <trkpt lat="46.53405" lon="4.53064">
        <ele>249.59899902344</ele>
        <time>2020-09-30T13:53:43Z</time>
      </trkpt>
      <trkpt lat="46.53406" lon="4.53076">
        <ele>252.59899902344</ele>
        <time>2020-09-30T13:53:48Z</time>
      </trkpt>
      <trkpt lat="46.53408" lon="4.53087">
        <ele>251.59899902344</ele>
        <time>2020-09-30T13:53:54Z</time>
      </trkpt>
      <trkpt lat="46.53409" lon="4.53098">
        <ele>252.59899902344</ele>
        <time>2020-09-30T13:53:59Z</time>
      </trkpt>
      <trkpt lat="46.53411" lon="4.53108">
        <ele>253.59899902344</ele>
        <time>2020-09-30T13:54:07Z</time>
      </trkpt>
      <trkpt lat="46.53412" lon="4.53118">
        <ele>253.59899902344</ele>
        <time>2020-09-30T13:54:12Z</time>
      </trkpt>
      <trkpt lat="46.53416" lon="4.53127">
        <ele>252.59899902344</ele>
        <time>2020-09-30T13:54:17Z</time>
      </trkpt>
      <trkpt lat="46.53419" lon="4.53135">
        <ele>251.59899902344</ele>
        <time>2020-09-30T13:54:22Z</time>
      </trkpt>
      <trkpt lat="46.53425" lon="4.53143">
        <ele>253.59899902344</ele>
        <time>2020-09-30T13:54:27Z</time>
      </trkpt>
      <trkpt lat="46.53431" lon="4.53149">
        <ele>252.59899902344</ele>
        <time>2020-09-30T13:54:33Z</time>
      </trkpt>
      <trkpt lat="46.53437" lon="4.53154">
        <ele>251.59899902344</ele>
        <time>2020-09-30T13:54:38Z</time>
      </trkpt>
      <trkpt lat="46.53444" lon="4.53156">
        <ele>247.59899902344</ele>
        <time>2020-09-30T13:54:43Z</time>
      </trkpt>
      <trkpt lat="46.53448" lon="4.53164">
        <ele>250.59899902344</ele>
        <time>2020-09-30T13:55:35Z</time>
      </trkpt>
      <trkpt lat="46.53455" lon="4.53169">
        <ele>250.59899902344</ele>
        <time>2020-09-30T13:55:40Z</time>
      </trkpt>
      <trkpt lat="46.53462" lon="4.53169">
        <ele>251.59899902344</ele>
        <time>2020-09-30T13:55:45Z</time>
      </trkpt>
      <trkpt lat="46.53468" lon="4.53173">
        <ele>251.59899902344</ele>
        <time>2020-09-30T13:55:50Z</time>
      </trkpt>
      <trkpt lat="46.53477" lon="4.53174">
        <ele>249.59899902344</ele>
        <time>2020-09-30T13:55:56Z</time>
      </trkpt>
      <trkpt lat="46.53485" lon="4.53176">
        <ele>249.59899902344</ele>
        <time>2020-09-30T13:56:01Z</time>
      </trkpt>
      <trkpt lat="46.53491" lon="4.53182">
        <ele>248.59899902344</ele>
        <time>2020-09-30T13:56:06Z</time>
      </trkpt>
      <trkpt lat="46.53499" lon="4.53181">
        <ele>246.59899902344</ele>
        <time>2020-09-30T13:56:11Z</time>
      </trkpt>
      <trkpt lat="46.53504" lon="4.53188">
        <ele>247.59899902344</ele>
        <time>2020-09-30T13:56:16Z</time>
      </trkpt>
      <trkpt lat="46.53512" lon="4.53194">
        <ele>247.60000610352</ele>
        <time>2020-09-30T13:56:21Z</time>
      </trkpt>
      <trkpt lat="46.5352" lon="4.53197">
        <ele>245.60000610352</ele>
        <time>2020-09-30T13:56:27Z</time>
      </trkpt>
      <trkpt lat="46.53526" lon="4.53201">
        <ele>244.60000610352</ele>
        <time>2020-09-30T13:56:33Z</time>
      </trkpt>
      <trkpt lat="46.53532" lon="4.53209">
        <ele>245.60000610352</ele>
        <time>2020-09-30T13:56:38Z</time>
      </trkpt>
      <trkpt lat="46.5354" lon="4.53216">
        <ele>244.60000610352</ele>
        <time>2020-09-30T13:56:43Z</time>
      </trkpt>
      <trkpt lat="46.53546" lon="4.53223">
        <ele>244.60000610352</ele>
        <time>2020-09-30T13:56:48Z</time>
      </trkpt>
      <trkpt lat="46.53553" lon="4.53228">
        <ele>244.60000610352</ele>
        <time>2020-09-30T13:56:53Z</time>
      </trkpt>
      <trkpt lat="46.5356" lon="4.53235">
        <ele>244.60000610352</ele>
        <time>2020-09-30T13:56:58Z</time>
      </trkpt>
      <trkpt lat="46.53567" lon="4.53241">
        <ele>245.60000610352</ele>
        <time>2020-09-30T13:57:03Z</time>
      </trkpt>
      <trkpt lat="46.53574" lon="4.53246">
        <ele>245.60000610352</ele>
        <time>2020-09-30T13:57:08Z</time>
      </trkpt>
      <trkpt lat="46.53581" lon="4.53253">
        <ele>244.60000610352</ele>
        <time>2020-09-30T13:57:13Z</time>
      </trkpt>
      <trkpt lat="46.53587" lon="4.53257">
        <ele>245.60000610352</ele>
        <time>2020-09-30T13:57:18Z</time>
      </trkpt>
      <trkpt lat="46.53595" lon="4.53259">
        <ele>244.60000610352</ele>
        <time>2020-09-30T13:57:23Z</time>
      </trkpt>
      <trkpt lat="46.53602" lon="4.53265">
        <ele>244.60000610352</ele>
        <time>2020-09-30T13:57:30Z</time>
      </trkpt>
      <trkpt lat="46.53608" lon="4.5327">
        <ele>241.60000610352</ele>
        <time>2020-09-30T13:57:37Z</time>
      </trkpt>
      <trkpt lat="46.53614" lon="4.53276">
        <ele>243.60000610352</ele>
        <time>2020-09-30T13:57:42Z</time>
      </trkpt>
      <trkpt lat="46.5362" lon="4.53282">
        <ele>241.60000610352</ele>
        <time>2020-09-30T13:57:47Z</time>
      </trkpt>
      <trkpt lat="46.53626" lon="4.53286">
        <ele>236.60000610352</ele>
        <time>2020-09-30T13:57:53Z</time>
      </trkpt>
      <trkpt lat="46.53635" lon="4.53291">
        <ele>238.60000610352</ele>
        <time>2020-09-30T13:57:58Z</time>
      </trkpt>
      <trkpt lat="46.53641" lon="4.53296">
        <ele>241.60000610352</ele>
        <time>2020-09-30T13:58:03Z</time>
      </trkpt>
      <trkpt lat="46.53648" lon="4.53301">
        <ele>241.60000610352</ele>
        <time>2020-09-30T13:58:08Z</time>
      </trkpt>
      <trkpt lat="46.53657" lon="4.53303">
        <ele>238.60000610352</ele>
        <time>2020-09-30T13:58:13Z</time>
      </trkpt>
      <trkpt lat="46.53663" lon="4.53311">
        <ele>239.60000610352</ele>
        <time>2020-09-30T13:58:18Z</time>
      </trkpt>
      <trkpt lat="46.53669" lon="4.5332">
        <ele>237.60000610352</ele>
        <time>2020-09-30T13:58:23Z</time>
      </trkpt>
      <trkpt lat="46.53676" lon="4.53323">
        <ele>237.60000610352</ele>
        <time>2020-09-30T13:58:28Z</time>
      </trkpt>
      <trkpt lat="46.53683" lon="4.53324">
        <ele>238.60000610352</ele>
        <time>2020-09-30T13:58:34Z</time>
      </trkpt>
      <trkpt lat="46.5369" lon="4.53326">
        <ele>238.60000610352</ele>
        <time>2020-09-30T13:58:39Z</time>
      </trkpt>
      <trkpt lat="46.53697" lon="4.53328">
        <ele>238.60000610352</ele>
        <time>2020-09-30T13:58:44Z</time>
      </trkpt>
      <trkpt lat="46.53707" lon="4.53325">
        <ele>237.60000610352</ele>
        <time>2020-09-30T13:58:49Z</time>
      </trkpt>
      <trkpt lat="46.53714" lon="4.53324">
        <ele>237.60000610352</ele>
        <time>2020-09-30T13:58:56Z</time>
      </trkpt>
      <trkpt lat="46.53722" lon="4.53323">
        <ele>237.60000610352</ele>
        <time>2020-09-30T13:59:03Z</time>
      </trkpt>
      <trkpt lat="46.53728" lon="4.53323">
        <ele>237.60000610352</ele>
        <time>2020-09-30T13:59:08Z</time>
      </trkpt>
      <trkpt lat="46.53736" lon="4.53322">
        <ele>237.60000610352</ele>
        <time>2020-09-30T13:59:13Z</time>
      </trkpt>
      <trkpt lat="46.53744" lon="4.53323">
        <ele>236.60000610352</ele>
        <time>2020-09-30T13:59:19Z</time>
      </trkpt>
      <trkpt lat="46.53752" lon="4.53324">
        <ele>237.60000610352</ele>
        <time>2020-09-30T13:59:24Z</time>
      </trkpt>
      <trkpt lat="46.53758" lon="4.53327">
        <ele>239.60000610352</ele>
        <time>2020-09-30T13:59:29Z</time>
      </trkpt>
      <trkpt lat="46.53763" lon="4.53333">
        <ele>238.60000610352</ele>
        <time>2020-09-30T13:59:46Z</time>
      </trkpt>
      <trkpt lat="46.5377" lon="4.53335">
        <ele>237.60000610352</ele>
        <time>2020-09-30T13:59:52Z</time>
      </trkpt>
      <trkpt lat="46.53775" lon="4.53341">
        <ele>240.60000610352</ele>
        <time>2020-09-30T14:00:15Z</time>
      </trkpt>
      <trkpt lat="46.53778" lon="4.5335">
        <ele>238.60000610352</ele>
        <time>2020-09-30T14:00:21Z</time>
      </trkpt>
      <trkpt lat="46.53779" lon="4.53361">
        <ele>236.60000610352</ele>
        <time>2020-09-30T14:00:30Z</time>
      </trkpt>
      <trkpt lat="46.53787" lon="4.53375">
        <ele>241.60000610352</ele>
        <time>2020-09-30T14:01:11Z</time>
      </trkpt>
      <trkpt lat="46.53782" lon="4.53367">
        <ele>237.60000610352</ele>
        <time>2020-09-30T14:01:16Z</time>
      </trkpt>
      <trkpt lat="46.53782" lon="4.53367">
        <ele>237.60000610352</ele>
        <time>2020-09-30T14:01:35Z</time>
      </trkpt>
      <trkpt lat="46.53782" lon="4.53367">
        <ele>237.60000610352</ele>
        <time>2020-09-30T14:01:37Z</time>
      </trkpt>
      <trkpt lat="46.53782" lon="4.53367">
        <ele>237.60000610352</ele>
        <time>2020-09-30T14:01:39Z</time>
      </trkpt>
    </trkseg>
  </trk>
</gpx>